<?xml version="1.0" encoding="UTF-8" standalone="no" ?>
<gpx xmlns="http://www.topografix.com/GPX/1/1" xmlns:xsi="http://www.w3.org/2001/XMLSchema-instance" xsi:schemaLocation="http://www.topografix.com/GPX/1/1 http://www.topografix.com/GPX/1/1/gpx.xsd" version="1.1" creator="VisuGPX - https://www.visugpx.com">
  <metadata>
    <name>Margeriaz par les cretes </name>
    <desc><![CDATA[Sortie facile au Margeriaz en suivant le chemin de raquette \"par les crêtes\". Joli point de vue au sommet et a la montée ]]></desc>
  </metadata>
  <trk>
    <name><![CDATA[Margeriaz par les cretes _1]]></name>
    <trkseg>
      <trkpt lat="45.64251" lon="6.06382">
        <ele>1374</ele>
        <time>2012-12-09T09:23:22Z</time>
      </trkpt>
      <trkpt lat="45.64225" lon="6.06368">
        <ele>1373</ele>
        <time>2012-12-09T09:23:51Z</time>
      </trkpt>
      <trkpt lat="45.64222" lon="6.0637">
        <ele>1373</ele>
        <time>2012-12-09T09:23:54Z</time>
      </trkpt>
      <trkpt lat="45.6422" lon="6.06371">
        <ele>1373</ele>
        <time>2012-12-09T09:23:56Z</time>
      </trkpt>
      <trkpt lat="45.64217" lon="6.06371">
        <ele>1373</ele>
        <time>2012-12-09T09:23:59Z</time>
      </trkpt>
      <trkpt lat="45.64215" lon="6.06372">
        <ele>1373</ele>
        <time>2012-12-09T09:24:01Z</time>
      </trkpt>
      <trkpt lat="45.64213" lon="6.06372">
        <ele>1373</ele>
        <time>2012-12-09T09:24:03Z</time>
      </trkpt>
      <trkpt lat="45.64211" lon="6.06373">
        <ele>1373</ele>
        <time>2012-12-09T09:24:05Z</time>
      </trkpt>
      <trkpt lat="45.64209" lon="6.06374">
        <ele>1373</ele>
        <time>2012-12-09T09:24:07Z</time>
      </trkpt>
      <trkpt lat="45.64207" lon="6.06374">
        <ele>1373</ele>
        <time>2012-12-09T09:24:09Z</time>
      </trkpt>
      <trkpt lat="45.64205" lon="6.06375">
        <ele>1373</ele>
        <time>2012-12-09T09:24:11Z</time>
      </trkpt>
      <trkpt lat="45.64203" lon="6.06376">
        <ele>1373</ele>
        <time>2012-12-09T09:24:13Z</time>
      </trkpt>
      <trkpt lat="45.64201" lon="6.06377">
        <ele>1373</ele>
        <time>2012-12-09T09:24:15Z</time>
      </trkpt>
      <trkpt lat="45.64199" lon="6.06378">
        <ele>1373</ele>
        <time>2012-12-09T09:24:17Z</time>
      </trkpt>
      <trkpt lat="45.64197" lon="6.06379">
        <ele>1373</ele>
        <time>2012-12-09T09:24:19Z</time>
      </trkpt>
      <trkpt lat="45.64195" lon="6.0638">
        <ele>1373</ele>
        <time>2012-12-09T09:24:21Z</time>
      </trkpt>
      <trkpt lat="45.64193" lon="6.0638">
        <ele>1373</ele>
        <time>2012-12-09T09:24:23Z</time>
      </trkpt>
      <trkpt lat="45.64192" lon="6.06382">
        <ele>1373</ele>
        <time>2012-12-09T09:24:25Z</time>
      </trkpt>
      <trkpt lat="45.6419" lon="6.06383">
        <ele>1373</ele>
        <time>2012-12-09T09:24:27Z</time>
      </trkpt>
      <trkpt lat="45.64187" lon="6.06385">
        <ele>1373</ele>
        <time>2012-12-09T09:24:30Z</time>
      </trkpt>
      <trkpt lat="45.64185" lon="6.06386">
        <ele>1373</ele>
        <time>2012-12-09T09:24:32Z</time>
      </trkpt>
      <trkpt lat="45.64183" lon="6.06387">
        <ele>1373</ele>
        <time>2012-12-09T09:24:34Z</time>
      </trkpt>
      <trkpt lat="45.64182" lon="6.06388">
        <ele>1373</ele>
        <time>2012-12-09T09:24:36Z</time>
      </trkpt>
      <trkpt lat="45.6418" lon="6.06389">
        <ele>1373</ele>
        <time>2012-12-09T09:24:38Z</time>
      </trkpt>
      <trkpt lat="45.64179" lon="6.06389">
        <ele>1373</ele>
        <time>2012-12-09T09:24:40Z</time>
      </trkpt>
      <trkpt lat="45.64178" lon="6.0639">
        <ele>1373</ele>
        <time>2012-12-09T09:24:42Z</time>
      </trkpt>
      <trkpt lat="45.64176" lon="6.0639">
        <ele>1374</ele>
        <time>2012-12-09T09:24:44Z</time>
      </trkpt>
      <trkpt lat="45.64174" lon="6.0639">
        <ele>1374</ele>
        <time>2012-12-09T09:24:46Z</time>
      </trkpt>
      <trkpt lat="45.64173" lon="6.0639">
        <ele>1375</ele>
        <time>2012-12-09T09:24:48Z</time>
      </trkpt>
      <trkpt lat="45.64171" lon="6.0639">
        <ele>1375</ele>
        <time>2012-12-09T09:24:50Z</time>
      </trkpt>
      <trkpt lat="45.64169" lon="6.06389">
        <ele>1375</ele>
        <time>2012-12-09T09:24:52Z</time>
      </trkpt>
      <trkpt lat="45.64167" lon="6.06389">
        <ele>1375</ele>
        <time>2012-12-09T09:24:54Z</time>
      </trkpt>
      <trkpt lat="45.64165" lon="6.06388">
        <ele>1375</ele>
        <time>2012-12-09T09:24:56Z</time>
      </trkpt>
      <trkpt lat="45.64164" lon="6.06387">
        <ele>1375</ele>
        <time>2012-12-09T09:24:58Z</time>
      </trkpt>
      <trkpt lat="45.64162" lon="6.06387">
        <ele>1375</ele>
        <time>2012-12-09T09:25:00Z</time>
      </trkpt>
      <trkpt lat="45.64159" lon="6.06385">
        <ele>1375</ele>
        <time>2012-12-09T09:25:03Z</time>
      </trkpt>
      <trkpt lat="45.64158" lon="6.06384">
        <ele>1375</ele>
        <time>2012-12-09T09:25:05Z</time>
      </trkpt>
      <trkpt lat="45.64156" lon="6.06383">
        <ele>1375</ele>
        <time>2012-12-09T09:25:07Z</time>
      </trkpt>
      <trkpt lat="45.64154" lon="6.06383">
        <ele>1375</ele>
        <time>2012-12-09T09:25:09Z</time>
      </trkpt>
      <trkpt lat="45.64153" lon="6.06382">
        <ele>1375</ele>
        <time>2012-12-09T09:25:11Z</time>
      </trkpt>
      <trkpt lat="45.64151" lon="6.06381">
        <ele>1375</ele>
        <time>2012-12-09T09:25:13Z</time>
      </trkpt>
      <trkpt lat="45.64147" lon="6.06379">
        <ele>1375</ele>
        <time>2012-12-09T09:25:17Z</time>
      </trkpt>
      <trkpt lat="45.64145" lon="6.06379">
        <ele>1375</ele>
        <time>2012-12-09T09:25:19Z</time>
      </trkpt>
      <trkpt lat="45.64143" lon="6.06378">
        <ele>1375</ele>
        <time>2012-12-09T09:25:21Z</time>
      </trkpt>
      <trkpt lat="45.64142" lon="6.06377">
        <ele>1376</ele>
        <time>2012-12-09T09:25:23Z</time>
      </trkpt>
      <trkpt lat="45.6414" lon="6.06376">
        <ele>1376</ele>
        <time>2012-12-09T09:25:25Z</time>
      </trkpt>
      <trkpt lat="45.64138" lon="6.06375">
        <ele>1376</ele>
        <time>2012-12-09T09:25:27Z</time>
      </trkpt>
      <trkpt lat="45.64136" lon="6.06374">
        <ele>1376</ele>
        <time>2012-12-09T09:25:29Z</time>
      </trkpt>
      <trkpt lat="45.64135" lon="6.06373">
        <ele>1376</ele>
        <time>2012-12-09T09:25:31Z</time>
      </trkpt>
      <trkpt lat="45.64133" lon="6.06372">
        <ele>1376</ele>
        <time>2012-12-09T09:25:33Z</time>
      </trkpt>
      <trkpt lat="45.64132" lon="6.06371">
        <ele>1376</ele>
        <time>2012-12-09T09:25:35Z</time>
      </trkpt>
      <trkpt lat="45.6413" lon="6.0637">
        <ele>1376</ele>
        <time>2012-12-09T09:25:37Z</time>
      </trkpt>
      <trkpt lat="45.64128" lon="6.06368">
        <ele>1376</ele>
        <time>2012-12-09T09:25:39Z</time>
      </trkpt>
      <trkpt lat="45.64127" lon="6.06367">
        <ele>1376</ele>
        <time>2012-12-09T09:25:41Z</time>
      </trkpt>
      <trkpt lat="45.64125" lon="6.06366">
        <ele>1376</ele>
        <time>2012-12-09T09:25:43Z</time>
      </trkpt>
      <trkpt lat="45.64124" lon="6.06365">
        <ele>1376</ele>
        <time>2012-12-09T09:25:45Z</time>
      </trkpt>
      <trkpt lat="45.64122" lon="6.06364">
        <ele>1376</ele>
        <time>2012-12-09T09:25:47Z</time>
      </trkpt>
      <trkpt lat="45.64119" lon="6.06362">
        <ele>1376</ele>
        <time>2012-12-09T09:25:50Z</time>
      </trkpt>
      <trkpt lat="45.64118" lon="6.06361">
        <ele>1376</ele>
        <time>2012-12-09T09:25:52Z</time>
      </trkpt>
      <trkpt lat="45.64116" lon="6.0636">
        <ele>1377</ele>
        <time>2012-12-09T09:25:54Z</time>
      </trkpt>
      <trkpt lat="45.64115" lon="6.06358">
        <ele>1377</ele>
        <time>2012-12-09T09:25:56Z</time>
      </trkpt>
      <trkpt lat="45.64113" lon="6.06358">
        <ele>1377</ele>
        <time>2012-12-09T09:25:58Z</time>
      </trkpt>
      <trkpt lat="45.64112" lon="6.06357">
        <ele>1377</ele>
        <time>2012-12-09T09:26:00Z</time>
      </trkpt>
      <trkpt lat="45.64111" lon="6.06356">
        <ele>1377</ele>
        <time>2012-12-09T09:26:02Z</time>
      </trkpt>
      <trkpt lat="45.64109" lon="6.06355">
        <ele>1377</ele>
        <time>2012-12-09T09:26:04Z</time>
      </trkpt>
      <trkpt lat="45.64108" lon="6.06354">
        <ele>1378</ele>
        <time>2012-12-09T09:26:06Z</time>
      </trkpt>
      <trkpt lat="45.64106" lon="6.06353">
        <ele>1378</ele>
        <time>2012-12-09T09:26:08Z</time>
      </trkpt>
      <trkpt lat="45.64105" lon="6.06352">
        <ele>1379</ele>
        <time>2012-12-09T09:26:10Z</time>
      </trkpt>
      <trkpt lat="45.64103" lon="6.06351">
        <ele>1379</ele>
        <time>2012-12-09T09:26:12Z</time>
      </trkpt>
      <trkpt lat="45.64102" lon="6.0635">
        <ele>1379</ele>
        <time>2012-12-09T09:26:14Z</time>
      </trkpt>
      <trkpt lat="45.64101" lon="6.06349">
        <ele>1379</ele>
        <time>2012-12-09T09:26:16Z</time>
      </trkpt>
      <trkpt lat="45.64099" lon="6.06348">
        <ele>1379</ele>
        <time>2012-12-09T09:26:18Z</time>
      </trkpt>
      <trkpt lat="45.64098" lon="6.06347">
        <ele>1379</ele>
        <time>2012-12-09T09:26:20Z</time>
      </trkpt>
      <trkpt lat="45.64096" lon="6.06346">
        <ele>1380</ele>
        <time>2012-12-09T09:26:22Z</time>
      </trkpt>
      <trkpt lat="45.64095" lon="6.06346">
        <ele>1380</ele>
        <time>2012-12-09T09:26:24Z</time>
      </trkpt>
      <trkpt lat="45.64093" lon="6.06346">
        <ele>1381</ele>
        <time>2012-12-09T09:26:26Z</time>
      </trkpt>
      <trkpt lat="45.64092" lon="6.06347">
        <ele>1381</ele>
        <time>2012-12-09T09:26:28Z</time>
      </trkpt>
      <trkpt lat="45.6409" lon="6.06348">
        <ele>1381</ele>
        <time>2012-12-09T09:26:30Z</time>
      </trkpt>
      <trkpt lat="45.64088" lon="6.0635">
        <ele>1381</ele>
        <time>2012-12-09T09:26:32Z</time>
      </trkpt>
      <trkpt lat="45.64087" lon="6.06351">
        <ele>1381</ele>
        <time>2012-12-09T09:26:34Z</time>
      </trkpt>
      <trkpt lat="45.64085" lon="6.06353">
        <ele>1382</ele>
        <time>2012-12-09T09:26:36Z</time>
      </trkpt>
      <trkpt lat="45.64082" lon="6.06354">
        <ele>1382</ele>
        <time>2012-12-09T09:26:38Z</time>
      </trkpt>
      <trkpt lat="45.6408" lon="6.06356">
        <ele>1382</ele>
        <time>2012-12-09T09:26:40Z</time>
      </trkpt>
      <trkpt lat="45.64077" lon="6.06358">
        <ele>1383</ele>
        <time>2012-12-09T09:26:43Z</time>
      </trkpt>
      <trkpt lat="45.64075" lon="6.06359">
        <ele>1383</ele>
        <time>2012-12-09T09:26:45Z</time>
      </trkpt>
      <trkpt lat="45.64072" lon="6.06361">
        <ele>1383</ele>
        <time>2012-12-09T09:26:48Z</time>
      </trkpt>
      <trkpt lat="45.6407" lon="6.06361">
        <ele>1383</ele>
        <time>2012-12-09T09:26:50Z</time>
      </trkpt>
      <trkpt lat="45.64068" lon="6.0636">
        <ele>1383</ele>
        <time>2012-12-09T09:26:52Z</time>
      </trkpt>
      <trkpt lat="45.64066" lon="6.0636">
        <ele>1383</ele>
        <time>2012-12-09T09:26:54Z</time>
      </trkpt>
      <trkpt lat="45.64065" lon="6.0636">
        <ele>1383</ele>
        <time>2012-12-09T09:26:56Z</time>
      </trkpt>
      <trkpt lat="45.64056" lon="6.06363">
        <ele>1386</ele>
        <time>2012-12-09T09:27:00Z</time>
      </trkpt>
      <trkpt lat="45.64055" lon="6.06362">
        <ele>1386</ele>
        <time>2012-12-09T09:27:02Z</time>
      </trkpt>
      <trkpt lat="45.64053" lon="6.06361">
        <ele>1386</ele>
        <time>2012-12-09T09:27:04Z</time>
      </trkpt>
      <trkpt lat="45.64052" lon="6.0636">
        <ele>1386</ele>
        <time>2012-12-09T09:27:09Z</time>
      </trkpt>
      <trkpt lat="45.64051" lon="6.06359">
        <ele>1386</ele>
        <time>2012-12-09T09:27:11Z</time>
      </trkpt>
      <trkpt lat="45.6405" lon="6.06358">
        <ele>1386</ele>
        <time>2012-12-09T09:27:13Z</time>
      </trkpt>
      <trkpt lat="45.64048" lon="6.06357">
        <ele>1386</ele>
        <time>2012-12-09T09:27:15Z</time>
      </trkpt>
      <trkpt lat="45.64046" lon="6.06356">
        <ele>1386</ele>
        <time>2012-12-09T09:27:17Z</time>
      </trkpt>
      <trkpt lat="45.64043" lon="6.06355">
        <ele>1386</ele>
        <time>2012-12-09T09:27:21Z</time>
      </trkpt>
      <trkpt lat="45.64042" lon="6.06354">
        <ele>1386</ele>
        <time>2012-12-09T09:27:23Z</time>
      </trkpt>
      <trkpt lat="45.6404" lon="6.06354">
        <ele>1386</ele>
        <time>2012-12-09T09:27:25Z</time>
      </trkpt>
      <trkpt lat="45.64037" lon="6.06353">
        <ele>1386</ele>
        <time>2012-12-09T09:27:27Z</time>
      </trkpt>
      <trkpt lat="45.64036" lon="6.06352">
        <ele>1386</ele>
        <time>2012-12-09T09:27:29Z</time>
      </trkpt>
      <trkpt lat="45.64034" lon="6.06351">
        <ele>1386</ele>
        <time>2012-12-09T09:27:31Z</time>
      </trkpt>
      <trkpt lat="45.64032" lon="6.0635">
        <ele>1386</ele>
        <time>2012-12-09T09:27:33Z</time>
      </trkpt>
      <trkpt lat="45.6403" lon="6.0635">
        <ele>1386</ele>
        <time>2012-12-09T09:27:35Z</time>
      </trkpt>
      <trkpt lat="45.64028" lon="6.06349">
        <ele>1386</ele>
        <time>2012-12-09T09:27:37Z</time>
      </trkpt>
      <trkpt lat="45.64026" lon="6.06349">
        <ele>1386</ele>
        <time>2012-12-09T09:27:39Z</time>
      </trkpt>
      <trkpt lat="45.64024" lon="6.06348">
        <ele>1386</ele>
        <time>2012-12-09T09:27:41Z</time>
      </trkpt>
      <trkpt lat="45.64023" lon="6.06347">
        <ele>1386</ele>
        <time>2012-12-09T09:27:43Z</time>
      </trkpt>
      <trkpt lat="45.64019" lon="6.06346">
        <ele>1386</ele>
        <time>2012-12-09T09:27:46Z</time>
      </trkpt>
      <trkpt lat="45.64016" lon="6.06345">
        <ele>1386</ele>
        <time>2012-12-09T09:27:49Z</time>
      </trkpt>
      <trkpt lat="45.64014" lon="6.06344">
        <ele>1386</ele>
        <time>2012-12-09T09:27:51Z</time>
      </trkpt>
      <trkpt lat="45.64013" lon="6.06345">
        <ele>1386</ele>
        <time>2012-12-09T09:27:53Z</time>
      </trkpt>
      <trkpt lat="45.64011" lon="6.06346">
        <ele>1386</ele>
        <time>2012-12-09T09:27:55Z</time>
      </trkpt>
      <trkpt lat="45.6401" lon="6.06348">
        <ele>1386</ele>
        <time>2012-12-09T09:27:57Z</time>
      </trkpt>
      <trkpt lat="45.64008" lon="6.06349">
        <ele>1386</ele>
        <time>2012-12-09T09:27:59Z</time>
      </trkpt>
      <trkpt lat="45.64001" lon="6.06352">
        <ele>1386</ele>
        <time>2012-12-09T09:28:04Z</time>
      </trkpt>
      <trkpt lat="45.63999" lon="6.06352">
        <ele>1386</ele>
        <time>2012-12-09T09:28:06Z</time>
      </trkpt>
      <trkpt lat="45.63996" lon="6.06352">
        <ele>1386</ele>
        <time>2012-12-09T09:28:09Z</time>
      </trkpt>
      <trkpt lat="45.63993" lon="6.06351">
        <ele>1384</ele>
        <time>2012-12-09T09:28:11Z</time>
      </trkpt>
      <trkpt lat="45.63992" lon="6.0635">
        <ele>1383</ele>
        <time>2012-12-09T09:28:13Z</time>
      </trkpt>
      <trkpt lat="45.63991" lon="6.0635">
        <ele>1382</ele>
        <time>2012-12-09T09:28:15Z</time>
      </trkpt>
      <trkpt lat="45.63988" lon="6.0635">
        <ele>1381</ele>
        <time>2012-12-09T09:28:18Z</time>
      </trkpt>
      <trkpt lat="45.63986" lon="6.06349">
        <ele>1381</ele>
        <time>2012-12-09T09:28:20Z</time>
      </trkpt>
      <trkpt lat="45.63983" lon="6.06348">
        <ele>1381</ele>
        <time>2012-12-09T09:28:22Z</time>
      </trkpt>
      <trkpt lat="45.63981" lon="6.06345">
        <ele>1380</ele>
        <time>2012-12-09T09:28:24Z</time>
      </trkpt>
      <trkpt lat="45.63978" lon="6.06341">
        <ele>1380</ele>
        <time>2012-12-09T09:28:27Z</time>
      </trkpt>
      <trkpt lat="45.63977" lon="6.06338">
        <ele>1380</ele>
        <time>2012-12-09T09:28:29Z</time>
      </trkpt>
      <trkpt lat="45.63976" lon="6.06335">
        <ele>1380</ele>
        <time>2012-12-09T09:28:31Z</time>
      </trkpt>
      <trkpt lat="45.63975" lon="6.06333">
        <ele>1380</ele>
        <time>2012-12-09T09:28:33Z</time>
      </trkpt>
      <trkpt lat="45.63974" lon="6.06332">
        <ele>1380</ele>
        <time>2012-12-09T09:28:35Z</time>
      </trkpt>
      <trkpt lat="45.63973" lon="6.0633">
        <ele>1380</ele>
        <time>2012-12-09T09:28:37Z</time>
      </trkpt>
      <trkpt lat="45.63971" lon="6.06328">
        <ele>1380</ele>
        <time>2012-12-09T09:28:39Z</time>
      </trkpt>
      <trkpt lat="45.63971" lon="6.06326">
        <ele>1380</ele>
        <time>2012-12-09T09:28:41Z</time>
      </trkpt>
      <trkpt lat="45.63971" lon="6.06323">
        <ele>1380</ele>
        <time>2012-12-09T09:28:43Z</time>
      </trkpt>
      <trkpt lat="45.6397" lon="6.06322">
        <ele>1380</ele>
        <time>2012-12-09T09:28:45Z</time>
      </trkpt>
      <trkpt lat="45.63968" lon="6.06319">
        <ele>1380</ele>
        <time>2012-12-09T09:28:47Z</time>
      </trkpt>
      <trkpt lat="45.63966" lon="6.06318">
        <ele>1380</ele>
        <time>2012-12-09T09:28:49Z</time>
      </trkpt>
      <trkpt lat="45.63965" lon="6.06316">
        <ele>1380</ele>
        <time>2012-12-09T09:28:51Z</time>
      </trkpt>
      <trkpt lat="45.63965" lon="6.06313">
        <ele>1380</ele>
        <time>2012-12-09T09:28:53Z</time>
      </trkpt>
      <trkpt lat="45.63964" lon="6.06311">
        <ele>1381</ele>
        <time>2012-12-09T09:28:55Z</time>
      </trkpt>
      <trkpt lat="45.63963" lon="6.06307">
        <ele>1383</ele>
        <time>2012-12-09T09:28:57Z</time>
      </trkpt>
      <trkpt lat="45.63962" lon="6.06305">
        <ele>1384</ele>
        <time>2012-12-09T09:28:59Z</time>
      </trkpt>
      <trkpt lat="45.6396" lon="6.06304">
        <ele>1385</ele>
        <time>2012-12-09T09:29:01Z</time>
      </trkpt>
      <trkpt lat="45.63959" lon="6.06302">
        <ele>1386</ele>
        <time>2012-12-09T09:29:03Z</time>
      </trkpt>
      <trkpt lat="45.63958" lon="6.063">
        <ele>1387</ele>
        <time>2012-12-09T09:29:05Z</time>
      </trkpt>
      <trkpt lat="45.63955" lon="6.06299">
        <ele>1387</ele>
        <time>2012-12-09T09:29:07Z</time>
      </trkpt>
      <trkpt lat="45.63954" lon="6.06299">
        <ele>1387</ele>
        <time>2012-12-09T09:29:09Z</time>
      </trkpt>
      <trkpt lat="45.63951" lon="6.06298">
        <ele>1387</ele>
        <time>2012-12-09T09:29:12Z</time>
      </trkpt>
      <trkpt lat="45.63948" lon="6.06296">
        <ele>1387</ele>
        <time>2012-12-09T09:29:15Z</time>
      </trkpt>
      <trkpt lat="45.63946" lon="6.06295">
        <ele>1387</ele>
        <time>2012-12-09T09:29:17Z</time>
      </trkpt>
      <trkpt lat="45.63944" lon="6.06294">
        <ele>1387</ele>
        <time>2012-12-09T09:29:19Z</time>
      </trkpt>
      <trkpt lat="45.63943" lon="6.06291">
        <ele>1387</ele>
        <time>2012-12-09T09:29:21Z</time>
      </trkpt>
      <trkpt lat="45.63943" lon="6.0629">
        <ele>1387</ele>
        <time>2012-12-09T09:29:23Z</time>
      </trkpt>
      <trkpt lat="45.63942" lon="6.06288">
        <ele>1387</ele>
        <time>2012-12-09T09:29:25Z</time>
      </trkpt>
      <trkpt lat="45.63941" lon="6.06286">
        <ele>1387</ele>
        <time>2012-12-09T09:29:27Z</time>
      </trkpt>
      <trkpt lat="45.6394" lon="6.06284">
        <ele>1387</ele>
        <time>2012-12-09T09:29:29Z</time>
      </trkpt>
      <trkpt lat="45.63938" lon="6.06282">
        <ele>1387</ele>
        <time>2012-12-09T09:29:31Z</time>
      </trkpt>
      <trkpt lat="45.63937" lon="6.0628">
        <ele>1388</ele>
        <time>2012-12-09T09:29:33Z</time>
      </trkpt>
      <trkpt lat="45.63937" lon="6.06278">
        <ele>1388</ele>
        <time>2012-12-09T09:29:35Z</time>
      </trkpt>
      <trkpt lat="45.63935" lon="6.06276">
        <ele>1388</ele>
        <time>2012-12-09T09:29:37Z</time>
      </trkpt>
      <trkpt lat="45.63934" lon="6.06273">
        <ele>1388</ele>
        <time>2012-12-09T09:29:39Z</time>
      </trkpt>
      <trkpt lat="45.63932" lon="6.06271">
        <ele>1389</ele>
        <time>2012-12-09T09:29:41Z</time>
      </trkpt>
      <trkpt lat="45.63931" lon="6.06269">
        <ele>1389</ele>
        <time>2012-12-09T09:29:43Z</time>
      </trkpt>
      <trkpt lat="45.6393" lon="6.06266">
        <ele>1390</ele>
        <time>2012-12-09T09:29:46Z</time>
      </trkpt>
      <trkpt lat="45.63929" lon="6.06265">
        <ele>1391</ele>
        <time>2012-12-09T09:29:48Z</time>
      </trkpt>
      <trkpt lat="45.63927" lon="6.06263">
        <ele>1391</ele>
        <time>2012-12-09T09:29:50Z</time>
      </trkpt>
      <trkpt lat="45.63926" lon="6.0626">
        <ele>1391</ele>
        <time>2012-12-09T09:29:52Z</time>
      </trkpt>
      <trkpt lat="45.63925" lon="6.06259">
        <ele>1391</ele>
        <time>2012-12-09T09:29:54Z</time>
      </trkpt>
      <trkpt lat="45.63924" lon="6.06257">
        <ele>1391</ele>
        <time>2012-12-09T09:29:56Z</time>
      </trkpt>
      <trkpt lat="45.63923" lon="6.06255">
        <ele>1391</ele>
        <time>2012-12-09T09:29:58Z</time>
      </trkpt>
      <trkpt lat="45.63921" lon="6.06253">
        <ele>1391</ele>
        <time>2012-12-09T09:30:00Z</time>
      </trkpt>
      <trkpt lat="45.6392" lon="6.06252">
        <ele>1391</ele>
        <time>2012-12-09T09:30:02Z</time>
      </trkpt>
      <trkpt lat="45.63919" lon="6.0625">
        <ele>1391</ele>
        <time>2012-12-09T09:30:04Z</time>
      </trkpt>
      <trkpt lat="45.63918" lon="6.06249">
        <ele>1391</ele>
        <time>2012-12-09T09:30:06Z</time>
      </trkpt>
      <trkpt lat="45.63917" lon="6.06245">
        <ele>1391</ele>
        <time>2012-12-09T09:30:09Z</time>
      </trkpt>
      <trkpt lat="45.63915" lon="6.06242">
        <ele>1391</ele>
        <time>2012-12-09T09:30:11Z</time>
      </trkpt>
      <trkpt lat="45.63914" lon="6.06239">
        <ele>1391</ele>
        <time>2012-12-09T09:30:13Z</time>
      </trkpt>
      <trkpt lat="45.63913" lon="6.06237">
        <ele>1391</ele>
        <time>2012-12-09T09:30:15Z</time>
      </trkpt>
      <trkpt lat="45.63911" lon="6.06235">
        <ele>1391</ele>
        <time>2012-12-09T09:30:17Z</time>
      </trkpt>
      <trkpt lat="45.63911" lon="6.06234">
        <ele>1392</ele>
        <time>2012-12-09T09:30:19Z</time>
      </trkpt>
      <trkpt lat="45.6391" lon="6.06232">
        <ele>1392</ele>
        <time>2012-12-09T09:30:21Z</time>
      </trkpt>
      <trkpt lat="45.6391" lon="6.0623">
        <ele>1392</ele>
        <time>2012-12-09T09:30:26Z</time>
      </trkpt>
      <trkpt lat="45.63908" lon="6.06228">
        <ele>1393</ele>
        <time>2012-12-09T09:30:29Z</time>
      </trkpt>
      <trkpt lat="45.63907" lon="6.06226">
        <ele>1393</ele>
        <time>2012-12-09T09:30:32Z</time>
      </trkpt>
      <trkpt lat="45.63906" lon="6.06225">
        <ele>1395</ele>
        <time>2012-12-09T09:30:35Z</time>
      </trkpt>
      <trkpt lat="45.63905" lon="6.06223">
        <ele>1397</ele>
        <time>2012-12-09T09:30:38Z</time>
      </trkpt>
      <trkpt lat="45.63904" lon="6.0622">
        <ele>1398</ele>
        <time>2012-12-09T09:30:40Z</time>
      </trkpt>
      <trkpt lat="45.63904" lon="6.06218">
        <ele>1399</ele>
        <time>2012-12-09T09:30:42Z</time>
      </trkpt>
      <trkpt lat="45.63903" lon="6.06216">
        <ele>1400</ele>
        <time>2012-12-09T09:30:44Z</time>
      </trkpt>
      <trkpt lat="45.63902" lon="6.06214">
        <ele>1401</ele>
        <time>2012-12-09T09:30:46Z</time>
      </trkpt>
      <trkpt lat="45.63902" lon="6.0621">
        <ele>1402</ele>
        <time>2012-12-09T09:30:49Z</time>
      </trkpt>
      <trkpt lat="45.63902" lon="6.06209">
        <ele>1403</ele>
        <time>2012-12-09T09:30:51Z</time>
      </trkpt>
      <trkpt lat="45.639" lon="6.06208">
        <ele>1403</ele>
        <time>2012-12-09T09:30:54Z</time>
      </trkpt>
      <trkpt lat="45.63898" lon="6.06207">
        <ele>1403</ele>
        <time>2012-12-09T09:30:56Z</time>
      </trkpt>
      <trkpt lat="45.63895" lon="6.06205">
        <ele>1403</ele>
        <time>2012-12-09T09:30:59Z</time>
      </trkpt>
      <trkpt lat="45.63894" lon="6.06204">
        <ele>1404</ele>
        <time>2012-12-09T09:31:01Z</time>
      </trkpt>
      <trkpt lat="45.63893" lon="6.06202">
        <ele>1404</ele>
        <time>2012-12-09T09:31:03Z</time>
      </trkpt>
      <trkpt lat="45.63891" lon="6.06201">
        <ele>1405</ele>
        <time>2012-12-09T09:31:06Z</time>
      </trkpt>
      <trkpt lat="45.6389" lon="6.062">
        <ele>1405</ele>
        <time>2012-12-09T09:31:08Z</time>
      </trkpt>
      <trkpt lat="45.63889" lon="6.06198">
        <ele>1405</ele>
        <time>2012-12-09T09:31:10Z</time>
      </trkpt>
      <trkpt lat="45.63889" lon="6.06196">
        <ele>1405</ele>
        <time>2012-12-09T09:31:12Z</time>
      </trkpt>
      <trkpt lat="45.63887" lon="6.06194">
        <ele>1405</ele>
        <time>2012-12-09T09:31:14Z</time>
      </trkpt>
      <trkpt lat="45.63886" lon="6.06192">
        <ele>1405</ele>
        <time>2012-12-09T09:31:16Z</time>
      </trkpt>
      <trkpt lat="45.63885" lon="6.06191">
        <ele>1405</ele>
        <time>2012-12-09T09:31:18Z</time>
      </trkpt>
      <trkpt lat="45.63884" lon="6.06188">
        <ele>1405</ele>
        <time>2012-12-09T09:31:24Z</time>
      </trkpt>
      <trkpt lat="45.63883" lon="6.06187">
        <ele>1405</ele>
        <time>2012-12-09T09:31:26Z</time>
      </trkpt>
      <trkpt lat="45.63882" lon="6.06185">
        <ele>1405</ele>
        <time>2012-12-09T09:31:28Z</time>
      </trkpt>
      <trkpt lat="45.63882" lon="6.06183">
        <ele>1405</ele>
        <time>2012-12-09T09:31:30Z</time>
      </trkpt>
      <trkpt lat="45.63881" lon="6.06181">
        <ele>1405</ele>
        <time>2012-12-09T09:31:32Z</time>
      </trkpt>
      <trkpt lat="45.6388" lon="6.06179">
        <ele>1405</ele>
        <time>2012-12-09T09:31:34Z</time>
      </trkpt>
      <trkpt lat="45.6388" lon="6.06177">
        <ele>1407</ele>
        <time>2012-12-09T09:31:38Z</time>
      </trkpt>
      <trkpt lat="45.63879" lon="6.06176">
        <ele>1407</ele>
        <time>2012-12-09T09:31:41Z</time>
      </trkpt>
      <trkpt lat="45.63878" lon="6.06174">
        <ele>1407</ele>
        <time>2012-12-09T09:31:43Z</time>
      </trkpt>
      <trkpt lat="45.63876" lon="6.06173">
        <ele>1407</ele>
        <time>2012-12-09T09:31:45Z</time>
      </trkpt>
      <trkpt lat="45.63874" lon="6.06171">
        <ele>1407</ele>
        <time>2012-12-09T09:31:47Z</time>
      </trkpt>
      <trkpt lat="45.63873" lon="6.0617">
        <ele>1407</ele>
        <time>2012-12-09T09:31:49Z</time>
      </trkpt>
      <trkpt lat="45.63871" lon="6.0617">
        <ele>1407</ele>
        <time>2012-12-09T09:31:52Z</time>
      </trkpt>
      <trkpt lat="45.6387" lon="6.06171">
        <ele>1407</ele>
        <time>2012-12-09T09:31:54Z</time>
      </trkpt>
      <trkpt lat="45.63868" lon="6.06171">
        <ele>1407</ele>
        <time>2012-12-09T09:31:56Z</time>
      </trkpt>
      <trkpt lat="45.63865" lon="6.06171">
        <ele>1407</ele>
        <time>2012-12-09T09:31:59Z</time>
      </trkpt>
      <trkpt lat="45.63862" lon="6.06172">
        <ele>1407</ele>
        <time>2012-12-09T09:32:01Z</time>
      </trkpt>
      <trkpt lat="45.6386" lon="6.06172">
        <ele>1407</ele>
        <time>2012-12-09T09:32:03Z</time>
      </trkpt>
      <trkpt lat="45.63859" lon="6.06171">
        <ele>1407</ele>
        <time>2012-12-09T09:32:05Z</time>
      </trkpt>
      <trkpt lat="45.63856" lon="6.06169">
        <ele>1407</ele>
        <time>2012-12-09T09:32:08Z</time>
      </trkpt>
      <trkpt lat="45.63855" lon="6.06168">
        <ele>1407</ele>
        <time>2012-12-09T09:32:10Z</time>
      </trkpt>
      <trkpt lat="45.63853" lon="6.06166">
        <ele>1407</ele>
        <time>2012-12-09T09:32:12Z</time>
      </trkpt>
      <trkpt lat="45.63852" lon="6.06165">
        <ele>1407</ele>
        <time>2012-12-09T09:32:14Z</time>
      </trkpt>
      <trkpt lat="45.6385" lon="6.06163">
        <ele>1407</ele>
        <time>2012-12-09T09:32:17Z</time>
      </trkpt>
      <trkpt lat="45.63848" lon="6.06161">
        <ele>1407</ele>
        <time>2012-12-09T09:32:20Z</time>
      </trkpt>
      <trkpt lat="45.63847" lon="6.0616">
        <ele>1407</ele>
        <time>2012-12-09T09:32:25Z</time>
      </trkpt>
      <trkpt lat="45.63845" lon="6.06158">
        <ele>1407</ele>
        <time>2012-12-09T09:32:29Z</time>
      </trkpt>
      <trkpt lat="45.63844" lon="6.06157">
        <ele>1407</ele>
        <time>2012-12-09T09:32:33Z</time>
      </trkpt>
      <trkpt lat="45.63842" lon="6.06157">
        <ele>1407</ele>
        <time>2012-12-09T09:32:35Z</time>
      </trkpt>
      <trkpt lat="45.63841" lon="6.06158">
        <ele>1407</ele>
        <time>2012-12-09T09:32:38Z</time>
      </trkpt>
      <trkpt lat="45.63839" lon="6.06159">
        <ele>1407</ele>
        <time>2012-12-09T09:32:40Z</time>
      </trkpt>
      <trkpt lat="45.63838" lon="6.06161">
        <ele>1407</ele>
        <time>2012-12-09T09:32:42Z</time>
      </trkpt>
      <trkpt lat="45.63837" lon="6.06162">
        <ele>1407</ele>
        <time>2012-12-09T09:32:44Z</time>
      </trkpt>
      <trkpt lat="45.63836" lon="6.06163">
        <ele>1407</ele>
        <time>2012-12-09T09:32:47Z</time>
      </trkpt>
      <trkpt lat="45.63834" lon="6.06164">
        <ele>1407</ele>
        <time>2012-12-09T09:32:49Z</time>
      </trkpt>
      <trkpt lat="45.63833" lon="6.06164">
        <ele>1407</ele>
        <time>2012-12-09T09:32:51Z</time>
      </trkpt>
      <trkpt lat="45.63831" lon="6.06165">
        <ele>1407</ele>
        <time>2012-12-09T09:32:53Z</time>
      </trkpt>
      <trkpt lat="45.63829" lon="6.06165">
        <ele>1407</ele>
        <time>2012-12-09T09:32:55Z</time>
      </trkpt>
      <trkpt lat="45.63828" lon="6.06166">
        <ele>1407</ele>
        <time>2012-12-09T09:32:57Z</time>
      </trkpt>
      <trkpt lat="45.63826" lon="6.06166">
        <ele>1407</ele>
        <time>2012-12-09T09:32:59Z</time>
      </trkpt>
      <trkpt lat="45.63822" lon="6.06166">
        <ele>1407</ele>
        <time>2012-12-09T09:33:02Z</time>
      </trkpt>
      <trkpt lat="45.6382" lon="6.06167">
        <ele>1408</ele>
        <time>2012-12-09T09:33:04Z</time>
      </trkpt>
      <trkpt lat="45.63819" lon="6.06168">
        <ele>1408</ele>
        <time>2012-12-09T09:33:06Z</time>
      </trkpt>
      <trkpt lat="45.63818" lon="6.06169">
        <ele>1408</ele>
        <time>2012-12-09T09:33:08Z</time>
      </trkpt>
      <trkpt lat="45.63816" lon="6.06174">
        <ele>1412</ele>
        <time>2012-12-09T09:33:14Z</time>
      </trkpt>
      <trkpt lat="45.63815" lon="6.06175">
        <ele>1415</ele>
        <time>2012-12-09T09:33:17Z</time>
      </trkpt>
      <trkpt lat="45.63809" lon="6.06169">
        <ele>1427</ele>
        <time>2012-12-09T09:33:22Z</time>
      </trkpt>
      <trkpt lat="45.63807" lon="6.06168">
        <ele>1427</ele>
        <time>2012-12-09T09:33:24Z</time>
      </trkpt>
      <trkpt lat="45.63804" lon="6.06167">
        <ele>1427</ele>
        <time>2012-12-09T09:33:27Z</time>
      </trkpt>
      <trkpt lat="45.63802" lon="6.06167">
        <ele>1427</ele>
        <time>2012-12-09T09:33:29Z</time>
      </trkpt>
      <trkpt lat="45.63801" lon="6.06168">
        <ele>1427</ele>
        <time>2012-12-09T09:33:31Z</time>
      </trkpt>
      <trkpt lat="45.63799" lon="6.06168">
        <ele>1425</ele>
        <time>2012-12-09T09:33:33Z</time>
      </trkpt>
      <trkpt lat="45.63798" lon="6.06168">
        <ele>1424</ele>
        <time>2012-12-09T09:33:35Z</time>
      </trkpt>
      <trkpt lat="45.63797" lon="6.0617">
        <ele>1422</ele>
        <time>2012-12-09T09:33:37Z</time>
      </trkpt>
      <trkpt lat="45.63795" lon="6.0617">
        <ele>1421</ele>
        <time>2012-12-09T09:33:39Z</time>
      </trkpt>
      <trkpt lat="45.63793" lon="6.0617">
        <ele>1420</ele>
        <time>2012-12-09T09:33:41Z</time>
      </trkpt>
      <trkpt lat="45.63792" lon="6.0617">
        <ele>1419</ele>
        <time>2012-12-09T09:33:43Z</time>
      </trkpt>
      <trkpt lat="45.6379" lon="6.0617">
        <ele>1418</ele>
        <time>2012-12-09T09:33:45Z</time>
      </trkpt>
      <trkpt lat="45.63788" lon="6.0617">
        <ele>1417</ele>
        <time>2012-12-09T09:33:47Z</time>
      </trkpt>
      <trkpt lat="45.63786" lon="6.06171">
        <ele>1416</ele>
        <time>2012-12-09T09:33:49Z</time>
      </trkpt>
      <trkpt lat="45.63784" lon="6.06171">
        <ele>1415</ele>
        <time>2012-12-09T09:33:51Z</time>
      </trkpt>
      <trkpt lat="45.63781" lon="6.06172">
        <ele>1415</ele>
        <time>2012-12-09T09:33:54Z</time>
      </trkpt>
      <trkpt lat="45.63779" lon="6.06172">
        <ele>1414</ele>
        <time>2012-12-09T09:33:56Z</time>
      </trkpt>
      <trkpt lat="45.63777" lon="6.06172">
        <ele>1414</ele>
        <time>2012-12-09T09:33:58Z</time>
      </trkpt>
      <trkpt lat="45.63774" lon="6.06171">
        <ele>1414</ele>
        <time>2012-12-09T09:34:01Z</time>
      </trkpt>
      <trkpt lat="45.63771" lon="6.06168">
        <ele>1412</ele>
        <time>2012-12-09T09:34:04Z</time>
      </trkpt>
      <trkpt lat="45.63769" lon="6.06171">
        <ele>1411</ele>
        <time>2012-12-09T09:34:07Z</time>
      </trkpt>
      <trkpt lat="45.63767" lon="6.0617">
        <ele>1411</ele>
        <time>2012-12-09T09:34:11Z</time>
      </trkpt>
      <trkpt lat="45.63766" lon="6.0617">
        <ele>1411</ele>
        <time>2012-12-09T09:34:13Z</time>
      </trkpt>
      <trkpt lat="45.63765" lon="6.0617">
        <ele>1411</ele>
        <time>2012-12-09T09:34:15Z</time>
      </trkpt>
      <trkpt lat="45.63763" lon="6.0617">
        <ele>1411</ele>
        <time>2012-12-09T09:34:17Z</time>
      </trkpt>
      <trkpt lat="45.63762" lon="6.06169">
        <ele>1411</ele>
        <time>2012-12-09T09:34:19Z</time>
      </trkpt>
      <trkpt lat="45.6376" lon="6.06168">
        <ele>1411</ele>
        <time>2012-12-09T09:34:21Z</time>
      </trkpt>
      <trkpt lat="45.63759" lon="6.06168">
        <ele>1411</ele>
        <time>2012-12-09T09:34:23Z</time>
      </trkpt>
      <trkpt lat="45.63757" lon="6.06168">
        <ele>1411</ele>
        <time>2012-12-09T09:34:25Z</time>
      </trkpt>
      <trkpt lat="45.63756" lon="6.06169">
        <ele>1411</ele>
        <time>2012-12-09T09:34:27Z</time>
      </trkpt>
      <trkpt lat="45.63754" lon="6.06169">
        <ele>1411</ele>
        <time>2012-12-09T09:34:29Z</time>
      </trkpt>
      <trkpt lat="45.63753" lon="6.06168">
        <ele>1411</ele>
        <time>2012-12-09T09:34:31Z</time>
      </trkpt>
      <trkpt lat="45.63751" lon="6.06168">
        <ele>1411</ele>
        <time>2012-12-09T09:34:34Z</time>
      </trkpt>
      <trkpt lat="45.6375" lon="6.06167">
        <ele>1411</ele>
        <time>2012-12-09T09:34:36Z</time>
      </trkpt>
      <trkpt lat="45.63749" lon="6.06165">
        <ele>1413</ele>
        <time>2012-12-09T09:34:40Z</time>
      </trkpt>
      <trkpt lat="45.63748" lon="6.06163">
        <ele>1416</ele>
        <time>2012-12-09T09:34:43Z</time>
      </trkpt>
      <trkpt lat="45.63747" lon="6.06162">
        <ele>1417</ele>
        <time>2012-12-09T09:34:45Z</time>
      </trkpt>
      <trkpt lat="45.63745" lon="6.06162">
        <ele>1418</ele>
        <time>2012-12-09T09:34:47Z</time>
      </trkpt>
      <trkpt lat="45.63744" lon="6.06163">
        <ele>1418</ele>
        <time>2012-12-09T09:34:49Z</time>
      </trkpt>
      <trkpt lat="45.63742" lon="6.06163">
        <ele>1418</ele>
        <time>2012-12-09T09:34:51Z</time>
      </trkpt>
      <trkpt lat="45.6374" lon="6.06163">
        <ele>1418</ele>
        <time>2012-12-09T09:34:53Z</time>
      </trkpt>
      <trkpt lat="45.63739" lon="6.06163">
        <ele>1418</ele>
        <time>2012-12-09T09:34:55Z</time>
      </trkpt>
      <trkpt lat="45.63737" lon="6.06161">
        <ele>1418</ele>
        <time>2012-12-09T09:34:57Z</time>
      </trkpt>
      <trkpt lat="45.63735" lon="6.0616">
        <ele>1418</ele>
        <time>2012-12-09T09:34:59Z</time>
      </trkpt>
      <trkpt lat="45.63734" lon="6.06159">
        <ele>1418</ele>
        <time>2012-12-09T09:35:01Z</time>
      </trkpt>
      <trkpt lat="45.63732" lon="6.06158">
        <ele>1418</ele>
        <time>2012-12-09T09:35:03Z</time>
      </trkpt>
      <trkpt lat="45.63731" lon="6.06157">
        <ele>1418</ele>
        <time>2012-12-09T09:35:05Z</time>
      </trkpt>
      <trkpt lat="45.63729" lon="6.06156">
        <ele>1418</ele>
        <time>2012-12-09T09:35:07Z</time>
      </trkpt>
      <trkpt lat="45.63727" lon="6.06155">
        <ele>1418</ele>
        <time>2012-12-09T09:35:09Z</time>
      </trkpt>
      <trkpt lat="45.63723" lon="6.06154">
        <ele>1418</ele>
        <time>2012-12-09T09:35:12Z</time>
      </trkpt>
      <trkpt lat="45.63722" lon="6.06152">
        <ele>1418</ele>
        <time>2012-12-09T09:35:14Z</time>
      </trkpt>
      <trkpt lat="45.63721" lon="6.0615">
        <ele>1418</ele>
        <time>2012-12-09T09:35:16Z</time>
      </trkpt>
      <trkpt lat="45.6372" lon="6.06148">
        <ele>1418</ele>
        <time>2012-12-09T09:35:18Z</time>
      </trkpt>
      <trkpt lat="45.6372" lon="6.06146">
        <ele>1418</ele>
        <time>2012-12-09T09:35:20Z</time>
      </trkpt>
      <trkpt lat="45.63719" lon="6.06142">
        <ele>1418</ele>
        <time>2012-12-09T09:35:23Z</time>
      </trkpt>
      <trkpt lat="45.63719" lon="6.0614">
        <ele>1418</ele>
        <time>2012-12-09T09:35:25Z</time>
      </trkpt>
      <trkpt lat="45.63718" lon="6.06138">
        <ele>1419</ele>
        <time>2012-12-09T09:35:27Z</time>
      </trkpt>
      <trkpt lat="45.63717" lon="6.06136">
        <ele>1419</ele>
        <time>2012-12-09T09:35:29Z</time>
      </trkpt>
      <trkpt lat="45.63716" lon="6.06134">
        <ele>1420</ele>
        <time>2012-12-09T09:35:31Z</time>
      </trkpt>
      <trkpt lat="45.63716" lon="6.06132">
        <ele>1421</ele>
        <time>2012-12-09T09:35:33Z</time>
      </trkpt>
      <trkpt lat="45.63716" lon="6.0613">
        <ele>1421</ele>
        <time>2012-12-09T09:35:35Z</time>
      </trkpt>
      <trkpt lat="45.63715" lon="6.06128">
        <ele>1422</ele>
        <time>2012-12-09T09:35:37Z</time>
      </trkpt>
      <trkpt lat="45.63715" lon="6.06125">
        <ele>1422</ele>
        <time>2012-12-09T09:35:39Z</time>
      </trkpt>
      <trkpt lat="45.63715" lon="6.06124">
        <ele>1423</ele>
        <time>2012-12-09T09:35:41Z</time>
      </trkpt>
      <trkpt lat="45.63714" lon="6.06122">
        <ele>1424</ele>
        <time>2012-12-09T09:35:43Z</time>
      </trkpt>
      <trkpt lat="45.63713" lon="6.0612">
        <ele>1425</ele>
        <time>2012-12-09T09:35:45Z</time>
      </trkpt>
      <trkpt lat="45.63711" lon="6.06118">
        <ele>1425</ele>
        <time>2012-12-09T09:35:47Z</time>
      </trkpt>
      <trkpt lat="45.6371" lon="6.06116">
        <ele>1425</ele>
        <time>2012-12-09T09:35:49Z</time>
      </trkpt>
      <trkpt lat="45.63709" lon="6.06115">
        <ele>1425</ele>
        <time>2012-12-09T09:35:51Z</time>
      </trkpt>
      <trkpt lat="45.63708" lon="6.06112">
        <ele>1425</ele>
        <time>2012-12-09T09:35:53Z</time>
      </trkpt>
      <trkpt lat="45.63707" lon="6.0611">
        <ele>1425</ele>
        <time>2012-12-09T09:35:55Z</time>
      </trkpt>
      <trkpt lat="45.63707" lon="6.06107">
        <ele>1425</ele>
        <time>2012-12-09T09:35:57Z</time>
      </trkpt>
      <trkpt lat="45.63706" lon="6.06105">
        <ele>1425</ele>
        <time>2012-12-09T09:35:59Z</time>
      </trkpt>
      <trkpt lat="45.63705" lon="6.06104">
        <ele>1425</ele>
        <time>2012-12-09T09:36:01Z</time>
      </trkpt>
      <trkpt lat="45.63705" lon="6.06102">
        <ele>1425</ele>
        <time>2012-12-09T09:36:03Z</time>
      </trkpt>
      <trkpt lat="45.63705" lon="6.061">
        <ele>1427</ele>
        <time>2012-12-09T09:36:05Z</time>
      </trkpt>
      <trkpt lat="45.63705" lon="6.06098">
        <ele>1428</ele>
        <time>2012-12-09T09:36:07Z</time>
      </trkpt>
      <trkpt lat="45.63705" lon="6.06097">
        <ele>1428</ele>
        <time>2012-12-09T09:36:09Z</time>
      </trkpt>
      <trkpt lat="45.63704" lon="6.06095">
        <ele>1428</ele>
        <time>2012-12-09T09:36:11Z</time>
      </trkpt>
      <trkpt lat="45.63704" lon="6.06093">
        <ele>1429</ele>
        <time>2012-12-09T09:36:14Z</time>
      </trkpt>
      <trkpt lat="45.63707" lon="6.06097">
        <ele>1420</ele>
        <time>2012-12-09T09:36:18Z</time>
      </trkpt>
      <trkpt lat="45.63708" lon="6.06098">
        <ele>1420</ele>
        <time>2012-12-09T09:36:21Z</time>
      </trkpt>
      <trkpt lat="45.63713" lon="6.06096">
        <ele>1437</ele>
        <time>2012-12-09T09:36:24Z</time>
      </trkpt>
      <trkpt lat="45.63715" lon="6.06095">
        <ele>1437</ele>
        <time>2012-12-09T09:36:29Z</time>
      </trkpt>
      <trkpt lat="45.63707" lon="6.06087">
        <ele>1433</ele>
        <time>2012-12-09T09:36:35Z</time>
      </trkpt>
      <trkpt lat="45.63706" lon="6.06085">
        <ele>1433</ele>
        <time>2012-12-09T09:36:38Z</time>
      </trkpt>
      <trkpt lat="45.63705" lon="6.06083">
        <ele>1433</ele>
        <time>2012-12-09T09:36:41Z</time>
      </trkpt>
      <trkpt lat="45.63703" lon="6.06082">
        <ele>1433</ele>
        <time>2012-12-09T09:36:44Z</time>
      </trkpt>
      <trkpt lat="45.63702" lon="6.0608">
        <ele>1433</ele>
        <time>2012-12-09T09:36:47Z</time>
      </trkpt>
      <trkpt lat="45.63701" lon="6.06079">
        <ele>1433</ele>
        <time>2012-12-09T09:36:51Z</time>
      </trkpt>
      <trkpt lat="45.63702" lon="6.06079">
        <ele>1433</ele>
        <time>2012-12-09T09:36:57Z</time>
      </trkpt>
      <trkpt lat="45.63703" lon="6.06081">
        <ele>1433</ele>
        <time>2012-12-09T09:36:59Z</time>
      </trkpt>
      <trkpt lat="45.63705" lon="6.06085">
        <ele>1431</ele>
        <time>2012-12-09T09:37:04Z</time>
      </trkpt>
      <trkpt lat="45.63707" lon="6.06085">
        <ele>1431</ele>
        <time>2012-12-09T09:37:07Z</time>
      </trkpt>
      <trkpt lat="45.63701" lon="6.06088">
        <ele>1434</ele>
        <time>2012-12-09T09:37:16Z</time>
      </trkpt>
      <trkpt lat="45.63702" lon="6.06086">
        <ele>1434</ele>
        <time>2012-12-09T09:37:23Z</time>
      </trkpt>
      <trkpt lat="45.63702" lon="6.06084">
        <ele>1434</ele>
        <time>2012-12-09T09:37:25Z</time>
      </trkpt>
      <trkpt lat="45.63702" lon="6.06082">
        <ele>1435</ele>
        <time>2012-12-09T09:37:27Z</time>
      </trkpt>
      <trkpt lat="45.63702" lon="6.0608">
        <ele>1436</ele>
        <time>2012-12-09T09:37:29Z</time>
      </trkpt>
      <trkpt lat="45.63701" lon="6.06078">
        <ele>1437</ele>
        <time>2012-12-09T09:37:31Z</time>
      </trkpt>
      <trkpt lat="45.637" lon="6.06076">
        <ele>1437</ele>
        <time>2012-12-09T09:37:34Z</time>
      </trkpt>
      <trkpt lat="45.637" lon="6.06074">
        <ele>1438</ele>
        <time>2012-12-09T09:37:36Z</time>
      </trkpt>
      <trkpt lat="45.637" lon="6.06072">
        <ele>1439</ele>
        <time>2012-12-09T09:37:38Z</time>
      </trkpt>
      <trkpt lat="45.63699" lon="6.06069">
        <ele>1439</ele>
        <time>2012-12-09T09:37:41Z</time>
      </trkpt>
      <trkpt lat="45.63698" lon="6.06067">
        <ele>1439</ele>
        <time>2012-12-09T09:37:43Z</time>
      </trkpt>
      <trkpt lat="45.63698" lon="6.06065">
        <ele>1440</ele>
        <time>2012-12-09T09:37:45Z</time>
      </trkpt>
      <trkpt lat="45.63698" lon="6.06063">
        <ele>1442</ele>
        <time>2012-12-09T09:37:49Z</time>
      </trkpt>
      <trkpt lat="45.63698" lon="6.06061">
        <ele>1443</ele>
        <time>2012-12-09T09:37:51Z</time>
      </trkpt>
      <trkpt lat="45.63697" lon="6.06058">
        <ele>1443</ele>
        <time>2012-12-09T09:37:53Z</time>
      </trkpt>
      <trkpt lat="45.63697" lon="6.06055">
        <ele>1444</ele>
        <time>2012-12-09T09:37:55Z</time>
      </trkpt>
      <trkpt lat="45.63697" lon="6.06053">
        <ele>1444</ele>
        <time>2012-12-09T09:37:57Z</time>
      </trkpt>
      <trkpt lat="45.63697" lon="6.06052">
        <ele>1444</ele>
        <time>2012-12-09T09:37:59Z</time>
      </trkpt>
      <trkpt lat="45.63697" lon="6.0605">
        <ele>1444</ele>
        <time>2012-12-09T09:38:01Z</time>
      </trkpt>
      <trkpt lat="45.63697" lon="6.06048">
        <ele>1445</ele>
        <time>2012-12-09T09:38:03Z</time>
      </trkpt>
      <trkpt lat="45.63697" lon="6.06047">
        <ele>1445</ele>
        <time>2012-12-09T09:38:05Z</time>
      </trkpt>
      <trkpt lat="45.63697" lon="6.06042">
        <ele>1445</ele>
        <time>2012-12-09T09:38:08Z</time>
      </trkpt>
      <trkpt lat="45.63697" lon="6.0604">
        <ele>1445</ele>
        <time>2012-12-09T09:38:10Z</time>
      </trkpt>
      <trkpt lat="45.63695" lon="6.06039">
        <ele>1446</ele>
        <time>2012-12-09T09:38:13Z</time>
      </trkpt>
      <trkpt lat="45.63694" lon="6.06037">
        <ele>1446</ele>
        <time>2012-12-09T09:38:15Z</time>
      </trkpt>
      <trkpt lat="45.63692" lon="6.06036">
        <ele>1447</ele>
        <time>2012-12-09T09:38:17Z</time>
      </trkpt>
      <trkpt lat="45.63691" lon="6.06035">
        <ele>1448</ele>
        <time>2012-12-09T09:38:19Z</time>
      </trkpt>
      <trkpt lat="45.63689" lon="6.06034">
        <ele>1448</ele>
        <time>2012-12-09T09:38:21Z</time>
      </trkpt>
      <trkpt lat="45.63688" lon="6.06034">
        <ele>1448</ele>
        <time>2012-12-09T09:38:23Z</time>
      </trkpt>
      <trkpt lat="45.63686" lon="6.06032">
        <ele>1448</ele>
        <time>2012-12-09T09:38:25Z</time>
      </trkpt>
      <trkpt lat="45.63685" lon="6.06031">
        <ele>1448</ele>
        <time>2012-12-09T09:38:27Z</time>
      </trkpt>
      <trkpt lat="45.63683" lon="6.06028">
        <ele>1448</ele>
        <time>2012-12-09T09:38:30Z</time>
      </trkpt>
      <trkpt lat="45.63683" lon="6.06027">
        <ele>1448</ele>
        <time>2012-12-09T09:38:32Z</time>
      </trkpt>
      <trkpt lat="45.63683" lon="6.06025">
        <ele>1448</ele>
        <time>2012-12-09T09:38:34Z</time>
      </trkpt>
      <trkpt lat="45.63682" lon="6.06023">
        <ele>1448</ele>
        <time>2012-12-09T09:38:37Z</time>
      </trkpt>
      <trkpt lat="45.63682" lon="6.06021">
        <ele>1448</ele>
        <time>2012-12-09T09:38:39Z</time>
      </trkpt>
      <trkpt lat="45.63681" lon="6.06019">
        <ele>1448</ele>
        <time>2012-12-09T09:38:41Z</time>
      </trkpt>
      <trkpt lat="45.63681" lon="6.06018">
        <ele>1448</ele>
        <time>2012-12-09T09:38:43Z</time>
      </trkpt>
      <trkpt lat="45.63681" lon="6.06016">
        <ele>1448</ele>
        <time>2012-12-09T09:38:45Z</time>
      </trkpt>
      <trkpt lat="45.63681" lon="6.06014">
        <ele>1448</ele>
        <time>2012-12-09T09:38:47Z</time>
      </trkpt>
      <trkpt lat="45.63681" lon="6.06012">
        <ele>1449</ele>
        <time>2012-12-09T09:38:49Z</time>
      </trkpt>
      <trkpt lat="45.63681" lon="6.06009">
        <ele>1451</ele>
        <time>2012-12-09T09:38:51Z</time>
      </trkpt>
      <trkpt lat="45.63681" lon="6.06007">
        <ele>1452</ele>
        <time>2012-12-09T09:38:54Z</time>
      </trkpt>
      <trkpt lat="45.63685" lon="6.06">
        <ele>1453</ele>
        <time>2012-12-09T09:39:02Z</time>
      </trkpt>
      <trkpt lat="45.63685" lon="6.05998">
        <ele>1453</ele>
        <time>2012-12-09T09:39:04Z</time>
      </trkpt>
      <trkpt lat="45.63685" lon="6.05996">
        <ele>1453</ele>
        <time>2012-12-09T09:39:06Z</time>
      </trkpt>
      <trkpt lat="45.63684" lon="6.05994">
        <ele>1453</ele>
        <time>2012-12-09T09:39:08Z</time>
      </trkpt>
      <trkpt lat="45.63684" lon="6.05992">
        <ele>1453</ele>
        <time>2012-12-09T09:39:10Z</time>
      </trkpt>
      <trkpt lat="45.63684" lon="6.0599">
        <ele>1453</ele>
        <time>2012-12-09T09:39:12Z</time>
      </trkpt>
      <trkpt lat="45.63684" lon="6.05988">
        <ele>1453</ele>
        <time>2012-12-09T09:39:14Z</time>
      </trkpt>
      <trkpt lat="45.63683" lon="6.05986">
        <ele>1454</ele>
        <time>2012-12-09T09:39:17Z</time>
      </trkpt>
      <trkpt lat="45.63682" lon="6.05982">
        <ele>1454</ele>
        <time>2012-12-09T09:39:19Z</time>
      </trkpt>
      <trkpt lat="45.6368" lon="6.05979">
        <ele>1455</ele>
        <time>2012-12-09T09:39:22Z</time>
      </trkpt>
      <trkpt lat="45.6368" lon="6.05977">
        <ele>1456</ele>
        <time>2012-12-09T09:39:25Z</time>
      </trkpt>
      <trkpt lat="45.63681" lon="6.05975">
        <ele>1456</ele>
        <time>2012-12-09T09:39:28Z</time>
      </trkpt>
      <trkpt lat="45.63683" lon="6.05975">
        <ele>1457</ele>
        <time>2012-12-09T09:39:30Z</time>
      </trkpt>
      <trkpt lat="45.63684" lon="6.05975">
        <ele>1457</ele>
        <time>2012-12-09T09:39:32Z</time>
      </trkpt>
      <trkpt lat="45.63686" lon="6.05974">
        <ele>1457</ele>
        <time>2012-12-09T09:39:34Z</time>
      </trkpt>
      <trkpt lat="45.63687" lon="6.05973">
        <ele>1457</ele>
        <time>2012-12-09T09:39:37Z</time>
      </trkpt>
      <trkpt lat="45.63688" lon="6.05971">
        <ele>1457</ele>
        <time>2012-12-09T09:39:40Z</time>
      </trkpt>
      <trkpt lat="45.6369" lon="6.05971">
        <ele>1457</ele>
        <time>2012-12-09T09:39:44Z</time>
      </trkpt>
      <trkpt lat="45.63691" lon="6.0597">
        <ele>1457</ele>
        <time>2012-12-09T09:39:47Z</time>
      </trkpt>
      <trkpt lat="45.63692" lon="6.0597">
        <ele>1457</ele>
        <time>2012-12-09T09:39:50Z</time>
      </trkpt>
      <trkpt lat="45.63694" lon="6.05971">
        <ele>1457</ele>
        <time>2012-12-09T09:39:53Z</time>
      </trkpt>
      <trkpt lat="45.63701" lon="6.05966">
        <ele>1457</ele>
        <time>2012-12-09T09:39:57Z</time>
      </trkpt>
      <trkpt lat="45.63703" lon="6.05965">
        <ele>1457</ele>
        <time>2012-12-09T09:39:59Z</time>
      </trkpt>
      <trkpt lat="45.63704" lon="6.05963">
        <ele>1457</ele>
        <time>2012-12-09T09:40:01Z</time>
      </trkpt>
      <trkpt lat="45.63705" lon="6.05962">
        <ele>1457</ele>
        <time>2012-12-09T09:40:03Z</time>
      </trkpt>
      <trkpt lat="45.63708" lon="6.05954">
        <ele>1460</ele>
        <time>2012-12-09T09:40:08Z</time>
      </trkpt>
      <trkpt lat="45.6371" lon="6.05953">
        <ele>1460</ele>
        <time>2012-12-09T09:40:10Z</time>
      </trkpt>
      <trkpt lat="45.63711" lon="6.05951">
        <ele>1460</ele>
        <time>2012-12-09T09:40:12Z</time>
      </trkpt>
      <trkpt lat="45.63712" lon="6.0595">
        <ele>1460</ele>
        <time>2012-12-09T09:40:14Z</time>
      </trkpt>
      <trkpt lat="45.63714" lon="6.05948">
        <ele>1460</ele>
        <time>2012-12-09T09:40:17Z</time>
      </trkpt>
      <trkpt lat="45.63715" lon="6.05947">
        <ele>1460</ele>
        <time>2012-12-09T09:40:19Z</time>
      </trkpt>
      <trkpt lat="45.63717" lon="6.05946">
        <ele>1460</ele>
        <time>2012-12-09T09:40:21Z</time>
      </trkpt>
      <trkpt lat="45.63718" lon="6.05944">
        <ele>1460</ele>
        <time>2012-12-09T09:40:24Z</time>
      </trkpt>
      <trkpt lat="45.63718" lon="6.05943">
        <ele>1460</ele>
        <time>2012-12-09T09:40:26Z</time>
      </trkpt>
      <trkpt lat="45.63719" lon="6.05941">
        <ele>1461</ele>
        <time>2012-12-09T09:40:29Z</time>
      </trkpt>
      <trkpt lat="45.63719" lon="6.05939">
        <ele>1461</ele>
        <time>2012-12-09T09:40:31Z</time>
      </trkpt>
      <trkpt lat="45.63718" lon="6.05935">
        <ele>1461</ele>
        <time>2012-12-09T09:40:37Z</time>
      </trkpt>
      <trkpt lat="45.63717" lon="6.05933">
        <ele>1461</ele>
        <time>2012-12-09T09:40:39Z</time>
      </trkpt>
      <trkpt lat="45.63716" lon="6.0593">
        <ele>1461</ele>
        <time>2012-12-09T09:40:42Z</time>
      </trkpt>
      <trkpt lat="45.63715" lon="6.05928">
        <ele>1461</ele>
        <time>2012-12-09T09:40:44Z</time>
      </trkpt>
      <trkpt lat="45.63713" lon="6.05925">
        <ele>1461</ele>
        <time>2012-12-09T09:40:46Z</time>
      </trkpt>
      <trkpt lat="45.63712" lon="6.05924">
        <ele>1461</ele>
        <time>2012-12-09T09:40:48Z</time>
      </trkpt>
      <trkpt lat="45.63711" lon="6.05921">
        <ele>1461</ele>
        <time>2012-12-09T09:40:51Z</time>
      </trkpt>
      <trkpt lat="45.6371" lon="6.05919">
        <ele>1462</ele>
        <time>2012-12-09T09:40:53Z</time>
      </trkpt>
      <trkpt lat="45.63709" lon="6.05917">
        <ele>1462</ele>
        <time>2012-12-09T09:40:55Z</time>
      </trkpt>
      <trkpt lat="45.63708" lon="6.05915">
        <ele>1462</ele>
        <time>2012-12-09T09:40:57Z</time>
      </trkpt>
      <trkpt lat="45.63707" lon="6.05913">
        <ele>1463</ele>
        <time>2012-12-09T09:40:59Z</time>
      </trkpt>
      <trkpt lat="45.63706" lon="6.0591">
        <ele>1463</ele>
        <time>2012-12-09T09:41:01Z</time>
      </trkpt>
      <trkpt lat="45.63705" lon="6.05908">
        <ele>1464</ele>
        <time>2012-12-09T09:41:03Z</time>
      </trkpt>
      <trkpt lat="45.63705" lon="6.05906">
        <ele>1464</ele>
        <time>2012-12-09T09:41:05Z</time>
      </trkpt>
      <trkpt lat="45.63704" lon="6.05903">
        <ele>1465</ele>
        <time>2012-12-09T09:41:07Z</time>
      </trkpt>
      <trkpt lat="45.63702" lon="6.05901">
        <ele>1465</ele>
        <time>2012-12-09T09:41:09Z</time>
      </trkpt>
      <trkpt lat="45.63702" lon="6.05899">
        <ele>1466</ele>
        <time>2012-12-09T09:41:11Z</time>
      </trkpt>
      <trkpt lat="45.63701" lon="6.05896">
        <ele>1466</ele>
        <time>2012-12-09T09:41:13Z</time>
      </trkpt>
      <trkpt lat="45.637" lon="6.05894">
        <ele>1466</ele>
        <time>2012-12-09T09:41:15Z</time>
      </trkpt>
      <trkpt lat="45.63699" lon="6.05893">
        <ele>1467</ele>
        <time>2012-12-09T09:41:18Z</time>
      </trkpt>
      <trkpt lat="45.63693" lon="6.05887">
        <ele>1467</ele>
        <time>2012-12-09T09:41:22Z</time>
      </trkpt>
      <trkpt lat="45.63691" lon="6.05885">
        <ele>1467</ele>
        <time>2012-12-09T09:41:24Z</time>
      </trkpt>
      <trkpt lat="45.63691" lon="6.05884">
        <ele>1467</ele>
        <time>2012-12-09T09:41:26Z</time>
      </trkpt>
      <trkpt lat="45.63689" lon="6.05882">
        <ele>1467</ele>
        <time>2012-12-09T09:41:28Z</time>
      </trkpt>
      <trkpt lat="45.63689" lon="6.0588">
        <ele>1468</ele>
        <time>2012-12-09T09:41:30Z</time>
      </trkpt>
      <trkpt lat="45.63688" lon="6.05879">
        <ele>1468</ele>
        <time>2012-12-09T09:41:32Z</time>
      </trkpt>
      <trkpt lat="45.63686" lon="6.05877">
        <ele>1468</ele>
        <time>2012-12-09T09:41:34Z</time>
      </trkpt>
      <trkpt lat="45.63686" lon="6.05875">
        <ele>1468</ele>
        <time>2012-12-09T09:41:36Z</time>
      </trkpt>
      <trkpt lat="45.63684" lon="6.05874">
        <ele>1468</ele>
        <time>2012-12-09T09:41:38Z</time>
      </trkpt>
      <trkpt lat="45.63684" lon="6.05872">
        <ele>1468</ele>
        <time>2012-12-09T09:41:41Z</time>
      </trkpt>
      <trkpt lat="45.63683" lon="6.0587">
        <ele>1468</ele>
        <time>2012-12-09T09:41:43Z</time>
      </trkpt>
      <trkpt lat="45.63682" lon="6.05869">
        <ele>1468</ele>
        <time>2012-12-09T09:41:48Z</time>
      </trkpt>
      <trkpt lat="45.63681" lon="6.05867">
        <ele>1468</ele>
        <time>2012-12-09T09:41:52Z</time>
      </trkpt>
      <trkpt lat="45.63679" lon="6.05868">
        <ele>1469</ele>
        <time>2012-12-09T09:41:55Z</time>
      </trkpt>
      <trkpt lat="45.63678" lon="6.05868">
        <ele>1469</ele>
        <time>2012-12-09T09:41:58Z</time>
      </trkpt>
      <trkpt lat="45.63677" lon="6.05866">
        <ele>1470</ele>
        <time>2012-12-09T09:42:01Z</time>
      </trkpt>
      <trkpt lat="45.63677" lon="6.05864">
        <ele>1470</ele>
        <time>2012-12-09T09:42:04Z</time>
      </trkpt>
      <trkpt lat="45.63676" lon="6.05862">
        <ele>1471</ele>
        <time>2012-12-09T09:42:06Z</time>
      </trkpt>
      <trkpt lat="45.63675" lon="6.05861">
        <ele>1471</ele>
        <time>2012-12-09T09:42:08Z</time>
      </trkpt>
      <trkpt lat="45.63674" lon="6.05859">
        <ele>1471</ele>
        <time>2012-12-09T09:42:10Z</time>
      </trkpt>
      <trkpt lat="45.63673" lon="6.05857">
        <ele>1471</ele>
        <time>2012-12-09T09:42:12Z</time>
      </trkpt>
      <trkpt lat="45.63673" lon="6.05855">
        <ele>1471</ele>
        <time>2012-12-09T09:42:14Z</time>
      </trkpt>
      <trkpt lat="45.63672" lon="6.05854">
        <ele>1472</ele>
        <time>2012-12-09T09:42:18Z</time>
      </trkpt>
      <trkpt lat="45.63667" lon="6.05846">
        <ele>1473</ele>
        <time>2012-12-09T09:42:23Z</time>
      </trkpt>
      <trkpt lat="45.63666" lon="6.05844">
        <ele>1473</ele>
        <time>2012-12-09T09:42:25Z</time>
      </trkpt>
      <trkpt lat="45.63666" lon="6.05842">
        <ele>1473</ele>
        <time>2012-12-09T09:42:27Z</time>
      </trkpt>
      <trkpt lat="45.63665" lon="6.05841">
        <ele>1473</ele>
        <time>2012-12-09T09:42:29Z</time>
      </trkpt>
      <trkpt lat="45.63665" lon="6.05839">
        <ele>1475</ele>
        <time>2012-12-09T09:42:35Z</time>
      </trkpt>
      <trkpt lat="45.63664" lon="6.05837">
        <ele>1477</ele>
        <time>2012-12-09T09:42:38Z</time>
      </trkpt>
      <trkpt lat="45.63664" lon="6.05835">
        <ele>1478</ele>
        <time>2012-12-09T09:42:42Z</time>
      </trkpt>
      <trkpt lat="45.63665" lon="6.05834">
        <ele>1479</ele>
        <time>2012-12-09T09:42:44Z</time>
      </trkpt>
      <trkpt lat="45.63665" lon="6.05832">
        <ele>1479</ele>
        <time>2012-12-09T09:42:46Z</time>
      </trkpt>
      <trkpt lat="45.63666" lon="6.0583">
        <ele>1479</ele>
        <time>2012-12-09T09:42:48Z</time>
      </trkpt>
      <trkpt lat="45.63666" lon="6.05828">
        <ele>1479</ele>
        <time>2012-12-09T09:42:50Z</time>
      </trkpt>
      <trkpt lat="45.63665" lon="6.05826">
        <ele>1479</ele>
        <time>2012-12-09T09:42:52Z</time>
      </trkpt>
      <trkpt lat="45.63665" lon="6.05824">
        <ele>1479</ele>
        <time>2012-12-09T09:42:54Z</time>
      </trkpt>
      <trkpt lat="45.63665" lon="6.05822">
        <ele>1479</ele>
        <time>2012-12-09T09:42:57Z</time>
      </trkpt>
      <trkpt lat="45.63665" lon="6.0582">
        <ele>1479</ele>
        <time>2012-12-09T09:42:59Z</time>
      </trkpt>
      <trkpt lat="45.63665" lon="6.05818">
        <ele>1480</ele>
        <time>2012-12-09T09:43:01Z</time>
      </trkpt>
      <trkpt lat="45.63666" lon="6.05816">
        <ele>1480</ele>
        <time>2012-12-09T09:43:04Z</time>
      </trkpt>
      <trkpt lat="45.63666" lon="6.05814">
        <ele>1480</ele>
        <time>2012-12-09T09:43:06Z</time>
      </trkpt>
      <trkpt lat="45.63666" lon="6.05812">
        <ele>1480</ele>
        <time>2012-12-09T09:43:08Z</time>
      </trkpt>
      <trkpt lat="45.63667" lon="6.05811">
        <ele>1480</ele>
        <time>2012-12-09T09:43:11Z</time>
      </trkpt>
      <trkpt lat="45.63668" lon="6.0581">
        <ele>1480</ele>
        <time>2012-12-09T09:43:13Z</time>
      </trkpt>
      <trkpt lat="45.63668" lon="6.05808">
        <ele>1480</ele>
        <time>2012-12-09T09:43:16Z</time>
      </trkpt>
      <trkpt lat="45.63668" lon="6.05806">
        <ele>1480</ele>
        <time>2012-12-09T09:43:18Z</time>
      </trkpt>
      <trkpt lat="45.63667" lon="6.05805">
        <ele>1480</ele>
        <time>2012-12-09T09:43:20Z</time>
      </trkpt>
      <trkpt lat="45.63667" lon="6.05802">
        <ele>1480</ele>
        <time>2012-12-09T09:43:23Z</time>
      </trkpt>
      <trkpt lat="45.63665" lon="6.05801">
        <ele>1480</ele>
        <time>2012-12-09T09:43:27Z</time>
      </trkpt>
      <trkpt lat="45.63659" lon="6.05798">
        <ele>1480</ele>
        <time>2012-12-09T09:43:29Z</time>
      </trkpt>
      <trkpt lat="45.63657" lon="6.05798">
        <ele>1480</ele>
        <time>2012-12-09T09:43:31Z</time>
      </trkpt>
      <trkpt lat="45.63654" lon="6.05798">
        <ele>1480</ele>
        <time>2012-12-09T09:43:34Z</time>
      </trkpt>
      <trkpt lat="45.63652" lon="6.05799">
        <ele>1480</ele>
        <time>2012-12-09T09:43:36Z</time>
      </trkpt>
      <trkpt lat="45.63651" lon="6.05798">
        <ele>1480</ele>
        <time>2012-12-09T09:43:38Z</time>
      </trkpt>
      <trkpt lat="45.63649" lon="6.05798">
        <ele>1480</ele>
        <time>2012-12-09T09:43:40Z</time>
      </trkpt>
      <trkpt lat="45.63647" lon="6.05798">
        <ele>1480</ele>
        <time>2012-12-09T09:43:42Z</time>
      </trkpt>
      <trkpt lat="45.63645" lon="6.05798">
        <ele>1480</ele>
        <time>2012-12-09T09:43:44Z</time>
      </trkpt>
      <trkpt lat="45.63643" lon="6.05798">
        <ele>1480</ele>
        <time>2012-12-09T09:43:47Z</time>
      </trkpt>
      <trkpt lat="45.6364" lon="6.05797">
        <ele>1480</ele>
        <time>2012-12-09T09:43:50Z</time>
      </trkpt>
      <trkpt lat="45.63638" lon="6.05798">
        <ele>1480</ele>
        <time>2012-12-09T09:43:52Z</time>
      </trkpt>
      <trkpt lat="45.63629" lon="6.05799">
        <ele>1479</ele>
        <time>2012-12-09T09:43:58Z</time>
      </trkpt>
      <trkpt lat="45.63619" lon="6.05799">
        <ele>1480</ele>
        <time>2012-12-09T09:44:05Z</time>
      </trkpt>
      <trkpt lat="45.63617" lon="6.05798">
        <ele>1481</ele>
        <time>2012-12-09T09:44:07Z</time>
      </trkpt>
      <trkpt lat="45.63615" lon="6.05797">
        <ele>1481</ele>
        <time>2012-12-09T09:44:09Z</time>
      </trkpt>
      <trkpt lat="45.63614" lon="6.05796">
        <ele>1481</ele>
        <time>2012-12-09T09:44:11Z</time>
      </trkpt>
      <trkpt lat="45.63612" lon="6.05795">
        <ele>1481</ele>
        <time>2012-12-09T09:44:13Z</time>
      </trkpt>
      <trkpt lat="45.6361" lon="6.05792">
        <ele>1481</ele>
        <time>2012-12-09T09:44:15Z</time>
      </trkpt>
      <trkpt lat="45.63608" lon="6.05791">
        <ele>1481</ele>
        <time>2012-12-09T09:44:17Z</time>
      </trkpt>
      <trkpt lat="45.63605" lon="6.05788">
        <ele>1481</ele>
        <time>2012-12-09T09:44:20Z</time>
      </trkpt>
      <trkpt lat="45.63604" lon="6.05786">
        <ele>1481</ele>
        <time>2012-12-09T09:44:22Z</time>
      </trkpt>
      <trkpt lat="45.63602" lon="6.05783">
        <ele>1481</ele>
        <time>2012-12-09T09:44:24Z</time>
      </trkpt>
      <trkpt lat="45.636" lon="6.0578">
        <ele>1481</ele>
        <time>2012-12-09T09:44:26Z</time>
      </trkpt>
      <trkpt lat="45.63599" lon="6.05777">
        <ele>1481</ele>
        <time>2012-12-09T09:44:28Z</time>
      </trkpt>
      <trkpt lat="45.63597" lon="6.05775">
        <ele>1481</ele>
        <time>2012-12-09T09:44:30Z</time>
      </trkpt>
      <trkpt lat="45.63596" lon="6.05773">
        <ele>1481</ele>
        <time>2012-12-09T09:44:32Z</time>
      </trkpt>
      <trkpt lat="45.63595" lon="6.05772">
        <ele>1481</ele>
        <time>2012-12-09T09:44:34Z</time>
      </trkpt>
      <trkpt lat="45.63594" lon="6.05769">
        <ele>1481</ele>
        <time>2012-12-09T09:44:37Z</time>
      </trkpt>
      <trkpt lat="45.63593" lon="6.05767">
        <ele>1481</ele>
        <time>2012-12-09T09:44:39Z</time>
      </trkpt>
      <trkpt lat="45.63591" lon="6.05763">
        <ele>1481</ele>
        <time>2012-12-09T09:44:42Z</time>
      </trkpt>
      <trkpt lat="45.6359" lon="6.05761">
        <ele>1481</ele>
        <time>2012-12-09T09:44:44Z</time>
      </trkpt>
      <trkpt lat="45.63589" lon="6.05759">
        <ele>1481</ele>
        <time>2012-12-09T09:44:46Z</time>
      </trkpt>
      <trkpt lat="45.63589" lon="6.05757">
        <ele>1481</ele>
        <time>2012-12-09T09:44:48Z</time>
      </trkpt>
      <trkpt lat="45.63588" lon="6.05756">
        <ele>1482</ele>
        <time>2012-12-09T09:44:51Z</time>
      </trkpt>
      <trkpt lat="45.63585" lon="6.05746">
        <ele>1485</ele>
        <time>2012-12-09T09:44:55Z</time>
      </trkpt>
      <trkpt lat="45.63582" lon="6.05743">
        <ele>1485</ele>
        <time>2012-12-09T09:44:58Z</time>
      </trkpt>
      <trkpt lat="45.6358" lon="6.05741">
        <ele>1485</ele>
        <time>2012-12-09T09:45:00Z</time>
      </trkpt>
      <trkpt lat="45.63578" lon="6.05742">
        <ele>1485</ele>
        <time>2012-12-09T09:45:02Z</time>
      </trkpt>
      <trkpt lat="45.63575" lon="6.05742">
        <ele>1485</ele>
        <time>2012-12-09T09:45:05Z</time>
      </trkpt>
      <trkpt lat="45.63572" lon="6.05743">
        <ele>1485</ele>
        <time>2012-12-09T09:45:07Z</time>
      </trkpt>
      <trkpt lat="45.63571" lon="6.05744">
        <ele>1485</ele>
        <time>2012-12-09T09:45:09Z</time>
      </trkpt>
      <trkpt lat="45.63569" lon="6.05747">
        <ele>1485</ele>
        <time>2012-12-09T09:45:11Z</time>
      </trkpt>
      <trkpt lat="45.63567" lon="6.05752">
        <ele>1485</ele>
        <time>2012-12-09T09:45:13Z</time>
      </trkpt>
      <trkpt lat="45.63564" lon="6.05756">
        <ele>1485</ele>
        <time>2012-12-09T09:45:15Z</time>
      </trkpt>
      <trkpt lat="45.63562" lon="6.0576">
        <ele>1485</ele>
        <time>2012-12-09T09:45:17Z</time>
      </trkpt>
      <trkpt lat="45.63561" lon="6.05764">
        <ele>1485</ele>
        <time>2012-12-09T09:45:21Z</time>
      </trkpt>
      <trkpt lat="45.63556" lon="6.05775">
        <ele>1487</ele>
        <time>2012-12-09T09:45:25Z</time>
      </trkpt>
      <trkpt lat="45.63555" lon="6.05776">
        <ele>1487</ele>
        <time>2012-12-09T09:45:27Z</time>
      </trkpt>
      <trkpt lat="45.63551" lon="6.05776">
        <ele>1487</ele>
        <time>2012-12-09T09:45:36Z</time>
      </trkpt>
      <trkpt lat="45.63549" lon="6.05776">
        <ele>1487</ele>
        <time>2012-12-09T09:45:38Z</time>
      </trkpt>
      <trkpt lat="45.63547" lon="6.05776">
        <ele>1487</ele>
        <time>2012-12-09T09:45:40Z</time>
      </trkpt>
      <trkpt lat="45.63544" lon="6.05775">
        <ele>1487</ele>
        <time>2012-12-09T09:45:42Z</time>
      </trkpt>
      <trkpt lat="45.63543" lon="6.05774">
        <ele>1487</ele>
        <time>2012-12-09T09:45:44Z</time>
      </trkpt>
      <trkpt lat="45.63541" lon="6.05774">
        <ele>1487</ele>
        <time>2012-12-09T09:45:46Z</time>
      </trkpt>
      <trkpt lat="45.63539" lon="6.05773">
        <ele>1487</ele>
        <time>2012-12-09T09:45:48Z</time>
      </trkpt>
      <trkpt lat="45.63537" lon="6.05771">
        <ele>1487</ele>
        <time>2012-12-09T09:45:50Z</time>
      </trkpt>
      <trkpt lat="45.63537" lon="6.05773">
        <ele>1487</ele>
        <time>2012-12-09T09:45:57Z</time>
      </trkpt>
      <trkpt lat="45.63531" lon="6.05767">
        <ele>1490</ele>
        <time>2012-12-09T09:45:59Z</time>
      </trkpt>
      <trkpt lat="45.63529" lon="6.05764">
        <ele>1490</ele>
        <time>2012-12-09T09:46:01Z</time>
      </trkpt>
      <trkpt lat="45.63527" lon="6.0576">
        <ele>1490</ele>
        <time>2012-12-09T09:46:04Z</time>
      </trkpt>
      <trkpt lat="45.63526" lon="6.05757">
        <ele>1490</ele>
        <time>2012-12-09T09:46:06Z</time>
      </trkpt>
      <trkpt lat="45.63526" lon="6.05754">
        <ele>1490</ele>
        <time>2012-12-09T09:46:08Z</time>
      </trkpt>
      <trkpt lat="45.63525" lon="6.05751">
        <ele>1490</ele>
        <time>2012-12-09T09:46:10Z</time>
      </trkpt>
      <trkpt lat="45.63522" lon="6.05748">
        <ele>1490</ele>
        <time>2012-12-09T09:46:13Z</time>
      </trkpt>
      <trkpt lat="45.63521" lon="6.05746">
        <ele>1490</ele>
        <time>2012-12-09T09:46:15Z</time>
      </trkpt>
      <trkpt lat="45.63519" lon="6.05745">
        <ele>1490</ele>
        <time>2012-12-09T09:46:17Z</time>
      </trkpt>
      <trkpt lat="45.63518" lon="6.05744">
        <ele>1490</ele>
        <time>2012-12-09T09:46:19Z</time>
      </trkpt>
      <trkpt lat="45.63517" lon="6.05743">
        <ele>1490</ele>
        <time>2012-12-09T09:46:21Z</time>
      </trkpt>
      <trkpt lat="45.63515" lon="6.05741">
        <ele>1490</ele>
        <time>2012-12-09T09:46:23Z</time>
      </trkpt>
      <trkpt lat="45.63514" lon="6.05739">
        <ele>1490</ele>
        <time>2012-12-09T09:46:25Z</time>
      </trkpt>
      <trkpt lat="45.63513" lon="6.05738">
        <ele>1491</ele>
        <time>2012-12-09T09:46:27Z</time>
      </trkpt>
      <trkpt lat="45.63512" lon="6.05736">
        <ele>1491</ele>
        <time>2012-12-09T09:46:29Z</time>
      </trkpt>
      <trkpt lat="45.63511" lon="6.05735">
        <ele>1492</ele>
        <time>2012-12-09T09:46:31Z</time>
      </trkpt>
      <trkpt lat="45.63509" lon="6.05733">
        <ele>1492</ele>
        <time>2012-12-09T09:46:33Z</time>
      </trkpt>
      <trkpt lat="45.63508" lon="6.05732">
        <ele>1493</ele>
        <time>2012-12-09T09:46:35Z</time>
      </trkpt>
      <trkpt lat="45.63506" lon="6.05731">
        <ele>1493</ele>
        <time>2012-12-09T09:46:37Z</time>
      </trkpt>
      <trkpt lat="45.63505" lon="6.0573">
        <ele>1494</ele>
        <time>2012-12-09T09:46:39Z</time>
      </trkpt>
      <trkpt lat="45.63503" lon="6.05728">
        <ele>1494</ele>
        <time>2012-12-09T09:46:41Z</time>
      </trkpt>
      <trkpt lat="45.63501" lon="6.05727">
        <ele>1494</ele>
        <time>2012-12-09T09:46:43Z</time>
      </trkpt>
      <trkpt lat="45.635" lon="6.05727">
        <ele>1494</ele>
        <time>2012-12-09T09:46:45Z</time>
      </trkpt>
      <trkpt lat="45.63499" lon="6.05726">
        <ele>1494</ele>
        <time>2012-12-09T09:46:47Z</time>
      </trkpt>
      <trkpt lat="45.63497" lon="6.05726">
        <ele>1494</ele>
        <time>2012-12-09T09:46:49Z</time>
      </trkpt>
      <trkpt lat="45.63495" lon="6.05725">
        <ele>1494</ele>
        <time>2012-12-09T09:46:51Z</time>
      </trkpt>
      <trkpt lat="45.63494" lon="6.05725">
        <ele>1494</ele>
        <time>2012-12-09T09:46:53Z</time>
      </trkpt>
      <trkpt lat="45.63492" lon="6.05725">
        <ele>1494</ele>
        <time>2012-12-09T09:46:55Z</time>
      </trkpt>
      <trkpt lat="45.6349" lon="6.05725">
        <ele>1494</ele>
        <time>2012-12-09T09:46:57Z</time>
      </trkpt>
      <trkpt lat="45.63488" lon="6.05725">
        <ele>1494</ele>
        <time>2012-12-09T09:46:59Z</time>
      </trkpt>
      <trkpt lat="45.63487" lon="6.05725">
        <ele>1494</ele>
        <time>2012-12-09T09:47:01Z</time>
      </trkpt>
      <trkpt lat="45.63485" lon="6.05724">
        <ele>1494</ele>
        <time>2012-12-09T09:47:03Z</time>
      </trkpt>
      <trkpt lat="45.63483" lon="6.05724">
        <ele>1494</ele>
        <time>2012-12-09T09:47:05Z</time>
      </trkpt>
      <trkpt lat="45.63482" lon="6.05724">
        <ele>1494</ele>
        <time>2012-12-09T09:47:07Z</time>
      </trkpt>
      <trkpt lat="45.6348" lon="6.05723">
        <ele>1494</ele>
        <time>2012-12-09T09:47:09Z</time>
      </trkpt>
      <trkpt lat="45.63479" lon="6.05723">
        <ele>1494</ele>
        <time>2012-12-09T09:47:11Z</time>
      </trkpt>
      <trkpt lat="45.63478" lon="6.05721">
        <ele>1494</ele>
        <time>2012-12-09T09:47:13Z</time>
      </trkpt>
      <trkpt lat="45.63477" lon="6.05719">
        <ele>1494</ele>
        <time>2012-12-09T09:47:15Z</time>
      </trkpt>
      <trkpt lat="45.63476" lon="6.05717">
        <ele>1494</ele>
        <time>2012-12-09T09:47:17Z</time>
      </trkpt>
      <trkpt lat="45.63475" lon="6.05717">
        <ele>1494</ele>
        <time>2012-12-09T09:47:20Z</time>
      </trkpt>
      <trkpt lat="45.63473" lon="6.05716">
        <ele>1494</ele>
        <time>2012-12-09T09:47:22Z</time>
      </trkpt>
      <trkpt lat="45.63471" lon="6.05716">
        <ele>1494</ele>
        <time>2012-12-09T09:47:24Z</time>
      </trkpt>
      <trkpt lat="45.63468" lon="6.05716">
        <ele>1494</ele>
        <time>2012-12-09T09:47:26Z</time>
      </trkpt>
      <trkpt lat="45.63464" lon="6.05715">
        <ele>1494</ele>
        <time>2012-12-09T09:47:29Z</time>
      </trkpt>
      <trkpt lat="45.63462" lon="6.05713">
        <ele>1494</ele>
        <time>2012-12-09T09:47:31Z</time>
      </trkpt>
      <trkpt lat="45.63461" lon="6.05712">
        <ele>1494</ele>
        <time>2012-12-09T09:47:33Z</time>
      </trkpt>
      <trkpt lat="45.6346" lon="6.0571">
        <ele>1494</ele>
        <time>2012-12-09T09:47:35Z</time>
      </trkpt>
      <trkpt lat="45.63459" lon="6.05707">
        <ele>1494</ele>
        <time>2012-12-09T09:47:37Z</time>
      </trkpt>
      <trkpt lat="45.63458" lon="6.05705">
        <ele>1494</ele>
        <time>2012-12-09T09:47:39Z</time>
      </trkpt>
      <trkpt lat="45.63457" lon="6.05703">
        <ele>1494</ele>
        <time>2012-12-09T09:47:41Z</time>
      </trkpt>
      <trkpt lat="45.63456" lon="6.05701">
        <ele>1494</ele>
        <time>2012-12-09T09:47:43Z</time>
      </trkpt>
      <trkpt lat="45.63454" lon="6.057">
        <ele>1494</ele>
        <time>2012-12-09T09:47:45Z</time>
      </trkpt>
      <trkpt lat="45.63453" lon="6.05698">
        <ele>1494</ele>
        <time>2012-12-09T09:47:47Z</time>
      </trkpt>
      <trkpt lat="45.63452" lon="6.05697">
        <ele>1494</ele>
        <time>2012-12-09T09:47:49Z</time>
      </trkpt>
      <trkpt lat="45.63451" lon="6.05695">
        <ele>1494</ele>
        <time>2012-12-09T09:47:51Z</time>
      </trkpt>
      <trkpt lat="45.63452" lon="6.05693">
        <ele>1495</ele>
        <time>2012-12-09T09:47:53Z</time>
      </trkpt>
      <trkpt lat="45.63453" lon="6.05691">
        <ele>1495</ele>
        <time>2012-12-09T09:47:55Z</time>
      </trkpt>
      <trkpt lat="45.63453" lon="6.05688">
        <ele>1496</ele>
        <time>2012-12-09T09:47:57Z</time>
      </trkpt>
      <trkpt lat="45.63453" lon="6.05684">
        <ele>1496</ele>
        <time>2012-12-09T09:48:00Z</time>
      </trkpt>
      <trkpt lat="45.63453" lon="6.05683">
        <ele>1496</ele>
        <time>2012-12-09T09:48:02Z</time>
      </trkpt>
      <trkpt lat="45.63453" lon="6.05681">
        <ele>1497</ele>
        <time>2012-12-09T09:48:04Z</time>
      </trkpt>
      <trkpt lat="45.63452" lon="6.05679">
        <ele>1497</ele>
        <time>2012-12-09T09:48:06Z</time>
      </trkpt>
      <trkpt lat="45.63451" lon="6.05677">
        <ele>1497</ele>
        <time>2012-12-09T09:48:08Z</time>
      </trkpt>
      <trkpt lat="45.6345" lon="6.05676">
        <ele>1497</ele>
        <time>2012-12-09T09:48:10Z</time>
      </trkpt>
      <trkpt lat="45.6345" lon="6.05674">
        <ele>1498</ele>
        <time>2012-12-09T09:48:12Z</time>
      </trkpt>
      <trkpt lat="45.63449" lon="6.05672">
        <ele>1499</ele>
        <time>2012-12-09T09:48:15Z</time>
      </trkpt>
      <trkpt lat="45.63448" lon="6.0567">
        <ele>1499</ele>
        <time>2012-12-09T09:48:17Z</time>
      </trkpt>
      <trkpt lat="45.63447" lon="6.05668">
        <ele>1499</ele>
        <time>2012-12-09T09:48:19Z</time>
      </trkpt>
      <trkpt lat="45.63446" lon="6.05666">
        <ele>1500</ele>
        <time>2012-12-09T09:48:22Z</time>
      </trkpt>
      <trkpt lat="45.63444" lon="6.05665">
        <ele>1500</ele>
        <time>2012-12-09T09:48:25Z</time>
      </trkpt>
      <trkpt lat="45.63442" lon="6.05664">
        <ele>1500</ele>
        <time>2012-12-09T09:48:27Z</time>
      </trkpt>
      <trkpt lat="45.63441" lon="6.05663">
        <ele>1500</ele>
        <time>2012-12-09T09:48:29Z</time>
      </trkpt>
      <trkpt lat="45.6344" lon="6.05663">
        <ele>1500</ele>
        <time>2012-12-09T09:48:31Z</time>
      </trkpt>
      <trkpt lat="45.63439" lon="6.05663">
        <ele>1501</ele>
        <time>2012-12-09T09:48:33Z</time>
      </trkpt>
      <trkpt lat="45.63438" lon="6.05662">
        <ele>1501</ele>
        <time>2012-12-09T09:48:35Z</time>
      </trkpt>
      <trkpt lat="45.63436" lon="6.05661">
        <ele>1501</ele>
        <time>2012-12-09T09:48:37Z</time>
      </trkpt>
      <trkpt lat="45.63434" lon="6.05661">
        <ele>1501</ele>
        <time>2012-12-09T09:48:39Z</time>
      </trkpt>
      <trkpt lat="45.63433" lon="6.0566">
        <ele>1501</ele>
        <time>2012-12-09T09:48:41Z</time>
      </trkpt>
      <trkpt lat="45.63432" lon="6.05657">
        <ele>1502</ele>
        <time>2012-12-09T09:48:44Z</time>
      </trkpt>
      <trkpt lat="45.6343" lon="6.05657">
        <ele>1502</ele>
        <time>2012-12-09T09:48:46Z</time>
      </trkpt>
      <trkpt lat="45.63429" lon="6.05656">
        <ele>1502</ele>
        <time>2012-12-09T09:48:48Z</time>
      </trkpt>
      <trkpt lat="45.63427" lon="6.05656">
        <ele>1502</ele>
        <time>2012-12-09T09:48:50Z</time>
      </trkpt>
      <trkpt lat="45.63426" lon="6.05655">
        <ele>1503</ele>
        <time>2012-12-09T09:48:52Z</time>
      </trkpt>
      <trkpt lat="45.63424" lon="6.05654">
        <ele>1504</ele>
        <time>2012-12-09T09:48:54Z</time>
      </trkpt>
      <trkpt lat="45.63422" lon="6.05653">
        <ele>1505</ele>
        <time>2012-12-09T09:48:57Z</time>
      </trkpt>
      <trkpt lat="45.63418" lon="6.05652">
        <ele>1506</ele>
        <time>2012-12-09T09:49:00Z</time>
      </trkpt>
      <trkpt lat="45.63416" lon="6.0565">
        <ele>1506</ele>
        <time>2012-12-09T09:49:03Z</time>
      </trkpt>
      <trkpt lat="45.63414" lon="6.05649">
        <ele>1506</ele>
        <time>2012-12-09T09:49:05Z</time>
      </trkpt>
      <trkpt lat="45.63413" lon="6.05648">
        <ele>1506</ele>
        <time>2012-12-09T09:49:07Z</time>
      </trkpt>
      <trkpt lat="45.63412" lon="6.05646">
        <ele>1506</ele>
        <time>2012-12-09T09:49:09Z</time>
      </trkpt>
      <trkpt lat="45.6341" lon="6.05644">
        <ele>1506</ele>
        <time>2012-12-09T09:49:11Z</time>
      </trkpt>
      <trkpt lat="45.63409" lon="6.05643">
        <ele>1506</ele>
        <time>2012-12-09T09:49:13Z</time>
      </trkpt>
      <trkpt lat="45.63406" lon="6.05641">
        <ele>1506</ele>
        <time>2012-12-09T09:49:15Z</time>
      </trkpt>
      <trkpt lat="45.63403" lon="6.05642">
        <ele>1506</ele>
        <time>2012-12-09T09:49:17Z</time>
      </trkpt>
      <trkpt lat="45.63402" lon="6.05642">
        <ele>1506</ele>
        <time>2012-12-09T09:49:19Z</time>
      </trkpt>
      <trkpt lat="45.63401" lon="6.05641">
        <ele>1506</ele>
        <time>2012-12-09T09:49:21Z</time>
      </trkpt>
      <trkpt lat="45.63399" lon="6.05641">
        <ele>1506</ele>
        <time>2012-12-09T09:49:23Z</time>
      </trkpt>
      <trkpt lat="45.63397" lon="6.0564">
        <ele>1506</ele>
        <time>2012-12-09T09:49:25Z</time>
      </trkpt>
      <trkpt lat="45.63396" lon="6.05639">
        <ele>1506</ele>
        <time>2012-12-09T09:49:27Z</time>
      </trkpt>
      <trkpt lat="45.63395" lon="6.05637">
        <ele>1506</ele>
        <time>2012-12-09T09:49:29Z</time>
      </trkpt>
      <trkpt lat="45.63393" lon="6.05635">
        <ele>1506</ele>
        <time>2012-12-09T09:49:31Z</time>
      </trkpt>
      <trkpt lat="45.63392" lon="6.05632">
        <ele>1506</ele>
        <time>2012-12-09T09:49:33Z</time>
      </trkpt>
      <trkpt lat="45.63392" lon="6.0563">
        <ele>1506</ele>
        <time>2012-12-09T09:49:35Z</time>
      </trkpt>
      <trkpt lat="45.6339" lon="6.0563">
        <ele>1506</ele>
        <time>2012-12-09T09:49:37Z</time>
      </trkpt>
      <trkpt lat="45.63388" lon="6.05628">
        <ele>1506</ele>
        <time>2012-12-09T09:49:39Z</time>
      </trkpt>
      <trkpt lat="45.63387" lon="6.05626">
        <ele>1507</ele>
        <time>2012-12-09T09:49:41Z</time>
      </trkpt>
      <trkpt lat="45.63386" lon="6.05625">
        <ele>1507</ele>
        <time>2012-12-09T09:49:43Z</time>
      </trkpt>
      <trkpt lat="45.63385" lon="6.05624">
        <ele>1507</ele>
        <time>2012-12-09T09:49:45Z</time>
      </trkpt>
      <trkpt lat="45.63384" lon="6.05623">
        <ele>1507</ele>
        <time>2012-12-09T09:49:47Z</time>
      </trkpt>
      <trkpt lat="45.63382" lon="6.0562">
        <ele>1508</ele>
        <time>2012-12-09T09:49:50Z</time>
      </trkpt>
      <trkpt lat="45.6338" lon="6.05619">
        <ele>1508</ele>
        <time>2012-12-09T09:49:52Z</time>
      </trkpt>
      <trkpt lat="45.63379" lon="6.05618">
        <ele>1508</ele>
        <time>2012-12-09T09:49:54Z</time>
      </trkpt>
      <trkpt lat="45.63377" lon="6.05616">
        <ele>1508</ele>
        <time>2012-12-09T09:49:56Z</time>
      </trkpt>
      <trkpt lat="45.63376" lon="6.05615">
        <ele>1508</ele>
        <time>2012-12-09T09:49:58Z</time>
      </trkpt>
      <trkpt lat="45.63375" lon="6.05614">
        <ele>1509</ele>
        <time>2012-12-09T09:50:00Z</time>
      </trkpt>
      <trkpt lat="45.63374" lon="6.05612">
        <ele>1509</ele>
        <time>2012-12-09T09:50:02Z</time>
      </trkpt>
      <trkpt lat="45.63372" lon="6.05611">
        <ele>1509</ele>
        <time>2012-12-09T09:50:04Z</time>
      </trkpt>
      <trkpt lat="45.63371" lon="6.0561">
        <ele>1509</ele>
        <time>2012-12-09T09:50:07Z</time>
      </trkpt>
      <trkpt lat="45.63369" lon="6.05608">
        <ele>1510</ele>
        <time>2012-12-09T09:50:09Z</time>
      </trkpt>
      <trkpt lat="45.63359" lon="6.05603">
        <ele>1515</ele>
        <time>2012-12-09T09:50:16Z</time>
      </trkpt>
      <trkpt lat="45.63357" lon="6.05602">
        <ele>1515</ele>
        <time>2012-12-09T09:50:18Z</time>
      </trkpt>
      <trkpt lat="45.63356" lon="6.05602">
        <ele>1515</ele>
        <time>2012-12-09T09:50:20Z</time>
      </trkpt>
      <trkpt lat="45.63353" lon="6.05602">
        <ele>1515</ele>
        <time>2012-12-09T09:50:22Z</time>
      </trkpt>
      <trkpt lat="45.63351" lon="6.05602">
        <ele>1515</ele>
        <time>2012-12-09T09:50:26Z</time>
      </trkpt>
      <trkpt lat="45.63349" lon="6.056">
        <ele>1515</ele>
        <time>2012-12-09T09:50:30Z</time>
      </trkpt>
      <trkpt lat="45.63348" lon="6.05598">
        <ele>1515</ele>
        <time>2012-12-09T09:50:32Z</time>
      </trkpt>
      <trkpt lat="45.63347" lon="6.05596">
        <ele>1515</ele>
        <time>2012-12-09T09:50:34Z</time>
      </trkpt>
      <trkpt lat="45.63344" lon="6.05595">
        <ele>1515</ele>
        <time>2012-12-09T09:50:38Z</time>
      </trkpt>
      <trkpt lat="45.63342" lon="6.05595">
        <ele>1515</ele>
        <time>2012-12-09T09:50:40Z</time>
      </trkpt>
      <trkpt lat="45.63339" lon="6.05595">
        <ele>1515</ele>
        <time>2012-12-09T09:50:42Z</time>
      </trkpt>
      <trkpt lat="45.63336" lon="6.05597">
        <ele>1516</ele>
        <time>2012-12-09T09:50:44Z</time>
      </trkpt>
      <trkpt lat="45.63333" lon="6.05598">
        <ele>1516</ele>
        <time>2012-12-09T09:50:46Z</time>
      </trkpt>
      <trkpt lat="45.6333" lon="6.05598">
        <ele>1516</ele>
        <time>2012-12-09T09:50:49Z</time>
      </trkpt>
      <trkpt lat="45.63328" lon="6.05597">
        <ele>1516</ele>
        <time>2012-12-09T09:50:51Z</time>
      </trkpt>
      <trkpt lat="45.63324" lon="6.05595">
        <ele>1516</ele>
        <time>2012-12-09T09:50:55Z</time>
      </trkpt>
      <trkpt lat="45.63323" lon="6.05594">
        <ele>1517</ele>
        <time>2012-12-09T09:50:57Z</time>
      </trkpt>
      <trkpt lat="45.63321" lon="6.05593">
        <ele>1517</ele>
        <time>2012-12-09T09:50:59Z</time>
      </trkpt>
      <trkpt lat="45.63319" lon="6.05592">
        <ele>1517</ele>
        <time>2012-12-09T09:51:01Z</time>
      </trkpt>
      <trkpt lat="45.63317" lon="6.0559">
        <ele>1517</ele>
        <time>2012-12-09T09:51:03Z</time>
      </trkpt>
      <trkpt lat="45.63315" lon="6.05588">
        <ele>1517</ele>
        <time>2012-12-09T09:51:06Z</time>
      </trkpt>
      <trkpt lat="45.63314" lon="6.05586">
        <ele>1517</ele>
        <time>2012-12-09T09:51:08Z</time>
      </trkpt>
      <trkpt lat="45.63314" lon="6.05583">
        <ele>1517</ele>
        <time>2012-12-09T09:51:11Z</time>
      </trkpt>
      <trkpt lat="45.63315" lon="6.05581">
        <ele>1518</ele>
        <time>2012-12-09T09:51:15Z</time>
      </trkpt>
      <trkpt lat="45.63314" lon="6.05578">
        <ele>1519</ele>
        <time>2012-12-09T09:51:17Z</time>
      </trkpt>
      <trkpt lat="45.63314" lon="6.05574">
        <ele>1520</ele>
        <time>2012-12-09T09:51:21Z</time>
      </trkpt>
      <trkpt lat="45.63314" lon="6.05572">
        <ele>1520</ele>
        <time>2012-12-09T09:51:23Z</time>
      </trkpt>
      <trkpt lat="45.63313" lon="6.05569">
        <ele>1521</ele>
        <time>2012-12-09T09:51:25Z</time>
      </trkpt>
      <trkpt lat="45.63313" lon="6.05566">
        <ele>1522</ele>
        <time>2012-12-09T09:51:27Z</time>
      </trkpt>
      <trkpt lat="45.63313" lon="6.05564">
        <ele>1522</ele>
        <time>2012-12-09T09:51:29Z</time>
      </trkpt>
      <trkpt lat="45.63313" lon="6.05562">
        <ele>1523</ele>
        <time>2012-12-09T09:51:31Z</time>
      </trkpt>
      <trkpt lat="45.63313" lon="6.05559">
        <ele>1523</ele>
        <time>2012-12-09T09:51:33Z</time>
      </trkpt>
      <trkpt lat="45.63313" lon="6.05557">
        <ele>1523</ele>
        <time>2012-12-09T09:51:35Z</time>
      </trkpt>
      <trkpt lat="45.63312" lon="6.05555">
        <ele>1524</ele>
        <time>2012-12-09T09:51:39Z</time>
      </trkpt>
      <trkpt lat="45.63311" lon="6.05554">
        <ele>1524</ele>
        <time>2012-12-09T09:51:41Z</time>
      </trkpt>
      <trkpt lat="45.6331" lon="6.05551">
        <ele>1525</ele>
        <time>2012-12-09T09:51:43Z</time>
      </trkpt>
      <trkpt lat="45.63309" lon="6.0555">
        <ele>1525</ele>
        <time>2012-12-09T09:51:45Z</time>
      </trkpt>
      <trkpt lat="45.63308" lon="6.05549">
        <ele>1525</ele>
        <time>2012-12-09T09:51:47Z</time>
      </trkpt>
      <trkpt lat="45.63304" lon="6.05547">
        <ele>1526</ele>
        <time>2012-12-09T09:51:51Z</time>
      </trkpt>
      <trkpt lat="45.63303" lon="6.05546">
        <ele>1526</ele>
        <time>2012-12-09T09:51:53Z</time>
      </trkpt>
      <trkpt lat="45.633" lon="6.05543">
        <ele>1526</ele>
        <time>2012-12-09T09:51:57Z</time>
      </trkpt>
      <trkpt lat="45.63299" lon="6.05542">
        <ele>1526</ele>
        <time>2012-12-09T09:51:59Z</time>
      </trkpt>
      <trkpt lat="45.63298" lon="6.05539">
        <ele>1526</ele>
        <time>2012-12-09T09:52:01Z</time>
      </trkpt>
      <trkpt lat="45.63297" lon="6.05535">
        <ele>1526</ele>
        <time>2012-12-09T09:52:05Z</time>
      </trkpt>
      <trkpt lat="45.63296" lon="6.05531">
        <ele>1527</ele>
        <time>2012-12-09T09:52:09Z</time>
      </trkpt>
      <trkpt lat="45.63295" lon="6.05529">
        <ele>1528</ele>
        <time>2012-12-09T09:52:12Z</time>
      </trkpt>
      <trkpt lat="45.63293" lon="6.05527">
        <ele>1528</ele>
        <time>2012-12-09T09:52:15Z</time>
      </trkpt>
      <trkpt lat="45.63292" lon="6.05525">
        <ele>1528</ele>
        <time>2012-12-09T09:52:18Z</time>
      </trkpt>
      <trkpt lat="45.6329" lon="6.05523">
        <ele>1529</ele>
        <time>2012-12-09T09:52:22Z</time>
      </trkpt>
      <trkpt lat="45.63289" lon="6.05521">
        <ele>1529</ele>
        <time>2012-12-09T09:52:24Z</time>
      </trkpt>
      <trkpt lat="45.63287" lon="6.05518">
        <ele>1529</ele>
        <time>2012-12-09T09:52:28Z</time>
      </trkpt>
      <trkpt lat="45.63286" lon="6.05518">
        <ele>1529</ele>
        <time>2012-12-09T09:52:30Z</time>
      </trkpt>
      <trkpt lat="45.63283" lon="6.05516">
        <ele>1529</ele>
        <time>2012-12-09T09:52:34Z</time>
      </trkpt>
      <trkpt lat="45.63281" lon="6.05515">
        <ele>1530</ele>
        <time>2012-12-09T09:52:36Z</time>
      </trkpt>
      <trkpt lat="45.63279" lon="6.05511">
        <ele>1530</ele>
        <time>2012-12-09T09:52:40Z</time>
      </trkpt>
      <trkpt lat="45.63278" lon="6.0551">
        <ele>1530</ele>
        <time>2012-12-09T09:52:42Z</time>
      </trkpt>
      <trkpt lat="45.63277" lon="6.05506">
        <ele>1530</ele>
        <time>2012-12-09T09:52:46Z</time>
      </trkpt>
      <trkpt lat="45.63277" lon="6.05504">
        <ele>1531</ele>
        <time>2012-12-09T09:52:48Z</time>
      </trkpt>
      <trkpt lat="45.63276" lon="6.05503">
        <ele>1533</ele>
        <time>2012-12-09T09:52:51Z</time>
      </trkpt>
      <trkpt lat="45.63275" lon="6.05502">
        <ele>1533</ele>
        <time>2012-12-09T09:52:53Z</time>
      </trkpt>
      <trkpt lat="45.63274" lon="6.05501">
        <ele>1534</ele>
        <time>2012-12-09T09:52:55Z</time>
      </trkpt>
      <trkpt lat="45.63271" lon="6.05501">
        <ele>1534</ele>
        <time>2012-12-09T09:52:59Z</time>
      </trkpt>
      <trkpt lat="45.6327" lon="6.055">
        <ele>1535</ele>
        <time>2012-12-09T09:53:01Z</time>
      </trkpt>
      <trkpt lat="45.63269" lon="6.05496">
        <ele>1536</ele>
        <time>2012-12-09T09:53:05Z</time>
      </trkpt>
      <trkpt lat="45.63268" lon="6.05494">
        <ele>1536</ele>
        <time>2012-12-09T09:53:07Z</time>
      </trkpt>
      <trkpt lat="45.63267" lon="6.05492">
        <ele>1536</ele>
        <time>2012-12-09T09:53:10Z</time>
      </trkpt>
      <trkpt lat="45.63266" lon="6.0549">
        <ele>1536</ele>
        <time>2012-12-09T09:53:12Z</time>
      </trkpt>
      <trkpt lat="45.63264" lon="6.05486">
        <ele>1538</ele>
        <time>2012-12-09T09:53:17Z</time>
      </trkpt>
      <trkpt lat="45.63263" lon="6.05485">
        <ele>1540</ele>
        <time>2012-12-09T09:53:20Z</time>
      </trkpt>
      <trkpt lat="45.63261" lon="6.05485">
        <ele>1540</ele>
        <time>2012-12-09T09:53:23Z</time>
      </trkpt>
      <trkpt lat="45.6326" lon="6.05483">
        <ele>1541</ele>
        <time>2012-12-09T09:53:26Z</time>
      </trkpt>
      <trkpt lat="45.63258" lon="6.05482">
        <ele>1541</ele>
        <time>2012-12-09T09:53:28Z</time>
      </trkpt>
      <trkpt lat="45.63256" lon="6.0548">
        <ele>1542</ele>
        <time>2012-12-09T09:53:32Z</time>
      </trkpt>
      <trkpt lat="45.63254" lon="6.05478">
        <ele>1542</ele>
        <time>2012-12-09T09:53:34Z</time>
      </trkpt>
      <trkpt lat="45.63251" lon="6.05475">
        <ele>1542</ele>
        <time>2012-12-09T09:53:38Z</time>
      </trkpt>
      <trkpt lat="45.6325" lon="6.05473">
        <ele>1542</ele>
        <time>2012-12-09T09:53:40Z</time>
      </trkpt>
      <trkpt lat="45.6325" lon="6.05471">
        <ele>1542</ele>
        <time>2012-12-09T09:53:43Z</time>
      </trkpt>
      <trkpt lat="45.63248" lon="6.05469">
        <ele>1543</ele>
        <time>2012-12-09T09:53:46Z</time>
      </trkpt>
      <trkpt lat="45.63248" lon="6.05466">
        <ele>1543</ele>
        <time>2012-12-09T09:53:50Z</time>
      </trkpt>
      <trkpt lat="45.6325" lon="6.05465">
        <ele>1544</ele>
        <time>2012-12-09T09:53:55Z</time>
      </trkpt>
      <trkpt lat="45.63252" lon="6.0546">
        <ele>1544</ele>
        <time>2012-12-09T09:54:02Z</time>
      </trkpt>
      <trkpt lat="45.63244" lon="6.05448">
        <ele>1549</ele>
        <time>2012-12-09T09:54:08Z</time>
      </trkpt>
      <trkpt lat="45.63242" lon="6.05444">
        <ele>1549</ele>
        <time>2012-12-09T09:54:12Z</time>
      </trkpt>
      <trkpt lat="45.63242" lon="6.05442">
        <ele>1549</ele>
        <time>2012-12-09T09:54:15Z</time>
      </trkpt>
      <trkpt lat="45.6324" lon="6.05439">
        <ele>1549</ele>
        <time>2012-12-09T09:54:19Z</time>
      </trkpt>
      <trkpt lat="45.63239" lon="6.05437">
        <ele>1549</ele>
        <time>2012-12-09T09:54:21Z</time>
      </trkpt>
      <trkpt lat="45.63238" lon="6.05435">
        <ele>1549</ele>
        <time>2012-12-09T09:54:24Z</time>
      </trkpt>
      <trkpt lat="45.63236" lon="6.05434">
        <ele>1549</ele>
        <time>2012-12-09T09:54:27Z</time>
      </trkpt>
      <trkpt lat="45.63234" lon="6.05431">
        <ele>1549</ele>
        <time>2012-12-09T09:54:31Z</time>
      </trkpt>
      <trkpt lat="45.63232" lon="6.05429">
        <ele>1549</ele>
        <time>2012-12-09T09:54:33Z</time>
      </trkpt>
      <trkpt lat="45.6323" lon="6.05427">
        <ele>1550</ele>
        <time>2012-12-09T09:54:37Z</time>
      </trkpt>
      <trkpt lat="45.63228" lon="6.05426">
        <ele>1550</ele>
        <time>2012-12-09T09:54:39Z</time>
      </trkpt>
      <trkpt lat="45.63226" lon="6.05424">
        <ele>1551</ele>
        <time>2012-12-09T09:54:43Z</time>
      </trkpt>
      <trkpt lat="45.63224" lon="6.05426">
        <ele>1551</ele>
        <time>2012-12-09T09:54:46Z</time>
      </trkpt>
      <trkpt lat="45.63223" lon="6.05428">
        <ele>1551</ele>
        <time>2012-12-09T09:54:48Z</time>
      </trkpt>
      <trkpt lat="45.63222" lon="6.05429">
        <ele>1551</ele>
        <time>2012-12-09T09:54:50Z</time>
      </trkpt>
      <trkpt lat="45.63221" lon="6.05431">
        <ele>1551</ele>
        <time>2012-12-09T09:54:52Z</time>
      </trkpt>
      <trkpt lat="45.63219" lon="6.05432">
        <ele>1552</ele>
        <time>2012-12-09T09:54:55Z</time>
      </trkpt>
      <trkpt lat="45.63218" lon="6.05432">
        <ele>1552</ele>
        <time>2012-12-09T09:54:58Z</time>
      </trkpt>
      <trkpt lat="45.63215" lon="6.05433">
        <ele>1552</ele>
        <time>2012-12-09T09:55:03Z</time>
      </trkpt>
      <trkpt lat="45.63213" lon="6.05436">
        <ele>1553</ele>
        <time>2012-12-09T09:55:07Z</time>
      </trkpt>
      <trkpt lat="45.63213" lon="6.05438">
        <ele>1553</ele>
        <time>2012-12-09T09:55:09Z</time>
      </trkpt>
      <trkpt lat="45.63212" lon="6.05441">
        <ele>1553</ele>
        <time>2012-12-09T09:55:13Z</time>
      </trkpt>
      <trkpt lat="45.63206" lon="6.05438">
        <ele>1553</ele>
        <time>2012-12-09T09:55:19Z</time>
      </trkpt>
      <trkpt lat="45.63205" lon="6.05434">
        <ele>1553</ele>
        <time>2012-12-09T09:55:22Z</time>
      </trkpt>
      <trkpt lat="45.63205" lon="6.05432">
        <ele>1553</ele>
        <time>2012-12-09T09:55:24Z</time>
      </trkpt>
      <trkpt lat="45.63205" lon="6.05429">
        <ele>1553</ele>
        <time>2012-12-09T09:55:26Z</time>
      </trkpt>
      <trkpt lat="45.63204" lon="6.05427">
        <ele>1553</ele>
        <time>2012-12-09T09:55:28Z</time>
      </trkpt>
      <trkpt lat="45.63204" lon="6.05424">
        <ele>1553</ele>
        <time>2012-12-09T09:55:30Z</time>
      </trkpt>
      <trkpt lat="45.63204" lon="6.05422">
        <ele>1553</ele>
        <time>2012-12-09T09:55:32Z</time>
      </trkpt>
      <trkpt lat="45.63203" lon="6.0542">
        <ele>1553</ele>
        <time>2012-12-09T09:55:34Z</time>
      </trkpt>
      <trkpt lat="45.63203" lon="6.05417">
        <ele>1553</ele>
        <time>2012-12-09T09:55:36Z</time>
      </trkpt>
      <trkpt lat="45.63202" lon="6.05415">
        <ele>1553</ele>
        <time>2012-12-09T09:55:38Z</time>
      </trkpt>
      <trkpt lat="45.63201" lon="6.05414">
        <ele>1553</ele>
        <time>2012-12-09T09:55:40Z</time>
      </trkpt>
      <trkpt lat="45.632" lon="6.05413">
        <ele>1553</ele>
        <time>2012-12-09T09:55:42Z</time>
      </trkpt>
      <trkpt lat="45.63198" lon="6.05411">
        <ele>1553</ele>
        <time>2012-12-09T09:55:44Z</time>
      </trkpt>
      <trkpt lat="45.63197" lon="6.0541">
        <ele>1553</ele>
        <time>2012-12-09T09:55:46Z</time>
      </trkpt>
      <trkpt lat="45.63195" lon="6.05408">
        <ele>1553</ele>
        <time>2012-12-09T09:55:48Z</time>
      </trkpt>
      <trkpt lat="45.63193" lon="6.05407">
        <ele>1553</ele>
        <time>2012-12-09T09:55:50Z</time>
      </trkpt>
      <trkpt lat="45.63192" lon="6.05406">
        <ele>1553</ele>
        <time>2012-12-09T09:55:52Z</time>
      </trkpt>
      <trkpt lat="45.6319" lon="6.05405">
        <ele>1553</ele>
        <time>2012-12-09T09:55:54Z</time>
      </trkpt>
      <trkpt lat="45.63189" lon="6.05404">
        <ele>1553</ele>
        <time>2012-12-09T09:55:56Z</time>
      </trkpt>
      <trkpt lat="45.63187" lon="6.05402">
        <ele>1553</ele>
        <time>2012-12-09T09:55:58Z</time>
      </trkpt>
      <trkpt lat="45.63186" lon="6.054">
        <ele>1553</ele>
        <time>2012-12-09T09:56:00Z</time>
      </trkpt>
      <trkpt lat="45.63185" lon="6.05399">
        <ele>1553</ele>
        <time>2012-12-09T09:56:02Z</time>
      </trkpt>
      <trkpt lat="45.63184" lon="6.05396">
        <ele>1554</ele>
        <time>2012-12-09T09:56:04Z</time>
      </trkpt>
      <trkpt lat="45.63183" lon="6.05394">
        <ele>1555</ele>
        <time>2012-12-09T09:56:06Z</time>
      </trkpt>
      <trkpt lat="45.63182" lon="6.05392">
        <ele>1555</ele>
        <time>2012-12-09T09:56:08Z</time>
      </trkpt>
      <trkpt lat="45.63181" lon="6.05389">
        <ele>1556</ele>
        <time>2012-12-09T09:56:10Z</time>
      </trkpt>
      <trkpt lat="45.63181" lon="6.05387">
        <ele>1556</ele>
        <time>2012-12-09T09:56:12Z</time>
      </trkpt>
      <trkpt lat="45.6318" lon="6.05385">
        <ele>1557</ele>
        <time>2012-12-09T09:56:14Z</time>
      </trkpt>
      <trkpt lat="45.63179" lon="6.05382">
        <ele>1557</ele>
        <time>2012-12-09T09:56:16Z</time>
      </trkpt>
      <trkpt lat="45.63178" lon="6.0538">
        <ele>1558</ele>
        <time>2012-12-09T09:56:18Z</time>
      </trkpt>
      <trkpt lat="45.63177" lon="6.05378">
        <ele>1558</ele>
        <time>2012-12-09T09:56:20Z</time>
      </trkpt>
      <trkpt lat="45.63177" lon="6.05375">
        <ele>1559</ele>
        <time>2012-12-09T09:56:22Z</time>
      </trkpt>
      <trkpt lat="45.63176" lon="6.05371">
        <ele>1559</ele>
        <time>2012-12-09T09:56:26Z</time>
      </trkpt>
      <trkpt lat="45.63175" lon="6.05369">
        <ele>1559</ele>
        <time>2012-12-09T09:56:28Z</time>
      </trkpt>
      <trkpt lat="45.63174" lon="6.05367">
        <ele>1559</ele>
        <time>2012-12-09T09:56:30Z</time>
      </trkpt>
      <trkpt lat="45.63173" lon="6.05365">
        <ele>1560</ele>
        <time>2012-12-09T09:56:32Z</time>
      </trkpt>
      <trkpt lat="45.63172" lon="6.05362">
        <ele>1560</ele>
        <time>2012-12-09T09:56:34Z</time>
      </trkpt>
      <trkpt lat="45.63172" lon="6.0536">
        <ele>1560</ele>
        <time>2012-12-09T09:56:36Z</time>
      </trkpt>
      <trkpt lat="45.63171" lon="6.05356">
        <ele>1561</ele>
        <time>2012-12-09T09:56:39Z</time>
      </trkpt>
      <trkpt lat="45.6317" lon="6.05354">
        <ele>1561</ele>
        <time>2012-12-09T09:56:41Z</time>
      </trkpt>
      <trkpt lat="45.63169" lon="6.05352">
        <ele>1561</ele>
        <time>2012-12-09T09:56:43Z</time>
      </trkpt>
      <trkpt lat="45.63168" lon="6.05349">
        <ele>1562</ele>
        <time>2012-12-09T09:56:45Z</time>
      </trkpt>
      <trkpt lat="45.63168" lon="6.05347">
        <ele>1562</ele>
        <time>2012-12-09T09:56:47Z</time>
      </trkpt>
      <trkpt lat="45.63167" lon="6.05346">
        <ele>1563</ele>
        <time>2012-12-09T09:56:49Z</time>
      </trkpt>
      <trkpt lat="45.63167" lon="6.05344">
        <ele>1563</ele>
        <time>2012-12-09T09:56:51Z</time>
      </trkpt>
      <trkpt lat="45.63166" lon="6.05342">
        <ele>1563</ele>
        <time>2012-12-09T09:56:53Z</time>
      </trkpt>
      <trkpt lat="45.63166" lon="6.0534">
        <ele>1564</ele>
        <time>2012-12-09T09:56:55Z</time>
      </trkpt>
      <trkpt lat="45.63165" lon="6.05338">
        <ele>1564</ele>
        <time>2012-12-09T09:56:57Z</time>
      </trkpt>
      <trkpt lat="45.63165" lon="6.05336">
        <ele>1565</ele>
        <time>2012-12-09T09:56:59Z</time>
      </trkpt>
      <trkpt lat="45.63164" lon="6.05334">
        <ele>1565</ele>
        <time>2012-12-09T09:57:01Z</time>
      </trkpt>
      <trkpt lat="45.63163" lon="6.05331">
        <ele>1566</ele>
        <time>2012-12-09T09:57:03Z</time>
      </trkpt>
      <trkpt lat="45.63163" lon="6.05329">
        <ele>1566</ele>
        <time>2012-12-09T09:57:05Z</time>
      </trkpt>
      <trkpt lat="45.63162" lon="6.05327">
        <ele>1567</ele>
        <time>2012-12-09T09:57:07Z</time>
      </trkpt>
      <trkpt lat="45.63162" lon="6.05325">
        <ele>1567</ele>
        <time>2012-12-09T09:57:09Z</time>
      </trkpt>
      <trkpt lat="45.63161" lon="6.05324">
        <ele>1568</ele>
        <time>2012-12-09T09:57:11Z</time>
      </trkpt>
      <trkpt lat="45.6316" lon="6.05322">
        <ele>1568</ele>
        <time>2012-12-09T09:57:13Z</time>
      </trkpt>
      <trkpt lat="45.63159" lon="6.0532">
        <ele>1569</ele>
        <time>2012-12-09T09:57:15Z</time>
      </trkpt>
      <trkpt lat="45.63158" lon="6.05319">
        <ele>1569</ele>
        <time>2012-12-09T09:57:17Z</time>
      </trkpt>
      <trkpt lat="45.63157" lon="6.05317">
        <ele>1570</ele>
        <time>2012-12-09T09:57:19Z</time>
      </trkpt>
      <trkpt lat="45.63155" lon="6.05316">
        <ele>1570</ele>
        <time>2012-12-09T09:57:21Z</time>
      </trkpt>
      <trkpt lat="45.63155" lon="6.05315">
        <ele>1571</ele>
        <time>2012-12-09T09:57:23Z</time>
      </trkpt>
      <trkpt lat="45.63154" lon="6.05313">
        <ele>1571</ele>
        <time>2012-12-09T09:57:25Z</time>
      </trkpt>
      <trkpt lat="45.63152" lon="6.05312">
        <ele>1571</ele>
        <time>2012-12-09T09:57:27Z</time>
      </trkpt>
      <trkpt lat="45.63152" lon="6.0531">
        <ele>1571</ele>
        <time>2012-12-09T09:57:29Z</time>
      </trkpt>
      <trkpt lat="45.6315" lon="6.05308">
        <ele>1572</ele>
        <time>2012-12-09T09:57:31Z</time>
      </trkpt>
      <trkpt lat="45.6315" lon="6.05307">
        <ele>1572</ele>
        <time>2012-12-09T09:57:33Z</time>
      </trkpt>
      <trkpt lat="45.63149" lon="6.05305">
        <ele>1573</ele>
        <time>2012-12-09T09:57:35Z</time>
      </trkpt>
      <trkpt lat="45.63148" lon="6.05303">
        <ele>1573</ele>
        <time>2012-12-09T09:57:37Z</time>
      </trkpt>
      <trkpt lat="45.63149" lon="6.05301">
        <ele>1574</ele>
        <time>2012-12-09T09:57:39Z</time>
      </trkpt>
      <trkpt lat="45.6315" lon="6.05298">
        <ele>1574</ele>
        <time>2012-12-09T09:57:41Z</time>
      </trkpt>
      <trkpt lat="45.6315" lon="6.05297">
        <ele>1574</ele>
        <time>2012-12-09T09:57:43Z</time>
      </trkpt>
      <trkpt lat="45.63151" lon="6.05295">
        <ele>1574</ele>
        <time>2012-12-09T09:57:45Z</time>
      </trkpt>
      <trkpt lat="45.63151" lon="6.05293">
        <ele>1574</ele>
        <time>2012-12-09T09:57:47Z</time>
      </trkpt>
      <trkpt lat="45.63151" lon="6.05292">
        <ele>1574</ele>
        <time>2012-12-09T09:57:49Z</time>
      </trkpt>
      <trkpt lat="45.6315" lon="6.0529">
        <ele>1574</ele>
        <time>2012-12-09T09:57:51Z</time>
      </trkpt>
      <trkpt lat="45.63149" lon="6.05288">
        <ele>1574</ele>
        <time>2012-12-09T09:57:54Z</time>
      </trkpt>
      <trkpt lat="45.63148" lon="6.05286">
        <ele>1575</ele>
        <time>2012-12-09T09:57:56Z</time>
      </trkpt>
      <trkpt lat="45.63148" lon="6.05284">
        <ele>1575</ele>
        <time>2012-12-09T09:57:58Z</time>
      </trkpt>
      <trkpt lat="45.63147" lon="6.05282">
        <ele>1576</ele>
        <time>2012-12-09T09:58:00Z</time>
      </trkpt>
      <trkpt lat="45.63146" lon="6.0528">
        <ele>1576</ele>
        <time>2012-12-09T09:58:02Z</time>
      </trkpt>
      <trkpt lat="45.63145" lon="6.05278">
        <ele>1576</ele>
        <time>2012-12-09T09:58:04Z</time>
      </trkpt>
      <trkpt lat="45.63144" lon="6.05276">
        <ele>1577</ele>
        <time>2012-12-09T09:58:06Z</time>
      </trkpt>
      <trkpt lat="45.63143" lon="6.05275">
        <ele>1577</ele>
        <time>2012-12-09T09:58:08Z</time>
      </trkpt>
      <trkpt lat="45.63142" lon="6.05274">
        <ele>1577</ele>
        <time>2012-12-09T09:58:10Z</time>
      </trkpt>
      <trkpt lat="45.6314" lon="6.05273">
        <ele>1578</ele>
        <time>2012-12-09T09:58:12Z</time>
      </trkpt>
      <trkpt lat="45.63139" lon="6.05272">
        <ele>1578</ele>
        <time>2012-12-09T09:58:14Z</time>
      </trkpt>
      <trkpt lat="45.63138" lon="6.05271">
        <ele>1579</ele>
        <time>2012-12-09T09:58:16Z</time>
      </trkpt>
      <trkpt lat="45.63137" lon="6.0527">
        <ele>1579</ele>
        <time>2012-12-09T09:58:18Z</time>
      </trkpt>
      <trkpt lat="45.63136" lon="6.05268">
        <ele>1579</ele>
        <time>2012-12-09T09:58:20Z</time>
      </trkpt>
      <trkpt lat="45.63134" lon="6.05267">
        <ele>1579</ele>
        <time>2012-12-09T09:58:22Z</time>
      </trkpt>
      <trkpt lat="45.63133" lon="6.05266">
        <ele>1580</ele>
        <time>2012-12-09T09:58:24Z</time>
      </trkpt>
      <trkpt lat="45.63131" lon="6.05265">
        <ele>1580</ele>
        <time>2012-12-09T09:58:26Z</time>
      </trkpt>
      <trkpt lat="45.6313" lon="6.05264">
        <ele>1580</ele>
        <time>2012-12-09T09:58:28Z</time>
      </trkpt>
      <trkpt lat="45.63129" lon="6.05262">
        <ele>1580</ele>
        <time>2012-12-09T09:58:30Z</time>
      </trkpt>
      <trkpt lat="45.63127" lon="6.05261">
        <ele>1581</ele>
        <time>2012-12-09T09:58:32Z</time>
      </trkpt>
      <trkpt lat="45.63126" lon="6.0526">
        <ele>1581</ele>
        <time>2012-12-09T09:58:34Z</time>
      </trkpt>
      <trkpt lat="45.63124" lon="6.05259">
        <ele>1581</ele>
        <time>2012-12-09T09:58:36Z</time>
      </trkpt>
      <trkpt lat="45.63123" lon="6.05258">
        <ele>1581</ele>
        <time>2012-12-09T09:58:38Z</time>
      </trkpt>
      <trkpt lat="45.63121" lon="6.05256">
        <ele>1582</ele>
        <time>2012-12-09T09:58:40Z</time>
      </trkpt>
      <trkpt lat="45.6312" lon="6.05256">
        <ele>1582</ele>
        <time>2012-12-09T09:58:42Z</time>
      </trkpt>
      <trkpt lat="45.63118" lon="6.05254">
        <ele>1582</ele>
        <time>2012-12-09T09:58:44Z</time>
      </trkpt>
      <trkpt lat="45.63117" lon="6.05253">
        <ele>1583</ele>
        <time>2012-12-09T09:58:46Z</time>
      </trkpt>
      <trkpt lat="45.63116" lon="6.05252">
        <ele>1583</ele>
        <time>2012-12-09T09:58:48Z</time>
      </trkpt>
      <trkpt lat="45.63114" lon="6.05251">
        <ele>1584</ele>
        <time>2012-12-09T09:58:50Z</time>
      </trkpt>
      <trkpt lat="45.63113" lon="6.0525">
        <ele>1584</ele>
        <time>2012-12-09T09:58:52Z</time>
      </trkpt>
      <trkpt lat="45.63112" lon="6.05248">
        <ele>1584</ele>
        <time>2012-12-09T09:58:54Z</time>
      </trkpt>
      <trkpt lat="45.6311" lon="6.05247">
        <ele>1584</ele>
        <time>2012-12-09T09:58:56Z</time>
      </trkpt>
      <trkpt lat="45.63109" lon="6.05245">
        <ele>1584</ele>
        <time>2012-12-09T09:58:58Z</time>
      </trkpt>
      <trkpt lat="45.63108" lon="6.05244">
        <ele>1584</ele>
        <time>2012-12-09T09:59:00Z</time>
      </trkpt>
      <trkpt lat="45.63107" lon="6.05243">
        <ele>1585</ele>
        <time>2012-12-09T09:59:02Z</time>
      </trkpt>
      <trkpt lat="45.63105" lon="6.05242">
        <ele>1585</ele>
        <time>2012-12-09T09:59:04Z</time>
      </trkpt>
      <trkpt lat="45.63103" lon="6.05241">
        <ele>1585</ele>
        <time>2012-12-09T09:59:06Z</time>
      </trkpt>
      <trkpt lat="45.63102" lon="6.0524">
        <ele>1585</ele>
        <time>2012-12-09T09:59:08Z</time>
      </trkpt>
      <trkpt lat="45.631" lon="6.05239">
        <ele>1586</ele>
        <time>2012-12-09T09:59:10Z</time>
      </trkpt>
      <trkpt lat="45.63099" lon="6.05237">
        <ele>1586</ele>
        <time>2012-12-09T09:59:12Z</time>
      </trkpt>
      <trkpt lat="45.63097" lon="6.05236">
        <ele>1586</ele>
        <time>2012-12-09T09:59:14Z</time>
      </trkpt>
      <trkpt lat="45.63096" lon="6.05235">
        <ele>1586</ele>
        <time>2012-12-09T09:59:16Z</time>
      </trkpt>
      <trkpt lat="45.63095" lon="6.05234">
        <ele>1586</ele>
        <time>2012-12-09T09:59:18Z</time>
      </trkpt>
      <trkpt lat="45.63093" lon="6.05233">
        <ele>1586</ele>
        <time>2012-12-09T09:59:20Z</time>
      </trkpt>
      <trkpt lat="45.63092" lon="6.05232">
        <ele>1587</ele>
        <time>2012-12-09T09:59:22Z</time>
      </trkpt>
      <trkpt lat="45.6309" lon="6.05231">
        <ele>1587</ele>
        <time>2012-12-09T09:59:24Z</time>
      </trkpt>
      <trkpt lat="45.63089" lon="6.0523">
        <ele>1588</ele>
        <time>2012-12-09T09:59:26Z</time>
      </trkpt>
      <trkpt lat="45.63088" lon="6.05228">
        <ele>1588</ele>
        <time>2012-12-09T09:59:28Z</time>
      </trkpt>
      <trkpt lat="45.63086" lon="6.05227">
        <ele>1588</ele>
        <time>2012-12-09T09:59:30Z</time>
      </trkpt>
      <trkpt lat="45.63085" lon="6.05226">
        <ele>1588</ele>
        <time>2012-12-09T09:59:32Z</time>
      </trkpt>
      <trkpt lat="45.63083" lon="6.05225">
        <ele>1589</ele>
        <time>2012-12-09T09:59:34Z</time>
      </trkpt>
      <trkpt lat="45.63082" lon="6.05223">
        <ele>1589</ele>
        <time>2012-12-09T09:59:36Z</time>
      </trkpt>
      <trkpt lat="45.63081" lon="6.05222">
        <ele>1589</ele>
        <time>2012-12-09T09:59:38Z</time>
      </trkpt>
      <trkpt lat="45.63079" lon="6.05221">
        <ele>1589</ele>
        <time>2012-12-09T09:59:40Z</time>
      </trkpt>
      <trkpt lat="45.63078" lon="6.05219">
        <ele>1590</ele>
        <time>2012-12-09T09:59:42Z</time>
      </trkpt>
      <trkpt lat="45.63076" lon="6.05218">
        <ele>1590</ele>
        <time>2012-12-09T09:59:44Z</time>
      </trkpt>
      <trkpt lat="45.63075" lon="6.05216">
        <ele>1590</ele>
        <time>2012-12-09T09:59:46Z</time>
      </trkpt>
      <trkpt lat="45.63074" lon="6.05215">
        <ele>1591</ele>
        <time>2012-12-09T09:59:48Z</time>
      </trkpt>
      <trkpt lat="45.63073" lon="6.05213">
        <ele>1591</ele>
        <time>2012-12-09T09:59:50Z</time>
      </trkpt>
      <trkpt lat="45.63071" lon="6.05212">
        <ele>1592</ele>
        <time>2012-12-09T09:59:52Z</time>
      </trkpt>
      <trkpt lat="45.6307" lon="6.05211">
        <ele>1592</ele>
        <time>2012-12-09T09:59:54Z</time>
      </trkpt>
      <trkpt lat="45.63069" lon="6.0521">
        <ele>1592</ele>
        <time>2012-12-09T09:59:56Z</time>
      </trkpt>
      <trkpt lat="45.63068" lon="6.05208">
        <ele>1593</ele>
        <time>2012-12-09T09:59:58Z</time>
      </trkpt>
      <trkpt lat="45.63066" lon="6.05207">
        <ele>1593</ele>
        <time>2012-12-09T10:00:01Z</time>
      </trkpt>
      <trkpt lat="45.63064" lon="6.05206">
        <ele>1594</ele>
        <time>2012-12-09T10:00:03Z</time>
      </trkpt>
      <trkpt lat="45.63063" lon="6.05205">
        <ele>1594</ele>
        <time>2012-12-09T10:00:05Z</time>
      </trkpt>
      <trkpt lat="45.63062" lon="6.05204">
        <ele>1595</ele>
        <time>2012-12-09T10:00:07Z</time>
      </trkpt>
      <trkpt lat="45.6306" lon="6.05203">
        <ele>1595</ele>
        <time>2012-12-09T10:00:09Z</time>
      </trkpt>
      <trkpt lat="45.63059" lon="6.05201">
        <ele>1596</ele>
        <time>2012-12-09T10:00:12Z</time>
      </trkpt>
      <trkpt lat="45.63058" lon="6.052">
        <ele>1596</ele>
        <time>2012-12-09T10:00:14Z</time>
      </trkpt>
      <trkpt lat="45.63056" lon="6.05199">
        <ele>1596</ele>
        <time>2012-12-09T10:00:16Z</time>
      </trkpt>
      <trkpt lat="45.63055" lon="6.05199">
        <ele>1597</ele>
        <time>2012-12-09T10:00:18Z</time>
      </trkpt>
      <trkpt lat="45.63053" lon="6.05198">
        <ele>1597</ele>
        <time>2012-12-09T10:00:20Z</time>
      </trkpt>
      <trkpt lat="45.63052" lon="6.05197">
        <ele>1598</ele>
        <time>2012-12-09T10:00:22Z</time>
      </trkpt>
      <trkpt lat="45.6305" lon="6.05196">
        <ele>1598</ele>
        <time>2012-12-09T10:00:24Z</time>
      </trkpt>
      <trkpt lat="45.63049" lon="6.05195">
        <ele>1598</ele>
        <time>2012-12-09T10:00:26Z</time>
      </trkpt>
      <trkpt lat="45.63048" lon="6.05195">
        <ele>1598</ele>
        <time>2012-12-09T10:00:28Z</time>
      </trkpt>
      <trkpt lat="45.63046" lon="6.05194">
        <ele>1599</ele>
        <time>2012-12-09T10:00:30Z</time>
      </trkpt>
      <trkpt lat="45.63045" lon="6.05193">
        <ele>1599</ele>
        <time>2012-12-09T10:00:32Z</time>
      </trkpt>
      <trkpt lat="45.63044" lon="6.05192">
        <ele>1599</ele>
        <time>2012-12-09T10:00:34Z</time>
      </trkpt>
      <trkpt lat="45.63042" lon="6.05192">
        <ele>1599</ele>
        <time>2012-12-09T10:00:36Z</time>
      </trkpt>
      <trkpt lat="45.63041" lon="6.05191">
        <ele>1600</ele>
        <time>2012-12-09T10:00:38Z</time>
      </trkpt>
      <trkpt lat="45.63039" lon="6.0519">
        <ele>1600</ele>
        <time>2012-12-09T10:00:40Z</time>
      </trkpt>
      <trkpt lat="45.63037" lon="6.0519">
        <ele>1600</ele>
        <time>2012-12-09T10:00:42Z</time>
      </trkpt>
      <trkpt lat="45.63036" lon="6.05189">
        <ele>1601</ele>
        <time>2012-12-09T10:00:44Z</time>
      </trkpt>
      <trkpt lat="45.63034" lon="6.05188">
        <ele>1601</ele>
        <time>2012-12-09T10:00:46Z</time>
      </trkpt>
      <trkpt lat="45.63033" lon="6.05187">
        <ele>1601</ele>
        <time>2012-12-09T10:00:48Z</time>
      </trkpt>
      <trkpt lat="45.63032" lon="6.05186">
        <ele>1601</ele>
        <time>2012-12-09T10:00:50Z</time>
      </trkpt>
      <trkpt lat="45.6303" lon="6.05185">
        <ele>1601</ele>
        <time>2012-12-09T10:00:52Z</time>
      </trkpt>
      <trkpt lat="45.63028" lon="6.05185">
        <ele>1602</ele>
        <time>2012-12-09T10:00:54Z</time>
      </trkpt>
      <trkpt lat="45.63027" lon="6.05184">
        <ele>1602</ele>
        <time>2012-12-09T10:00:56Z</time>
      </trkpt>
      <trkpt lat="45.63026" lon="6.05183">
        <ele>1602</ele>
        <time>2012-12-09T10:00:58Z</time>
      </trkpt>
      <trkpt lat="45.63024" lon="6.05183">
        <ele>1602</ele>
        <time>2012-12-09T10:01:00Z</time>
      </trkpt>
      <trkpt lat="45.63023" lon="6.05182">
        <ele>1602</ele>
        <time>2012-12-09T10:01:02Z</time>
      </trkpt>
      <trkpt lat="45.63021" lon="6.05181">
        <ele>1602</ele>
        <time>2012-12-09T10:01:04Z</time>
      </trkpt>
      <trkpt lat="45.6302" lon="6.0518">
        <ele>1603</ele>
        <time>2012-12-09T10:01:06Z</time>
      </trkpt>
      <trkpt lat="45.63018" lon="6.05179">
        <ele>1603</ele>
        <time>2012-12-09T10:01:08Z</time>
      </trkpt>
      <trkpt lat="45.63017" lon="6.05178">
        <ele>1603</ele>
        <time>2012-12-09T10:01:10Z</time>
      </trkpt>
      <trkpt lat="45.63015" lon="6.05177">
        <ele>1604</ele>
        <time>2012-12-09T10:01:12Z</time>
      </trkpt>
      <trkpt lat="45.63013" lon="6.05176">
        <ele>1605</ele>
        <time>2012-12-09T10:01:14Z</time>
      </trkpt>
      <trkpt lat="45.63012" lon="6.05175">
        <ele>1605</ele>
        <time>2012-12-09T10:01:16Z</time>
      </trkpt>
      <trkpt lat="45.6301" lon="6.05174">
        <ele>1606</ele>
        <time>2012-12-09T10:01:18Z</time>
      </trkpt>
      <trkpt lat="45.63009" lon="6.05173">
        <ele>1606</ele>
        <time>2012-12-09T10:01:20Z</time>
      </trkpt>
      <trkpt lat="45.63007" lon="6.05172">
        <ele>1606</ele>
        <time>2012-12-09T10:01:22Z</time>
      </trkpt>
      <trkpt lat="45.63006" lon="6.05171">
        <ele>1606</ele>
        <time>2012-12-09T10:01:24Z</time>
      </trkpt>
      <trkpt lat="45.63004" lon="6.0517">
        <ele>1606</ele>
        <time>2012-12-09T10:01:26Z</time>
      </trkpt>
      <trkpt lat="45.63003" lon="6.05169">
        <ele>1606</ele>
        <time>2012-12-09T10:01:28Z</time>
      </trkpt>
      <trkpt lat="45.63001" lon="6.05168">
        <ele>1607</ele>
        <time>2012-12-09T10:01:30Z</time>
      </trkpt>
      <trkpt lat="45.62999" lon="6.05167">
        <ele>1607</ele>
        <time>2012-12-09T10:01:32Z</time>
      </trkpt>
      <trkpt lat="45.62998" lon="6.05166">
        <ele>1607</ele>
        <time>2012-12-09T10:01:34Z</time>
      </trkpt>
      <trkpt lat="45.62997" lon="6.05164">
        <ele>1608</ele>
        <time>2012-12-09T10:01:36Z</time>
      </trkpt>
      <trkpt lat="45.62996" lon="6.05163">
        <ele>1608</ele>
        <time>2012-12-09T10:01:38Z</time>
      </trkpt>
      <trkpt lat="45.62994" lon="6.05162">
        <ele>1608</ele>
        <time>2012-12-09T10:01:40Z</time>
      </trkpt>
      <trkpt lat="45.62993" lon="6.05161">
        <ele>1608</ele>
        <time>2012-12-09T10:01:43Z</time>
      </trkpt>
      <trkpt lat="45.62991" lon="6.0516">
        <ele>1609</ele>
        <time>2012-12-09T10:01:45Z</time>
      </trkpt>
      <trkpt lat="45.6299" lon="6.05158">
        <ele>1609</ele>
        <time>2012-12-09T10:01:48Z</time>
      </trkpt>
      <trkpt lat="45.62988" lon="6.05157">
        <ele>1610</ele>
        <time>2012-12-09T10:01:50Z</time>
      </trkpt>
      <trkpt lat="45.62987" lon="6.05156">
        <ele>1610</ele>
        <time>2012-12-09T10:01:52Z</time>
      </trkpt>
      <trkpt lat="45.62986" lon="6.05155">
        <ele>1611</ele>
        <time>2012-12-09T10:01:54Z</time>
      </trkpt>
      <trkpt lat="45.62985" lon="6.05153">
        <ele>1611</ele>
        <time>2012-12-09T10:01:56Z</time>
      </trkpt>
      <trkpt lat="45.62984" lon="6.05152">
        <ele>1612</ele>
        <time>2012-12-09T10:01:58Z</time>
      </trkpt>
      <trkpt lat="45.62983" lon="6.05151">
        <ele>1612</ele>
        <time>2012-12-09T10:02:00Z</time>
      </trkpt>
      <trkpt lat="45.62981" lon="6.05149">
        <ele>1612</ele>
        <time>2012-12-09T10:02:02Z</time>
      </trkpt>
      <trkpt lat="45.6298" lon="6.05148">
        <ele>1612</ele>
        <time>2012-12-09T10:02:04Z</time>
      </trkpt>
      <trkpt lat="45.62979" lon="6.05147">
        <ele>1612</ele>
        <time>2012-12-09T10:02:06Z</time>
      </trkpt>
      <trkpt lat="45.62977" lon="6.05146">
        <ele>1613</ele>
        <time>2012-12-09T10:02:08Z</time>
      </trkpt>
      <trkpt lat="45.62976" lon="6.05145">
        <ele>1613</ele>
        <time>2012-12-09T10:02:10Z</time>
      </trkpt>
      <trkpt lat="45.62975" lon="6.05144">
        <ele>1613</ele>
        <time>2012-12-09T10:02:12Z</time>
      </trkpt>
      <trkpt lat="45.62973" lon="6.05143">
        <ele>1614</ele>
        <time>2012-12-09T10:02:14Z</time>
      </trkpt>
      <trkpt lat="45.62972" lon="6.05142">
        <ele>1614</ele>
        <time>2012-12-09T10:02:16Z</time>
      </trkpt>
      <trkpt lat="45.6297" lon="6.05141">
        <ele>1614</ele>
        <time>2012-12-09T10:02:18Z</time>
      </trkpt>
      <trkpt lat="45.62969" lon="6.0514">
        <ele>1615</ele>
        <time>2012-12-09T10:02:20Z</time>
      </trkpt>
      <trkpt lat="45.62968" lon="6.05139">
        <ele>1615</ele>
        <time>2012-12-09T10:02:22Z</time>
      </trkpt>
      <trkpt lat="45.62967" lon="6.05139">
        <ele>1615</ele>
        <time>2012-12-09T10:02:24Z</time>
      </trkpt>
      <trkpt lat="45.62965" lon="6.05138">
        <ele>1615</ele>
        <time>2012-12-09T10:02:26Z</time>
      </trkpt>
      <trkpt lat="45.62963" lon="6.05137">
        <ele>1615</ele>
        <time>2012-12-09T10:02:28Z</time>
      </trkpt>
      <trkpt lat="45.62962" lon="6.05136">
        <ele>1615</ele>
        <time>2012-12-09T10:02:30Z</time>
      </trkpt>
      <trkpt lat="45.6296" lon="6.05135">
        <ele>1616</ele>
        <time>2012-12-09T10:02:32Z</time>
      </trkpt>
      <trkpt lat="45.62959" lon="6.05134">
        <ele>1616</ele>
        <time>2012-12-09T10:02:34Z</time>
      </trkpt>
      <trkpt lat="45.62957" lon="6.05133">
        <ele>1616</ele>
        <time>2012-12-09T10:02:36Z</time>
      </trkpt>
      <trkpt lat="45.62956" lon="6.05132">
        <ele>1616</ele>
        <time>2012-12-09T10:02:38Z</time>
      </trkpt>
      <trkpt lat="45.62955" lon="6.05131">
        <ele>1616</ele>
        <time>2012-12-09T10:02:40Z</time>
      </trkpt>
      <trkpt lat="45.62953" lon="6.05129">
        <ele>1616</ele>
        <time>2012-12-09T10:02:42Z</time>
      </trkpt>
      <trkpt lat="45.62952" lon="6.05129">
        <ele>1617</ele>
        <time>2012-12-09T10:02:44Z</time>
      </trkpt>
      <trkpt lat="45.6295" lon="6.05127">
        <ele>1617</ele>
        <time>2012-12-09T10:02:46Z</time>
      </trkpt>
      <trkpt lat="45.62949" lon="6.05126">
        <ele>1617</ele>
        <time>2012-12-09T10:02:48Z</time>
      </trkpt>
      <trkpt lat="45.62947" lon="6.05126">
        <ele>1618</ele>
        <time>2012-12-09T10:02:50Z</time>
      </trkpt>
      <trkpt lat="45.62946" lon="6.05126">
        <ele>1618</ele>
        <time>2012-12-09T10:02:52Z</time>
      </trkpt>
      <trkpt lat="45.62944" lon="6.05126">
        <ele>1618</ele>
        <time>2012-12-09T10:02:54Z</time>
      </trkpt>
      <trkpt lat="45.62942" lon="6.05127">
        <ele>1618</ele>
        <time>2012-12-09T10:02:56Z</time>
      </trkpt>
      <trkpt lat="45.6294" lon="6.05128">
        <ele>1618</ele>
        <time>2012-12-09T10:02:58Z</time>
      </trkpt>
      <trkpt lat="45.62939" lon="6.05128">
        <ele>1618</ele>
        <time>2012-12-09T10:03:00Z</time>
      </trkpt>
      <trkpt lat="45.62937" lon="6.05128">
        <ele>1618</ele>
        <time>2012-12-09T10:03:02Z</time>
      </trkpt>
      <trkpt lat="45.62935" lon="6.05128">
        <ele>1618</ele>
        <time>2012-12-09T10:03:04Z</time>
      </trkpt>
      <trkpt lat="45.62933" lon="6.05128">
        <ele>1618</ele>
        <time>2012-12-09T10:03:06Z</time>
      </trkpt>
      <trkpt lat="45.62932" lon="6.05126">
        <ele>1618</ele>
        <time>2012-12-09T10:03:08Z</time>
      </trkpt>
      <trkpt lat="45.62923" lon="6.05122">
        <ele>1619</ele>
        <time>2012-12-09T10:03:12Z</time>
      </trkpt>
      <trkpt lat="45.62922" lon="6.05121">
        <ele>1620</ele>
        <time>2012-12-09T10:03:14Z</time>
      </trkpt>
      <trkpt lat="45.6292" lon="6.05121">
        <ele>1620</ele>
        <time>2012-12-09T10:03:16Z</time>
      </trkpt>
      <trkpt lat="45.62918" lon="6.0512">
        <ele>1620</ele>
        <time>2012-12-09T10:03:18Z</time>
      </trkpt>
      <trkpt lat="45.62917" lon="6.05119">
        <ele>1620</ele>
        <time>2012-12-09T10:03:20Z</time>
      </trkpt>
      <trkpt lat="45.62915" lon="6.05119">
        <ele>1621</ele>
        <time>2012-12-09T10:03:23Z</time>
      </trkpt>
      <trkpt lat="45.62912" lon="6.05118">
        <ele>1621</ele>
        <time>2012-12-09T10:03:26Z</time>
      </trkpt>
      <trkpt lat="45.62911" lon="6.05118">
        <ele>1621</ele>
        <time>2012-12-09T10:03:28Z</time>
      </trkpt>
      <trkpt lat="45.6291" lon="6.05118">
        <ele>1621</ele>
        <time>2012-12-09T10:03:30Z</time>
      </trkpt>
      <trkpt lat="45.62909" lon="6.05118">
        <ele>1621</ele>
        <time>2012-12-09T10:03:32Z</time>
      </trkpt>
      <trkpt lat="45.62907" lon="6.05117">
        <ele>1621</ele>
        <time>2012-12-09T10:03:35Z</time>
      </trkpt>
      <trkpt lat="45.62898" lon="6.05114">
        <ele>1624</ele>
        <time>2012-12-09T10:03:39Z</time>
      </trkpt>
      <trkpt lat="45.62896" lon="6.05114">
        <ele>1624</ele>
        <time>2012-12-09T10:03:41Z</time>
      </trkpt>
      <trkpt lat="45.62888" lon="6.05113">
        <ele>1624</ele>
        <time>2012-12-09T10:03:47Z</time>
      </trkpt>
      <trkpt lat="45.62886" lon="6.05113">
        <ele>1624</ele>
        <time>2012-12-09T10:03:49Z</time>
      </trkpt>
      <trkpt lat="45.62884" lon="6.05113">
        <ele>1624</ele>
        <time>2012-12-09T10:03:51Z</time>
      </trkpt>
      <trkpt lat="45.62882" lon="6.05112">
        <ele>1624</ele>
        <time>2012-12-09T10:03:53Z</time>
      </trkpt>
      <trkpt lat="45.6288" lon="6.05112">
        <ele>1624</ele>
        <time>2012-12-09T10:03:55Z</time>
      </trkpt>
      <trkpt lat="45.62878" lon="6.05112">
        <ele>1624</ele>
        <time>2012-12-09T10:03:57Z</time>
      </trkpt>
      <trkpt lat="45.62877" lon="6.05112">
        <ele>1624</ele>
        <time>2012-12-09T10:03:59Z</time>
      </trkpt>
      <trkpt lat="45.62875" lon="6.05112">
        <ele>1624</ele>
        <time>2012-12-09T10:04:01Z</time>
      </trkpt>
      <trkpt lat="45.62873" lon="6.05111">
        <ele>1624</ele>
        <time>2012-12-09T10:04:03Z</time>
      </trkpt>
      <trkpt lat="45.62872" lon="6.0511">
        <ele>1624</ele>
        <time>2012-12-09T10:04:05Z</time>
      </trkpt>
      <trkpt lat="45.6287" lon="6.05107">
        <ele>1624</ele>
        <time>2012-12-09T10:04:07Z</time>
      </trkpt>
      <trkpt lat="45.62869" lon="6.05105">
        <ele>1624</ele>
        <time>2012-12-09T10:04:09Z</time>
      </trkpt>
      <trkpt lat="45.62868" lon="6.05103">
        <ele>1624</ele>
        <time>2012-12-09T10:04:11Z</time>
      </trkpt>
      <trkpt lat="45.62868" lon="6.05101">
        <ele>1624</ele>
        <time>2012-12-09T10:04:13Z</time>
      </trkpt>
      <trkpt lat="45.62866" lon="6.051">
        <ele>1624</ele>
        <time>2012-12-09T10:04:15Z</time>
      </trkpt>
      <trkpt lat="45.62865" lon="6.05098">
        <ele>1624</ele>
        <time>2012-12-09T10:04:17Z</time>
      </trkpt>
      <trkpt lat="45.62865" lon="6.05096">
        <ele>1624</ele>
        <time>2012-12-09T10:04:19Z</time>
      </trkpt>
      <trkpt lat="45.62864" lon="6.05094">
        <ele>1625</ele>
        <time>2012-12-09T10:04:21Z</time>
      </trkpt>
      <trkpt lat="45.62864" lon="6.05092">
        <ele>1625</ele>
        <time>2012-12-09T10:04:23Z</time>
      </trkpt>
      <trkpt lat="45.62864" lon="6.05091">
        <ele>1626</ele>
        <time>2012-12-09T10:04:25Z</time>
      </trkpt>
      <trkpt lat="45.62864" lon="6.05088">
        <ele>1626</ele>
        <time>2012-12-09T10:04:27Z</time>
      </trkpt>
      <trkpt lat="45.62863" lon="6.05085">
        <ele>1627</ele>
        <time>2012-12-09T10:04:30Z</time>
      </trkpt>
      <trkpt lat="45.62862" lon="6.05084">
        <ele>1627</ele>
        <time>2012-12-09T10:04:32Z</time>
      </trkpt>
      <trkpt lat="45.62861" lon="6.05082">
        <ele>1627</ele>
        <time>2012-12-09T10:04:34Z</time>
      </trkpt>
      <trkpt lat="45.6286" lon="6.0508">
        <ele>1627</ele>
        <time>2012-12-09T10:04:36Z</time>
      </trkpt>
      <trkpt lat="45.62859" lon="6.05079">
        <ele>1628</ele>
        <time>2012-12-09T10:04:38Z</time>
      </trkpt>
      <trkpt lat="45.62857" lon="6.05077">
        <ele>1628</ele>
        <time>2012-12-09T10:04:42Z</time>
      </trkpt>
      <trkpt lat="45.62856" lon="6.05075">
        <ele>1628</ele>
        <time>2012-12-09T10:04:45Z</time>
      </trkpt>
      <trkpt lat="45.62855" lon="6.05073">
        <ele>1628</ele>
        <time>2012-12-09T10:04:47Z</time>
      </trkpt>
      <trkpt lat="45.62854" lon="6.05072">
        <ele>1629</ele>
        <time>2012-12-09T10:04:49Z</time>
      </trkpt>
      <trkpt lat="45.62853" lon="6.05069">
        <ele>1629</ele>
        <time>2012-12-09T10:04:51Z</time>
      </trkpt>
      <trkpt lat="45.62852" lon="6.05067">
        <ele>1629</ele>
        <time>2012-12-09T10:04:53Z</time>
      </trkpt>
      <trkpt lat="45.62851" lon="6.05066">
        <ele>1629</ele>
        <time>2012-12-09T10:04:55Z</time>
      </trkpt>
      <trkpt lat="45.6285" lon="6.05063">
        <ele>1629</ele>
        <time>2012-12-09T10:04:57Z</time>
      </trkpt>
      <trkpt lat="45.62848" lon="6.05061">
        <ele>1629</ele>
        <time>2012-12-09T10:04:59Z</time>
      </trkpt>
      <trkpt lat="45.62847" lon="6.05059">
        <ele>1629</ele>
        <time>2012-12-09T10:05:01Z</time>
      </trkpt>
      <trkpt lat="45.62845" lon="6.05057">
        <ele>1629</ele>
        <time>2012-12-09T10:05:03Z</time>
      </trkpt>
      <trkpt lat="45.62844" lon="6.05054">
        <ele>1629</ele>
        <time>2012-12-09T10:05:05Z</time>
      </trkpt>
      <trkpt lat="45.62843" lon="6.05051">
        <ele>1629</ele>
        <time>2012-12-09T10:05:07Z</time>
      </trkpt>
      <trkpt lat="45.62842" lon="6.05049">
        <ele>1629</ele>
        <time>2012-12-09T10:05:09Z</time>
      </trkpt>
      <trkpt lat="45.62841" lon="6.05047">
        <ele>1629</ele>
        <time>2012-12-09T10:05:11Z</time>
      </trkpt>
      <trkpt lat="45.6284" lon="6.05045">
        <ele>1629</ele>
        <time>2012-12-09T10:05:13Z</time>
      </trkpt>
      <trkpt lat="45.62839" lon="6.05043">
        <ele>1630</ele>
        <time>2012-12-09T10:05:15Z</time>
      </trkpt>
      <trkpt lat="45.62837" lon="6.05041">
        <ele>1630</ele>
        <time>2012-12-09T10:05:17Z</time>
      </trkpt>
      <trkpt lat="45.62836" lon="6.05039">
        <ele>1631</ele>
        <time>2012-12-09T10:05:19Z</time>
      </trkpt>
      <trkpt lat="45.62836" lon="6.05037">
        <ele>1631</ele>
        <time>2012-12-09T10:05:21Z</time>
      </trkpt>
      <trkpt lat="45.62835" lon="6.05034">
        <ele>1631</ele>
        <time>2012-12-09T10:05:23Z</time>
      </trkpt>
      <trkpt lat="45.62835" lon="6.05032">
        <ele>1631</ele>
        <time>2012-12-09T10:05:25Z</time>
      </trkpt>
      <trkpt lat="45.62834" lon="6.0503">
        <ele>1631</ele>
        <time>2012-12-09T10:05:27Z</time>
      </trkpt>
      <trkpt lat="45.62834" lon="6.05028">
        <ele>1631</ele>
        <time>2012-12-09T10:05:29Z</time>
      </trkpt>
      <trkpt lat="45.62833" lon="6.05025">
        <ele>1631</ele>
        <time>2012-12-09T10:05:31Z</time>
      </trkpt>
      <trkpt lat="45.62833" lon="6.05023">
        <ele>1632</ele>
        <time>2012-12-09T10:05:33Z</time>
      </trkpt>
      <trkpt lat="45.62832" lon="6.05021">
        <ele>1632</ele>
        <time>2012-12-09T10:05:35Z</time>
      </trkpt>
      <trkpt lat="45.62831" lon="6.05019">
        <ele>1632</ele>
        <time>2012-12-09T10:05:37Z</time>
      </trkpt>
      <trkpt lat="45.6283" lon="6.05017">
        <ele>1633</ele>
        <time>2012-12-09T10:05:39Z</time>
      </trkpt>
      <trkpt lat="45.62829" lon="6.05015">
        <ele>1633</ele>
        <time>2012-12-09T10:05:41Z</time>
      </trkpt>
      <trkpt lat="45.62828" lon="6.05013">
        <ele>1633</ele>
        <time>2012-12-09T10:05:43Z</time>
      </trkpt>
      <trkpt lat="45.62827" lon="6.0501">
        <ele>1633</ele>
        <time>2012-12-09T10:05:45Z</time>
      </trkpt>
      <trkpt lat="45.62826" lon="6.05008">
        <ele>1633</ele>
        <time>2012-12-09T10:05:47Z</time>
      </trkpt>
      <trkpt lat="45.62826" lon="6.05006">
        <ele>1634</ele>
        <time>2012-12-09T10:05:49Z</time>
      </trkpt>
      <trkpt lat="45.62824" lon="6.05004">
        <ele>1634</ele>
        <time>2012-12-09T10:05:51Z</time>
      </trkpt>
      <trkpt lat="45.62823" lon="6.05002">
        <ele>1635</ele>
        <time>2012-12-09T10:05:53Z</time>
      </trkpt>
      <trkpt lat="45.62822" lon="6.04999">
        <ele>1635</ele>
        <time>2012-12-09T10:05:55Z</time>
      </trkpt>
      <trkpt lat="45.62822" lon="6.04997">
        <ele>1636</ele>
        <time>2012-12-09T10:05:57Z</time>
      </trkpt>
      <trkpt lat="45.62821" lon="6.04995">
        <ele>1637</ele>
        <time>2012-12-09T10:05:59Z</time>
      </trkpt>
      <trkpt lat="45.6282" lon="6.04993">
        <ele>1637</ele>
        <time>2012-12-09T10:06:01Z</time>
      </trkpt>
      <trkpt lat="45.6282" lon="6.04991">
        <ele>1638</ele>
        <time>2012-12-09T10:06:03Z</time>
      </trkpt>
      <trkpt lat="45.62819" lon="6.04989">
        <ele>1638</ele>
        <time>2012-12-09T10:06:05Z</time>
      </trkpt>
      <trkpt lat="45.62819" lon="6.04987">
        <ele>1638</ele>
        <time>2012-12-09T10:06:07Z</time>
      </trkpt>
      <trkpt lat="45.62818" lon="6.04985">
        <ele>1638</ele>
        <time>2012-12-09T10:06:09Z</time>
      </trkpt>
      <trkpt lat="45.62817" lon="6.04983">
        <ele>1639</ele>
        <time>2012-12-09T10:06:11Z</time>
      </trkpt>
      <trkpt lat="45.62817" lon="6.04981">
        <ele>1639</ele>
        <time>2012-12-09T10:06:13Z</time>
      </trkpt>
      <trkpt lat="45.62816" lon="6.04979">
        <ele>1639</ele>
        <time>2012-12-09T10:06:15Z</time>
      </trkpt>
      <trkpt lat="45.62816" lon="6.04977">
        <ele>1639</ele>
        <time>2012-12-09T10:06:17Z</time>
      </trkpt>
      <trkpt lat="45.62815" lon="6.04975">
        <ele>1640</ele>
        <time>2012-12-09T10:06:21Z</time>
      </trkpt>
      <trkpt lat="45.62815" lon="6.04974">
        <ele>1640</ele>
        <time>2012-12-09T10:06:23Z</time>
      </trkpt>
      <trkpt lat="45.62814" lon="6.04971">
        <ele>1640</ele>
        <time>2012-12-09T10:06:25Z</time>
      </trkpt>
      <trkpt lat="45.62814" lon="6.0497">
        <ele>1640</ele>
        <time>2012-12-09T10:06:27Z</time>
      </trkpt>
      <trkpt lat="45.62814" lon="6.04968">
        <ele>1641</ele>
        <time>2012-12-09T10:06:29Z</time>
      </trkpt>
      <trkpt lat="45.62812" lon="6.04965">
        <ele>1641</ele>
        <time>2012-12-09T10:06:32Z</time>
      </trkpt>
      <trkpt lat="45.62811" lon="6.04963">
        <ele>1641</ele>
        <time>2012-12-09T10:06:34Z</time>
      </trkpt>
      <trkpt lat="45.6281" lon="6.04962">
        <ele>1641</ele>
        <time>2012-12-09T10:06:36Z</time>
      </trkpt>
      <trkpt lat="45.62809" lon="6.04961">
        <ele>1642</ele>
        <time>2012-12-09T10:06:38Z</time>
      </trkpt>
      <trkpt lat="45.62808" lon="6.0496">
        <ele>1642</ele>
        <time>2012-12-09T10:06:40Z</time>
      </trkpt>
      <trkpt lat="45.62806" lon="6.04959">
        <ele>1642</ele>
        <time>2012-12-09T10:06:42Z</time>
      </trkpt>
      <trkpt lat="45.62804" lon="6.04959">
        <ele>1642</ele>
        <time>2012-12-09T10:06:44Z</time>
      </trkpt>
      <trkpt lat="45.62803" lon="6.04958">
        <ele>1642</ele>
        <time>2012-12-09T10:06:46Z</time>
      </trkpt>
      <trkpt lat="45.62801" lon="6.04957">
        <ele>1642</ele>
        <time>2012-12-09T10:06:48Z</time>
      </trkpt>
      <trkpt lat="45.62799" lon="6.04956">
        <ele>1642</ele>
        <time>2012-12-09T10:06:50Z</time>
      </trkpt>
      <trkpt lat="45.62798" lon="6.04955">
        <ele>1642</ele>
        <time>2012-12-09T10:06:52Z</time>
      </trkpt>
      <trkpt lat="45.62796" lon="6.04954">
        <ele>1642</ele>
        <time>2012-12-09T10:06:54Z</time>
      </trkpt>
      <trkpt lat="45.62795" lon="6.04953">
        <ele>1642</ele>
        <time>2012-12-09T10:06:56Z</time>
      </trkpt>
      <trkpt lat="45.62793" lon="6.04952">
        <ele>1642</ele>
        <time>2012-12-09T10:06:58Z</time>
      </trkpt>
      <trkpt lat="45.62792" lon="6.04951">
        <ele>1642</ele>
        <time>2012-12-09T10:07:01Z</time>
      </trkpt>
      <trkpt lat="45.62786" lon="6.04942">
        <ele>1642</ele>
        <time>2012-12-09T10:07:05Z</time>
      </trkpt>
      <trkpt lat="45.62786" lon="6.04932">
        <ele>1642</ele>
        <time>2012-12-09T10:07:11Z</time>
      </trkpt>
      <trkpt lat="45.62786" lon="6.0493">
        <ele>1643</ele>
        <time>2012-12-09T10:07:13Z</time>
      </trkpt>
      <trkpt lat="45.62785" lon="6.04928">
        <ele>1643</ele>
        <time>2012-12-09T10:07:15Z</time>
      </trkpt>
      <trkpt lat="45.62785" lon="6.04927">
        <ele>1644</ele>
        <time>2012-12-09T10:07:17Z</time>
      </trkpt>
      <trkpt lat="45.62783" lon="6.04924">
        <ele>1645</ele>
        <time>2012-12-09T10:07:20Z</time>
      </trkpt>
      <trkpt lat="45.62782" lon="6.04923">
        <ele>1645</ele>
        <time>2012-12-09T10:07:22Z</time>
      </trkpt>
      <trkpt lat="45.6278" lon="6.04922">
        <ele>1646</ele>
        <time>2012-12-09T10:07:24Z</time>
      </trkpt>
      <trkpt lat="45.62779" lon="6.04921">
        <ele>1646</ele>
        <time>2012-12-09T10:07:26Z</time>
      </trkpt>
      <trkpt lat="45.62777" lon="6.0492">
        <ele>1646</ele>
        <time>2012-12-09T10:07:28Z</time>
      </trkpt>
      <trkpt lat="45.62776" lon="6.04918">
        <ele>1647</ele>
        <time>2012-12-09T10:07:30Z</time>
      </trkpt>
      <trkpt lat="45.62774" lon="6.04917">
        <ele>1647</ele>
        <time>2012-12-09T10:07:32Z</time>
      </trkpt>
      <trkpt lat="45.62773" lon="6.04915">
        <ele>1647</ele>
        <time>2012-12-09T10:07:34Z</time>
      </trkpt>
      <trkpt lat="45.62772" lon="6.04913">
        <ele>1647</ele>
        <time>2012-12-09T10:07:36Z</time>
      </trkpt>
      <trkpt lat="45.6277" lon="6.04912">
        <ele>1647</ele>
        <time>2012-12-09T10:07:38Z</time>
      </trkpt>
      <trkpt lat="45.62769" lon="6.0491">
        <ele>1647</ele>
        <time>2012-12-09T10:07:40Z</time>
      </trkpt>
      <trkpt lat="45.62768" lon="6.04908">
        <ele>1647</ele>
        <time>2012-12-09T10:07:42Z</time>
      </trkpt>
      <trkpt lat="45.62767" lon="6.04907">
        <ele>1647</ele>
        <time>2012-12-09T10:07:44Z</time>
      </trkpt>
      <trkpt lat="45.62765" lon="6.04904">
        <ele>1647</ele>
        <time>2012-12-09T10:07:46Z</time>
      </trkpt>
      <trkpt lat="45.62764" lon="6.04902">
        <ele>1647</ele>
        <time>2012-12-09T10:07:48Z</time>
      </trkpt>
      <trkpt lat="45.62762" lon="6.049">
        <ele>1647</ele>
        <time>2012-12-09T10:07:50Z</time>
      </trkpt>
      <trkpt lat="45.62761" lon="6.04899">
        <ele>1647</ele>
        <time>2012-12-09T10:07:52Z</time>
      </trkpt>
      <trkpt lat="45.6276" lon="6.04897">
        <ele>1647</ele>
        <time>2012-12-09T10:07:54Z</time>
      </trkpt>
      <trkpt lat="45.62759" lon="6.04895">
        <ele>1647</ele>
        <time>2012-12-09T10:07:56Z</time>
      </trkpt>
      <trkpt lat="45.62757" lon="6.04894">
        <ele>1647</ele>
        <time>2012-12-09T10:07:58Z</time>
      </trkpt>
      <trkpt lat="45.62756" lon="6.04893">
        <ele>1647</ele>
        <time>2012-12-09T10:08:00Z</time>
      </trkpt>
      <trkpt lat="45.62754" lon="6.04892">
        <ele>1647</ele>
        <time>2012-12-09T10:08:02Z</time>
      </trkpt>
      <trkpt lat="45.62753" lon="6.04891">
        <ele>1647</ele>
        <time>2012-12-09T10:08:04Z</time>
      </trkpt>
      <trkpt lat="45.62751" lon="6.04891">
        <ele>1647</ele>
        <time>2012-12-09T10:08:06Z</time>
      </trkpt>
      <trkpt lat="45.62749" lon="6.0489">
        <ele>1647</ele>
        <time>2012-12-09T10:08:08Z</time>
      </trkpt>
      <trkpt lat="45.62748" lon="6.04889">
        <ele>1647</ele>
        <time>2012-12-09T10:08:10Z</time>
      </trkpt>
      <trkpt lat="45.62747" lon="6.04888">
        <ele>1648</ele>
        <time>2012-12-09T10:08:12Z</time>
      </trkpt>
      <trkpt lat="45.62745" lon="6.04887">
        <ele>1648</ele>
        <time>2012-12-09T10:08:14Z</time>
      </trkpt>
      <trkpt lat="45.62744" lon="6.04885">
        <ele>1648</ele>
        <time>2012-12-09T10:08:16Z</time>
      </trkpt>
      <trkpt lat="45.62743" lon="6.04884">
        <ele>1648</ele>
        <time>2012-12-09T10:08:18Z</time>
      </trkpt>
      <trkpt lat="45.62741" lon="6.04882">
        <ele>1648</ele>
        <time>2012-12-09T10:08:20Z</time>
      </trkpt>
      <trkpt lat="45.62739" lon="6.04881">
        <ele>1648</ele>
        <time>2012-12-09T10:08:22Z</time>
      </trkpt>
      <trkpt lat="45.62738" lon="6.04879">
        <ele>1648</ele>
        <time>2012-12-09T10:08:24Z</time>
      </trkpt>
      <trkpt lat="45.62736" lon="6.04878">
        <ele>1648</ele>
        <time>2012-12-09T10:08:27Z</time>
      </trkpt>
      <trkpt lat="45.62734" lon="6.04876">
        <ele>1648</ele>
        <time>2012-12-09T10:08:30Z</time>
      </trkpt>
      <trkpt lat="45.62733" lon="6.04875">
        <ele>1649</ele>
        <time>2012-12-09T10:08:33Z</time>
      </trkpt>
      <trkpt lat="45.62732" lon="6.04873">
        <ele>1649</ele>
        <time>2012-12-09T10:08:35Z</time>
      </trkpt>
      <trkpt lat="45.6273" lon="6.04872">
        <ele>1649</ele>
        <time>2012-12-09T10:08:37Z</time>
      </trkpt>
      <trkpt lat="45.6273" lon="6.0487">
        <ele>1650</ele>
        <time>2012-12-09T10:08:42Z</time>
      </trkpt>
      <trkpt lat="45.62718" lon="6.04867">
        <ele>1650</ele>
        <time>2012-12-09T10:08:47Z</time>
      </trkpt>
      <trkpt lat="45.62716" lon="6.04866">
        <ele>1650</ele>
        <time>2012-12-09T10:08:49Z</time>
      </trkpt>
      <trkpt lat="45.62715" lon="6.04866">
        <ele>1650</ele>
        <time>2012-12-09T10:08:51Z</time>
      </trkpt>
      <trkpt lat="45.62714" lon="6.04865">
        <ele>1650</ele>
        <time>2012-12-09T10:08:53Z</time>
      </trkpt>
      <trkpt lat="45.62712" lon="6.04864">
        <ele>1650</ele>
        <time>2012-12-09T10:08:57Z</time>
      </trkpt>
      <trkpt lat="45.6271" lon="6.04863">
        <ele>1650</ele>
        <time>2012-12-09T10:09:00Z</time>
      </trkpt>
      <trkpt lat="45.62709" lon="6.04861">
        <ele>1650</ele>
        <time>2012-12-09T10:09:02Z</time>
      </trkpt>
      <trkpt lat="45.62708" lon="6.0486">
        <ele>1651</ele>
        <time>2012-12-09T10:09:05Z</time>
      </trkpt>
      <trkpt lat="45.62706" lon="6.04847">
        <ele>1652</ele>
        <time>2012-12-09T10:09:09Z</time>
      </trkpt>
      <trkpt lat="45.62706" lon="6.04845">
        <ele>1652</ele>
        <time>2012-12-09T10:09:11Z</time>
      </trkpt>
      <trkpt lat="45.62705" lon="6.04843">
        <ele>1652</ele>
        <time>2012-12-09T10:09:13Z</time>
      </trkpt>
      <trkpt lat="45.62705" lon="6.04841">
        <ele>1653</ele>
        <time>2012-12-09T10:09:15Z</time>
      </trkpt>
      <trkpt lat="45.62705" lon="6.04839">
        <ele>1653</ele>
        <time>2012-12-09T10:09:17Z</time>
      </trkpt>
      <trkpt lat="45.62704" lon="6.04836">
        <ele>1653</ele>
        <time>2012-12-09T10:09:19Z</time>
      </trkpt>
      <trkpt lat="45.62704" lon="6.04834">
        <ele>1653</ele>
        <time>2012-12-09T10:09:21Z</time>
      </trkpt>
      <trkpt lat="45.62704" lon="6.04831">
        <ele>1654</ele>
        <time>2012-12-09T10:09:23Z</time>
      </trkpt>
      <trkpt lat="45.62704" lon="6.04828">
        <ele>1654</ele>
        <time>2012-12-09T10:09:25Z</time>
      </trkpt>
      <trkpt lat="45.62703" lon="6.04826">
        <ele>1655</ele>
        <time>2012-12-09T10:09:27Z</time>
      </trkpt>
      <trkpt lat="45.62703" lon="6.04823">
        <ele>1655</ele>
        <time>2012-12-09T10:09:29Z</time>
      </trkpt>
      <trkpt lat="45.62703" lon="6.04821">
        <ele>1655</ele>
        <time>2012-12-09T10:09:31Z</time>
      </trkpt>
      <trkpt lat="45.62703" lon="6.04818">
        <ele>1656</ele>
        <time>2012-12-09T10:09:33Z</time>
      </trkpt>
      <trkpt lat="45.62703" lon="6.04816">
        <ele>1656</ele>
        <time>2012-12-09T10:09:35Z</time>
      </trkpt>
      <trkpt lat="45.62703" lon="6.04813">
        <ele>1656</ele>
        <time>2012-12-09T10:09:37Z</time>
      </trkpt>
      <trkpt lat="45.62703" lon="6.04811">
        <ele>1656</ele>
        <time>2012-12-09T10:09:39Z</time>
      </trkpt>
      <trkpt lat="45.62703" lon="6.04808">
        <ele>1656</ele>
        <time>2012-12-09T10:09:41Z</time>
      </trkpt>
      <trkpt lat="45.62703" lon="6.04806">
        <ele>1656</ele>
        <time>2012-12-09T10:09:43Z</time>
      </trkpt>
      <trkpt lat="45.62704" lon="6.04803">
        <ele>1656</ele>
        <time>2012-12-09T10:09:45Z</time>
      </trkpt>
      <trkpt lat="45.62704" lon="6.04801">
        <ele>1656</ele>
        <time>2012-12-09T10:09:47Z</time>
      </trkpt>
      <trkpt lat="45.62704" lon="6.04798">
        <ele>1656</ele>
        <time>2012-12-09T10:09:49Z</time>
      </trkpt>
      <trkpt lat="45.62705" lon="6.04796">
        <ele>1657</ele>
        <time>2012-12-09T10:09:51Z</time>
      </trkpt>
      <trkpt lat="45.62705" lon="6.04794">
        <ele>1657</ele>
        <time>2012-12-09T10:09:53Z</time>
      </trkpt>
      <trkpt lat="45.62706" lon="6.04791">
        <ele>1657</ele>
        <time>2012-12-09T10:09:55Z</time>
      </trkpt>
      <trkpt lat="45.62706" lon="6.04789">
        <ele>1657</ele>
        <time>2012-12-09T10:09:57Z</time>
      </trkpt>
      <trkpt lat="45.62706" lon="6.04786">
        <ele>1657</ele>
        <time>2012-12-09T10:10:00Z</time>
      </trkpt>
      <trkpt lat="45.62708" lon="6.04784">
        <ele>1658</ele>
        <time>2012-12-09T10:10:02Z</time>
      </trkpt>
      <trkpt lat="45.62709" lon="6.04782">
        <ele>1658</ele>
        <time>2012-12-09T10:10:04Z</time>
      </trkpt>
      <trkpt lat="45.62711" lon="6.04781">
        <ele>1658</ele>
        <time>2012-12-09T10:10:06Z</time>
      </trkpt>
      <trkpt lat="45.62712" lon="6.04779">
        <ele>1659</ele>
        <time>2012-12-09T10:10:09Z</time>
      </trkpt>
      <trkpt lat="45.62713" lon="6.04777">
        <ele>1659</ele>
        <time>2012-12-09T10:10:11Z</time>
      </trkpt>
      <trkpt lat="45.62713" lon="6.04775">
        <ele>1660</ele>
        <time>2012-12-09T10:10:13Z</time>
      </trkpt>
      <trkpt lat="45.62714" lon="6.04773">
        <ele>1660</ele>
        <time>2012-12-09T10:10:15Z</time>
      </trkpt>
      <trkpt lat="45.62715" lon="6.0477">
        <ele>1660</ele>
        <time>2012-12-09T10:10:17Z</time>
      </trkpt>
      <trkpt lat="45.62715" lon="6.04768">
        <ele>1660</ele>
        <time>2012-12-09T10:10:19Z</time>
      </trkpt>
      <trkpt lat="45.62722" lon="6.04753">
        <ele>1663</ele>
        <time>2012-12-09T10:10:25Z</time>
      </trkpt>
      <trkpt lat="45.62723" lon="6.04751">
        <ele>1663</ele>
        <time>2012-12-09T10:10:27Z</time>
      </trkpt>
      <trkpt lat="45.62724" lon="6.04749">
        <ele>1663</ele>
        <time>2012-12-09T10:10:29Z</time>
      </trkpt>
      <trkpt lat="45.62724" lon="6.04748">
        <ele>1663</ele>
        <time>2012-12-09T10:10:31Z</time>
      </trkpt>
      <trkpt lat="45.62725" lon="6.04746">
        <ele>1663</ele>
        <time>2012-12-09T10:10:33Z</time>
      </trkpt>
      <trkpt lat="45.62726" lon="6.04744">
        <ele>1663</ele>
        <time>2012-12-09T10:10:35Z</time>
      </trkpt>
      <trkpt lat="45.62727" lon="6.04742">
        <ele>1663</ele>
        <time>2012-12-09T10:10:37Z</time>
      </trkpt>
      <trkpt lat="45.62728" lon="6.0474">
        <ele>1663</ele>
        <time>2012-12-09T10:10:39Z</time>
      </trkpt>
      <trkpt lat="45.62729" lon="6.04738">
        <ele>1663</ele>
        <time>2012-12-09T10:10:41Z</time>
      </trkpt>
      <trkpt lat="45.62729" lon="6.04736">
        <ele>1663</ele>
        <time>2012-12-09T10:10:43Z</time>
      </trkpt>
      <trkpt lat="45.6273" lon="6.04734">
        <ele>1663</ele>
        <time>2012-12-09T10:10:45Z</time>
      </trkpt>
      <trkpt lat="45.62731" lon="6.04732">
        <ele>1663</ele>
        <time>2012-12-09T10:10:47Z</time>
      </trkpt>
      <trkpt lat="45.62732" lon="6.0473">
        <ele>1663</ele>
        <time>2012-12-09T10:10:49Z</time>
      </trkpt>
      <trkpt lat="45.62732" lon="6.04728">
        <ele>1663</ele>
        <time>2012-12-09T10:10:51Z</time>
      </trkpt>
      <trkpt lat="45.62733" lon="6.04726">
        <ele>1663</ele>
        <time>2012-12-09T10:10:53Z</time>
      </trkpt>
      <trkpt lat="45.62733" lon="6.04724">
        <ele>1663</ele>
        <time>2012-12-09T10:10:55Z</time>
      </trkpt>
      <trkpt lat="45.62734" lon="6.04723">
        <ele>1663</ele>
        <time>2012-12-09T10:10:57Z</time>
      </trkpt>
      <trkpt lat="45.62735" lon="6.04721">
        <ele>1663</ele>
        <time>2012-12-09T10:10:59Z</time>
      </trkpt>
      <trkpt lat="45.62736" lon="6.04718">
        <ele>1663</ele>
        <time>2012-12-09T10:11:01Z</time>
      </trkpt>
      <trkpt lat="45.62737" lon="6.04716">
        <ele>1663</ele>
        <time>2012-12-09T10:11:03Z</time>
      </trkpt>
      <trkpt lat="45.62737" lon="6.04714">
        <ele>1663</ele>
        <time>2012-12-09T10:11:05Z</time>
      </trkpt>
      <trkpt lat="45.62738" lon="6.04712">
        <ele>1664</ele>
        <time>2012-12-09T10:11:07Z</time>
      </trkpt>
      <trkpt lat="45.62738" lon="6.0471">
        <ele>1664</ele>
        <time>2012-12-09T10:11:09Z</time>
      </trkpt>
      <trkpt lat="45.62739" lon="6.04708">
        <ele>1664</ele>
        <time>2012-12-09T10:11:11Z</time>
      </trkpt>
      <trkpt lat="45.6274" lon="6.04706">
        <ele>1665</ele>
        <time>2012-12-09T10:11:13Z</time>
      </trkpt>
      <trkpt lat="45.6274" lon="6.04704">
        <ele>1665</ele>
        <time>2012-12-09T10:11:15Z</time>
      </trkpt>
      <trkpt lat="45.62741" lon="6.04702">
        <ele>1666</ele>
        <time>2012-12-09T10:11:17Z</time>
      </trkpt>
      <trkpt lat="45.62742" lon="6.047">
        <ele>1666</ele>
        <time>2012-12-09T10:11:19Z</time>
      </trkpt>
      <trkpt lat="45.62743" lon="6.04699">
        <ele>1667</ele>
        <time>2012-12-09T10:11:21Z</time>
      </trkpt>
      <trkpt lat="45.62744" lon="6.04696">
        <ele>1667</ele>
        <time>2012-12-09T10:11:23Z</time>
      </trkpt>
      <trkpt lat="45.62744" lon="6.04694">
        <ele>1667</ele>
        <time>2012-12-09T10:11:25Z</time>
      </trkpt>
      <trkpt lat="45.62745" lon="6.04692">
        <ele>1668</ele>
        <time>2012-12-09T10:11:27Z</time>
      </trkpt>
      <trkpt lat="45.62746" lon="6.0469">
        <ele>1669</ele>
        <time>2012-12-09T10:11:29Z</time>
      </trkpt>
      <trkpt lat="45.62747" lon="6.04688">
        <ele>1669</ele>
        <time>2012-12-09T10:11:31Z</time>
      </trkpt>
      <trkpt lat="45.62748" lon="6.04687">
        <ele>1670</ele>
        <time>2012-12-09T10:11:33Z</time>
      </trkpt>
      <trkpt lat="45.62749" lon="6.04686">
        <ele>1670</ele>
        <time>2012-12-09T10:11:35Z</time>
      </trkpt>
      <trkpt lat="45.62751" lon="6.04684">
        <ele>1670</ele>
        <time>2012-12-09T10:11:37Z</time>
      </trkpt>
      <trkpt lat="45.62752" lon="6.04683">
        <ele>1671</ele>
        <time>2012-12-09T10:11:39Z</time>
      </trkpt>
      <trkpt lat="45.62753" lon="6.04682">
        <ele>1671</ele>
        <time>2012-12-09T10:11:41Z</time>
      </trkpt>
      <trkpt lat="45.62755" lon="6.04682">
        <ele>1672</ele>
        <time>2012-12-09T10:11:43Z</time>
      </trkpt>
      <trkpt lat="45.62756" lon="6.04681">
        <ele>1672</ele>
        <time>2012-12-09T10:11:45Z</time>
      </trkpt>
      <trkpt lat="45.62758" lon="6.0468">
        <ele>1672</ele>
        <time>2012-12-09T10:11:47Z</time>
      </trkpt>
      <trkpt lat="45.62759" lon="6.04679">
        <ele>1672</ele>
        <time>2012-12-09T10:11:49Z</time>
      </trkpt>
      <trkpt lat="45.62761" lon="6.04678">
        <ele>1672</ele>
        <time>2012-12-09T10:11:51Z</time>
      </trkpt>
      <trkpt lat="45.62762" lon="6.04676">
        <ele>1672</ele>
        <time>2012-12-09T10:11:53Z</time>
      </trkpt>
      <trkpt lat="45.62764" lon="6.04675">
        <ele>1672</ele>
        <time>2012-12-09T10:11:55Z</time>
      </trkpt>
      <trkpt lat="45.62765" lon="6.04674">
        <ele>1672</ele>
        <time>2012-12-09T10:11:57Z</time>
      </trkpt>
      <trkpt lat="45.62766" lon="6.04674">
        <ele>1673</ele>
        <time>2012-12-09T10:11:59Z</time>
      </trkpt>
      <trkpt lat="45.62768" lon="6.04673">
        <ele>1673</ele>
        <time>2012-12-09T10:12:02Z</time>
      </trkpt>
      <trkpt lat="45.62769" lon="6.04672">
        <ele>1673</ele>
        <time>2012-12-09T10:12:09Z</time>
      </trkpt>
      <trkpt lat="45.62771" lon="6.0467">
        <ele>1673</ele>
        <time>2012-12-09T10:12:12Z</time>
      </trkpt>
      <trkpt lat="45.62773" lon="6.04669">
        <ele>1673</ele>
        <time>2012-12-09T10:12:15Z</time>
      </trkpt>
      <trkpt lat="45.62774" lon="6.04667">
        <ele>1673</ele>
        <time>2012-12-09T10:12:17Z</time>
      </trkpt>
      <trkpt lat="45.62776" lon="6.04667">
        <ele>1673</ele>
        <time>2012-12-09T10:12:19Z</time>
      </trkpt>
      <trkpt lat="45.62777" lon="6.04665">
        <ele>1673</ele>
        <time>2012-12-09T10:12:21Z</time>
      </trkpt>
      <trkpt lat="45.62778" lon="6.04664">
        <ele>1673</ele>
        <time>2012-12-09T10:12:23Z</time>
      </trkpt>
      <trkpt lat="45.6278" lon="6.04662">
        <ele>1673</ele>
        <time>2012-12-09T10:12:26Z</time>
      </trkpt>
      <trkpt lat="45.62781" lon="6.04661">
        <ele>1674</ele>
        <time>2012-12-09T10:12:28Z</time>
      </trkpt>
      <trkpt lat="45.62783" lon="6.0466">
        <ele>1674</ele>
        <time>2012-12-09T10:12:31Z</time>
      </trkpt>
      <trkpt lat="45.62784" lon="6.04659">
        <ele>1674</ele>
        <time>2012-12-09T10:12:33Z</time>
      </trkpt>
      <trkpt lat="45.62785" lon="6.04658">
        <ele>1675</ele>
        <time>2012-12-09T10:12:35Z</time>
      </trkpt>
      <trkpt lat="45.62786" lon="6.04657">
        <ele>1675</ele>
        <time>2012-12-09T10:12:37Z</time>
      </trkpt>
      <trkpt lat="45.62788" lon="6.04656">
        <ele>1676</ele>
        <time>2012-12-09T10:12:39Z</time>
      </trkpt>
      <trkpt lat="45.62789" lon="6.04655">
        <ele>1676</ele>
        <time>2012-12-09T10:12:41Z</time>
      </trkpt>
      <trkpt lat="45.6279" lon="6.04654">
        <ele>1676</ele>
        <time>2012-12-09T10:12:43Z</time>
      </trkpt>
      <trkpt lat="45.62791" lon="6.04653">
        <ele>1677</ele>
        <time>2012-12-09T10:12:45Z</time>
      </trkpt>
      <trkpt lat="45.62793" lon="6.04652">
        <ele>1677</ele>
        <time>2012-12-09T10:12:47Z</time>
      </trkpt>
      <trkpt lat="45.62794" lon="6.04651">
        <ele>1677</ele>
        <time>2012-12-09T10:12:49Z</time>
      </trkpt>
      <trkpt lat="45.62795" lon="6.0465">
        <ele>1678</ele>
        <time>2012-12-09T10:12:51Z</time>
      </trkpt>
      <trkpt lat="45.62796" lon="6.04649">
        <ele>1678</ele>
        <time>2012-12-09T10:12:53Z</time>
      </trkpt>
      <trkpt lat="45.62798" lon="6.04648">
        <ele>1678</ele>
        <time>2012-12-09T10:12:55Z</time>
      </trkpt>
      <trkpt lat="45.62799" lon="6.04647">
        <ele>1678</ele>
        <time>2012-12-09T10:12:57Z</time>
      </trkpt>
      <trkpt lat="45.628" lon="6.04645">
        <ele>1679</ele>
        <time>2012-12-09T10:12:59Z</time>
      </trkpt>
      <trkpt lat="45.62801" lon="6.04644">
        <ele>1679</ele>
        <time>2012-12-09T10:13:01Z</time>
      </trkpt>
      <trkpt lat="45.62802" lon="6.04643">
        <ele>1679</ele>
        <time>2012-12-09T10:13:03Z</time>
      </trkpt>
      <trkpt lat="45.62804" lon="6.04641">
        <ele>1679</ele>
        <time>2012-12-09T10:13:06Z</time>
      </trkpt>
      <trkpt lat="45.62805" lon="6.0464">
        <ele>1680</ele>
        <time>2012-12-09T10:13:08Z</time>
      </trkpt>
      <trkpt lat="45.62806" lon="6.04638">
        <ele>1680</ele>
        <time>2012-12-09T10:13:10Z</time>
      </trkpt>
      <trkpt lat="45.62807" lon="6.04636">
        <ele>1680</ele>
        <time>2012-12-09T10:13:13Z</time>
      </trkpt>
      <trkpt lat="45.62808" lon="6.04635">
        <ele>1681</ele>
        <time>2012-12-09T10:13:15Z</time>
      </trkpt>
      <trkpt lat="45.62807" lon="6.04633">
        <ele>1681</ele>
        <time>2012-12-09T10:13:18Z</time>
      </trkpt>
      <trkpt lat="45.62806" lon="6.04631">
        <ele>1682</ele>
        <time>2012-12-09T10:13:20Z</time>
      </trkpt>
      <trkpt lat="45.62805" lon="6.04629">
        <ele>1682</ele>
        <time>2012-12-09T10:13:22Z</time>
      </trkpt>
      <trkpt lat="45.62804" lon="6.04628">
        <ele>1682</ele>
        <time>2012-12-09T10:13:24Z</time>
      </trkpt>
      <trkpt lat="45.62803" lon="6.04626">
        <ele>1682</ele>
        <time>2012-12-09T10:13:26Z</time>
      </trkpt>
      <trkpt lat="45.62801" lon="6.04625">
        <ele>1682</ele>
        <time>2012-12-09T10:13:28Z</time>
      </trkpt>
      <trkpt lat="45.628" lon="6.04623">
        <ele>1683</ele>
        <time>2012-12-09T10:13:30Z</time>
      </trkpt>
      <trkpt lat="45.62799" lon="6.04621">
        <ele>1683</ele>
        <time>2012-12-09T10:13:32Z</time>
      </trkpt>
      <trkpt lat="45.628" lon="6.04617">
        <ele>1684</ele>
        <time>2012-12-09T10:13:35Z</time>
      </trkpt>
      <trkpt lat="45.628" lon="6.04615">
        <ele>1684</ele>
        <time>2012-12-09T10:13:37Z</time>
      </trkpt>
      <trkpt lat="45.62801" lon="6.04613">
        <ele>1684</ele>
        <time>2012-12-09T10:13:39Z</time>
      </trkpt>
      <trkpt lat="45.62803" lon="6.04611">
        <ele>1684</ele>
        <time>2012-12-09T10:13:41Z</time>
      </trkpt>
      <trkpt lat="45.62804" lon="6.0461">
        <ele>1684</ele>
        <time>2012-12-09T10:13:43Z</time>
      </trkpt>
      <trkpt lat="45.62806" lon="6.04609">
        <ele>1684</ele>
        <time>2012-12-09T10:13:45Z</time>
      </trkpt>
      <trkpt lat="45.62807" lon="6.04609">
        <ele>1684</ele>
        <time>2012-12-09T10:13:47Z</time>
      </trkpt>
      <trkpt lat="45.62808" lon="6.04609">
        <ele>1684</ele>
        <time>2012-12-09T10:13:49Z</time>
      </trkpt>
      <trkpt lat="45.6281" lon="6.04609">
        <ele>1684</ele>
        <time>2012-12-09T10:13:51Z</time>
      </trkpt>
      <trkpt lat="45.62811" lon="6.04608">
        <ele>1684</ele>
        <time>2012-12-09T10:13:53Z</time>
      </trkpt>
      <trkpt lat="45.62812" lon="6.04608">
        <ele>1685</ele>
        <time>2012-12-09T10:13:55Z</time>
      </trkpt>
      <trkpt lat="45.62814" lon="6.04607">
        <ele>1685</ele>
        <time>2012-12-09T10:13:57Z</time>
      </trkpt>
      <trkpt lat="45.62815" lon="6.04606">
        <ele>1686</ele>
        <time>2012-12-09T10:14:00Z</time>
      </trkpt>
      <trkpt lat="45.62817" lon="6.04595">
        <ele>1689</ele>
        <time>2012-12-09T10:14:04Z</time>
      </trkpt>
      <trkpt lat="45.62817" lon="6.04593">
        <ele>1690</ele>
        <time>2012-12-09T10:14:06Z</time>
      </trkpt>
      <trkpt lat="45.62817" lon="6.04591">
        <ele>1690</ele>
        <time>2012-12-09T10:14:08Z</time>
      </trkpt>
      <trkpt lat="45.62817" lon="6.04589">
        <ele>1690</ele>
        <time>2012-12-09T10:14:10Z</time>
      </trkpt>
      <trkpt lat="45.62818" lon="6.04587">
        <ele>1691</ele>
        <time>2012-12-09T10:14:12Z</time>
      </trkpt>
      <trkpt lat="45.6282" lon="6.04587">
        <ele>1692</ele>
        <time>2012-12-09T10:14:14Z</time>
      </trkpt>
      <trkpt lat="45.62821" lon="6.04586">
        <ele>1692</ele>
        <time>2012-12-09T10:14:16Z</time>
      </trkpt>
      <trkpt lat="45.62822" lon="6.04586">
        <ele>1693</ele>
        <time>2012-12-09T10:14:18Z</time>
      </trkpt>
      <trkpt lat="45.62825" lon="6.04585">
        <ele>1693</ele>
        <time>2012-12-09T10:14:22Z</time>
      </trkpt>
      <trkpt lat="45.62826" lon="6.04585">
        <ele>1693</ele>
        <time>2012-12-09T10:14:24Z</time>
      </trkpt>
      <trkpt lat="45.62827" lon="6.04584">
        <ele>1694</ele>
        <time>2012-12-09T10:14:27Z</time>
      </trkpt>
      <trkpt lat="45.62828" lon="6.04582">
        <ele>1694</ele>
        <time>2012-12-09T10:14:30Z</time>
      </trkpt>
      <trkpt lat="45.62829" lon="6.0458">
        <ele>1694</ele>
        <time>2012-12-09T10:14:32Z</time>
      </trkpt>
      <trkpt lat="45.6283" lon="6.04576">
        <ele>1695</ele>
        <time>2012-12-09T10:14:36Z</time>
      </trkpt>
      <trkpt lat="45.62831" lon="6.04574">
        <ele>1695</ele>
        <time>2012-12-09T10:14:38Z</time>
      </trkpt>
      <trkpt lat="45.62832" lon="6.04572">
        <ele>1695</ele>
        <time>2012-12-09T10:14:40Z</time>
      </trkpt>
      <trkpt lat="45.62833" lon="6.04571">
        <ele>1695</ele>
        <time>2012-12-09T10:14:42Z</time>
      </trkpt>
      <trkpt lat="45.62833" lon="6.04569">
        <ele>1696</ele>
        <time>2012-12-09T10:14:44Z</time>
      </trkpt>
      <trkpt lat="45.62835" lon="6.04568">
        <ele>1696</ele>
        <time>2012-12-09T10:14:46Z</time>
      </trkpt>
      <trkpt lat="45.62835" lon="6.04566">
        <ele>1696</ele>
        <time>2012-12-09T10:14:48Z</time>
      </trkpt>
      <trkpt lat="45.62836" lon="6.04564">
        <ele>1697</ele>
        <time>2012-12-09T10:14:50Z</time>
      </trkpt>
      <trkpt lat="45.62837" lon="6.04563">
        <ele>1697</ele>
        <time>2012-12-09T10:14:52Z</time>
      </trkpt>
      <trkpt lat="45.62838" lon="6.04561">
        <ele>1697</ele>
        <time>2012-12-09T10:14:54Z</time>
      </trkpt>
      <trkpt lat="45.62839" lon="6.04559">
        <ele>1698</ele>
        <time>2012-12-09T10:14:56Z</time>
      </trkpt>
      <trkpt lat="45.6284" lon="6.04558">
        <ele>1698</ele>
        <time>2012-12-09T10:14:58Z</time>
      </trkpt>
      <trkpt lat="45.62841" lon="6.04556">
        <ele>1698</ele>
        <time>2012-12-09T10:15:01Z</time>
      </trkpt>
      <trkpt lat="45.62842" lon="6.04554">
        <ele>1699</ele>
        <time>2012-12-09T10:15:03Z</time>
      </trkpt>
      <trkpt lat="45.62843" lon="6.04552">
        <ele>1699</ele>
        <time>2012-12-09T10:15:05Z</time>
      </trkpt>
      <trkpt lat="45.62844" lon="6.0455">
        <ele>1699</ele>
        <time>2012-12-09T10:15:07Z</time>
      </trkpt>
      <trkpt lat="45.62845" lon="6.04548">
        <ele>1699</ele>
        <time>2012-12-09T10:15:09Z</time>
      </trkpt>
      <trkpt lat="45.62846" lon="6.04546">
        <ele>1700</ele>
        <time>2012-12-09T10:15:11Z</time>
      </trkpt>
      <trkpt lat="45.62847" lon="6.04544">
        <ele>1700</ele>
        <time>2012-12-09T10:15:13Z</time>
      </trkpt>
      <trkpt lat="45.62847" lon="6.04542">
        <ele>1700</ele>
        <time>2012-12-09T10:15:15Z</time>
      </trkpt>
      <trkpt lat="45.62848" lon="6.04539">
        <ele>1701</ele>
        <time>2012-12-09T10:15:17Z</time>
      </trkpt>
      <trkpt lat="45.62848" lon="6.04537">
        <ele>1701</ele>
        <time>2012-12-09T10:15:19Z</time>
      </trkpt>
      <trkpt lat="45.62849" lon="6.04535">
        <ele>1701</ele>
        <time>2012-12-09T10:15:21Z</time>
      </trkpt>
      <trkpt lat="45.62849" lon="6.04533">
        <ele>1701</ele>
        <time>2012-12-09T10:15:23Z</time>
      </trkpt>
      <trkpt lat="45.62851" lon="6.04531">
        <ele>1702</ele>
        <time>2012-12-09T10:15:25Z</time>
      </trkpt>
      <trkpt lat="45.62853" lon="6.0453">
        <ele>1702</ele>
        <time>2012-12-09T10:15:29Z</time>
      </trkpt>
      <trkpt lat="45.62855" lon="6.04531">
        <ele>1703</ele>
        <time>2012-12-09T10:15:31Z</time>
      </trkpt>
      <trkpt lat="45.62858" lon="6.04532">
        <ele>1703</ele>
        <time>2012-12-09T10:15:35Z</time>
      </trkpt>
      <trkpt lat="45.62865" lon="6.04529">
        <ele>1704</ele>
        <time>2012-12-09T10:15:39Z</time>
      </trkpt>
      <trkpt lat="45.62866" lon="6.04527">
        <ele>1704</ele>
        <time>2012-12-09T10:15:41Z</time>
      </trkpt>
      <trkpt lat="45.62867" lon="6.04526">
        <ele>1705</ele>
        <time>2012-12-09T10:15:43Z</time>
      </trkpt>
      <trkpt lat="45.62868" lon="6.04524">
        <ele>1705</ele>
        <time>2012-12-09T10:15:45Z</time>
      </trkpt>
      <trkpt lat="45.62867" lon="6.04522">
        <ele>1705</ele>
        <time>2012-12-09T10:15:47Z</time>
      </trkpt>
      <trkpt lat="45.62867" lon="6.0452">
        <ele>1705</ele>
        <time>2012-12-09T10:15:49Z</time>
      </trkpt>
      <trkpt lat="45.62867" lon="6.04518">
        <ele>1705</ele>
        <time>2012-12-09T10:15:51Z</time>
      </trkpt>
      <trkpt lat="45.62867" lon="6.04516">
        <ele>1705</ele>
        <time>2012-12-09T10:15:53Z</time>
      </trkpt>
      <trkpt lat="45.62867" lon="6.04514">
        <ele>1706</ele>
        <time>2012-12-09T10:15:55Z</time>
      </trkpt>
      <trkpt lat="45.62868" lon="6.04511">
        <ele>1706</ele>
        <time>2012-12-09T10:15:58Z</time>
      </trkpt>
      <trkpt lat="45.62868" lon="6.0451">
        <ele>1706</ele>
        <time>2012-12-09T10:16:00Z</time>
      </trkpt>
      <trkpt lat="45.6287" lon="6.04507">
        <ele>1706</ele>
        <time>2012-12-09T10:16:03Z</time>
      </trkpt>
      <trkpt lat="45.6287" lon="6.04506">
        <ele>1707</ele>
        <time>2012-12-09T10:16:05Z</time>
      </trkpt>
      <trkpt lat="45.62871" lon="6.04504">
        <ele>1707</ele>
        <time>2012-12-09T10:16:07Z</time>
      </trkpt>
      <trkpt lat="45.62872" lon="6.04503">
        <ele>1708</ele>
        <time>2012-12-09T10:16:09Z</time>
      </trkpt>
      <trkpt lat="45.62872" lon="6.04501">
        <ele>1708</ele>
        <time>2012-12-09T10:16:11Z</time>
      </trkpt>
      <trkpt lat="45.62873" lon="6.04499">
        <ele>1708</ele>
        <time>2012-12-09T10:16:13Z</time>
      </trkpt>
      <trkpt lat="45.62875" lon="6.04498">
        <ele>1708</ele>
        <time>2012-12-09T10:16:15Z</time>
      </trkpt>
      <trkpt lat="45.62875" lon="6.04496">
        <ele>1708</ele>
        <time>2012-12-09T10:16:17Z</time>
      </trkpt>
      <trkpt lat="45.62877" lon="6.04494">
        <ele>1708</ele>
        <time>2012-12-09T10:16:20Z</time>
      </trkpt>
      <trkpt lat="45.62878" lon="6.04492">
        <ele>1708</ele>
        <time>2012-12-09T10:16:22Z</time>
      </trkpt>
      <trkpt lat="45.62879" lon="6.04491">
        <ele>1708</ele>
        <time>2012-12-09T10:16:24Z</time>
      </trkpt>
      <trkpt lat="45.6288" lon="6.04489">
        <ele>1708</ele>
        <time>2012-12-09T10:16:26Z</time>
      </trkpt>
      <trkpt lat="45.62882" lon="6.04487">
        <ele>1708</ele>
        <time>2012-12-09T10:16:28Z</time>
      </trkpt>
      <trkpt lat="45.62883" lon="6.04485">
        <ele>1708</ele>
        <time>2012-12-09T10:16:30Z</time>
      </trkpt>
      <trkpt lat="45.62884" lon="6.04483">
        <ele>1708</ele>
        <time>2012-12-09T10:16:32Z</time>
      </trkpt>
      <trkpt lat="45.62886" lon="6.04481">
        <ele>1708</ele>
        <time>2012-12-09T10:16:34Z</time>
      </trkpt>
      <trkpt lat="45.62887" lon="6.0448">
        <ele>1708</ele>
        <time>2012-12-09T10:16:36Z</time>
      </trkpt>
      <trkpt lat="45.62888" lon="6.04478">
        <ele>1708</ele>
        <time>2012-12-09T10:16:38Z</time>
      </trkpt>
      <trkpt lat="45.6289" lon="6.04476">
        <ele>1708</ele>
        <time>2012-12-09T10:16:40Z</time>
      </trkpt>
      <trkpt lat="45.62891" lon="6.04474">
        <ele>1708</ele>
        <time>2012-12-09T10:16:43Z</time>
      </trkpt>
      <trkpt lat="45.62893" lon="6.04473">
        <ele>1709</ele>
        <time>2012-12-09T10:16:45Z</time>
      </trkpt>
      <trkpt lat="45.62894" lon="6.04471">
        <ele>1709</ele>
        <time>2012-12-09T10:16:47Z</time>
      </trkpt>
      <trkpt lat="45.62895" lon="6.0447">
        <ele>1709</ele>
        <time>2012-12-09T10:16:49Z</time>
      </trkpt>
      <trkpt lat="45.62896" lon="6.04469">
        <ele>1709</ele>
        <time>2012-12-09T10:16:51Z</time>
      </trkpt>
      <trkpt lat="45.62897" lon="6.04467">
        <ele>1709</ele>
        <time>2012-12-09T10:16:53Z</time>
      </trkpt>
      <trkpt lat="45.62897" lon="6.04465">
        <ele>1710</ele>
        <time>2012-12-09T10:16:55Z</time>
      </trkpt>
      <trkpt lat="45.62898" lon="6.04463">
        <ele>1710</ele>
        <time>2012-12-09T10:16:57Z</time>
      </trkpt>
      <trkpt lat="45.62898" lon="6.04461">
        <ele>1710</ele>
        <time>2012-12-09T10:16:59Z</time>
      </trkpt>
      <trkpt lat="45.62899" lon="6.04459">
        <ele>1710</ele>
        <time>2012-12-09T10:17:01Z</time>
      </trkpt>
      <trkpt lat="45.62899" lon="6.04456">
        <ele>1711</ele>
        <time>2012-12-09T10:17:03Z</time>
      </trkpt>
      <trkpt lat="45.629" lon="6.04454">
        <ele>1711</ele>
        <time>2012-12-09T10:17:05Z</time>
      </trkpt>
      <trkpt lat="45.629" lon="6.04451">
        <ele>1711</ele>
        <time>2012-12-09T10:17:07Z</time>
      </trkpt>
      <trkpt lat="45.62901" lon="6.04449">
        <ele>1711</ele>
        <time>2012-12-09T10:17:09Z</time>
      </trkpt>
      <trkpt lat="45.62902" lon="6.04446">
        <ele>1711</ele>
        <time>2012-12-09T10:17:11Z</time>
      </trkpt>
      <trkpt lat="45.62902" lon="6.04444">
        <ele>1711</ele>
        <time>2012-12-09T10:17:13Z</time>
      </trkpt>
      <trkpt lat="45.62903" lon="6.04441">
        <ele>1711</ele>
        <time>2012-12-09T10:17:15Z</time>
      </trkpt>
      <trkpt lat="45.62904" lon="6.04439">
        <ele>1711</ele>
        <time>2012-12-09T10:17:17Z</time>
      </trkpt>
      <trkpt lat="45.62904" lon="6.04437">
        <ele>1711</ele>
        <time>2012-12-09T10:17:19Z</time>
      </trkpt>
      <trkpt lat="45.62912" lon="6.04425">
        <ele>1712</ele>
        <time>2012-12-09T10:17:25Z</time>
      </trkpt>
      <trkpt lat="45.62915" lon="6.04424">
        <ele>1712</ele>
        <time>2012-12-09T10:17:27Z</time>
      </trkpt>
      <trkpt lat="45.62917" lon="6.04421">
        <ele>1712</ele>
        <time>2012-12-09T10:17:30Z</time>
      </trkpt>
      <trkpt lat="45.62918" lon="6.04419">
        <ele>1712</ele>
        <time>2012-12-09T10:17:32Z</time>
      </trkpt>
      <trkpt lat="45.62918" lon="6.04416">
        <ele>1712</ele>
        <time>2012-12-09T10:17:34Z</time>
      </trkpt>
      <trkpt lat="45.62918" lon="6.04413">
        <ele>1712</ele>
        <time>2012-12-09T10:17:36Z</time>
      </trkpt>
      <trkpt lat="45.62918" lon="6.04399">
        <ele>1713</ele>
        <time>2012-12-09T10:17:42Z</time>
      </trkpt>
      <trkpt lat="45.62918" lon="6.04397">
        <ele>1713</ele>
        <time>2012-12-09T10:17:44Z</time>
      </trkpt>
      <trkpt lat="45.62918" lon="6.04394">
        <ele>1713</ele>
        <time>2012-12-09T10:17:46Z</time>
      </trkpt>
      <trkpt lat="45.62917" lon="6.04392">
        <ele>1714</ele>
        <time>2012-12-09T10:17:48Z</time>
      </trkpt>
      <trkpt lat="45.62917" lon="6.04387">
        <ele>1714</ele>
        <time>2012-12-09T10:17:52Z</time>
      </trkpt>
      <trkpt lat="45.62917" lon="6.04385">
        <ele>1715</ele>
        <time>2012-12-09T10:17:54Z</time>
      </trkpt>
      <trkpt lat="45.62917" lon="6.04381">
        <ele>1715</ele>
        <time>2012-12-09T10:17:58Z</time>
      </trkpt>
      <trkpt lat="45.62917" lon="6.04379">
        <ele>1716</ele>
        <time>2012-12-09T10:18:00Z</time>
      </trkpt>
      <trkpt lat="45.62917" lon="6.04377">
        <ele>1716</ele>
        <time>2012-12-09T10:18:02Z</time>
      </trkpt>
      <trkpt lat="45.62917" lon="6.04375">
        <ele>1716</ele>
        <time>2012-12-09T10:18:04Z</time>
      </trkpt>
      <trkpt lat="45.62918" lon="6.04373">
        <ele>1717</ele>
        <time>2012-12-09T10:18:06Z</time>
      </trkpt>
      <trkpt lat="45.62918" lon="6.04371">
        <ele>1717</ele>
        <time>2012-12-09T10:18:08Z</time>
      </trkpt>
      <trkpt lat="45.62919" lon="6.04369">
        <ele>1717</ele>
        <time>2012-12-09T10:18:10Z</time>
      </trkpt>
      <trkpt lat="45.6292" lon="6.04367">
        <ele>1718</ele>
        <time>2012-12-09T10:18:12Z</time>
      </trkpt>
      <trkpt lat="45.62921" lon="6.04365">
        <ele>1718</ele>
        <time>2012-12-09T10:18:14Z</time>
      </trkpt>
      <trkpt lat="45.62922" lon="6.04363">
        <ele>1718</ele>
        <time>2012-12-09T10:18:16Z</time>
      </trkpt>
      <trkpt lat="45.62922" lon="6.04361">
        <ele>1719</ele>
        <time>2012-12-09T10:18:18Z</time>
      </trkpt>
      <trkpt lat="45.62923" lon="6.04359">
        <ele>1719</ele>
        <time>2012-12-09T10:18:20Z</time>
      </trkpt>
      <trkpt lat="45.62923" lon="6.04357">
        <ele>1719</ele>
        <time>2012-12-09T10:18:22Z</time>
      </trkpt>
      <trkpt lat="45.62924" lon="6.04355">
        <ele>1719</ele>
        <time>2012-12-09T10:18:24Z</time>
      </trkpt>
      <trkpt lat="45.62925" lon="6.04354">
        <ele>1720</ele>
        <time>2012-12-09T10:18:26Z</time>
      </trkpt>
      <trkpt lat="45.62926" lon="6.04351">
        <ele>1720</ele>
        <time>2012-12-09T10:18:28Z</time>
      </trkpt>
      <trkpt lat="45.62926" lon="6.0435">
        <ele>1720</ele>
        <time>2012-12-09T10:18:30Z</time>
      </trkpt>
      <trkpt lat="45.62927" lon="6.04347">
        <ele>1720</ele>
        <time>2012-12-09T10:18:32Z</time>
      </trkpt>
      <trkpt lat="45.62928" lon="6.04346">
        <ele>1721</ele>
        <time>2012-12-09T10:18:34Z</time>
      </trkpt>
      <trkpt lat="45.62928" lon="6.04344">
        <ele>1721</ele>
        <time>2012-12-09T10:18:36Z</time>
      </trkpt>
      <trkpt lat="45.62929" lon="6.04341">
        <ele>1721</ele>
        <time>2012-12-09T10:18:38Z</time>
      </trkpt>
      <trkpt lat="45.62929" lon="6.0434">
        <ele>1721</ele>
        <time>2012-12-09T10:18:40Z</time>
      </trkpt>
      <trkpt lat="45.62928" lon="6.04338">
        <ele>1722</ele>
        <time>2012-12-09T10:18:42Z</time>
      </trkpt>
      <trkpt lat="45.62929" lon="6.04335">
        <ele>1722</ele>
        <time>2012-12-09T10:18:44Z</time>
      </trkpt>
      <trkpt lat="45.62928" lon="6.04333">
        <ele>1722</ele>
        <time>2012-12-09T10:18:46Z</time>
      </trkpt>
      <trkpt lat="45.62929" lon="6.04331">
        <ele>1723</ele>
        <time>2012-12-09T10:18:48Z</time>
      </trkpt>
      <trkpt lat="45.62929" lon="6.04327">
        <ele>1723</ele>
        <time>2012-12-09T10:18:52Z</time>
      </trkpt>
      <trkpt lat="45.62929" lon="6.04324">
        <ele>1724</ele>
        <time>2012-12-09T10:18:54Z</time>
      </trkpt>
      <trkpt lat="45.62929" lon="6.04319">
        <ele>1724</ele>
        <time>2012-12-09T10:18:58Z</time>
      </trkpt>
      <trkpt lat="45.62929" lon="6.04317">
        <ele>1725</ele>
        <time>2012-12-09T10:19:00Z</time>
      </trkpt>
      <trkpt lat="45.62929" lon="6.04313">
        <ele>1725</ele>
        <time>2012-12-09T10:19:04Z</time>
      </trkpt>
      <trkpt lat="45.62929" lon="6.04311">
        <ele>1725</ele>
        <time>2012-12-09T10:19:06Z</time>
      </trkpt>
      <trkpt lat="45.62928" lon="6.04308">
        <ele>1725</ele>
        <time>2012-12-09T10:19:08Z</time>
      </trkpt>
      <trkpt lat="45.62928" lon="6.04304">
        <ele>1726</ele>
        <time>2012-12-09T10:19:12Z</time>
      </trkpt>
      <trkpt lat="45.62928" lon="6.04299">
        <ele>1726</ele>
        <time>2012-12-09T10:19:15Z</time>
      </trkpt>
      <trkpt lat="45.62928" lon="6.04297">
        <ele>1726</ele>
        <time>2012-12-09T10:19:17Z</time>
      </trkpt>
      <trkpt lat="45.62928" lon="6.04293">
        <ele>1727</ele>
        <time>2012-12-09T10:19:21Z</time>
      </trkpt>
      <trkpt lat="45.62928" lon="6.04291">
        <ele>1727</ele>
        <time>2012-12-09T10:19:23Z</time>
      </trkpt>
      <trkpt lat="45.62928" lon="6.04289">
        <ele>1728</ele>
        <time>2012-12-09T10:19:25Z</time>
      </trkpt>
      <trkpt lat="45.62928" lon="6.04287">
        <ele>1728</ele>
        <time>2012-12-09T10:19:27Z</time>
      </trkpt>
      <trkpt lat="45.62928" lon="6.04285">
        <ele>1728</ele>
        <time>2012-12-09T10:19:29Z</time>
      </trkpt>
      <trkpt lat="45.62928" lon="6.04283">
        <ele>1728</ele>
        <time>2012-12-09T10:19:31Z</time>
      </trkpt>
      <trkpt lat="45.62928" lon="6.04281">
        <ele>1729</ele>
        <time>2012-12-09T10:19:33Z</time>
      </trkpt>
      <trkpt lat="45.62928" lon="6.04279">
        <ele>1729</ele>
        <time>2012-12-09T10:19:35Z</time>
      </trkpt>
      <trkpt lat="45.62928" lon="6.04277">
        <ele>1730</ele>
        <time>2012-12-09T10:19:37Z</time>
      </trkpt>
      <trkpt lat="45.62929" lon="6.04275">
        <ele>1730</ele>
        <time>2012-12-09T10:19:39Z</time>
      </trkpt>
      <trkpt lat="45.62929" lon="6.04273">
        <ele>1730</ele>
        <time>2012-12-09T10:19:41Z</time>
      </trkpt>
      <trkpt lat="45.62929" lon="6.04269">
        <ele>1731</ele>
        <time>2012-12-09T10:19:45Z</time>
      </trkpt>
      <trkpt lat="45.62929" lon="6.04267">
        <ele>1731</ele>
        <time>2012-12-09T10:19:47Z</time>
      </trkpt>
      <trkpt lat="45.62929" lon="6.04265">
        <ele>1731</ele>
        <time>2012-12-09T10:19:49Z</time>
      </trkpt>
      <trkpt lat="45.62929" lon="6.04263">
        <ele>1732</ele>
        <time>2012-12-09T10:19:51Z</time>
      </trkpt>
      <trkpt lat="45.62928" lon="6.04261">
        <ele>1732</ele>
        <time>2012-12-09T10:19:53Z</time>
      </trkpt>
      <trkpt lat="45.62927" lon="6.04257">
        <ele>1733</ele>
        <time>2012-12-09T10:19:57Z</time>
      </trkpt>
      <trkpt lat="45.62928" lon="6.04255">
        <ele>1733</ele>
        <time>2012-12-09T10:19:59Z</time>
      </trkpt>
      <trkpt lat="45.62928" lon="6.04253">
        <ele>1734</ele>
        <time>2012-12-09T10:20:01Z</time>
      </trkpt>
      <trkpt lat="45.62929" lon="6.04251">
        <ele>1734</ele>
        <time>2012-12-09T10:20:03Z</time>
      </trkpt>
      <trkpt lat="45.6293" lon="6.04249">
        <ele>1734</ele>
        <time>2012-12-09T10:20:05Z</time>
      </trkpt>
      <trkpt lat="45.62931" lon="6.04245">
        <ele>1735</ele>
        <time>2012-12-09T10:20:09Z</time>
      </trkpt>
      <trkpt lat="45.62931" lon="6.04243">
        <ele>1735</ele>
        <time>2012-12-09T10:20:11Z</time>
      </trkpt>
      <trkpt lat="45.62933" lon="6.0424">
        <ele>1735</ele>
        <time>2012-12-09T10:20:15Z</time>
      </trkpt>
      <trkpt lat="45.62934" lon="6.04238">
        <ele>1736</ele>
        <time>2012-12-09T10:20:18Z</time>
      </trkpt>
      <trkpt lat="45.62934" lon="6.04235">
        <ele>1736</ele>
        <time>2012-12-09T10:20:22Z</time>
      </trkpt>
      <trkpt lat="45.62933" lon="6.04233">
        <ele>1736</ele>
        <time>2012-12-09T10:20:24Z</time>
      </trkpt>
      <trkpt lat="45.62932" lon="6.0423">
        <ele>1737</ele>
        <time>2012-12-09T10:20:28Z</time>
      </trkpt>
      <trkpt lat="45.62931" lon="6.04228">
        <ele>1737</ele>
        <time>2012-12-09T10:20:30Z</time>
      </trkpt>
      <trkpt lat="45.6293" lon="6.04225">
        <ele>1739</ele>
        <time>2012-12-09T10:20:34Z</time>
      </trkpt>
      <trkpt lat="45.62929" lon="6.04223">
        <ele>1740</ele>
        <time>2012-12-09T10:20:36Z</time>
      </trkpt>
      <trkpt lat="45.62928" lon="6.04219">
        <ele>1741</ele>
        <time>2012-12-09T10:20:40Z</time>
      </trkpt>
      <trkpt lat="45.62928" lon="6.04217">
        <ele>1741</ele>
        <time>2012-12-09T10:20:42Z</time>
      </trkpt>
      <trkpt lat="45.62927" lon="6.04213">
        <ele>1742</ele>
        <time>2012-12-09T10:20:46Z</time>
      </trkpt>
      <trkpt lat="45.62927" lon="6.04212">
        <ele>1742</ele>
        <time>2012-12-09T10:20:48Z</time>
      </trkpt>
      <trkpt lat="45.62927" lon="6.04208">
        <ele>1743</ele>
        <time>2012-12-09T10:20:52Z</time>
      </trkpt>
      <trkpt lat="45.62928" lon="6.04207">
        <ele>1744</ele>
        <time>2012-12-09T10:20:54Z</time>
      </trkpt>
      <trkpt lat="45.62928" lon="6.04203">
        <ele>1744</ele>
        <time>2012-12-09T10:20:58Z</time>
      </trkpt>
      <trkpt lat="45.62928" lon="6.042">
        <ele>1744</ele>
        <time>2012-12-09T10:21:01Z</time>
      </trkpt>
      <trkpt lat="45.62929" lon="6.04198">
        <ele>1744</ele>
        <time>2012-12-09T10:21:04Z</time>
      </trkpt>
      <trkpt lat="45.6293" lon="6.04197">
        <ele>1744</ele>
        <time>2012-12-09T10:21:06Z</time>
      </trkpt>
      <trkpt lat="45.62931" lon="6.04193">
        <ele>1745</ele>
        <time>2012-12-09T10:21:10Z</time>
      </trkpt>
      <trkpt lat="45.62932" lon="6.04191">
        <ele>1745</ele>
        <time>2012-12-09T10:21:12Z</time>
      </trkpt>
      <trkpt lat="45.62933" lon="6.04188">
        <ele>1745</ele>
        <time>2012-12-09T10:21:16Z</time>
      </trkpt>
      <trkpt lat="45.62934" lon="6.04186">
        <ele>1745</ele>
        <time>2012-12-09T10:21:18Z</time>
      </trkpt>
      <trkpt lat="45.62936" lon="6.04183">
        <ele>1745</ele>
        <time>2012-12-09T10:21:22Z</time>
      </trkpt>
      <trkpt lat="45.62937" lon="6.04181">
        <ele>1745</ele>
        <time>2012-12-09T10:21:24Z</time>
      </trkpt>
      <trkpt lat="45.62939" lon="6.04177">
        <ele>1745</ele>
        <time>2012-12-09T10:21:28Z</time>
      </trkpt>
      <trkpt lat="45.62939" lon="6.04176">
        <ele>1745</ele>
        <time>2012-12-09T10:21:30Z</time>
      </trkpt>
      <trkpt lat="45.62942" lon="6.04172">
        <ele>1745</ele>
        <time>2012-12-09T10:21:34Z</time>
      </trkpt>
      <trkpt lat="45.62943" lon="6.0417">
        <ele>1746</ele>
        <time>2012-12-09T10:21:36Z</time>
      </trkpt>
      <trkpt lat="45.62943" lon="6.04166">
        <ele>1746</ele>
        <time>2012-12-09T10:21:40Z</time>
      </trkpt>
      <trkpt lat="45.62944" lon="6.04163">
        <ele>1746</ele>
        <time>2012-12-09T10:21:42Z</time>
      </trkpt>
      <trkpt lat="45.62945" lon="6.04158">
        <ele>1746</ele>
        <time>2012-12-09T10:21:46Z</time>
      </trkpt>
      <trkpt lat="45.62946" lon="6.04155">
        <ele>1746</ele>
        <time>2012-12-09T10:21:48Z</time>
      </trkpt>
      <trkpt lat="45.62947" lon="6.0415">
        <ele>1747</ele>
        <time>2012-12-09T10:21:52Z</time>
      </trkpt>
      <trkpt lat="45.62947" lon="6.04148">
        <ele>1747</ele>
        <time>2012-12-09T10:21:54Z</time>
      </trkpt>
      <trkpt lat="45.62949" lon="6.04145">
        <ele>1747</ele>
        <time>2012-12-09T10:21:58Z</time>
      </trkpt>
      <trkpt lat="45.6295" lon="6.04143">
        <ele>1748</ele>
        <time>2012-12-09T10:22:00Z</time>
      </trkpt>
      <trkpt lat="45.62951" lon="6.04139">
        <ele>1748</ele>
        <time>2012-12-09T10:22:04Z</time>
      </trkpt>
      <trkpt lat="45.62951" lon="6.04137">
        <ele>1749</ele>
        <time>2012-12-09T10:22:06Z</time>
      </trkpt>
      <trkpt lat="45.62951" lon="6.04132">
        <ele>1749</ele>
        <time>2012-12-09T10:22:10Z</time>
      </trkpt>
      <trkpt lat="45.6295" lon="6.0413">
        <ele>1749</ele>
        <time>2012-12-09T10:22:12Z</time>
      </trkpt>
      <trkpt lat="45.62949" lon="6.04125">
        <ele>1750</ele>
        <time>2012-12-09T10:22:16Z</time>
      </trkpt>
      <trkpt lat="45.62949" lon="6.04123">
        <ele>1750</ele>
        <time>2012-12-09T10:22:18Z</time>
      </trkpt>
      <trkpt lat="45.62948" lon="6.04118">
        <ele>1750</ele>
        <time>2012-12-09T10:22:22Z</time>
      </trkpt>
      <trkpt lat="45.62948" lon="6.04116">
        <ele>1750</ele>
        <time>2012-12-09T10:22:24Z</time>
      </trkpt>
      <trkpt lat="45.62953" lon="6.04118">
        <ele>1752</ele>
        <time>2012-12-09T10:22:32Z</time>
      </trkpt>
      <trkpt lat="45.62956" lon="6.0412">
        <ele>1752</ele>
        <time>2012-12-09T10:22:35Z</time>
      </trkpt>
      <trkpt lat="45.62958" lon="6.04121">
        <ele>1752</ele>
        <time>2012-12-09T10:22:37Z</time>
      </trkpt>
      <trkpt lat="45.62962" lon="6.04124">
        <ele>1752</ele>
        <time>2012-12-09T10:22:41Z</time>
      </trkpt>
      <trkpt lat="45.62964" lon="6.04125">
        <ele>1752</ele>
        <time>2012-12-09T10:22:43Z</time>
      </trkpt>
      <trkpt lat="45.62967" lon="6.04125">
        <ele>1752</ele>
        <time>2012-12-09T10:22:46Z</time>
      </trkpt>
      <trkpt lat="45.62969" lon="6.04124">
        <ele>1752</ele>
        <time>2012-12-09T10:22:48Z</time>
      </trkpt>
      <trkpt lat="45.62973" lon="6.04121">
        <ele>1752</ele>
        <time>2012-12-09T10:22:52Z</time>
      </trkpt>
      <trkpt lat="45.62975" lon="6.0412">
        <ele>1752</ele>
        <time>2012-12-09T10:22:54Z</time>
      </trkpt>
      <trkpt lat="45.62978" lon="6.04118">
        <ele>1752</ele>
        <time>2012-12-09T10:22:56Z</time>
      </trkpt>
      <trkpt lat="45.6298" lon="6.04116">
        <ele>1752</ele>
        <time>2012-12-09T10:22:58Z</time>
      </trkpt>
      <trkpt lat="45.62983" lon="6.04113">
        <ele>1752</ele>
        <time>2012-12-09T10:23:01Z</time>
      </trkpt>
      <trkpt lat="45.62987" lon="6.0411">
        <ele>1752</ele>
        <time>2012-12-09T10:23:04Z</time>
      </trkpt>
      <trkpt lat="45.62989" lon="6.04106">
        <ele>1752</ele>
        <time>2012-12-09T10:23:07Z</time>
      </trkpt>
      <trkpt lat="45.62991" lon="6.04104">
        <ele>1752</ele>
        <time>2012-12-09T10:23:09Z</time>
      </trkpt>
      <trkpt lat="45.62994" lon="6.041">
        <ele>1752</ele>
        <time>2012-12-09T10:23:13Z</time>
      </trkpt>
      <trkpt lat="45.62995" lon="6.04098">
        <ele>1752</ele>
        <time>2012-12-09T10:23:15Z</time>
      </trkpt>
      <trkpt lat="45.62998" lon="6.04094">
        <ele>1752</ele>
        <time>2012-12-09T10:23:19Z</time>
      </trkpt>
      <trkpt lat="45.62999" lon="6.04091">
        <ele>1752</ele>
        <time>2012-12-09T10:23:21Z</time>
      </trkpt>
      <trkpt lat="45.63" lon="6.04089">
        <ele>1752</ele>
        <time>2012-12-09T10:23:23Z</time>
      </trkpt>
      <trkpt lat="45.63002" lon="6.04087">
        <ele>1752</ele>
        <time>2012-12-09T10:23:25Z</time>
      </trkpt>
      <trkpt lat="45.63004" lon="6.04086">
        <ele>1752</ele>
        <time>2012-12-09T10:23:27Z</time>
      </trkpt>
      <trkpt lat="45.63007" lon="6.04084">
        <ele>1752</ele>
        <time>2012-12-09T10:23:31Z</time>
      </trkpt>
      <trkpt lat="45.63009" lon="6.04082">
        <ele>1752</ele>
        <time>2012-12-09T10:23:33Z</time>
      </trkpt>
      <trkpt lat="45.6301" lon="6.0408">
        <ele>1752</ele>
        <time>2012-12-09T10:23:35Z</time>
      </trkpt>
      <trkpt lat="45.63012" lon="6.04078">
        <ele>1752</ele>
        <time>2012-12-09T10:23:37Z</time>
      </trkpt>
      <trkpt lat="45.63013" lon="6.04076">
        <ele>1752</ele>
        <time>2012-12-09T10:23:39Z</time>
      </trkpt>
      <trkpt lat="45.63015" lon="6.04072">
        <ele>1752</ele>
        <time>2012-12-09T10:23:43Z</time>
      </trkpt>
      <trkpt lat="45.63016" lon="6.04069">
        <ele>1752</ele>
        <time>2012-12-09T10:23:45Z</time>
      </trkpt>
      <trkpt lat="45.63018" lon="6.04064">
        <ele>1752</ele>
        <time>2012-12-09T10:23:48Z</time>
      </trkpt>
      <trkpt lat="45.63018" lon="6.04062">
        <ele>1752</ele>
        <time>2012-12-09T10:23:50Z</time>
      </trkpt>
      <trkpt lat="45.6302" lon="6.04058">
        <ele>1752</ele>
        <time>2012-12-09T10:23:54Z</time>
      </trkpt>
      <trkpt lat="45.6302" lon="6.04056">
        <ele>1752</ele>
        <time>2012-12-09T10:23:56Z</time>
      </trkpt>
      <trkpt lat="45.63021" lon="6.04051">
        <ele>1752</ele>
        <time>2012-12-09T10:24:00Z</time>
      </trkpt>
      <trkpt lat="45.63022" lon="6.04049">
        <ele>1752</ele>
        <time>2012-12-09T10:24:02Z</time>
      </trkpt>
      <trkpt lat="45.63022" lon="6.04046">
        <ele>1752</ele>
        <time>2012-12-09T10:24:04Z</time>
      </trkpt>
      <trkpt lat="45.63023" lon="6.04044">
        <ele>1752</ele>
        <time>2012-12-09T10:24:06Z</time>
      </trkpt>
      <trkpt lat="45.63023" lon="6.04042">
        <ele>1752</ele>
        <time>2012-12-09T10:24:08Z</time>
      </trkpt>
      <trkpt lat="45.63024" lon="6.04038">
        <ele>1752</ele>
        <time>2012-12-09T10:24:12Z</time>
      </trkpt>
      <trkpt lat="45.63026" lon="6.04028">
        <ele>1752</ele>
        <time>2012-12-09T10:24:17Z</time>
      </trkpt>
      <trkpt lat="45.63027" lon="6.04024">
        <ele>1752</ele>
        <time>2012-12-09T10:24:19Z</time>
      </trkpt>
      <trkpt lat="45.63028" lon="6.04021">
        <ele>1752</ele>
        <time>2012-12-09T10:24:21Z</time>
      </trkpt>
      <trkpt lat="45.6303" lon="6.04017">
        <ele>1752</ele>
        <time>2012-12-09T10:24:24Z</time>
      </trkpt>
      <trkpt lat="45.63031" lon="6.04014">
        <ele>1752</ele>
        <time>2012-12-09T10:24:26Z</time>
      </trkpt>
      <trkpt lat="45.63032" lon="6.04012">
        <ele>1752</ele>
        <time>2012-12-09T10:24:28Z</time>
      </trkpt>
      <trkpt lat="45.63034" lon="6.04008">
        <ele>1752</ele>
        <time>2012-12-09T10:24:32Z</time>
      </trkpt>
      <trkpt lat="45.63034" lon="6.04006">
        <ele>1753</ele>
        <time>2012-12-09T10:24:34Z</time>
      </trkpt>
      <trkpt lat="45.63036" lon="6.04002">
        <ele>1753</ele>
        <time>2012-12-09T10:24:37Z</time>
      </trkpt>
      <trkpt lat="45.63037" lon="6.03995">
        <ele>1753</ele>
        <time>2012-12-09T10:24:39Z</time>
      </trkpt>
      <trkpt lat="45.6304" lon="6.03984">
        <ele>1753</ele>
        <time>2012-12-09T10:24:42Z</time>
      </trkpt>
      <trkpt lat="45.63041" lon="6.03981">
        <ele>1753</ele>
        <time>2012-12-09T10:24:44Z</time>
      </trkpt>
      <trkpt lat="45.63042" lon="6.03976">
        <ele>1753</ele>
        <time>2012-12-09T10:24:48Z</time>
      </trkpt>
      <trkpt lat="45.63042" lon="6.03974">
        <ele>1753</ele>
        <time>2012-12-09T10:24:50Z</time>
      </trkpt>
      <trkpt lat="45.63042" lon="6.03972">
        <ele>1753</ele>
        <time>2012-12-09T10:24:52Z</time>
      </trkpt>
      <trkpt lat="45.63042" lon="6.0397">
        <ele>1753</ele>
        <time>2012-12-09T10:24:54Z</time>
      </trkpt>
      <trkpt lat="45.63043" lon="6.03968">
        <ele>1753</ele>
        <time>2012-12-09T10:24:56Z</time>
      </trkpt>
      <trkpt lat="45.63044" lon="6.03964">
        <ele>1753</ele>
        <time>2012-12-09T10:25:00Z</time>
      </trkpt>
      <trkpt lat="45.63044" lon="6.03961">
        <ele>1753</ele>
        <time>2012-12-09T10:25:02Z</time>
      </trkpt>
      <trkpt lat="45.63045" lon="6.03959">
        <ele>1753</ele>
        <time>2012-12-09T10:25:04Z</time>
      </trkpt>
      <trkpt lat="45.63046" lon="6.03957">
        <ele>1753</ele>
        <time>2012-12-09T10:25:06Z</time>
      </trkpt>
      <trkpt lat="45.63047" lon="6.03954">
        <ele>1753</ele>
        <time>2012-12-09T10:25:08Z</time>
      </trkpt>
      <trkpt lat="45.63047" lon="6.03953">
        <ele>1753</ele>
        <time>2012-12-09T10:25:11Z</time>
      </trkpt>
      <trkpt lat="45.63047" lon="6.03951">
        <ele>1753</ele>
        <time>2012-12-09T10:25:13Z</time>
      </trkpt>
      <trkpt lat="45.63048" lon="6.03948">
        <ele>1753</ele>
        <time>2012-12-09T10:25:15Z</time>
      </trkpt>
      <trkpt lat="45.63049" lon="6.03946">
        <ele>1753</ele>
        <time>2012-12-09T10:25:17Z</time>
      </trkpt>
      <trkpt lat="45.63049" lon="6.03943">
        <ele>1753</ele>
        <time>2012-12-09T10:25:19Z</time>
      </trkpt>
      <trkpt lat="45.6305" lon="6.03938">
        <ele>1753</ele>
        <time>2012-12-09T10:25:23Z</time>
      </trkpt>
      <trkpt lat="45.63051" lon="6.03936">
        <ele>1754</ele>
        <time>2012-12-09T10:25:25Z</time>
      </trkpt>
      <trkpt lat="45.63051" lon="6.03933">
        <ele>1754</ele>
        <time>2012-12-09T10:25:27Z</time>
      </trkpt>
      <trkpt lat="45.63052" lon="6.0393">
        <ele>1755</ele>
        <time>2012-12-09T10:25:30Z</time>
      </trkpt>
      <trkpt lat="45.63052" lon="6.03927">
        <ele>1755</ele>
        <time>2012-12-09T10:25:32Z</time>
      </trkpt>
      <trkpt lat="45.63052" lon="6.03924">
        <ele>1756</ele>
        <time>2012-12-09T10:25:34Z</time>
      </trkpt>
      <trkpt lat="45.63052" lon="6.03922">
        <ele>1756</ele>
        <time>2012-12-09T10:25:36Z</time>
      </trkpt>
      <trkpt lat="45.63053" lon="6.03917">
        <ele>1757</ele>
        <time>2012-12-09T10:25:40Z</time>
      </trkpt>
      <trkpt lat="45.63054" lon="6.03913">
        <ele>1757</ele>
        <time>2012-12-09T10:25:43Z</time>
      </trkpt>
      <trkpt lat="45.63054" lon="6.03909">
        <ele>1758</ele>
        <time>2012-12-09T10:25:46Z</time>
      </trkpt>
      <trkpt lat="45.63054" lon="6.03907">
        <ele>1758</ele>
        <time>2012-12-09T10:25:48Z</time>
      </trkpt>
      <trkpt lat="45.63055" lon="6.03904">
        <ele>1758</ele>
        <time>2012-12-09T10:25:50Z</time>
      </trkpt>
      <trkpt lat="45.63055" lon="6.03902">
        <ele>1758</ele>
        <time>2012-12-09T10:25:52Z</time>
      </trkpt>
      <trkpt lat="45.63055" lon="6.03899">
        <ele>1759</ele>
        <time>2012-12-09T10:25:54Z</time>
      </trkpt>
      <trkpt lat="45.63056" lon="6.03897">
        <ele>1759</ele>
        <time>2012-12-09T10:25:56Z</time>
      </trkpt>
      <trkpt lat="45.63056" lon="6.03895">
        <ele>1759</ele>
        <time>2012-12-09T10:25:58Z</time>
      </trkpt>
      <trkpt lat="45.63057" lon="6.03893">
        <ele>1759</ele>
        <time>2012-12-09T10:26:00Z</time>
      </trkpt>
      <trkpt lat="45.63057" lon="6.0389">
        <ele>1759</ele>
        <time>2012-12-09T10:26:02Z</time>
      </trkpt>
      <trkpt lat="45.63057" lon="6.03888">
        <ele>1759</ele>
        <time>2012-12-09T10:26:04Z</time>
      </trkpt>
      <trkpt lat="45.63057" lon="6.03886">
        <ele>1759</ele>
        <time>2012-12-09T10:26:06Z</time>
      </trkpt>
      <trkpt lat="45.63057" lon="6.03884">
        <ele>1759</ele>
        <time>2012-12-09T10:26:08Z</time>
      </trkpt>
      <trkpt lat="45.63058" lon="6.03882">
        <ele>1760</ele>
        <time>2012-12-09T10:26:10Z</time>
      </trkpt>
      <trkpt lat="45.63058" lon="6.0388">
        <ele>1760</ele>
        <time>2012-12-09T10:26:12Z</time>
      </trkpt>
      <trkpt lat="45.63058" lon="6.03879">
        <ele>1760</ele>
        <time>2012-12-09T10:26:14Z</time>
      </trkpt>
      <trkpt lat="45.63058" lon="6.03877">
        <ele>1760</ele>
        <time>2012-12-09T10:26:16Z</time>
      </trkpt>
      <trkpt lat="45.63058" lon="6.03875">
        <ele>1760</ele>
        <time>2012-12-09T10:26:18Z</time>
      </trkpt>
      <trkpt lat="45.63058" lon="6.03873">
        <ele>1761</ele>
        <time>2012-12-09T10:26:20Z</time>
      </trkpt>
      <trkpt lat="45.63058" lon="6.03872">
        <ele>1761</ele>
        <time>2012-12-09T10:26:22Z</time>
      </trkpt>
      <trkpt lat="45.63059" lon="6.03868">
        <ele>1762</ele>
        <time>2012-12-09T10:26:26Z</time>
      </trkpt>
      <trkpt lat="45.63059" lon="6.03866">
        <ele>1762</ele>
        <time>2012-12-09T10:26:28Z</time>
      </trkpt>
      <trkpt lat="45.63059" lon="6.03864">
        <ele>1762</ele>
        <time>2012-12-09T10:26:30Z</time>
      </trkpt>
      <trkpt lat="45.6306" lon="6.03862">
        <ele>1763</ele>
        <time>2012-12-09T10:26:32Z</time>
      </trkpt>
      <trkpt lat="45.6306" lon="6.0386">
        <ele>1763</ele>
        <time>2012-12-09T10:26:34Z</time>
      </trkpt>
      <trkpt lat="45.6306" lon="6.03858">
        <ele>1763</ele>
        <time>2012-12-09T10:26:36Z</time>
      </trkpt>
      <trkpt lat="45.6306" lon="6.03856">
        <ele>1763</ele>
        <time>2012-12-09T10:26:38Z</time>
      </trkpt>
      <trkpt lat="45.6306" lon="6.03854">
        <ele>1763</ele>
        <time>2012-12-09T10:26:40Z</time>
      </trkpt>
      <trkpt lat="45.6306" lon="6.03852">
        <ele>1764</ele>
        <time>2012-12-09T10:26:42Z</time>
      </trkpt>
      <trkpt lat="45.6306" lon="6.03849">
        <ele>1764</ele>
        <time>2012-12-09T10:26:44Z</time>
      </trkpt>
      <trkpt lat="45.6306" lon="6.03847">
        <ele>1764</ele>
        <time>2012-12-09T10:26:46Z</time>
      </trkpt>
      <trkpt lat="45.6306" lon="6.03845">
        <ele>1764</ele>
        <time>2012-12-09T10:26:48Z</time>
      </trkpt>
      <trkpt lat="45.6306" lon="6.03843">
        <ele>1765</ele>
        <time>2012-12-09T10:26:50Z</time>
      </trkpt>
      <trkpt lat="45.6306" lon="6.03841">
        <ele>1765</ele>
        <time>2012-12-09T10:26:52Z</time>
      </trkpt>
      <trkpt lat="45.6306" lon="6.03838">
        <ele>1765</ele>
        <time>2012-12-09T10:26:54Z</time>
      </trkpt>
      <trkpt lat="45.6306" lon="6.03836">
        <ele>1766</ele>
        <time>2012-12-09T10:26:56Z</time>
      </trkpt>
      <trkpt lat="45.6306" lon="6.03834">
        <ele>1766</ele>
        <time>2012-12-09T10:26:58Z</time>
      </trkpt>
      <trkpt lat="45.6306" lon="6.03831">
        <ele>1766</ele>
        <time>2012-12-09T10:27:00Z</time>
      </trkpt>
      <trkpt lat="45.63059" lon="6.03828">
        <ele>1766</ele>
        <time>2012-12-09T10:27:02Z</time>
      </trkpt>
      <trkpt lat="45.63058" lon="6.03824">
        <ele>1766</ele>
        <time>2012-12-09T10:27:04Z</time>
      </trkpt>
      <trkpt lat="45.63057" lon="6.03821">
        <ele>1766</ele>
        <time>2012-12-09T10:27:06Z</time>
      </trkpt>
      <trkpt lat="45.63056" lon="6.03817">
        <ele>1766</ele>
        <time>2012-12-09T10:27:08Z</time>
      </trkpt>
      <trkpt lat="45.63056" lon="6.03814">
        <ele>1766</ele>
        <time>2012-12-09T10:27:10Z</time>
      </trkpt>
      <trkpt lat="45.63055" lon="6.03813">
        <ele>1766</ele>
        <time>2012-12-09T10:27:12Z</time>
      </trkpt>
      <trkpt lat="45.63055" lon="6.03811">
        <ele>1766</ele>
        <time>2012-12-09T10:27:14Z</time>
      </trkpt>
      <trkpt lat="45.63054" lon="6.03809">
        <ele>1767</ele>
        <time>2012-12-09T10:27:16Z</time>
      </trkpt>
      <trkpt lat="45.63053" lon="6.03806">
        <ele>1767</ele>
        <time>2012-12-09T10:27:19Z</time>
      </trkpt>
      <trkpt lat="45.63052" lon="6.03805">
        <ele>1767</ele>
        <time>2012-12-09T10:27:21Z</time>
      </trkpt>
      <trkpt lat="45.63051" lon="6.03803">
        <ele>1767</ele>
        <time>2012-12-09T10:27:23Z</time>
      </trkpt>
      <trkpt lat="45.63049" lon="6.03801">
        <ele>1768</ele>
        <time>2012-12-09T10:27:25Z</time>
      </trkpt>
      <trkpt lat="45.63048" lon="6.038">
        <ele>1768</ele>
        <time>2012-12-09T10:27:27Z</time>
      </trkpt>
      <trkpt lat="45.63047" lon="6.03798">
        <ele>1768</ele>
        <time>2012-12-09T10:27:29Z</time>
      </trkpt>
      <trkpt lat="45.63046" lon="6.03796">
        <ele>1769</ele>
        <time>2012-12-09T10:27:32Z</time>
      </trkpt>
      <trkpt lat="45.63044" lon="6.03794">
        <ele>1769</ele>
        <time>2012-12-09T10:27:35Z</time>
      </trkpt>
      <trkpt lat="45.63043" lon="6.03793">
        <ele>1769</ele>
        <time>2012-12-09T10:27:37Z</time>
      </trkpt>
      <trkpt lat="45.63042" lon="6.03791">
        <ele>1770</ele>
        <time>2012-12-09T10:27:40Z</time>
      </trkpt>
      <trkpt lat="45.63041" lon="6.0379">
        <ele>1770</ele>
        <time>2012-12-09T10:27:42Z</time>
      </trkpt>
      <trkpt lat="45.6304" lon="6.03788">
        <ele>1770</ele>
        <time>2012-12-09T10:27:44Z</time>
      </trkpt>
      <trkpt lat="45.63039" lon="6.03787">
        <ele>1770</ele>
        <time>2012-12-09T10:27:46Z</time>
      </trkpt>
      <trkpt lat="45.63038" lon="6.03785">
        <ele>1771</ele>
        <time>2012-12-09T10:27:48Z</time>
      </trkpt>
      <trkpt lat="45.63037" lon="6.03784">
        <ele>1771</ele>
        <time>2012-12-09T10:27:50Z</time>
      </trkpt>
      <trkpt lat="45.63036" lon="6.03782">
        <ele>1771</ele>
        <time>2012-12-09T10:27:52Z</time>
      </trkpt>
      <trkpt lat="45.63035" lon="6.0378">
        <ele>1771</ele>
        <time>2012-12-09T10:27:54Z</time>
      </trkpt>
      <trkpt lat="45.63033" lon="6.03776">
        <ele>1772</ele>
        <time>2012-12-09T10:27:58Z</time>
      </trkpt>
      <trkpt lat="45.63033" lon="6.03774">
        <ele>1772</ele>
        <time>2012-12-09T10:28:00Z</time>
      </trkpt>
      <trkpt lat="45.63032" lon="6.03772">
        <ele>1773</ele>
        <time>2012-12-09T10:28:02Z</time>
      </trkpt>
      <trkpt lat="45.63031" lon="6.0377">
        <ele>1773</ele>
        <time>2012-12-09T10:28:04Z</time>
      </trkpt>
      <trkpt lat="45.63031" lon="6.03768">
        <ele>1773</ele>
        <time>2012-12-09T10:28:06Z</time>
      </trkpt>
      <trkpt lat="45.6303" lon="6.03766">
        <ele>1773</ele>
        <time>2012-12-09T10:28:08Z</time>
      </trkpt>
      <trkpt lat="45.63029" lon="6.03764">
        <ele>1773</ele>
        <time>2012-12-09T10:28:10Z</time>
      </trkpt>
      <trkpt lat="45.63029" lon="6.03762">
        <ele>1773</ele>
        <time>2012-12-09T10:28:12Z</time>
      </trkpt>
      <trkpt lat="45.63028" lon="6.0376">
        <ele>1773</ele>
        <time>2012-12-09T10:28:14Z</time>
      </trkpt>
      <trkpt lat="45.63027" lon="6.03758">
        <ele>1773</ele>
        <time>2012-12-09T10:28:16Z</time>
      </trkpt>
      <trkpt lat="45.63026" lon="6.03757">
        <ele>1774</ele>
        <time>2012-12-09T10:28:18Z</time>
      </trkpt>
      <trkpt lat="45.63025" lon="6.03753">
        <ele>1774</ele>
        <time>2012-12-09T10:28:22Z</time>
      </trkpt>
      <trkpt lat="45.63023" lon="6.03752">
        <ele>1774</ele>
        <time>2012-12-09T10:28:24Z</time>
      </trkpt>
      <trkpt lat="45.63021" lon="6.03748">
        <ele>1775</ele>
        <time>2012-12-09T10:28:28Z</time>
      </trkpt>
      <trkpt lat="45.6302" lon="6.03747">
        <ele>1775</ele>
        <time>2012-12-09T10:28:30Z</time>
      </trkpt>
      <trkpt lat="45.63018" lon="6.03745">
        <ele>1775</ele>
        <time>2012-12-09T10:28:32Z</time>
      </trkpt>
      <trkpt lat="45.63017" lon="6.03744">
        <ele>1775</ele>
        <time>2012-12-09T10:28:34Z</time>
      </trkpt>
      <trkpt lat="45.63016" lon="6.03742">
        <ele>1776</ele>
        <time>2012-12-09T10:28:36Z</time>
      </trkpt>
      <trkpt lat="45.63015" lon="6.0374">
        <ele>1776</ele>
        <time>2012-12-09T10:28:38Z</time>
      </trkpt>
      <trkpt lat="45.63013" lon="6.03738">
        <ele>1776</ele>
        <time>2012-12-09T10:28:40Z</time>
      </trkpt>
      <trkpt lat="45.63013" lon="6.03736">
        <ele>1776</ele>
        <time>2012-12-09T10:28:42Z</time>
      </trkpt>
      <trkpt lat="45.63012" lon="6.03734">
        <ele>1777</ele>
        <time>2012-12-09T10:28:44Z</time>
      </trkpt>
      <trkpt lat="45.63011" lon="6.03733">
        <ele>1777</ele>
        <time>2012-12-09T10:28:46Z</time>
      </trkpt>
      <trkpt lat="45.6301" lon="6.03731">
        <ele>1777</ele>
        <time>2012-12-09T10:28:48Z</time>
      </trkpt>
      <trkpt lat="45.63009" lon="6.03729">
        <ele>1777</ele>
        <time>2012-12-09T10:28:50Z</time>
      </trkpt>
      <trkpt lat="45.63008" lon="6.03727">
        <ele>1777</ele>
        <time>2012-12-09T10:28:52Z</time>
      </trkpt>
      <trkpt lat="45.63007" lon="6.03725">
        <ele>1778</ele>
        <time>2012-12-09T10:28:54Z</time>
      </trkpt>
      <trkpt lat="45.63006" lon="6.03723">
        <ele>1778</ele>
        <time>2012-12-09T10:28:57Z</time>
      </trkpt>
      <trkpt lat="45.63005" lon="6.03721">
        <ele>1778</ele>
        <time>2012-12-09T10:28:59Z</time>
      </trkpt>
      <trkpt lat="45.63004" lon="6.03719">
        <ele>1778</ele>
        <time>2012-12-09T10:29:02Z</time>
      </trkpt>
      <trkpt lat="45.63004" lon="6.03717">
        <ele>1779</ele>
        <time>2012-12-09T10:29:04Z</time>
      </trkpt>
      <trkpt lat="45.63003" lon="6.03715">
        <ele>1779</ele>
        <time>2012-12-09T10:29:06Z</time>
      </trkpt>
      <trkpt lat="45.63002" lon="6.03713">
        <ele>1780</ele>
        <time>2012-12-09T10:29:08Z</time>
      </trkpt>
      <trkpt lat="45.63002" lon="6.03712">
        <ele>1780</ele>
        <time>2012-12-09T10:29:10Z</time>
      </trkpt>
      <trkpt lat="45.63002" lon="6.0371">
        <ele>1780</ele>
        <time>2012-12-09T10:29:12Z</time>
      </trkpt>
      <trkpt lat="45.63001" lon="6.03708">
        <ele>1781</ele>
        <time>2012-12-09T10:29:14Z</time>
      </trkpt>
      <trkpt lat="45.63001" lon="6.03705">
        <ele>1781</ele>
        <time>2012-12-09T10:29:16Z</time>
      </trkpt>
      <trkpt lat="45.63001" lon="6.03703">
        <ele>1781</ele>
        <time>2012-12-09T10:29:18Z</time>
      </trkpt>
      <trkpt lat="45.63" lon="6.037">
        <ele>1781</ele>
        <time>2012-12-09T10:29:20Z</time>
      </trkpt>
      <trkpt lat="45.63" lon="6.03698">
        <ele>1781</ele>
        <time>2012-12-09T10:29:22Z</time>
      </trkpt>
      <trkpt lat="45.63" lon="6.03693">
        <ele>1781</ele>
        <time>2012-12-09T10:29:26Z</time>
      </trkpt>
      <trkpt lat="45.63" lon="6.03691">
        <ele>1781</ele>
        <time>2012-12-09T10:29:28Z</time>
      </trkpt>
      <trkpt lat="45.63" lon="6.03689">
        <ele>1782</ele>
        <time>2012-12-09T10:29:30Z</time>
      </trkpt>
      <trkpt lat="45.63" lon="6.03687">
        <ele>1782</ele>
        <time>2012-12-09T10:29:32Z</time>
      </trkpt>
      <trkpt lat="45.63" lon="6.03685">
        <ele>1782</ele>
        <time>2012-12-09T10:29:34Z</time>
      </trkpt>
      <trkpt lat="45.63" lon="6.03683">
        <ele>1782</ele>
        <time>2012-12-09T10:29:36Z</time>
      </trkpt>
      <trkpt lat="45.63" lon="6.0368">
        <ele>1782</ele>
        <time>2012-12-09T10:29:38Z</time>
      </trkpt>
      <trkpt lat="45.63001" lon="6.03678">
        <ele>1783</ele>
        <time>2012-12-09T10:29:40Z</time>
      </trkpt>
      <trkpt lat="45.63001" lon="6.03676">
        <ele>1783</ele>
        <time>2012-12-09T10:29:42Z</time>
      </trkpt>
      <trkpt lat="45.63001" lon="6.03674">
        <ele>1783</ele>
        <time>2012-12-09T10:29:44Z</time>
      </trkpt>
      <trkpt lat="45.63001" lon="6.03672">
        <ele>1783</ele>
        <time>2012-12-09T10:29:46Z</time>
      </trkpt>
      <trkpt lat="45.63002" lon="6.03669">
        <ele>1783</ele>
        <time>2012-12-09T10:29:48Z</time>
      </trkpt>
      <trkpt lat="45.63002" lon="6.03667">
        <ele>1783</ele>
        <time>2012-12-09T10:29:50Z</time>
      </trkpt>
      <trkpt lat="45.63002" lon="6.03664">
        <ele>1783</ele>
        <time>2012-12-09T10:29:52Z</time>
      </trkpt>
      <trkpt lat="45.63003" lon="6.03662">
        <ele>1783</ele>
        <time>2012-12-09T10:29:54Z</time>
      </trkpt>
      <trkpt lat="45.63003" lon="6.0366">
        <ele>1783</ele>
        <time>2012-12-09T10:29:56Z</time>
      </trkpt>
      <trkpt lat="45.63003" lon="6.03657">
        <ele>1783</ele>
        <time>2012-12-09T10:29:58Z</time>
      </trkpt>
      <trkpt lat="45.63004" lon="6.03655">
        <ele>1783</ele>
        <time>2012-12-09T10:30:00Z</time>
      </trkpt>
      <trkpt lat="45.63004" lon="6.03653">
        <ele>1783</ele>
        <time>2012-12-09T10:30:02Z</time>
      </trkpt>
      <trkpt lat="45.63004" lon="6.03651">
        <ele>1783</ele>
        <time>2012-12-09T10:30:04Z</time>
      </trkpt>
      <trkpt lat="45.63004" lon="6.03649">
        <ele>1783</ele>
        <time>2012-12-09T10:30:06Z</time>
      </trkpt>
      <trkpt lat="45.63004" lon="6.03647">
        <ele>1783</ele>
        <time>2012-12-09T10:30:08Z</time>
      </trkpt>
      <trkpt lat="45.63004" lon="6.03644">
        <ele>1783</ele>
        <time>2012-12-09T10:30:10Z</time>
      </trkpt>
      <trkpt lat="45.63004" lon="6.03642">
        <ele>1783</ele>
        <time>2012-12-09T10:30:12Z</time>
      </trkpt>
      <trkpt lat="45.63005" lon="6.0364">
        <ele>1783</ele>
        <time>2012-12-09T10:30:14Z</time>
      </trkpt>
      <trkpt lat="45.63005" lon="6.03638">
        <ele>1783</ele>
        <time>2012-12-09T10:30:16Z</time>
      </trkpt>
      <trkpt lat="45.63005" lon="6.03635">
        <ele>1783</ele>
        <time>2012-12-09T10:30:18Z</time>
      </trkpt>
      <trkpt lat="45.63005" lon="6.03633">
        <ele>1783</ele>
        <time>2012-12-09T10:30:20Z</time>
      </trkpt>
      <trkpt lat="45.63005" lon="6.03631">
        <ele>1783</ele>
        <time>2012-12-09T10:30:22Z</time>
      </trkpt>
      <trkpt lat="45.63006" lon="6.03628">
        <ele>1783</ele>
        <time>2012-12-09T10:30:24Z</time>
      </trkpt>
      <trkpt lat="45.63006" lon="6.03626">
        <ele>1783</ele>
        <time>2012-12-09T10:30:26Z</time>
      </trkpt>
      <trkpt lat="45.63006" lon="6.03624">
        <ele>1784</ele>
        <time>2012-12-09T10:30:28Z</time>
      </trkpt>
      <trkpt lat="45.63007" lon="6.03622">
        <ele>1784</ele>
        <time>2012-12-09T10:30:30Z</time>
      </trkpt>
      <trkpt lat="45.63007" lon="6.03619">
        <ele>1784</ele>
        <time>2012-12-09T10:30:32Z</time>
      </trkpt>
      <trkpt lat="45.63007" lon="6.03617">
        <ele>1784</ele>
        <time>2012-12-09T10:30:34Z</time>
      </trkpt>
      <trkpt lat="45.63007" lon="6.03615">
        <ele>1784</ele>
        <time>2012-12-09T10:30:36Z</time>
      </trkpt>
      <trkpt lat="45.63008" lon="6.03612">
        <ele>1784</ele>
        <time>2012-12-09T10:30:38Z</time>
      </trkpt>
      <trkpt lat="45.63008" lon="6.03609">
        <ele>1784</ele>
        <time>2012-12-09T10:30:40Z</time>
      </trkpt>
      <trkpt lat="45.63009" lon="6.03607">
        <ele>1784</ele>
        <time>2012-12-09T10:30:42Z</time>
      </trkpt>
      <trkpt lat="45.63009" lon="6.03604">
        <ele>1784</ele>
        <time>2012-12-09T10:30:44Z</time>
      </trkpt>
      <trkpt lat="45.6301" lon="6.03601">
        <ele>1784</ele>
        <time>2012-12-09T10:30:46Z</time>
      </trkpt>
      <trkpt lat="45.6301" lon="6.03597">
        <ele>1784</ele>
        <time>2012-12-09T10:30:49Z</time>
      </trkpt>
      <trkpt lat="45.6301" lon="6.03593">
        <ele>1784</ele>
        <time>2012-12-09T10:30:52Z</time>
      </trkpt>
      <trkpt lat="45.63011" lon="6.03588">
        <ele>1785</ele>
        <time>2012-12-09T10:30:55Z</time>
      </trkpt>
      <trkpt lat="45.63011" lon="6.03586">
        <ele>1785</ele>
        <time>2012-12-09T10:30:57Z</time>
      </trkpt>
      <trkpt lat="45.63012" lon="6.03583">
        <ele>1785</ele>
        <time>2012-12-09T10:30:59Z</time>
      </trkpt>
      <trkpt lat="45.63012" lon="6.03581">
        <ele>1785</ele>
        <time>2012-12-09T10:31:01Z</time>
      </trkpt>
      <trkpt lat="45.63012" lon="6.03578">
        <ele>1785</ele>
        <time>2012-12-09T10:31:03Z</time>
      </trkpt>
      <trkpt lat="45.63012" lon="6.03576">
        <ele>1785</ele>
        <time>2012-12-09T10:31:05Z</time>
      </trkpt>
      <trkpt lat="45.63013" lon="6.03574">
        <ele>1785</ele>
        <time>2012-12-09T10:31:07Z</time>
      </trkpt>
      <trkpt lat="45.63013" lon="6.03572">
        <ele>1785</ele>
        <time>2012-12-09T10:31:09Z</time>
      </trkpt>
      <trkpt lat="45.63013" lon="6.03569">
        <ele>1785</ele>
        <time>2012-12-09T10:31:11Z</time>
      </trkpt>
      <trkpt lat="45.63014" lon="6.03567">
        <ele>1785</ele>
        <time>2012-12-09T10:31:13Z</time>
      </trkpt>
      <trkpt lat="45.63014" lon="6.03564">
        <ele>1785</ele>
        <time>2012-12-09T10:31:15Z</time>
      </trkpt>
      <trkpt lat="45.63015" lon="6.03562">
        <ele>1785</ele>
        <time>2012-12-09T10:31:17Z</time>
      </trkpt>
      <trkpt lat="45.63015" lon="6.03559">
        <ele>1785</ele>
        <time>2012-12-09T10:31:19Z</time>
      </trkpt>
      <trkpt lat="45.63015" lon="6.03557">
        <ele>1785</ele>
        <time>2012-12-09T10:31:21Z</time>
      </trkpt>
      <trkpt lat="45.63015" lon="6.03555">
        <ele>1785</ele>
        <time>2012-12-09T10:31:23Z</time>
      </trkpt>
      <trkpt lat="45.63016" lon="6.03552">
        <ele>1785</ele>
        <time>2012-12-09T10:31:25Z</time>
      </trkpt>
      <trkpt lat="45.63016" lon="6.0355">
        <ele>1785</ele>
        <time>2012-12-09T10:31:27Z</time>
      </trkpt>
      <trkpt lat="45.63016" lon="6.03547">
        <ele>1786</ele>
        <time>2012-12-09T10:31:29Z</time>
      </trkpt>
      <trkpt lat="45.63016" lon="6.03543">
        <ele>1786</ele>
        <time>2012-12-09T10:31:32Z</time>
      </trkpt>
      <trkpt lat="45.63016" lon="6.03539">
        <ele>1786</ele>
        <time>2012-12-09T10:31:35Z</time>
      </trkpt>
      <trkpt lat="45.63016" lon="6.03535">
        <ele>1786</ele>
        <time>2012-12-09T10:31:38Z</time>
      </trkpt>
      <trkpt lat="45.63016" lon="6.03531">
        <ele>1786</ele>
        <time>2012-12-09T10:31:41Z</time>
      </trkpt>
      <trkpt lat="45.63016" lon="6.03528">
        <ele>1786</ele>
        <time>2012-12-09T10:31:43Z</time>
      </trkpt>
      <trkpt lat="45.63016" lon="6.03525">
        <ele>1786</ele>
        <time>2012-12-09T10:31:45Z</time>
      </trkpt>
      <trkpt lat="45.63017" lon="6.03523">
        <ele>1786</ele>
        <time>2012-12-09T10:31:47Z</time>
      </trkpt>
      <trkpt lat="45.63017" lon="6.03519">
        <ele>1786</ele>
        <time>2012-12-09T10:31:50Z</time>
      </trkpt>
      <trkpt lat="45.63017" lon="6.03517">
        <ele>1787</ele>
        <time>2012-12-09T10:31:52Z</time>
      </trkpt>
      <trkpt lat="45.63017" lon="6.03515">
        <ele>1787</ele>
        <time>2012-12-09T10:31:54Z</time>
      </trkpt>
      <trkpt lat="45.63016" lon="6.03512">
        <ele>1787</ele>
        <time>2012-12-09T10:31:56Z</time>
      </trkpt>
      <trkpt lat="45.63016" lon="6.0351">
        <ele>1787</ele>
        <time>2012-12-09T10:31:58Z</time>
      </trkpt>
      <trkpt lat="45.63015" lon="6.03508">
        <ele>1788</ele>
        <time>2012-12-09T10:32:00Z</time>
      </trkpt>
      <trkpt lat="45.63013" lon="6.03506">
        <ele>1788</ele>
        <time>2012-12-09T10:32:02Z</time>
      </trkpt>
      <trkpt lat="45.63012" lon="6.03504">
        <ele>1789</ele>
        <time>2012-12-09T10:32:04Z</time>
      </trkpt>
      <trkpt lat="45.63011" lon="6.03502">
        <ele>1789</ele>
        <time>2012-12-09T10:32:06Z</time>
      </trkpt>
      <trkpt lat="45.6301" lon="6.035">
        <ele>1790</ele>
        <time>2012-12-09T10:32:09Z</time>
      </trkpt>
      <trkpt lat="45.63005" lon="6.03492">
        <ele>1793</ele>
        <time>2012-12-09T10:32:13Z</time>
      </trkpt>
      <trkpt lat="45.63005" lon="6.0349">
        <ele>1793</ele>
        <time>2012-12-09T10:32:15Z</time>
      </trkpt>
      <trkpt lat="45.63004" lon="6.03489">
        <ele>1793</ele>
        <time>2012-12-09T10:32:17Z</time>
      </trkpt>
      <trkpt lat="45.63003" lon="6.03487">
        <ele>1793</ele>
        <time>2012-12-09T10:32:19Z</time>
      </trkpt>
      <trkpt lat="45.63003" lon="6.03485">
        <ele>1794</ele>
        <time>2012-12-09T10:32:21Z</time>
      </trkpt>
      <trkpt lat="45.63002" lon="6.03483">
        <ele>1794</ele>
        <time>2012-12-09T10:32:23Z</time>
      </trkpt>
      <trkpt lat="45.63002" lon="6.03481">
        <ele>1795</ele>
        <time>2012-12-09T10:32:25Z</time>
      </trkpt>
      <trkpt lat="45.63" lon="6.03479">
        <ele>1796</ele>
        <time>2012-12-09T10:32:28Z</time>
      </trkpt>
      <trkpt lat="45.63" lon="6.03477">
        <ele>1796</ele>
        <time>2012-12-09T10:32:30Z</time>
      </trkpt>
      <trkpt lat="45.62999" lon="6.03476">
        <ele>1797</ele>
        <time>2012-12-09T10:32:33Z</time>
      </trkpt>
      <trkpt lat="45.62998" lon="6.03474">
        <ele>1798</ele>
        <time>2012-12-09T10:32:36Z</time>
      </trkpt>
      <trkpt lat="45.62997" lon="6.03472">
        <ele>1799</ele>
        <time>2012-12-09T10:32:38Z</time>
      </trkpt>
      <trkpt lat="45.62997" lon="6.0347">
        <ele>1800</ele>
        <time>2012-12-09T10:32:40Z</time>
      </trkpt>
      <trkpt lat="45.62996" lon="6.03468">
        <ele>1800</ele>
        <time>2012-12-09T10:32:42Z</time>
      </trkpt>
      <trkpt lat="45.62996" lon="6.03466">
        <ele>1800</ele>
        <time>2012-12-09T10:32:44Z</time>
      </trkpt>
      <trkpt lat="45.62996" lon="6.03464">
        <ele>1800</ele>
        <time>2012-12-09T10:32:46Z</time>
      </trkpt>
      <trkpt lat="45.62996" lon="6.03462">
        <ele>1800</ele>
        <time>2012-12-09T10:32:48Z</time>
      </trkpt>
      <trkpt lat="45.62995" lon="6.0346">
        <ele>1801</ele>
        <time>2012-12-09T10:32:50Z</time>
      </trkpt>
      <trkpt lat="45.62995" lon="6.03458">
        <ele>1801</ele>
        <time>2012-12-09T10:32:52Z</time>
      </trkpt>
      <trkpt lat="45.62995" lon="6.03457">
        <ele>1801</ele>
        <time>2012-12-09T10:32:54Z</time>
      </trkpt>
      <trkpt lat="45.62997" lon="6.03455">
        <ele>1802</ele>
        <time>2012-12-09T10:32:59Z</time>
      </trkpt>
      <trkpt lat="45.62998" lon="6.03454">
        <ele>1802</ele>
        <time>2012-12-09T10:33:01Z</time>
      </trkpt>
      <trkpt lat="45.62999" lon="6.03453">
        <ele>1802</ele>
        <time>2012-12-09T10:33:03Z</time>
      </trkpt>
      <trkpt lat="45.63" lon="6.03452">
        <ele>1803</ele>
        <time>2012-12-09T10:33:05Z</time>
      </trkpt>
      <trkpt lat="45.63002" lon="6.03452">
        <ele>1803</ele>
        <time>2012-12-09T10:33:07Z</time>
      </trkpt>
      <trkpt lat="45.63003" lon="6.03451">
        <ele>1803</ele>
        <time>2012-12-09T10:33:09Z</time>
      </trkpt>
      <trkpt lat="45.63005" lon="6.0345">
        <ele>1803</ele>
        <time>2012-12-09T10:33:12Z</time>
      </trkpt>
      <trkpt lat="45.63006" lon="6.03449">
        <ele>1803</ele>
        <time>2012-12-09T10:33:15Z</time>
      </trkpt>
      <trkpt lat="45.63007" lon="6.03447">
        <ele>1803</ele>
        <time>2012-12-09T10:33:18Z</time>
      </trkpt>
      <trkpt lat="45.63009" lon="6.03445">
        <ele>1803</ele>
        <time>2012-12-09T10:33:21Z</time>
      </trkpt>
      <trkpt lat="45.6301" lon="6.03444">
        <ele>1803</ele>
        <time>2012-12-09T10:33:23Z</time>
      </trkpt>
      <trkpt lat="45.63011" lon="6.03443">
        <ele>1803</ele>
        <time>2012-12-09T10:33:25Z</time>
      </trkpt>
      <trkpt lat="45.63012" lon="6.03441">
        <ele>1803</ele>
        <time>2012-12-09T10:33:27Z</time>
      </trkpt>
      <trkpt lat="45.63013" lon="6.0344">
        <ele>1803</ele>
        <time>2012-12-09T10:33:29Z</time>
      </trkpt>
      <trkpt lat="45.63014" lon="6.03438">
        <ele>1804</ele>
        <time>2012-12-09T10:33:31Z</time>
      </trkpt>
      <trkpt lat="45.63015" lon="6.03436">
        <ele>1804</ele>
        <time>2012-12-09T10:33:33Z</time>
      </trkpt>
      <trkpt lat="45.63017" lon="6.03434">
        <ele>1804</ele>
        <time>2012-12-09T10:33:36Z</time>
      </trkpt>
      <trkpt lat="45.63018" lon="6.03432">
        <ele>1804</ele>
        <time>2012-12-09T10:33:39Z</time>
      </trkpt>
      <trkpt lat="45.6302" lon="6.0343">
        <ele>1804</ele>
        <time>2012-12-09T10:33:41Z</time>
      </trkpt>
      <trkpt lat="45.6302" lon="6.03429">
        <ele>1804</ele>
        <time>2012-12-09T10:33:43Z</time>
      </trkpt>
      <trkpt lat="45.63022" lon="6.03427">
        <ele>1804</ele>
        <time>2012-12-09T10:33:45Z</time>
      </trkpt>
      <trkpt lat="45.63023" lon="6.03426">
        <ele>1804</ele>
        <time>2012-12-09T10:33:47Z</time>
      </trkpt>
      <trkpt lat="45.63024" lon="6.03424">
        <ele>1804</ele>
        <time>2012-12-09T10:33:49Z</time>
      </trkpt>
      <trkpt lat="45.63025" lon="6.03423">
        <ele>1804</ele>
        <time>2012-12-09T10:33:51Z</time>
      </trkpt>
      <trkpt lat="45.63026" lon="6.03422">
        <ele>1804</ele>
        <time>2012-12-09T10:33:53Z</time>
      </trkpt>
      <trkpt lat="45.63028" lon="6.0342">
        <ele>1804</ele>
        <time>2012-12-09T10:33:55Z</time>
      </trkpt>
      <trkpt lat="45.63029" lon="6.03419">
        <ele>1804</ele>
        <time>2012-12-09T10:33:57Z</time>
      </trkpt>
      <trkpt lat="45.6303" lon="6.03418">
        <ele>1804</ele>
        <time>2012-12-09T10:33:59Z</time>
      </trkpt>
      <trkpt lat="45.63032" lon="6.03417">
        <ele>1804</ele>
        <time>2012-12-09T10:34:01Z</time>
      </trkpt>
      <trkpt lat="45.63033" lon="6.03416">
        <ele>1804</ele>
        <time>2012-12-09T10:34:03Z</time>
      </trkpt>
      <trkpt lat="45.63035" lon="6.03415">
        <ele>1804</ele>
        <time>2012-12-09T10:34:05Z</time>
      </trkpt>
      <trkpt lat="45.63036" lon="6.03413">
        <ele>1804</ele>
        <time>2012-12-09T10:34:07Z</time>
      </trkpt>
      <trkpt lat="45.63037" lon="6.03412">
        <ele>1804</ele>
        <time>2012-12-09T10:34:09Z</time>
      </trkpt>
      <trkpt lat="45.63047" lon="6.03407">
        <ele>1807</ele>
        <time>2012-12-09T10:34:14Z</time>
      </trkpt>
      <trkpt lat="45.6305" lon="6.03405">
        <ele>1807</ele>
        <time>2012-12-09T10:34:16Z</time>
      </trkpt>
      <trkpt lat="45.63053" lon="6.03404">
        <ele>1807</ele>
        <time>2012-12-09T10:34:18Z</time>
      </trkpt>
      <trkpt lat="45.63056" lon="6.03403">
        <ele>1807</ele>
        <time>2012-12-09T10:34:20Z</time>
      </trkpt>
      <trkpt lat="45.63058" lon="6.03402">
        <ele>1807</ele>
        <time>2012-12-09T10:34:22Z</time>
      </trkpt>
      <trkpt lat="45.63062" lon="6.03402">
        <ele>1807</ele>
        <time>2012-12-09T10:34:24Z</time>
      </trkpt>
      <trkpt lat="45.63065" lon="6.03401">
        <ele>1807</ele>
        <time>2012-12-09T10:34:26Z</time>
      </trkpt>
      <trkpt lat="45.63068" lon="6.034">
        <ele>1807</ele>
        <time>2012-12-09T10:34:28Z</time>
      </trkpt>
      <trkpt lat="45.63071" lon="6.03399">
        <ele>1807</ele>
        <time>2012-12-09T10:34:30Z</time>
      </trkpt>
      <trkpt lat="45.63074" lon="6.03398">
        <ele>1807</ele>
        <time>2012-12-09T10:34:32Z</time>
      </trkpt>
      <trkpt lat="45.63078" lon="6.03396">
        <ele>1806</ele>
        <time>2012-12-09T10:34:34Z</time>
      </trkpt>
      <trkpt lat="45.63081" lon="6.03394">
        <ele>1805</ele>
        <time>2012-12-09T10:34:36Z</time>
      </trkpt>
      <trkpt lat="45.63085" lon="6.03393">
        <ele>1804</ele>
        <time>2012-12-09T10:34:38Z</time>
      </trkpt>
      <trkpt lat="45.63088" lon="6.03391">
        <ele>1804</ele>
        <time>2012-12-09T10:34:40Z</time>
      </trkpt>
      <trkpt lat="45.6309" lon="6.03389">
        <ele>1804</ele>
        <time>2012-12-09T10:34:42Z</time>
      </trkpt>
      <trkpt lat="45.63093" lon="6.03388">
        <ele>1803</ele>
        <time>2012-12-09T10:34:44Z</time>
      </trkpt>
      <trkpt lat="45.63096" lon="6.03385">
        <ele>1803</ele>
        <time>2012-12-09T10:34:46Z</time>
      </trkpt>
      <trkpt lat="45.63099" lon="6.03383">
        <ele>1803</ele>
        <time>2012-12-09T10:34:48Z</time>
      </trkpt>
      <trkpt lat="45.63102" lon="6.03381">
        <ele>1803</ele>
        <time>2012-12-09T10:34:51Z</time>
      </trkpt>
      <trkpt lat="45.63105" lon="6.0338">
        <ele>1803</ele>
        <time>2012-12-09T10:34:53Z</time>
      </trkpt>
      <trkpt lat="45.63106" lon="6.03379">
        <ele>1803</ele>
        <time>2012-12-09T10:34:55Z</time>
      </trkpt>
      <trkpt lat="45.63109" lon="6.03377">
        <ele>1803</ele>
        <time>2012-12-09T10:34:58Z</time>
      </trkpt>
      <trkpt lat="45.63111" lon="6.03376">
        <ele>1803</ele>
        <time>2012-12-09T10:35:00Z</time>
      </trkpt>
      <trkpt lat="45.63113" lon="6.03375">
        <ele>1803</ele>
        <time>2012-12-09T10:35:02Z</time>
      </trkpt>
      <trkpt lat="45.63115" lon="6.03374">
        <ele>1803</ele>
        <time>2012-12-09T10:35:04Z</time>
      </trkpt>
      <trkpt lat="45.63117" lon="6.03372">
        <ele>1803</ele>
        <time>2012-12-09T10:35:06Z</time>
      </trkpt>
      <trkpt lat="45.6312" lon="6.03371">
        <ele>1803</ele>
        <time>2012-12-09T10:35:09Z</time>
      </trkpt>
      <trkpt lat="45.63122" lon="6.0337">
        <ele>1803</ele>
        <time>2012-12-09T10:35:11Z</time>
      </trkpt>
      <trkpt lat="45.63124" lon="6.03369">
        <ele>1803</ele>
        <time>2012-12-09T10:35:13Z</time>
      </trkpt>
      <trkpt lat="45.63126" lon="6.03368">
        <ele>1803</ele>
        <time>2012-12-09T10:35:15Z</time>
      </trkpt>
      <trkpt lat="45.63128" lon="6.03367">
        <ele>1803</ele>
        <time>2012-12-09T10:35:17Z</time>
      </trkpt>
      <trkpt lat="45.6313" lon="6.03366">
        <ele>1803</ele>
        <time>2012-12-09T10:35:19Z</time>
      </trkpt>
      <trkpt lat="45.63132" lon="6.03366">
        <ele>1803</ele>
        <time>2012-12-09T10:35:21Z</time>
      </trkpt>
      <trkpt lat="45.63135" lon="6.03366">
        <ele>1803</ele>
        <time>2012-12-09T10:35:23Z</time>
      </trkpt>
      <trkpt lat="45.63137" lon="6.03365">
        <ele>1803</ele>
        <time>2012-12-09T10:35:25Z</time>
      </trkpt>
      <trkpt lat="45.6314" lon="6.03365">
        <ele>1803</ele>
        <time>2012-12-09T10:35:27Z</time>
      </trkpt>
      <trkpt lat="45.63143" lon="6.03364">
        <ele>1803</ele>
        <time>2012-12-09T10:35:30Z</time>
      </trkpt>
      <trkpt lat="45.63146" lon="6.03363">
        <ele>1803</ele>
        <time>2012-12-09T10:35:33Z</time>
      </trkpt>
      <trkpt lat="45.63148" lon="6.03362">
        <ele>1803</ele>
        <time>2012-12-09T10:35:35Z</time>
      </trkpt>
      <trkpt lat="45.6315" lon="6.03361">
        <ele>1803</ele>
        <time>2012-12-09T10:35:37Z</time>
      </trkpt>
      <trkpt lat="45.63151" lon="6.0336">
        <ele>1803</ele>
        <time>2012-12-09T10:35:39Z</time>
      </trkpt>
      <trkpt lat="45.63152" lon="6.03358">
        <ele>1803</ele>
        <time>2012-12-09T10:35:41Z</time>
      </trkpt>
      <trkpt lat="45.63154" lon="6.03357">
        <ele>1803</ele>
        <time>2012-12-09T10:35:43Z</time>
      </trkpt>
      <trkpt lat="45.63155" lon="6.03356">
        <ele>1803</ele>
        <time>2012-12-09T10:35:45Z</time>
      </trkpt>
      <trkpt lat="45.63154" lon="6.03355">
        <ele>1803</ele>
        <time>2012-12-09T10:35:50Z</time>
      </trkpt>
      <trkpt lat="45.63152" lon="6.03354">
        <ele>1803</ele>
        <time>2012-12-09T10:35:52Z</time>
      </trkpt>
      <trkpt lat="45.6315" lon="6.03354">
        <ele>1803</ele>
        <time>2012-12-09T10:35:54Z</time>
      </trkpt>
      <trkpt lat="45.63149" lon="6.03353">
        <ele>1804</ele>
        <time>2012-12-09T10:35:56Z</time>
      </trkpt>
      <trkpt lat="45.63147" lon="6.03352">
        <ele>1804</ele>
        <time>2012-12-09T10:35:58Z</time>
      </trkpt>
      <trkpt lat="45.63145" lon="6.03351">
        <ele>1804</ele>
        <time>2012-12-09T10:36:00Z</time>
      </trkpt>
      <trkpt lat="45.63145" lon="6.03348">
        <ele>1805</ele>
        <time>2012-12-09T10:36:02Z</time>
      </trkpt>
      <trkpt lat="45.63146" lon="6.03348">
        <ele>1805</ele>
        <time>2012-12-09T10:36:04Z</time>
      </trkpt>
      <trkpt lat="45.63147" lon="6.03346">
        <ele>1805</ele>
        <time>2012-12-09T10:36:06Z</time>
      </trkpt>
      <trkpt lat="45.63149" lon="6.03345">
        <ele>1805</ele>
        <time>2012-12-09T10:36:08Z</time>
      </trkpt>
      <trkpt lat="45.63151" lon="6.03344">
        <ele>1805</ele>
        <time>2012-12-09T10:36:10Z</time>
      </trkpt>
      <trkpt lat="45.63152" lon="6.03343">
        <ele>1806</ele>
        <time>2012-12-09T10:36:12Z</time>
      </trkpt>
      <trkpt lat="45.63154" lon="6.03342">
        <ele>1806</ele>
        <time>2012-12-09T10:36:14Z</time>
      </trkpt>
      <trkpt lat="45.63156" lon="6.03342">
        <ele>1806</ele>
        <time>2012-12-09T10:36:16Z</time>
      </trkpt>
      <trkpt lat="45.63158" lon="6.03341">
        <ele>1806</ele>
        <time>2012-12-09T10:36:18Z</time>
      </trkpt>
      <trkpt lat="45.6316" lon="6.03341">
        <ele>1806</ele>
        <time>2012-12-09T10:36:20Z</time>
      </trkpt>
      <trkpt lat="45.63161" lon="6.0334">
        <ele>1806</ele>
        <time>2012-12-09T10:36:22Z</time>
      </trkpt>
      <trkpt lat="45.63163" lon="6.0334">
        <ele>1806</ele>
        <time>2012-12-09T10:36:24Z</time>
      </trkpt>
      <trkpt lat="45.63165" lon="6.03339">
        <ele>1806</ele>
        <time>2012-12-09T10:36:26Z</time>
      </trkpt>
      <trkpt lat="45.63166" lon="6.03339">
        <ele>1807</ele>
        <time>2012-12-09T10:36:28Z</time>
      </trkpt>
      <trkpt lat="45.63168" lon="6.03339">
        <ele>1807</ele>
        <time>2012-12-09T10:36:30Z</time>
      </trkpt>
      <trkpt lat="45.6317" lon="6.03339">
        <ele>1807</ele>
        <time>2012-12-09T10:36:32Z</time>
      </trkpt>
      <trkpt lat="45.63172" lon="6.0334">
        <ele>1807</ele>
        <time>2012-12-09T10:36:34Z</time>
      </trkpt>
      <trkpt lat="45.63174" lon="6.0334">
        <ele>1808</ele>
        <time>2012-12-09T10:36:36Z</time>
      </trkpt>
      <trkpt lat="45.63176" lon="6.03341">
        <ele>1808</ele>
        <time>2012-12-09T10:36:38Z</time>
      </trkpt>
      <trkpt lat="45.63178" lon="6.03342">
        <ele>1808</ele>
        <time>2012-12-09T10:36:40Z</time>
      </trkpt>
      <trkpt lat="45.63179" lon="6.03342">
        <ele>1808</ele>
        <time>2012-12-09T10:36:42Z</time>
      </trkpt>
      <trkpt lat="45.63181" lon="6.03342">
        <ele>1808</ele>
        <time>2012-12-09T10:36:44Z</time>
      </trkpt>
      <trkpt lat="45.63183" lon="6.03343">
        <ele>1808</ele>
        <time>2012-12-09T10:36:46Z</time>
      </trkpt>
      <trkpt lat="45.63186" lon="6.03343">
        <ele>1809</ele>
        <time>2012-12-09T10:36:49Z</time>
      </trkpt>
      <trkpt lat="45.63188" lon="6.03344">
        <ele>1809</ele>
        <time>2012-12-09T10:36:51Z</time>
      </trkpt>
      <trkpt lat="45.6319" lon="6.03344">
        <ele>1809</ele>
        <time>2012-12-09T10:36:53Z</time>
      </trkpt>
      <trkpt lat="45.63192" lon="6.03345">
        <ele>1809</ele>
        <time>2012-12-09T10:36:55Z</time>
      </trkpt>
      <trkpt lat="45.63195" lon="6.03346">
        <ele>1809</ele>
        <time>2012-12-09T10:36:58Z</time>
      </trkpt>
      <trkpt lat="45.63197" lon="6.03347">
        <ele>1809</ele>
        <time>2012-12-09T10:37:00Z</time>
      </trkpt>
      <trkpt lat="45.63199" lon="6.03348">
        <ele>1810</ele>
        <time>2012-12-09T10:37:02Z</time>
      </trkpt>
      <trkpt lat="45.63201" lon="6.03349">
        <ele>1810</ele>
        <time>2012-12-09T10:37:04Z</time>
      </trkpt>
      <trkpt lat="45.63203" lon="6.03351">
        <ele>1810</ele>
        <time>2012-12-09T10:37:06Z</time>
      </trkpt>
      <trkpt lat="45.63206" lon="6.03352">
        <ele>1810</ele>
        <time>2012-12-09T10:37:08Z</time>
      </trkpt>
      <trkpt lat="45.63209" lon="6.03355">
        <ele>1810</ele>
        <time>2012-12-09T10:37:10Z</time>
      </trkpt>
      <trkpt lat="45.63214" lon="6.0336">
        <ele>1810</ele>
        <time>2012-12-09T10:37:12Z</time>
      </trkpt>
      <trkpt lat="45.63218" lon="6.03362">
        <ele>1810</ele>
        <time>2012-12-09T10:37:15Z</time>
      </trkpt>
      <trkpt lat="45.63219" lon="6.03363">
        <ele>1810</ele>
        <time>2012-12-09T10:37:17Z</time>
      </trkpt>
      <trkpt lat="45.6322" lon="6.03364">
        <ele>1810</ele>
        <time>2012-12-09T10:37:19Z</time>
      </trkpt>
      <trkpt lat="45.63222" lon="6.03365">
        <ele>1810</ele>
        <time>2012-12-09T10:37:21Z</time>
      </trkpt>
      <trkpt lat="45.63224" lon="6.03366">
        <ele>1810</ele>
        <time>2012-12-09T10:37:23Z</time>
      </trkpt>
      <trkpt lat="45.63225" lon="6.03366">
        <ele>1810</ele>
        <time>2012-12-09T10:37:25Z</time>
      </trkpt>
      <trkpt lat="45.63227" lon="6.03367">
        <ele>1810</ele>
        <time>2012-12-09T10:37:27Z</time>
      </trkpt>
      <trkpt lat="45.63229" lon="6.03367">
        <ele>1810</ele>
        <time>2012-12-09T10:37:29Z</time>
      </trkpt>
      <trkpt lat="45.63231" lon="6.03368">
        <ele>1810</ele>
        <time>2012-12-09T10:37:31Z</time>
      </trkpt>
      <trkpt lat="45.63232" lon="6.03368">
        <ele>1810</ele>
        <time>2012-12-09T10:37:33Z</time>
      </trkpt>
      <trkpt lat="45.63234" lon="6.03368">
        <ele>1810</ele>
        <time>2012-12-09T10:37:35Z</time>
      </trkpt>
      <trkpt lat="45.63235" lon="6.03368">
        <ele>1810</ele>
        <time>2012-12-09T10:37:37Z</time>
      </trkpt>
      <trkpt lat="45.63237" lon="6.03368">
        <ele>1810</ele>
        <time>2012-12-09T10:37:39Z</time>
      </trkpt>
      <trkpt lat="45.63239" lon="6.03368">
        <ele>1810</ele>
        <time>2012-12-09T10:37:41Z</time>
      </trkpt>
      <trkpt lat="45.63241" lon="6.03369">
        <ele>1810</ele>
        <time>2012-12-09T10:37:43Z</time>
      </trkpt>
      <trkpt lat="45.63242" lon="6.03369">
        <ele>1810</ele>
        <time>2012-12-09T10:37:45Z</time>
      </trkpt>
      <trkpt lat="45.63247" lon="6.03367">
        <ele>1810</ele>
        <time>2012-12-09T10:37:49Z</time>
      </trkpt>
      <trkpt lat="45.63248" lon="6.03366">
        <ele>1811</ele>
        <time>2012-12-09T10:37:52Z</time>
      </trkpt>
      <trkpt lat="45.6325" lon="6.03366">
        <ele>1812</ele>
        <time>2012-12-09T10:37:54Z</time>
      </trkpt>
      <trkpt lat="45.63251" lon="6.03365">
        <ele>1812</ele>
        <time>2012-12-09T10:37:56Z</time>
      </trkpt>
      <trkpt lat="45.63253" lon="6.03364">
        <ele>1812</ele>
        <time>2012-12-09T10:37:58Z</time>
      </trkpt>
      <trkpt lat="45.63256" lon="6.03364">
        <ele>1813</ele>
        <time>2012-12-09T10:38:01Z</time>
      </trkpt>
      <trkpt lat="45.63258" lon="6.03364">
        <ele>1813</ele>
        <time>2012-12-09T10:38:03Z</time>
      </trkpt>
      <trkpt lat="45.6326" lon="6.03365">
        <ele>1813</ele>
        <time>2012-12-09T10:38:05Z</time>
      </trkpt>
      <trkpt lat="45.63261" lon="6.03366">
        <ele>1813</ele>
        <time>2012-12-09T10:38:07Z</time>
      </trkpt>
      <trkpt lat="45.63263" lon="6.03367">
        <ele>1813</ele>
        <time>2012-12-09T10:38:10Z</time>
      </trkpt>
      <trkpt lat="45.63265" lon="6.03369">
        <ele>1813</ele>
        <time>2012-12-09T10:38:12Z</time>
      </trkpt>
      <trkpt lat="45.63269" lon="6.03372">
        <ele>1813</ele>
        <time>2012-12-09T10:38:14Z</time>
      </trkpt>
      <trkpt lat="45.63272" lon="6.03374">
        <ele>1813</ele>
        <time>2012-12-09T10:38:17Z</time>
      </trkpt>
      <trkpt lat="45.63274" lon="6.03375">
        <ele>1813</ele>
        <time>2012-12-09T10:38:19Z</time>
      </trkpt>
      <trkpt lat="45.63275" lon="6.03375">
        <ele>1813</ele>
        <time>2012-12-09T10:38:21Z</time>
      </trkpt>
      <trkpt lat="45.63276" lon="6.03375">
        <ele>1813</ele>
        <time>2012-12-09T10:38:23Z</time>
      </trkpt>
      <trkpt lat="45.63277" lon="6.03375">
        <ele>1813</ele>
        <time>2012-12-09T10:38:27Z</time>
      </trkpt>
      <trkpt lat="45.63279" lon="6.03376">
        <ele>1813</ele>
        <time>2012-12-09T10:38:30Z</time>
      </trkpt>
      <trkpt lat="45.6328" lon="6.03376">
        <ele>1813</ele>
        <time>2012-12-09T10:38:32Z</time>
      </trkpt>
      <trkpt lat="45.63282" lon="6.03375">
        <ele>1813</ele>
        <time>2012-12-09T10:38:35Z</time>
      </trkpt>
      <trkpt lat="45.63283" lon="6.03373">
        <ele>1813</ele>
        <time>2012-12-09T10:38:37Z</time>
      </trkpt>
      <trkpt lat="45.63286" lon="6.03369">
        <ele>1813</ele>
        <time>2012-12-09T10:38:39Z</time>
      </trkpt>
      <trkpt lat="45.63287" lon="6.03368">
        <ele>1813</ele>
        <time>2012-12-09T10:38:41Z</time>
      </trkpt>
      <trkpt lat="45.63287" lon="6.03366">
        <ele>1813</ele>
        <time>2012-12-09T10:38:43Z</time>
      </trkpt>
      <trkpt lat="45.63288" lon="6.03364">
        <ele>1813</ele>
        <time>2012-12-09T10:38:46Z</time>
      </trkpt>
      <trkpt lat="45.63289" lon="6.03363">
        <ele>1813</ele>
        <time>2012-12-09T10:38:48Z</time>
      </trkpt>
      <trkpt lat="45.6329" lon="6.03361">
        <ele>1813</ele>
        <time>2012-12-09T10:38:51Z</time>
      </trkpt>
      <trkpt lat="45.63291" lon="6.03359">
        <ele>1813</ele>
        <time>2012-12-09T10:38:53Z</time>
      </trkpt>
      <trkpt lat="45.63307" lon="6.03348">
        <ele>1813</ele>
        <time>2012-12-09T10:38:59Z</time>
      </trkpt>
      <trkpt lat="45.63308" lon="6.03349">
        <ele>1813</ele>
        <time>2012-12-09T10:39:01Z</time>
      </trkpt>
      <trkpt lat="45.6331" lon="6.03349">
        <ele>1813</ele>
        <time>2012-12-09T10:39:04Z</time>
      </trkpt>
      <trkpt lat="45.63311" lon="6.0335">
        <ele>1813</ele>
        <time>2012-12-09T10:39:06Z</time>
      </trkpt>
      <trkpt lat="45.63313" lon="6.0335">
        <ele>1813</ele>
        <time>2012-12-09T10:39:08Z</time>
      </trkpt>
      <trkpt lat="45.63314" lon="6.03351">
        <ele>1813</ele>
        <time>2012-12-09T10:39:11Z</time>
      </trkpt>
      <trkpt lat="45.63316" lon="6.03351">
        <ele>1813</ele>
        <time>2012-12-09T10:39:13Z</time>
      </trkpt>
      <trkpt lat="45.63317" lon="6.03352">
        <ele>1814</ele>
        <time>2012-12-09T10:39:15Z</time>
      </trkpt>
      <trkpt lat="45.63319" lon="6.03352">
        <ele>1814</ele>
        <time>2012-12-09T10:39:17Z</time>
      </trkpt>
      <trkpt lat="45.6332" lon="6.03352">
        <ele>1815</ele>
        <time>2012-12-09T10:39:19Z</time>
      </trkpt>
      <trkpt lat="45.63321" lon="6.03353">
        <ele>1815</ele>
        <time>2012-12-09T10:39:21Z</time>
      </trkpt>
      <trkpt lat="45.63323" lon="6.03354">
        <ele>1816</ele>
        <time>2012-12-09T10:39:23Z</time>
      </trkpt>
      <trkpt lat="45.63324" lon="6.03354">
        <ele>1816</ele>
        <time>2012-12-09T10:39:25Z</time>
      </trkpt>
      <trkpt lat="45.63325" lon="6.03355">
        <ele>1816</ele>
        <time>2012-12-09T10:39:27Z</time>
      </trkpt>
      <trkpt lat="45.63326" lon="6.03355">
        <ele>1817</ele>
        <time>2012-12-09T10:39:29Z</time>
      </trkpt>
      <trkpt lat="45.63327" lon="6.03356">
        <ele>1817</ele>
        <time>2012-12-09T10:39:31Z</time>
      </trkpt>
      <trkpt lat="45.63329" lon="6.03356">
        <ele>1817</ele>
        <time>2012-12-09T10:39:33Z</time>
      </trkpt>
      <trkpt lat="45.6333" lon="6.03357">
        <ele>1818</ele>
        <time>2012-12-09T10:39:35Z</time>
      </trkpt>
      <trkpt lat="45.63332" lon="6.03357">
        <ele>1818</ele>
        <time>2012-12-09T10:39:38Z</time>
      </trkpt>
      <trkpt lat="45.63333" lon="6.03358">
        <ele>1819</ele>
        <time>2012-12-09T10:39:40Z</time>
      </trkpt>
      <trkpt lat="45.63334" lon="6.03358">
        <ele>1819</ele>
        <time>2012-12-09T10:39:42Z</time>
      </trkpt>
      <trkpt lat="45.63335" lon="6.0336">
        <ele>1820</ele>
        <time>2012-12-09T10:39:45Z</time>
      </trkpt>
      <trkpt lat="45.63337" lon="6.03361">
        <ele>1820</ele>
        <time>2012-12-09T10:39:48Z</time>
      </trkpt>
      <trkpt lat="45.63338" lon="6.03362">
        <ele>1820</ele>
        <time>2012-12-09T10:39:51Z</time>
      </trkpt>
      <trkpt lat="45.6334" lon="6.03363">
        <ele>1820</ele>
        <time>2012-12-09T10:39:53Z</time>
      </trkpt>
      <trkpt lat="45.63341" lon="6.03363">
        <ele>1821</ele>
        <time>2012-12-09T10:39:55Z</time>
      </trkpt>
      <trkpt lat="45.63342" lon="6.03364">
        <ele>1821</ele>
        <time>2012-12-09T10:39:57Z</time>
      </trkpt>
      <trkpt lat="45.63344" lon="6.03365">
        <ele>1822</ele>
        <time>2012-12-09T10:40:00Z</time>
      </trkpt>
      <trkpt lat="45.63345" lon="6.03366">
        <ele>1822</ele>
        <time>2012-12-09T10:40:02Z</time>
      </trkpt>
      <trkpt lat="45.63346" lon="6.03367">
        <ele>1822</ele>
        <time>2012-12-09T10:40:04Z</time>
      </trkpt>
      <trkpt lat="45.63348" lon="6.03367">
        <ele>1823</ele>
        <time>2012-12-09T10:40:06Z</time>
      </trkpt>
      <trkpt lat="45.63349" lon="6.03368">
        <ele>1823</ele>
        <time>2012-12-09T10:40:08Z</time>
      </trkpt>
      <trkpt lat="45.63351" lon="6.03369">
        <ele>1823</ele>
        <time>2012-12-09T10:40:10Z</time>
      </trkpt>
      <trkpt lat="45.63352" lon="6.03369">
        <ele>1823</ele>
        <time>2012-12-09T10:40:12Z</time>
      </trkpt>
      <trkpt lat="45.63353" lon="6.0337">
        <ele>1824</ele>
        <time>2012-12-09T10:40:14Z</time>
      </trkpt>
      <trkpt lat="45.63354" lon="6.0337">
        <ele>1824</ele>
        <time>2012-12-09T10:40:16Z</time>
      </trkpt>
      <trkpt lat="45.63356" lon="6.0337">
        <ele>1824</ele>
        <time>2012-12-09T10:40:18Z</time>
      </trkpt>
      <trkpt lat="45.63357" lon="6.0337">
        <ele>1824</ele>
        <time>2012-12-09T10:40:20Z</time>
      </trkpt>
      <trkpt lat="45.63359" lon="6.03371">
        <ele>1825</ele>
        <time>2012-12-09T10:40:22Z</time>
      </trkpt>
      <trkpt lat="45.63361" lon="6.03371">
        <ele>1825</ele>
        <time>2012-12-09T10:40:24Z</time>
      </trkpt>
      <trkpt lat="45.63362" lon="6.03371">
        <ele>1825</ele>
        <time>2012-12-09T10:40:26Z</time>
      </trkpt>
      <trkpt lat="45.63364" lon="6.03371">
        <ele>1825</ele>
        <time>2012-12-09T10:40:28Z</time>
      </trkpt>
      <trkpt lat="45.63365" lon="6.03371">
        <ele>1825</ele>
        <time>2012-12-09T10:40:30Z</time>
      </trkpt>
      <trkpt lat="45.63366" lon="6.03371">
        <ele>1826</ele>
        <time>2012-12-09T10:40:32Z</time>
      </trkpt>
      <trkpt lat="45.63368" lon="6.03371">
        <ele>1826</ele>
        <time>2012-12-09T10:40:34Z</time>
      </trkpt>
      <trkpt lat="45.63369" lon="6.03371">
        <ele>1826</ele>
        <time>2012-12-09T10:40:36Z</time>
      </trkpt>
      <trkpt lat="45.63371" lon="6.03371">
        <ele>1826</ele>
        <time>2012-12-09T10:40:38Z</time>
      </trkpt>
      <trkpt lat="45.63372" lon="6.03371">
        <ele>1826</ele>
        <time>2012-12-09T10:40:40Z</time>
      </trkpt>
      <trkpt lat="45.63374" lon="6.03371">
        <ele>1826</ele>
        <time>2012-12-09T10:40:42Z</time>
      </trkpt>
      <trkpt lat="45.63375" lon="6.0337">
        <ele>1826</ele>
        <time>2012-12-09T10:40:44Z</time>
      </trkpt>
      <trkpt lat="45.63377" lon="6.0337">
        <ele>1827</ele>
        <time>2012-12-09T10:40:46Z</time>
      </trkpt>
      <trkpt lat="45.63378" lon="6.0337">
        <ele>1827</ele>
        <time>2012-12-09T10:40:48Z</time>
      </trkpt>
      <trkpt lat="45.6338" lon="6.0337">
        <ele>1827</ele>
        <time>2012-12-09T10:40:50Z</time>
      </trkpt>
      <trkpt lat="45.63381" lon="6.0337">
        <ele>1827</ele>
        <time>2012-12-09T10:40:52Z</time>
      </trkpt>
      <trkpt lat="45.63383" lon="6.0337">
        <ele>1827</ele>
        <time>2012-12-09T10:40:54Z</time>
      </trkpt>
      <trkpt lat="45.63385" lon="6.03371">
        <ele>1827</ele>
        <time>2012-12-09T10:40:56Z</time>
      </trkpt>
      <trkpt lat="45.63386" lon="6.03371">
        <ele>1828</ele>
        <time>2012-12-09T10:40:58Z</time>
      </trkpt>
      <trkpt lat="45.63388" lon="6.03371">
        <ele>1828</ele>
        <time>2012-12-09T10:41:00Z</time>
      </trkpt>
      <trkpt lat="45.6339" lon="6.03371">
        <ele>1829</ele>
        <time>2012-12-09T10:41:02Z</time>
      </trkpt>
      <trkpt lat="45.63391" lon="6.03369">
        <ele>1829</ele>
        <time>2012-12-09T10:41:05Z</time>
      </trkpt>
      <trkpt lat="45.63392" lon="6.03368">
        <ele>1830</ele>
        <time>2012-12-09T10:41:09Z</time>
      </trkpt>
      <trkpt lat="45.63393" lon="6.03366">
        <ele>1830</ele>
        <time>2012-12-09T10:41:11Z</time>
      </trkpt>
      <trkpt lat="45.63393" lon="6.03364">
        <ele>1830</ele>
        <time>2012-12-09T10:41:13Z</time>
      </trkpt>
      <trkpt lat="45.63394" lon="6.03363">
        <ele>1830</ele>
        <time>2012-12-09T10:41:15Z</time>
      </trkpt>
      <trkpt lat="45.63395" lon="6.03361">
        <ele>1830</ele>
        <time>2012-12-09T10:41:17Z</time>
      </trkpt>
      <trkpt lat="45.63397" lon="6.03359">
        <ele>1830</ele>
        <time>2012-12-09T10:41:19Z</time>
      </trkpt>
      <trkpt lat="45.63398" lon="6.03358">
        <ele>1830</ele>
        <time>2012-12-09T10:41:21Z</time>
      </trkpt>
      <trkpt lat="45.634" lon="6.03357">
        <ele>1830</ele>
        <time>2012-12-09T10:41:23Z</time>
      </trkpt>
      <trkpt lat="45.63401" lon="6.03355">
        <ele>1830</ele>
        <time>2012-12-09T10:41:25Z</time>
      </trkpt>
      <trkpt lat="45.63402" lon="6.03354">
        <ele>1830</ele>
        <time>2012-12-09T10:41:27Z</time>
      </trkpt>
      <trkpt lat="45.63404" lon="6.03352">
        <ele>1830</ele>
        <time>2012-12-09T10:41:29Z</time>
      </trkpt>
      <trkpt lat="45.63406" lon="6.03351">
        <ele>1830</ele>
        <time>2012-12-09T10:41:32Z</time>
      </trkpt>
      <trkpt lat="45.63409" lon="6.0335">
        <ele>1830</ele>
        <time>2012-12-09T10:41:34Z</time>
      </trkpt>
      <trkpt lat="45.63411" lon="6.0335">
        <ele>1830</ele>
        <time>2012-12-09T10:41:36Z</time>
      </trkpt>
      <trkpt lat="45.63413" lon="6.03351">
        <ele>1830</ele>
        <time>2012-12-09T10:41:38Z</time>
      </trkpt>
      <trkpt lat="45.63415" lon="6.03352">
        <ele>1830</ele>
        <time>2012-12-09T10:41:40Z</time>
      </trkpt>
      <trkpt lat="45.63417" lon="6.03353">
        <ele>1830</ele>
        <time>2012-12-09T10:41:42Z</time>
      </trkpt>
      <trkpt lat="45.63418" lon="6.03354">
        <ele>1830</ele>
        <time>2012-12-09T10:41:44Z</time>
      </trkpt>
      <trkpt lat="45.6342" lon="6.03355">
        <ele>1830</ele>
        <time>2012-12-09T10:41:46Z</time>
      </trkpt>
      <trkpt lat="45.63421" lon="6.03357">
        <ele>1830</ele>
        <time>2012-12-09T10:41:48Z</time>
      </trkpt>
      <trkpt lat="45.63423" lon="6.03358">
        <ele>1830</ele>
        <time>2012-12-09T10:41:50Z</time>
      </trkpt>
      <trkpt lat="45.63425" lon="6.03359">
        <ele>1830</ele>
        <time>2012-12-09T10:41:52Z</time>
      </trkpt>
      <trkpt lat="45.63426" lon="6.0336">
        <ele>1830</ele>
        <time>2012-12-09T10:41:54Z</time>
      </trkpt>
      <trkpt lat="45.63428" lon="6.03362">
        <ele>1830</ele>
        <time>2012-12-09T10:41:56Z</time>
      </trkpt>
      <trkpt lat="45.6343" lon="6.03363">
        <ele>1830</ele>
        <time>2012-12-09T10:41:58Z</time>
      </trkpt>
      <trkpt lat="45.63431" lon="6.03365">
        <ele>1830</ele>
        <time>2012-12-09T10:42:00Z</time>
      </trkpt>
      <trkpt lat="45.63432" lon="6.03366">
        <ele>1831</ele>
        <time>2012-12-09T10:42:02Z</time>
      </trkpt>
      <trkpt lat="45.63434" lon="6.03368">
        <ele>1831</ele>
        <time>2012-12-09T10:42:04Z</time>
      </trkpt>
      <trkpt lat="45.63436" lon="6.03369">
        <ele>1831</ele>
        <time>2012-12-09T10:42:06Z</time>
      </trkpt>
      <trkpt lat="45.63438" lon="6.0337">
        <ele>1831</ele>
        <time>2012-12-09T10:42:08Z</time>
      </trkpt>
      <trkpt lat="45.63439" lon="6.03371">
        <ele>1832</ele>
        <time>2012-12-09T10:42:10Z</time>
      </trkpt>
      <trkpt lat="45.63441" lon="6.03372">
        <ele>1832</ele>
        <time>2012-12-09T10:42:12Z</time>
      </trkpt>
      <trkpt lat="45.63443" lon="6.03372">
        <ele>1832</ele>
        <time>2012-12-09T10:42:14Z</time>
      </trkpt>
      <trkpt lat="45.63444" lon="6.03373">
        <ele>1833</ele>
        <time>2012-12-09T10:42:16Z</time>
      </trkpt>
      <trkpt lat="45.63446" lon="6.03373">
        <ele>1833</ele>
        <time>2012-12-09T10:42:18Z</time>
      </trkpt>
      <trkpt lat="45.63448" lon="6.03374">
        <ele>1833</ele>
        <time>2012-12-09T10:42:20Z</time>
      </trkpt>
      <trkpt lat="45.63449" lon="6.03375">
        <ele>1833</ele>
        <time>2012-12-09T10:42:22Z</time>
      </trkpt>
      <trkpt lat="45.63451" lon="6.03376">
        <ele>1833</ele>
        <time>2012-12-09T10:42:24Z</time>
      </trkpt>
      <trkpt lat="45.63452" lon="6.03377">
        <ele>1834</ele>
        <time>2012-12-09T10:42:26Z</time>
      </trkpt>
      <trkpt lat="45.63454" lon="6.03378">
        <ele>1834</ele>
        <time>2012-12-09T10:42:28Z</time>
      </trkpt>
      <trkpt lat="45.63455" lon="6.03379">
        <ele>1834</ele>
        <time>2012-12-09T10:42:30Z</time>
      </trkpt>
      <trkpt lat="45.63457" lon="6.0338">
        <ele>1834</ele>
        <time>2012-12-09T10:42:32Z</time>
      </trkpt>
      <trkpt lat="45.63459" lon="6.03382">
        <ele>1834</ele>
        <time>2012-12-09T10:42:34Z</time>
      </trkpt>
      <trkpt lat="45.6346" lon="6.03383">
        <ele>1835</ele>
        <time>2012-12-09T10:42:36Z</time>
      </trkpt>
      <trkpt lat="45.63461" lon="6.03384">
        <ele>1835</ele>
        <time>2012-12-09T10:42:38Z</time>
      </trkpt>
      <trkpt lat="45.63463" lon="6.03384">
        <ele>1835</ele>
        <time>2012-12-09T10:42:40Z</time>
      </trkpt>
      <trkpt lat="45.63464" lon="6.03384">
        <ele>1835</ele>
        <time>2012-12-09T10:42:42Z</time>
      </trkpt>
      <trkpt lat="45.63466" lon="6.03385">
        <ele>1836</ele>
        <time>2012-12-09T10:42:44Z</time>
      </trkpt>
      <trkpt lat="45.63467" lon="6.03385">
        <ele>1836</ele>
        <time>2012-12-09T10:42:46Z</time>
      </trkpt>
      <trkpt lat="45.63469" lon="6.03385">
        <ele>1837</ele>
        <time>2012-12-09T10:42:48Z</time>
      </trkpt>
      <trkpt lat="45.63471" lon="6.03386">
        <ele>1837</ele>
        <time>2012-12-09T10:42:50Z</time>
      </trkpt>
      <trkpt lat="45.63472" lon="6.03386">
        <ele>1837</ele>
        <time>2012-12-09T10:42:52Z</time>
      </trkpt>
      <trkpt lat="45.63474" lon="6.03386">
        <ele>1838</ele>
        <time>2012-12-09T10:42:54Z</time>
      </trkpt>
      <trkpt lat="45.63475" lon="6.03386">
        <ele>1838</ele>
        <time>2012-12-09T10:42:56Z</time>
      </trkpt>
      <trkpt lat="45.63477" lon="6.03387">
        <ele>1839</ele>
        <time>2012-12-09T10:42:58Z</time>
      </trkpt>
      <trkpt lat="45.63478" lon="6.03388">
        <ele>1839</ele>
        <time>2012-12-09T10:43:00Z</time>
      </trkpt>
      <trkpt lat="45.6348" lon="6.03389">
        <ele>1839</ele>
        <time>2012-12-09T10:43:02Z</time>
      </trkpt>
      <trkpt lat="45.63481" lon="6.0339">
        <ele>1839</ele>
        <time>2012-12-09T10:43:04Z</time>
      </trkpt>
      <trkpt lat="45.63483" lon="6.03391">
        <ele>1840</ele>
        <time>2012-12-09T10:43:06Z</time>
      </trkpt>
      <trkpt lat="45.63484" lon="6.03391">
        <ele>1840</ele>
        <time>2012-12-09T10:43:08Z</time>
      </trkpt>
      <trkpt lat="45.63485" lon="6.03393">
        <ele>1840</ele>
        <time>2012-12-09T10:43:10Z</time>
      </trkpt>
      <trkpt lat="45.63487" lon="6.03395">
        <ele>1840</ele>
        <time>2012-12-09T10:43:12Z</time>
      </trkpt>
      <trkpt lat="45.63488" lon="6.03396">
        <ele>1840</ele>
        <time>2012-12-09T10:43:14Z</time>
      </trkpt>
      <trkpt lat="45.63491" lon="6.03396">
        <ele>1840</ele>
        <time>2012-12-09T10:43:16Z</time>
      </trkpt>
      <trkpt lat="45.63492" lon="6.03396">
        <ele>1840</ele>
        <time>2012-12-09T10:43:18Z</time>
      </trkpt>
      <trkpt lat="45.63494" lon="6.03396">
        <ele>1840</ele>
        <time>2012-12-09T10:43:20Z</time>
      </trkpt>
      <trkpt lat="45.63497" lon="6.03405">
        <ele>1840</ele>
        <time>2012-12-09T10:43:25Z</time>
      </trkpt>
      <trkpt lat="45.63499" lon="6.03406">
        <ele>1840</ele>
        <time>2012-12-09T10:43:27Z</time>
      </trkpt>
      <trkpt lat="45.635" lon="6.03408">
        <ele>1840</ele>
        <time>2012-12-09T10:43:29Z</time>
      </trkpt>
      <trkpt lat="45.63502" lon="6.03411">
        <ele>1840</ele>
        <time>2012-12-09T10:43:31Z</time>
      </trkpt>
      <trkpt lat="45.63504" lon="6.03413">
        <ele>1840</ele>
        <time>2012-12-09T10:43:33Z</time>
      </trkpt>
      <trkpt lat="45.63506" lon="6.03419">
        <ele>1840</ele>
        <time>2012-12-09T10:43:35Z</time>
      </trkpt>
      <trkpt lat="45.63508" lon="6.03427">
        <ele>1839</ele>
        <time>2012-12-09T10:43:37Z</time>
      </trkpt>
      <trkpt lat="45.63509" lon="6.03435">
        <ele>1838</ele>
        <time>2012-12-09T10:43:39Z</time>
      </trkpt>
      <trkpt lat="45.6351" lon="6.03438">
        <ele>1836</ele>
        <time>2012-12-09T10:43:42Z</time>
      </trkpt>
      <trkpt lat="45.63513" lon="6.03439">
        <ele>1835</ele>
        <time>2012-12-09T10:43:44Z</time>
      </trkpt>
      <trkpt lat="45.63515" lon="6.03439">
        <ele>1835</ele>
        <time>2012-12-09T10:43:46Z</time>
      </trkpt>
      <trkpt lat="45.63519" lon="6.03441">
        <ele>1835</ele>
        <time>2012-12-09T10:43:48Z</time>
      </trkpt>
      <trkpt lat="45.63522" lon="6.03441">
        <ele>1835</ele>
        <time>2012-12-09T10:43:51Z</time>
      </trkpt>
      <trkpt lat="45.63523" lon="6.03441">
        <ele>1835</ele>
        <time>2012-12-09T10:43:54Z</time>
      </trkpt>
      <trkpt lat="45.63524" lon="6.03441">
        <ele>1835</ele>
        <time>2012-12-09T10:43:56Z</time>
      </trkpt>
      <trkpt lat="45.63526" lon="6.03442">
        <ele>1835</ele>
        <time>2012-12-09T10:43:58Z</time>
      </trkpt>
      <trkpt lat="45.63527" lon="6.03443">
        <ele>1835</ele>
        <time>2012-12-09T10:44:03Z</time>
      </trkpt>
      <trkpt lat="45.63534" lon="6.03448">
        <ele>1835</ele>
        <time>2012-12-09T10:44:05Z</time>
      </trkpt>
      <trkpt lat="45.63537" lon="6.03449">
        <ele>1835</ele>
        <time>2012-12-09T10:44:07Z</time>
      </trkpt>
      <trkpt lat="45.6354" lon="6.0345">
        <ele>1835</ele>
        <time>2012-12-09T10:44:09Z</time>
      </trkpt>
      <trkpt lat="45.63542" lon="6.03451">
        <ele>1835</ele>
        <time>2012-12-09T10:44:11Z</time>
      </trkpt>
      <trkpt lat="45.63544" lon="6.03452">
        <ele>1835</ele>
        <time>2012-12-09T10:44:13Z</time>
      </trkpt>
      <trkpt lat="45.63549" lon="6.03464">
        <ele>1835</ele>
        <time>2012-12-09T10:44:20Z</time>
      </trkpt>
      <trkpt lat="45.63549" lon="6.0347">
        <ele>1835</ele>
        <time>2012-12-09T10:44:22Z</time>
      </trkpt>
      <trkpt lat="45.63549" lon="6.03476">
        <ele>1835</ele>
        <time>2012-12-09T10:44:24Z</time>
      </trkpt>
      <trkpt lat="45.6355" lon="6.03479">
        <ele>1835</ele>
        <time>2012-12-09T10:44:26Z</time>
      </trkpt>
      <trkpt lat="45.63551" lon="6.03482">
        <ele>1835</ele>
        <time>2012-12-09T10:44:28Z</time>
      </trkpt>
      <trkpt lat="45.63552" lon="6.03486">
        <ele>1835</ele>
        <time>2012-12-09T10:44:30Z</time>
      </trkpt>
      <trkpt lat="45.63554" lon="6.03491">
        <ele>1835</ele>
        <time>2012-12-09T10:44:33Z</time>
      </trkpt>
      <trkpt lat="45.63555" lon="6.03493">
        <ele>1835</ele>
        <time>2012-12-09T10:44:35Z</time>
      </trkpt>
      <trkpt lat="45.63557" lon="6.03495">
        <ele>1835</ele>
        <time>2012-12-09T10:44:37Z</time>
      </trkpt>
      <trkpt lat="45.63559" lon="6.03497">
        <ele>1835</ele>
        <time>2012-12-09T10:44:39Z</time>
      </trkpt>
      <trkpt lat="45.63559" lon="6.03499">
        <ele>1835</ele>
        <time>2012-12-09T10:44:41Z</time>
      </trkpt>
      <trkpt lat="45.6356" lon="6.03502">
        <ele>1835</ele>
        <time>2012-12-09T10:44:44Z</time>
      </trkpt>
      <trkpt lat="45.63561" lon="6.03504">
        <ele>1835</ele>
        <time>2012-12-09T10:44:46Z</time>
      </trkpt>
      <trkpt lat="45.63561" lon="6.03506">
        <ele>1835</ele>
        <time>2012-12-09T10:44:48Z</time>
      </trkpt>
      <trkpt lat="45.63559" lon="6.03499">
        <ele>1835</ele>
        <time>2012-12-09T10:44:52Z</time>
      </trkpt>
      <trkpt lat="45.63559" lon="6.03494">
        <ele>1835</ele>
        <time>2012-12-09T10:44:54Z</time>
      </trkpt>
      <trkpt lat="45.63559" lon="6.03491">
        <ele>1834</ele>
        <time>2012-12-09T10:44:56Z</time>
      </trkpt>
      <trkpt lat="45.63558" lon="6.03487">
        <ele>1834</ele>
        <time>2012-12-09T10:44:58Z</time>
      </trkpt>
      <trkpt lat="45.63558" lon="6.03484">
        <ele>1834</ele>
        <time>2012-12-09T10:45:00Z</time>
      </trkpt>
      <trkpt lat="45.63558" lon="6.0348">
        <ele>1834</ele>
        <time>2012-12-09T10:45:02Z</time>
      </trkpt>
      <trkpt lat="45.63558" lon="6.03476">
        <ele>1834</ele>
        <time>2012-12-09T10:45:04Z</time>
      </trkpt>
      <trkpt lat="45.63557" lon="6.03474">
        <ele>1834</ele>
        <time>2012-12-09T10:45:06Z</time>
      </trkpt>
      <trkpt lat="45.63558" lon="6.0347">
        <ele>1834</ele>
        <time>2012-12-09T10:45:08Z</time>
      </trkpt>
      <trkpt lat="45.6356" lon="6.03468">
        <ele>1834</ele>
        <time>2012-12-09T10:45:11Z</time>
      </trkpt>
      <trkpt lat="45.63563" lon="6.0347">
        <ele>1834</ele>
        <time>2012-12-09T10:45:14Z</time>
      </trkpt>
      <trkpt lat="45.63566" lon="6.03472">
        <ele>1834</ele>
        <time>2012-12-09T10:45:16Z</time>
      </trkpt>
      <trkpt lat="45.63568" lon="6.03474">
        <ele>1834</ele>
        <time>2012-12-09T10:45:18Z</time>
      </trkpt>
      <trkpt lat="45.63571" lon="6.03477">
        <ele>1834</ele>
        <time>2012-12-09T10:45:20Z</time>
      </trkpt>
      <trkpt lat="45.63573" lon="6.03479">
        <ele>1834</ele>
        <time>2012-12-09T10:45:22Z</time>
      </trkpt>
      <trkpt lat="45.63576" lon="6.03482">
        <ele>1834</ele>
        <time>2012-12-09T10:45:25Z</time>
      </trkpt>
      <trkpt lat="45.63578" lon="6.03483">
        <ele>1834</ele>
        <time>2012-12-09T10:45:27Z</time>
      </trkpt>
      <trkpt lat="45.63579" lon="6.03485">
        <ele>1834</ele>
        <time>2012-12-09T10:45:29Z</time>
      </trkpt>
      <trkpt lat="45.6358" lon="6.03486">
        <ele>1834</ele>
        <time>2012-12-09T10:45:31Z</time>
      </trkpt>
      <trkpt lat="45.63581" lon="6.03487">
        <ele>1834</ele>
        <time>2012-12-09T10:45:33Z</time>
      </trkpt>
      <trkpt lat="45.63583" lon="6.03488">
        <ele>1834</ele>
        <time>2012-12-09T10:45:35Z</time>
      </trkpt>
      <trkpt lat="45.63585" lon="6.0349">
        <ele>1834</ele>
        <time>2012-12-09T10:45:38Z</time>
      </trkpt>
      <trkpt lat="45.63586" lon="6.03491">
        <ele>1834</ele>
        <time>2012-12-09T10:45:40Z</time>
      </trkpt>
      <trkpt lat="45.63587" lon="6.03491">
        <ele>1834</ele>
        <time>2012-12-09T10:45:43Z</time>
      </trkpt>
      <trkpt lat="45.63589" lon="6.03492">
        <ele>1834</ele>
        <time>2012-12-09T10:45:45Z</time>
      </trkpt>
      <trkpt lat="45.63591" lon="6.03493">
        <ele>1834</ele>
        <time>2012-12-09T10:45:47Z</time>
      </trkpt>
      <trkpt lat="45.63594" lon="6.03495">
        <ele>1834</ele>
        <time>2012-12-09T10:45:49Z</time>
      </trkpt>
      <trkpt lat="45.63597" lon="6.03497">
        <ele>1833</ele>
        <time>2012-12-09T10:45:51Z</time>
      </trkpt>
      <trkpt lat="45.63601" lon="6.03501">
        <ele>1832</ele>
        <time>2012-12-09T10:45:53Z</time>
      </trkpt>
      <trkpt lat="45.63605" lon="6.03507">
        <ele>1831</ele>
        <time>2012-12-09T10:45:55Z</time>
      </trkpt>
      <trkpt lat="45.63609" lon="6.03514">
        <ele>1830</ele>
        <time>2012-12-09T10:45:57Z</time>
      </trkpt>
      <trkpt lat="45.63616" lon="6.03522">
        <ele>1829</ele>
        <time>2012-12-09T10:45:59Z</time>
      </trkpt>
      <trkpt lat="45.63623" lon="6.03529">
        <ele>1827</ele>
        <time>2012-12-09T10:46:01Z</time>
      </trkpt>
      <trkpt lat="45.63631" lon="6.03535">
        <ele>1825</ele>
        <time>2012-12-09T10:46:03Z</time>
      </trkpt>
      <trkpt lat="45.63638" lon="6.03541">
        <ele>1823</ele>
        <time>2012-12-09T10:46:05Z</time>
      </trkpt>
      <trkpt lat="45.63643" lon="6.03545">
        <ele>1822</ele>
        <time>2012-12-09T10:46:07Z</time>
      </trkpt>
      <trkpt lat="45.63647" lon="6.03548">
        <ele>1821</ele>
        <time>2012-12-09T10:46:10Z</time>
      </trkpt>
      <trkpt lat="45.6365" lon="6.03551">
        <ele>1821</ele>
        <time>2012-12-09T10:46:13Z</time>
      </trkpt>
      <trkpt lat="45.63652" lon="6.03553">
        <ele>1821</ele>
        <time>2012-12-09T10:46:15Z</time>
      </trkpt>
      <trkpt lat="45.63655" lon="6.03555">
        <ele>1821</ele>
        <time>2012-12-09T10:46:17Z</time>
      </trkpt>
      <trkpt lat="45.63657" lon="6.03558">
        <ele>1821</ele>
        <time>2012-12-09T10:46:19Z</time>
      </trkpt>
      <trkpt lat="45.6366" lon="6.03561">
        <ele>1821</ele>
        <time>2012-12-09T10:46:21Z</time>
      </trkpt>
      <trkpt lat="45.63664" lon="6.03564">
        <ele>1821</ele>
        <time>2012-12-09T10:46:23Z</time>
      </trkpt>
      <trkpt lat="45.63667" lon="6.03567">
        <ele>1821</ele>
        <time>2012-12-09T10:46:25Z</time>
      </trkpt>
      <trkpt lat="45.6367" lon="6.03569">
        <ele>1821</ele>
        <time>2012-12-09T10:46:28Z</time>
      </trkpt>
      <trkpt lat="45.63672" lon="6.0357">
        <ele>1821</ele>
        <time>2012-12-09T10:46:30Z</time>
      </trkpt>
      <trkpt lat="45.63673" lon="6.03571">
        <ele>1821</ele>
        <time>2012-12-09T10:46:34Z</time>
      </trkpt>
      <trkpt lat="45.63675" lon="6.03572">
        <ele>1821</ele>
        <time>2012-12-09T10:46:36Z</time>
      </trkpt>
      <trkpt lat="45.63677" lon="6.03573">
        <ele>1821</ele>
        <time>2012-12-09T10:46:38Z</time>
      </trkpt>
      <trkpt lat="45.63678" lon="6.03573">
        <ele>1821</ele>
        <time>2012-12-09T10:46:40Z</time>
      </trkpt>
      <trkpt lat="45.6368" lon="6.03574">
        <ele>1821</ele>
        <time>2012-12-09T10:46:42Z</time>
      </trkpt>
      <trkpt lat="45.63682" lon="6.03575">
        <ele>1821</ele>
        <time>2012-12-09T10:46:44Z</time>
      </trkpt>
      <trkpt lat="45.63685" lon="6.03575">
        <ele>1821</ele>
        <time>2012-12-09T10:46:47Z</time>
      </trkpt>
      <trkpt lat="45.63687" lon="6.03576">
        <ele>1821</ele>
        <time>2012-12-09T10:46:49Z</time>
      </trkpt>
      <trkpt lat="45.63688" lon="6.03577">
        <ele>1821</ele>
        <time>2012-12-09T10:46:51Z</time>
      </trkpt>
      <trkpt lat="45.6369" lon="6.03578">
        <ele>1821</ele>
        <time>2012-12-09T10:46:53Z</time>
      </trkpt>
      <trkpt lat="45.63692" lon="6.03578">
        <ele>1821</ele>
        <time>2012-12-09T10:46:55Z</time>
      </trkpt>
      <trkpt lat="45.63694" lon="6.03579">
        <ele>1821</ele>
        <time>2012-12-09T10:46:57Z</time>
      </trkpt>
      <trkpt lat="45.63696" lon="6.0358">
        <ele>1821</ele>
        <time>2012-12-09T10:46:59Z</time>
      </trkpt>
      <trkpt lat="45.63697" lon="6.0358">
        <ele>1821</ele>
        <time>2012-12-09T10:47:01Z</time>
      </trkpt>
      <trkpt lat="45.63699" lon="6.03581">
        <ele>1821</ele>
        <time>2012-12-09T10:47:03Z</time>
      </trkpt>
      <trkpt lat="45.63701" lon="6.03581">
        <ele>1821</ele>
        <time>2012-12-09T10:47:05Z</time>
      </trkpt>
      <trkpt lat="45.63704" lon="6.03582">
        <ele>1821</ele>
        <time>2012-12-09T10:47:08Z</time>
      </trkpt>
      <trkpt lat="45.63706" lon="6.03582">
        <ele>1821</ele>
        <time>2012-12-09T10:47:10Z</time>
      </trkpt>
      <trkpt lat="45.63707" lon="6.03583">
        <ele>1821</ele>
        <time>2012-12-09T10:47:12Z</time>
      </trkpt>
      <trkpt lat="45.6371" lon="6.03583">
        <ele>1821</ele>
        <time>2012-12-09T10:47:14Z</time>
      </trkpt>
      <trkpt lat="45.63711" lon="6.03584">
        <ele>1821</ele>
        <time>2012-12-09T10:47:16Z</time>
      </trkpt>
      <trkpt lat="45.63713" lon="6.03585">
        <ele>1821</ele>
        <time>2012-12-09T10:47:18Z</time>
      </trkpt>
      <trkpt lat="45.63715" lon="6.03585">
        <ele>1821</ele>
        <time>2012-12-09T10:47:20Z</time>
      </trkpt>
      <trkpt lat="45.63717" lon="6.03585">
        <ele>1821</ele>
        <time>2012-12-09T10:47:22Z</time>
      </trkpt>
      <trkpt lat="45.63719" lon="6.03586">
        <ele>1821</ele>
        <time>2012-12-09T10:47:24Z</time>
      </trkpt>
      <trkpt lat="45.63721" lon="6.03586">
        <ele>1821</ele>
        <time>2012-12-09T10:47:26Z</time>
      </trkpt>
      <trkpt lat="45.63723" lon="6.03587">
        <ele>1821</ele>
        <time>2012-12-09T10:47:28Z</time>
      </trkpt>
      <trkpt lat="45.63725" lon="6.03587">
        <ele>1821</ele>
        <time>2012-12-09T10:47:30Z</time>
      </trkpt>
      <trkpt lat="45.63727" lon="6.03588">
        <ele>1821</ele>
        <time>2012-12-09T10:47:32Z</time>
      </trkpt>
      <trkpt lat="45.6373" lon="6.03589">
        <ele>1821</ele>
        <time>2012-12-09T10:47:35Z</time>
      </trkpt>
      <trkpt lat="45.63733" lon="6.0359">
        <ele>1822</ele>
        <time>2012-12-09T10:47:38Z</time>
      </trkpt>
      <trkpt lat="45.63735" lon="6.03591">
        <ele>1822</ele>
        <time>2012-12-09T10:47:40Z</time>
      </trkpt>
      <trkpt lat="45.63737" lon="6.03592">
        <ele>1822</ele>
        <time>2012-12-09T10:47:42Z</time>
      </trkpt>
      <trkpt lat="45.63738" lon="6.03594">
        <ele>1823</ele>
        <time>2012-12-09T10:47:44Z</time>
      </trkpt>
      <trkpt lat="45.6374" lon="6.03596">
        <ele>1823</ele>
        <time>2012-12-09T10:47:46Z</time>
      </trkpt>
      <trkpt lat="45.63741" lon="6.03599">
        <ele>1823</ele>
        <time>2012-12-09T10:47:48Z</time>
      </trkpt>
      <trkpt lat="45.63743" lon="6.03602">
        <ele>1823</ele>
        <time>2012-12-09T10:47:50Z</time>
      </trkpt>
      <trkpt lat="45.63744" lon="6.03606">
        <ele>1823</ele>
        <time>2012-12-09T10:47:52Z</time>
      </trkpt>
      <trkpt lat="45.63746" lon="6.03608">
        <ele>1823</ele>
        <time>2012-12-09T10:47:54Z</time>
      </trkpt>
      <trkpt lat="45.63748" lon="6.03611">
        <ele>1823</ele>
        <time>2012-12-09T10:47:56Z</time>
      </trkpt>
      <trkpt lat="45.63749" lon="6.03614">
        <ele>1823</ele>
        <time>2012-12-09T10:47:58Z</time>
      </trkpt>
      <trkpt lat="45.63751" lon="6.03617">
        <ele>1823</ele>
        <time>2012-12-09T10:48:00Z</time>
      </trkpt>
      <trkpt lat="45.63753" lon="6.03621">
        <ele>1823</ele>
        <time>2012-12-09T10:48:02Z</time>
      </trkpt>
      <trkpt lat="45.63755" lon="6.03625">
        <ele>1823</ele>
        <time>2012-12-09T10:48:04Z</time>
      </trkpt>
      <trkpt lat="45.63757" lon="6.03629">
        <ele>1823</ele>
        <time>2012-12-09T10:48:07Z</time>
      </trkpt>
      <trkpt lat="45.63759" lon="6.03631">
        <ele>1823</ele>
        <time>2012-12-09T10:48:09Z</time>
      </trkpt>
      <trkpt lat="45.6376" lon="6.03634">
        <ele>1823</ele>
        <time>2012-12-09T10:48:11Z</time>
      </trkpt>
      <trkpt lat="45.63763" lon="6.03638">
        <ele>1823</ele>
        <time>2012-12-09T10:48:14Z</time>
      </trkpt>
      <trkpt lat="45.63765" lon="6.03641">
        <ele>1823</ele>
        <time>2012-12-09T10:48:16Z</time>
      </trkpt>
      <trkpt lat="45.63767" lon="6.03643">
        <ele>1823</ele>
        <time>2012-12-09T10:48:18Z</time>
      </trkpt>
      <trkpt lat="45.63769" lon="6.03645">
        <ele>1823</ele>
        <time>2012-12-09T10:48:20Z</time>
      </trkpt>
      <trkpt lat="45.63771" lon="6.03649">
        <ele>1823</ele>
        <time>2012-12-09T10:48:22Z</time>
      </trkpt>
      <trkpt lat="45.63774" lon="6.03652">
        <ele>1823</ele>
        <time>2012-12-09T10:48:24Z</time>
      </trkpt>
      <trkpt lat="45.63776" lon="6.03656">
        <ele>1823</ele>
        <time>2012-12-09T10:48:26Z</time>
      </trkpt>
      <trkpt lat="45.63778" lon="6.03659">
        <ele>1823</ele>
        <time>2012-12-09T10:48:28Z</time>
      </trkpt>
      <trkpt lat="45.63779" lon="6.03664">
        <ele>1823</ele>
        <time>2012-12-09T10:48:30Z</time>
      </trkpt>
      <trkpt lat="45.6378" lon="6.03668">
        <ele>1823</ele>
        <time>2012-12-09T10:48:32Z</time>
      </trkpt>
      <trkpt lat="45.63782" lon="6.03672">
        <ele>1823</ele>
        <time>2012-12-09T10:48:35Z</time>
      </trkpt>
      <trkpt lat="45.63783" lon="6.03675">
        <ele>1823</ele>
        <time>2012-12-09T10:48:37Z</time>
      </trkpt>
      <trkpt lat="45.63785" lon="6.03679">
        <ele>1823</ele>
        <time>2012-12-09T10:48:40Z</time>
      </trkpt>
      <trkpt lat="45.63785" lon="6.03681">
        <ele>1823</ele>
        <time>2012-12-09T10:48:42Z</time>
      </trkpt>
      <trkpt lat="45.63793" lon="6.03688">
        <ele>1823</ele>
        <time>2012-12-09T10:48:47Z</time>
      </trkpt>
      <trkpt lat="45.63795" lon="6.0369">
        <ele>1823</ele>
        <time>2012-12-09T10:48:49Z</time>
      </trkpt>
      <trkpt lat="45.63798" lon="6.03692">
        <ele>1823</ele>
        <time>2012-12-09T10:48:51Z</time>
      </trkpt>
      <trkpt lat="45.63801" lon="6.03695">
        <ele>1823</ele>
        <time>2012-12-09T10:48:53Z</time>
      </trkpt>
      <trkpt lat="45.63803" lon="6.03697">
        <ele>1823</ele>
        <time>2012-12-09T10:48:55Z</time>
      </trkpt>
      <trkpt lat="45.63805" lon="6.03699">
        <ele>1823</ele>
        <time>2012-12-09T10:48:57Z</time>
      </trkpt>
      <trkpt lat="45.63808" lon="6.03702">
        <ele>1823</ele>
        <time>2012-12-09T10:48:59Z</time>
      </trkpt>
      <trkpt lat="45.6381" lon="6.03705">
        <ele>1823</ele>
        <time>2012-12-09T10:49:01Z</time>
      </trkpt>
      <trkpt lat="45.63812" lon="6.03707">
        <ele>1823</ele>
        <time>2012-12-09T10:49:03Z</time>
      </trkpt>
      <trkpt lat="45.63815" lon="6.0371">
        <ele>1823</ele>
        <time>2012-12-09T10:49:05Z</time>
      </trkpt>
      <trkpt lat="45.63818" lon="6.03713">
        <ele>1823</ele>
        <time>2012-12-09T10:49:07Z</time>
      </trkpt>
      <trkpt lat="45.63822" lon="6.03714">
        <ele>1823</ele>
        <time>2012-12-09T10:49:09Z</time>
      </trkpt>
      <trkpt lat="45.63825" lon="6.03717">
        <ele>1823</ele>
        <time>2012-12-09T10:49:11Z</time>
      </trkpt>
      <trkpt lat="45.63828" lon="6.0372">
        <ele>1823</ele>
        <time>2012-12-09T10:49:13Z</time>
      </trkpt>
      <trkpt lat="45.63831" lon="6.03722">
        <ele>1823</ele>
        <time>2012-12-09T10:49:15Z</time>
      </trkpt>
      <trkpt lat="45.63834" lon="6.03726">
        <ele>1823</ele>
        <time>2012-12-09T10:49:18Z</time>
      </trkpt>
      <trkpt lat="45.63836" lon="6.03728">
        <ele>1823</ele>
        <time>2012-12-09T10:49:20Z</time>
      </trkpt>
      <trkpt lat="45.63838" lon="6.0373">
        <ele>1823</ele>
        <time>2012-12-09T10:49:22Z</time>
      </trkpt>
      <trkpt lat="45.6384" lon="6.03733">
        <ele>1823</ele>
        <time>2012-12-09T10:49:24Z</time>
      </trkpt>
      <trkpt lat="45.63842" lon="6.03736">
        <ele>1823</ele>
        <time>2012-12-09T10:49:26Z</time>
      </trkpt>
      <trkpt lat="45.63845" lon="6.03738">
        <ele>1823</ele>
        <time>2012-12-09T10:49:28Z</time>
      </trkpt>
      <trkpt lat="45.63847" lon="6.03741">
        <ele>1823</ele>
        <time>2012-12-09T10:49:30Z</time>
      </trkpt>
      <trkpt lat="45.63849" lon="6.03744">
        <ele>1823</ele>
        <time>2012-12-09T10:49:32Z</time>
      </trkpt>
      <trkpt lat="45.63851" lon="6.03748">
        <ele>1823</ele>
        <time>2012-12-09T10:49:35Z</time>
      </trkpt>
      <trkpt lat="45.63853" lon="6.0375">
        <ele>1823</ele>
        <time>2012-12-09T10:49:37Z</time>
      </trkpt>
      <trkpt lat="45.63854" lon="6.03753">
        <ele>1823</ele>
        <time>2012-12-09T10:49:39Z</time>
      </trkpt>
      <trkpt lat="45.63856" lon="6.03755">
        <ele>1823</ele>
        <time>2012-12-09T10:49:41Z</time>
      </trkpt>
      <trkpt lat="45.63857" lon="6.03757">
        <ele>1823</ele>
        <time>2012-12-09T10:49:43Z</time>
      </trkpt>
      <trkpt lat="45.63858" lon="6.03758">
        <ele>1823</ele>
        <time>2012-12-09T10:49:45Z</time>
      </trkpt>
      <trkpt lat="45.6386" lon="6.0376">
        <ele>1823</ele>
        <time>2012-12-09T10:49:47Z</time>
      </trkpt>
      <trkpt lat="45.63862" lon="6.03762">
        <ele>1823</ele>
        <time>2012-12-09T10:49:49Z</time>
      </trkpt>
      <trkpt lat="45.63863" lon="6.03764">
        <ele>1823</ele>
        <time>2012-12-09T10:49:51Z</time>
      </trkpt>
      <trkpt lat="45.63866" lon="6.03766">
        <ele>1823</ele>
        <time>2012-12-09T10:49:54Z</time>
      </trkpt>
      <trkpt lat="45.63868" lon="6.03768">
        <ele>1823</ele>
        <time>2012-12-09T10:49:56Z</time>
      </trkpt>
      <trkpt lat="45.63869" lon="6.03768">
        <ele>1823</ele>
        <time>2012-12-09T10:49:58Z</time>
      </trkpt>
      <trkpt lat="45.63871" lon="6.0377">
        <ele>1823</ele>
        <time>2012-12-09T10:50:00Z</time>
      </trkpt>
      <trkpt lat="45.63872" lon="6.03771">
        <ele>1823</ele>
        <time>2012-12-09T10:50:02Z</time>
      </trkpt>
      <trkpt lat="45.63875" lon="6.03772">
        <ele>1823</ele>
        <time>2012-12-09T10:50:05Z</time>
      </trkpt>
      <trkpt lat="45.63876" lon="6.03773">
        <ele>1823</ele>
        <time>2012-12-09T10:50:07Z</time>
      </trkpt>
      <trkpt lat="45.63878" lon="6.03775">
        <ele>1823</ele>
        <time>2012-12-09T10:50:09Z</time>
      </trkpt>
      <trkpt lat="45.6388" lon="6.03776">
        <ele>1823</ele>
        <time>2012-12-09T10:50:11Z</time>
      </trkpt>
      <trkpt lat="45.63882" lon="6.03777">
        <ele>1823</ele>
        <time>2012-12-09T10:50:13Z</time>
      </trkpt>
      <trkpt lat="45.63883" lon="6.03779">
        <ele>1823</ele>
        <time>2012-12-09T10:50:15Z</time>
      </trkpt>
      <trkpt lat="45.63885" lon="6.0378">
        <ele>1823</ele>
        <time>2012-12-09T10:50:17Z</time>
      </trkpt>
      <trkpt lat="45.63886" lon="6.03782">
        <ele>1823</ele>
        <time>2012-12-09T10:50:19Z</time>
      </trkpt>
      <trkpt lat="45.63888" lon="6.03784">
        <ele>1823</ele>
        <time>2012-12-09T10:50:21Z</time>
      </trkpt>
      <trkpt lat="45.6389" lon="6.03786">
        <ele>1823</ele>
        <time>2012-12-09T10:50:23Z</time>
      </trkpt>
      <trkpt lat="45.63892" lon="6.03789">
        <ele>1823</ele>
        <time>2012-12-09T10:50:25Z</time>
      </trkpt>
      <trkpt lat="45.63893" lon="6.0379">
        <ele>1823</ele>
        <time>2012-12-09T10:50:27Z</time>
      </trkpt>
      <trkpt lat="45.63895" lon="6.03792">
        <ele>1823</ele>
        <time>2012-12-09T10:50:29Z</time>
      </trkpt>
      <trkpt lat="45.63897" lon="6.03793">
        <ele>1823</ele>
        <time>2012-12-09T10:50:31Z</time>
      </trkpt>
      <trkpt lat="45.639" lon="6.03796">
        <ele>1823</ele>
        <time>2012-12-09T10:50:33Z</time>
      </trkpt>
      <trkpt lat="45.63902" lon="6.03797">
        <ele>1823</ele>
        <time>2012-12-09T10:50:35Z</time>
      </trkpt>
      <trkpt lat="45.63903" lon="6.03799">
        <ele>1823</ele>
        <time>2012-12-09T10:50:37Z</time>
      </trkpt>
      <trkpt lat="45.63905" lon="6.038">
        <ele>1823</ele>
        <time>2012-12-09T10:50:39Z</time>
      </trkpt>
      <trkpt lat="45.63906" lon="6.03801">
        <ele>1823</ele>
        <time>2012-12-09T10:50:41Z</time>
      </trkpt>
      <trkpt lat="45.63908" lon="6.03802">
        <ele>1823</ele>
        <time>2012-12-09T10:50:43Z</time>
      </trkpt>
      <trkpt lat="45.63909" lon="6.03803">
        <ele>1823</ele>
        <time>2012-12-09T10:50:45Z</time>
      </trkpt>
      <trkpt lat="45.63911" lon="6.03804">
        <ele>1823</ele>
        <time>2012-12-09T10:50:47Z</time>
      </trkpt>
      <trkpt lat="45.63912" lon="6.03805">
        <ele>1823</ele>
        <time>2012-12-09T10:50:49Z</time>
      </trkpt>
      <trkpt lat="45.63913" lon="6.03806">
        <ele>1823</ele>
        <time>2012-12-09T10:50:51Z</time>
      </trkpt>
      <trkpt lat="45.63915" lon="6.03807">
        <ele>1823</ele>
        <time>2012-12-09T10:50:53Z</time>
      </trkpt>
      <trkpt lat="45.63916" lon="6.03808">
        <ele>1823</ele>
        <time>2012-12-09T10:50:55Z</time>
      </trkpt>
      <trkpt lat="45.63918" lon="6.03809">
        <ele>1823</ele>
        <time>2012-12-09T10:50:57Z</time>
      </trkpt>
      <trkpt lat="45.63919" lon="6.0381">
        <ele>1823</ele>
        <time>2012-12-09T10:50:59Z</time>
      </trkpt>
      <trkpt lat="45.63921" lon="6.03811">
        <ele>1823</ele>
        <time>2012-12-09T10:51:01Z</time>
      </trkpt>
      <trkpt lat="45.63923" lon="6.03812">
        <ele>1823</ele>
        <time>2012-12-09T10:51:03Z</time>
      </trkpt>
      <trkpt lat="45.63931" lon="6.03817">
        <ele>1823</ele>
        <time>2012-12-09T10:51:09Z</time>
      </trkpt>
      <trkpt lat="45.63932" lon="6.03818">
        <ele>1823</ele>
        <time>2012-12-09T10:51:11Z</time>
      </trkpt>
      <trkpt lat="45.63934" lon="6.03819">
        <ele>1823</ele>
        <time>2012-12-09T10:51:13Z</time>
      </trkpt>
      <trkpt lat="45.63936" lon="6.0382">
        <ele>1823</ele>
        <time>2012-12-09T10:51:15Z</time>
      </trkpt>
      <trkpt lat="45.63938" lon="6.03821">
        <ele>1823</ele>
        <time>2012-12-09T10:51:17Z</time>
      </trkpt>
      <trkpt lat="45.6394" lon="6.03822">
        <ele>1823</ele>
        <time>2012-12-09T10:51:19Z</time>
      </trkpt>
      <trkpt lat="45.63942" lon="6.03822">
        <ele>1823</ele>
        <time>2012-12-09T10:51:21Z</time>
      </trkpt>
      <trkpt lat="45.63943" lon="6.03823">
        <ele>1823</ele>
        <time>2012-12-09T10:51:23Z</time>
      </trkpt>
      <trkpt lat="45.63945" lon="6.03824">
        <ele>1823</ele>
        <time>2012-12-09T10:51:25Z</time>
      </trkpt>
      <trkpt lat="45.63947" lon="6.03825">
        <ele>1823</ele>
        <time>2012-12-09T10:51:27Z</time>
      </trkpt>
      <trkpt lat="45.63949" lon="6.03825">
        <ele>1823</ele>
        <time>2012-12-09T10:51:29Z</time>
      </trkpt>
      <trkpt lat="45.6395" lon="6.03826">
        <ele>1823</ele>
        <time>2012-12-09T10:51:31Z</time>
      </trkpt>
      <trkpt lat="45.63952" lon="6.03827">
        <ele>1823</ele>
        <time>2012-12-09T10:51:33Z</time>
      </trkpt>
      <trkpt lat="45.63954" lon="6.03827">
        <ele>1823</ele>
        <time>2012-12-09T10:51:35Z</time>
      </trkpt>
      <trkpt lat="45.63956" lon="6.03828">
        <ele>1823</ele>
        <time>2012-12-09T10:51:37Z</time>
      </trkpt>
      <trkpt lat="45.63957" lon="6.03829">
        <ele>1823</ele>
        <time>2012-12-09T10:51:39Z</time>
      </trkpt>
      <trkpt lat="45.63959" lon="6.0383">
        <ele>1823</ele>
        <time>2012-12-09T10:51:41Z</time>
      </trkpt>
      <trkpt lat="45.63961" lon="6.03831">
        <ele>1823</ele>
        <time>2012-12-09T10:51:43Z</time>
      </trkpt>
      <trkpt lat="45.63962" lon="6.03832">
        <ele>1823</ele>
        <time>2012-12-09T10:51:45Z</time>
      </trkpt>
      <trkpt lat="45.63964" lon="6.03833">
        <ele>1823</ele>
        <time>2012-12-09T10:51:47Z</time>
      </trkpt>
      <trkpt lat="45.63965" lon="6.03835">
        <ele>1824</ele>
        <time>2012-12-09T10:51:49Z</time>
      </trkpt>
      <trkpt lat="45.63967" lon="6.03836">
        <ele>1824</ele>
        <time>2012-12-09T10:51:51Z</time>
      </trkpt>
      <trkpt lat="45.63969" lon="6.03838">
        <ele>1824</ele>
        <time>2012-12-09T10:51:53Z</time>
      </trkpt>
      <trkpt lat="45.63971" lon="6.03839">
        <ele>1824</ele>
        <time>2012-12-09T10:51:55Z</time>
      </trkpt>
      <trkpt lat="45.63973" lon="6.03841">
        <ele>1825</ele>
        <time>2012-12-09T10:51:57Z</time>
      </trkpt>
      <trkpt lat="45.63975" lon="6.03843">
        <ele>1825</ele>
        <time>2012-12-09T10:51:59Z</time>
      </trkpt>
      <trkpt lat="45.63976" lon="6.03844">
        <ele>1825</ele>
        <time>2012-12-09T10:52:01Z</time>
      </trkpt>
      <trkpt lat="45.63977" lon="6.03845">
        <ele>1825</ele>
        <time>2012-12-09T10:52:04Z</time>
      </trkpt>
      <trkpt lat="45.63979" lon="6.03847">
        <ele>1825</ele>
        <time>2012-12-09T10:52:06Z</time>
      </trkpt>
      <trkpt lat="45.63981" lon="6.03848">
        <ele>1825</ele>
        <time>2012-12-09T10:52:08Z</time>
      </trkpt>
      <trkpt lat="45.63983" lon="6.03849">
        <ele>1825</ele>
        <time>2012-12-09T10:52:10Z</time>
      </trkpt>
      <trkpt lat="45.63985" lon="6.03851">
        <ele>1825</ele>
        <time>2012-12-09T10:52:12Z</time>
      </trkpt>
      <trkpt lat="45.63987" lon="6.03852">
        <ele>1826</ele>
        <time>2012-12-09T10:52:14Z</time>
      </trkpt>
      <trkpt lat="45.63989" lon="6.03853">
        <ele>1826</ele>
        <time>2012-12-09T10:52:16Z</time>
      </trkpt>
      <trkpt lat="45.6399" lon="6.03855">
        <ele>1826</ele>
        <time>2012-12-09T10:52:18Z</time>
      </trkpt>
      <trkpt lat="45.63992" lon="6.03856">
        <ele>1826</ele>
        <time>2012-12-09T10:52:20Z</time>
      </trkpt>
      <trkpt lat="45.63994" lon="6.03858">
        <ele>1827</ele>
        <time>2012-12-09T10:52:22Z</time>
      </trkpt>
      <trkpt lat="45.63996" lon="6.03859">
        <ele>1827</ele>
        <time>2012-12-09T10:52:24Z</time>
      </trkpt>
      <trkpt lat="45.63998" lon="6.03861">
        <ele>1827</ele>
        <time>2012-12-09T10:52:26Z</time>
      </trkpt>
      <trkpt lat="45.63999" lon="6.03862">
        <ele>1827</ele>
        <time>2012-12-09T10:52:28Z</time>
      </trkpt>
      <trkpt lat="45.64001" lon="6.03864">
        <ele>1827</ele>
        <time>2012-12-09T10:52:30Z</time>
      </trkpt>
      <trkpt lat="45.64003" lon="6.03866">
        <ele>1827</ele>
        <time>2012-12-09T10:52:32Z</time>
      </trkpt>
      <trkpt lat="45.64004" lon="6.03867">
        <ele>1827</ele>
        <time>2012-12-09T10:52:34Z</time>
      </trkpt>
      <trkpt lat="45.64007" lon="6.03869">
        <ele>1827</ele>
        <time>2012-12-09T10:52:36Z</time>
      </trkpt>
      <trkpt lat="45.64009" lon="6.03872">
        <ele>1827</ele>
        <time>2012-12-09T10:52:38Z</time>
      </trkpt>
      <trkpt lat="45.64012" lon="6.03874">
        <ele>1827</ele>
        <time>2012-12-09T10:52:40Z</time>
      </trkpt>
      <trkpt lat="45.64015" lon="6.03877">
        <ele>1827</ele>
        <time>2012-12-09T10:52:42Z</time>
      </trkpt>
      <trkpt lat="45.64017" lon="6.03879">
        <ele>1827</ele>
        <time>2012-12-09T10:52:44Z</time>
      </trkpt>
      <trkpt lat="45.64019" lon="6.0388">
        <ele>1827</ele>
        <time>2012-12-09T10:52:46Z</time>
      </trkpt>
      <trkpt lat="45.6402" lon="6.03881">
        <ele>1827</ele>
        <time>2012-12-09T10:52:48Z</time>
      </trkpt>
      <trkpt lat="45.64022" lon="6.03882">
        <ele>1827</ele>
        <time>2012-12-09T10:52:50Z</time>
      </trkpt>
      <trkpt lat="45.64024" lon="6.03883">
        <ele>1827</ele>
        <time>2012-12-09T10:52:52Z</time>
      </trkpt>
      <trkpt lat="45.64025" lon="6.03885">
        <ele>1827</ele>
        <time>2012-12-09T10:52:54Z</time>
      </trkpt>
      <trkpt lat="45.64027" lon="6.03886">
        <ele>1827</ele>
        <time>2012-12-09T10:52:56Z</time>
      </trkpt>
      <trkpt lat="45.64029" lon="6.03887">
        <ele>1827</ele>
        <time>2012-12-09T10:52:58Z</time>
      </trkpt>
      <trkpt lat="45.6403" lon="6.03888">
        <ele>1827</ele>
        <time>2012-12-09T10:53:00Z</time>
      </trkpt>
      <trkpt lat="45.64032" lon="6.0389">
        <ele>1827</ele>
        <time>2012-12-09T10:53:02Z</time>
      </trkpt>
      <trkpt lat="45.64034" lon="6.03891">
        <ele>1827</ele>
        <time>2012-12-09T10:53:04Z</time>
      </trkpt>
      <trkpt lat="45.64035" lon="6.03893">
        <ele>1827</ele>
        <time>2012-12-09T10:53:06Z</time>
      </trkpt>
      <trkpt lat="45.64037" lon="6.03895">
        <ele>1827</ele>
        <time>2012-12-09T10:53:08Z</time>
      </trkpt>
      <trkpt lat="45.64039" lon="6.03897">
        <ele>1828</ele>
        <time>2012-12-09T10:53:10Z</time>
      </trkpt>
      <trkpt lat="45.64041" lon="6.03899">
        <ele>1828</ele>
        <time>2012-12-09T10:53:12Z</time>
      </trkpt>
      <trkpt lat="45.64043" lon="6.03901">
        <ele>1828</ele>
        <time>2012-12-09T10:53:14Z</time>
      </trkpt>
      <trkpt lat="45.64045" lon="6.03903">
        <ele>1828</ele>
        <time>2012-12-09T10:53:16Z</time>
      </trkpt>
      <trkpt lat="45.64046" lon="6.03906">
        <ele>1828</ele>
        <time>2012-12-09T10:53:18Z</time>
      </trkpt>
      <trkpt lat="45.64048" lon="6.03908">
        <ele>1828</ele>
        <time>2012-12-09T10:53:20Z</time>
      </trkpt>
      <trkpt lat="45.64049" lon="6.0391">
        <ele>1828</ele>
        <time>2012-12-09T10:53:22Z</time>
      </trkpt>
      <trkpt lat="45.64051" lon="6.03911">
        <ele>1828</ele>
        <time>2012-12-09T10:53:24Z</time>
      </trkpt>
      <trkpt lat="45.64052" lon="6.03913">
        <ele>1828</ele>
        <time>2012-12-09T10:53:26Z</time>
      </trkpt>
      <trkpt lat="45.64053" lon="6.03915">
        <ele>1828</ele>
        <time>2012-12-09T10:53:28Z</time>
      </trkpt>
      <trkpt lat="45.64045" lon="6.03919">
        <ele>1828</ele>
        <time>2012-12-09T10:53:32Z</time>
      </trkpt>
      <trkpt lat="45.64039" lon="6.03926">
        <ele>1827</ele>
        <time>2012-12-09T10:53:34Z</time>
      </trkpt>
      <trkpt lat="45.64032" lon="6.03933">
        <ele>1825</ele>
        <time>2012-12-09T10:53:36Z</time>
      </trkpt>
      <trkpt lat="45.64023" lon="6.03942">
        <ele>1823</ele>
        <time>2012-12-09T10:53:38Z</time>
      </trkpt>
      <trkpt lat="45.64019" lon="6.03957">
        <ele>1821</ele>
        <time>2012-12-09T10:53:40Z</time>
      </trkpt>
      <trkpt lat="45.64012" lon="6.03968">
        <ele>1818</ele>
        <time>2012-12-09T10:53:42Z</time>
      </trkpt>
      <trkpt lat="45.64005" lon="6.03975">
        <ele>1814</ele>
        <time>2012-12-09T10:53:44Z</time>
      </trkpt>
      <trkpt lat="45.64" lon="6.0398">
        <ele>1810</ele>
        <time>2012-12-09T10:53:46Z</time>
      </trkpt>
      <trkpt lat="45.63999" lon="6.03992">
        <ele>1806</ele>
        <time>2012-12-09T10:53:48Z</time>
      </trkpt>
      <trkpt lat="45.63997" lon="6.04004">
        <ele>1802</ele>
        <time>2012-12-09T10:53:50Z</time>
      </trkpt>
      <trkpt lat="45.63997" lon="6.04011">
        <ele>1798</ele>
        <time>2012-12-09T10:53:52Z</time>
      </trkpt>
      <trkpt lat="45.63993" lon="6.04014">
        <ele>1794</ele>
        <time>2012-12-09T10:53:54Z</time>
      </trkpt>
      <trkpt lat="45.63988" lon="6.04013">
        <ele>1790</ele>
        <time>2012-12-09T10:53:56Z</time>
      </trkpt>
      <trkpt lat="45.63984" lon="6.0401">
        <ele>1786</ele>
        <time>2012-12-09T10:53:58Z</time>
      </trkpt>
      <trkpt lat="45.63979" lon="6.04007">
        <ele>1783</ele>
        <time>2012-12-09T10:54:00Z</time>
      </trkpt>
      <trkpt lat="45.63977" lon="6.04006">
        <ele>1781</ele>
        <time>2012-12-09T10:54:02Z</time>
      </trkpt>
      <trkpt lat="45.63976" lon="6.04006">
        <ele>1779</ele>
        <time>2012-12-09T10:54:04Z</time>
      </trkpt>
      <trkpt lat="45.63975" lon="6.04008">
        <ele>1777</ele>
        <time>2012-12-09T10:54:08Z</time>
      </trkpt>
      <trkpt lat="45.63974" lon="6.0401">
        <ele>1776</ele>
        <time>2012-12-09T10:54:11Z</time>
      </trkpt>
      <trkpt lat="45.63974" lon="6.04013">
        <ele>1776</ele>
        <time>2012-12-09T10:54:13Z</time>
      </trkpt>
      <trkpt lat="45.63973" lon="6.04017">
        <ele>1776</ele>
        <time>2012-12-09T10:54:15Z</time>
      </trkpt>
      <trkpt lat="45.63971" lon="6.04024">
        <ele>1775</ele>
        <time>2012-12-09T10:54:17Z</time>
      </trkpt>
      <trkpt lat="45.63969" lon="6.0403">
        <ele>1775</ele>
        <time>2012-12-09T10:54:19Z</time>
      </trkpt>
      <trkpt lat="45.6396" lon="6.04033">
        <ele>1773</ele>
        <time>2012-12-09T10:54:24Z</time>
      </trkpt>
      <trkpt lat="45.63953" lon="6.04035">
        <ele>1771</ele>
        <time>2012-12-09T10:54:26Z</time>
      </trkpt>
      <trkpt lat="45.63948" lon="6.04044">
        <ele>1770</ele>
        <time>2012-12-09T10:54:28Z</time>
      </trkpt>
      <trkpt lat="45.63941" lon="6.04056">
        <ele>1768</ele>
        <time>2012-12-09T10:54:30Z</time>
      </trkpt>
      <trkpt lat="45.63934" lon="6.04069">
        <ele>1766</ele>
        <time>2012-12-09T10:54:32Z</time>
      </trkpt>
      <trkpt lat="45.63927" lon="6.04078">
        <ele>1764</ele>
        <time>2012-12-09T10:54:34Z</time>
      </trkpt>
      <trkpt lat="45.63923" lon="6.04076">
        <ele>1762</ele>
        <time>2012-12-09T10:54:36Z</time>
      </trkpt>
      <trkpt lat="45.63917" lon="6.04075">
        <ele>1760</ele>
        <time>2012-12-09T10:54:38Z</time>
      </trkpt>
      <trkpt lat="45.6391" lon="6.04075">
        <ele>1758</ele>
        <time>2012-12-09T10:54:40Z</time>
      </trkpt>
      <trkpt lat="45.63902" lon="6.04078">
        <ele>1755</ele>
        <time>2012-12-09T10:54:42Z</time>
      </trkpt>
      <trkpt lat="45.63895" lon="6.04088">
        <ele>1753</ele>
        <time>2012-12-09T10:54:44Z</time>
      </trkpt>
      <trkpt lat="45.63889" lon="6.04108">
        <ele>1749</ele>
        <time>2012-12-09T10:54:46Z</time>
      </trkpt>
      <trkpt lat="45.63887" lon="6.04137">
        <ele>1745</ele>
        <time>2012-12-09T10:54:48Z</time>
      </trkpt>
      <trkpt lat="45.63883" lon="6.04166">
        <ele>1741</ele>
        <time>2012-12-09T10:54:50Z</time>
      </trkpt>
      <trkpt lat="45.63882" lon="6.04192">
        <ele>1737</ele>
        <time>2012-12-09T10:54:52Z</time>
      </trkpt>
      <trkpt lat="45.63881" lon="6.04211">
        <ele>1733</ele>
        <time>2012-12-09T10:54:54Z</time>
      </trkpt>
      <trkpt lat="45.63878" lon="6.04223">
        <ele>1731</ele>
        <time>2012-12-09T10:54:56Z</time>
      </trkpt>
      <trkpt lat="45.63877" lon="6.04234">
        <ele>1729</ele>
        <time>2012-12-09T10:54:58Z</time>
      </trkpt>
      <trkpt lat="45.63876" lon="6.04243">
        <ele>1727</ele>
        <time>2012-12-09T10:55:00Z</time>
      </trkpt>
      <trkpt lat="45.63876" lon="6.04252">
        <ele>1725</ele>
        <time>2012-12-09T10:55:02Z</time>
      </trkpt>
      <trkpt lat="45.63875" lon="6.04261">
        <ele>1723</ele>
        <time>2012-12-09T10:55:04Z</time>
      </trkpt>
      <trkpt lat="45.63874" lon="6.04268">
        <ele>1722</ele>
        <time>2012-12-09T10:55:06Z</time>
      </trkpt>
      <trkpt lat="45.63876" lon="6.04272">
        <ele>1721</ele>
        <time>2012-12-09T10:55:09Z</time>
      </trkpt>
      <trkpt lat="45.63876" lon="6.04274">
        <ele>1720</ele>
        <time>2012-12-09T10:55:12Z</time>
      </trkpt>
      <trkpt lat="45.63877" lon="6.04276">
        <ele>1719</ele>
        <time>2012-12-09T10:55:16Z</time>
      </trkpt>
      <trkpt lat="45.63878" lon="6.04278">
        <ele>1719</ele>
        <time>2012-12-09T10:55:19Z</time>
      </trkpt>
      <trkpt lat="45.63878" lon="6.04281">
        <ele>1718</ele>
        <time>2012-12-09T10:55:21Z</time>
      </trkpt>
      <trkpt lat="45.6388" lon="6.04285">
        <ele>1717</ele>
        <time>2012-12-09T10:55:24Z</time>
      </trkpt>
      <trkpt lat="45.63881" lon="6.04292">
        <ele>1716</ele>
        <time>2012-12-09T10:55:26Z</time>
      </trkpt>
      <trkpt lat="45.63881" lon="6.04298">
        <ele>1715</ele>
        <time>2012-12-09T10:55:28Z</time>
      </trkpt>
      <trkpt lat="45.63881" lon="6.043">
        <ele>1715</ele>
        <time>2012-12-09T10:55:30Z</time>
      </trkpt>
      <trkpt lat="45.63882" lon="6.04304">
        <ele>1714</ele>
        <time>2012-12-09T10:55:33Z</time>
      </trkpt>
      <trkpt lat="45.63883" lon="6.04309">
        <ele>1713</ele>
        <time>2012-12-09T10:55:35Z</time>
      </trkpt>
      <trkpt lat="45.63892" lon="6.0432">
        <ele>1709</ele>
        <time>2012-12-09T10:55:41Z</time>
      </trkpt>
      <trkpt lat="45.63896" lon="6.04326">
        <ele>1708</ele>
        <time>2012-12-09T10:55:43Z</time>
      </trkpt>
      <trkpt lat="45.63901" lon="6.04337">
        <ele>1707</ele>
        <time>2012-12-09T10:55:45Z</time>
      </trkpt>
      <trkpt lat="45.63907" lon="6.04347">
        <ele>1705</ele>
        <time>2012-12-09T10:55:47Z</time>
      </trkpt>
      <trkpt lat="45.63914" lon="6.04356">
        <ele>1703</ele>
        <time>2012-12-09T10:55:49Z</time>
      </trkpt>
      <trkpt lat="45.63918" lon="6.0436">
        <ele>1701</ele>
        <time>2012-12-09T10:55:51Z</time>
      </trkpt>
      <trkpt lat="45.63919" lon="6.04364">
        <ele>1699</ele>
        <time>2012-12-09T10:55:53Z</time>
      </trkpt>
      <trkpt lat="45.63921" lon="6.04369">
        <ele>1699</ele>
        <time>2012-12-09T10:55:55Z</time>
      </trkpt>
      <trkpt lat="45.63922" lon="6.04374">
        <ele>1698</ele>
        <time>2012-12-09T10:55:58Z</time>
      </trkpt>
      <trkpt lat="45.63923" lon="6.04376">
        <ele>1698</ele>
        <time>2012-12-09T10:56:01Z</time>
      </trkpt>
      <trkpt lat="45.63923" lon="6.04377">
        <ele>1698</ele>
        <time>2012-12-09T10:56:03Z</time>
      </trkpt>
      <trkpt lat="45.63924" lon="6.0438">
        <ele>1697</ele>
        <time>2012-12-09T10:56:05Z</time>
      </trkpt>
      <trkpt lat="45.63927" lon="6.04386">
        <ele>1697</ele>
        <time>2012-12-09T10:56:07Z</time>
      </trkpt>
      <trkpt lat="45.63932" lon="6.04394">
        <ele>1696</ele>
        <time>2012-12-09T10:56:09Z</time>
      </trkpt>
      <trkpt lat="45.63936" lon="6.04403">
        <ele>1695</ele>
        <time>2012-12-09T10:56:11Z</time>
      </trkpt>
      <trkpt lat="45.63942" lon="6.04412">
        <ele>1693</ele>
        <time>2012-12-09T10:56:13Z</time>
      </trkpt>
      <trkpt lat="45.63947" lon="6.04421">
        <ele>1692</ele>
        <time>2012-12-09T10:56:15Z</time>
      </trkpt>
      <trkpt lat="45.63951" lon="6.04425">
        <ele>1691</ele>
        <time>2012-12-09T10:56:17Z</time>
      </trkpt>
      <trkpt lat="45.63948" lon="6.04439">
        <ele>1689</ele>
        <time>2012-12-09T10:56:22Z</time>
      </trkpt>
      <trkpt lat="45.63944" lon="6.04456">
        <ele>1687</ele>
        <time>2012-12-09T10:56:24Z</time>
      </trkpt>
      <trkpt lat="45.63945" lon="6.04475">
        <ele>1685</ele>
        <time>2012-12-09T10:56:26Z</time>
      </trkpt>
      <trkpt lat="45.63948" lon="6.04497">
        <ele>1683</ele>
        <time>2012-12-09T10:56:28Z</time>
      </trkpt>
      <trkpt lat="45.63953" lon="6.0452">
        <ele>1680</ele>
        <time>2012-12-09T10:56:30Z</time>
      </trkpt>
      <trkpt lat="45.63958" lon="6.04538">
        <ele>1676</ele>
        <time>2012-12-09T10:56:32Z</time>
      </trkpt>
      <trkpt lat="45.6396" lon="6.04549">
        <ele>1672</ele>
        <time>2012-12-09T10:56:34Z</time>
      </trkpt>
      <trkpt lat="45.63962" lon="6.04565">
        <ele>1668</ele>
        <time>2012-12-09T10:56:36Z</time>
      </trkpt>
      <trkpt lat="45.63965" lon="6.04582">
        <ele>1664</ele>
        <time>2012-12-09T10:56:38Z</time>
      </trkpt>
      <trkpt lat="45.63966" lon="6.04598">
        <ele>1660</ele>
        <time>2012-12-09T10:56:40Z</time>
      </trkpt>
      <trkpt lat="45.63968" lon="6.04612">
        <ele>1656</ele>
        <time>2012-12-09T10:56:42Z</time>
      </trkpt>
      <trkpt lat="45.63967" lon="6.04625">
        <ele>1652</ele>
        <time>2012-12-09T10:56:44Z</time>
      </trkpt>
      <trkpt lat="45.63964" lon="6.04636">
        <ele>1648</ele>
        <time>2012-12-09T10:56:46Z</time>
      </trkpt>
      <trkpt lat="45.63966" lon="6.04648">
        <ele>1644</ele>
        <time>2012-12-09T10:56:48Z</time>
      </trkpt>
      <trkpt lat="45.63964" lon="6.04661">
        <ele>1640</ele>
        <time>2012-12-09T10:56:50Z</time>
      </trkpt>
      <trkpt lat="45.63959" lon="6.04672">
        <ele>1636</ele>
        <time>2012-12-09T10:56:52Z</time>
      </trkpt>
      <trkpt lat="45.63953" lon="6.04678">
        <ele>1632</ele>
        <time>2012-12-09T10:56:54Z</time>
      </trkpt>
      <trkpt lat="45.63948" lon="6.04688">
        <ele>1628</ele>
        <time>2012-12-09T10:56:56Z</time>
      </trkpt>
      <trkpt lat="45.63946" lon="6.04697">
        <ele>1624</ele>
        <time>2012-12-09T10:56:58Z</time>
      </trkpt>
      <trkpt lat="45.63945" lon="6.04702">
        <ele>1620</ele>
        <time>2012-12-09T10:57:00Z</time>
      </trkpt>
      <trkpt lat="45.63944" lon="6.04704">
        <ele>1616</ele>
        <time>2012-12-09T10:57:02Z</time>
      </trkpt>
      <trkpt lat="45.63951" lon="6.04714">
        <ele>1608</ele>
        <time>2012-12-09T10:57:06Z</time>
      </trkpt>
      <trkpt lat="45.63956" lon="6.04725">
        <ele>1606</ele>
        <time>2012-12-09T10:57:08Z</time>
      </trkpt>
      <trkpt lat="45.63962" lon="6.04742">
        <ele>1604</ele>
        <time>2012-12-09T10:57:10Z</time>
      </trkpt>
      <trkpt lat="45.63968" lon="6.04764">
        <ele>1602</ele>
        <time>2012-12-09T10:57:12Z</time>
      </trkpt>
      <trkpt lat="45.63971" lon="6.04787">
        <ele>1600</ele>
        <time>2012-12-09T10:57:14Z</time>
      </trkpt>
      <trkpt lat="45.63976" lon="6.04808">
        <ele>1598</ele>
        <time>2012-12-09T10:57:16Z</time>
      </trkpt>
      <trkpt lat="45.63976" lon="6.04827">
        <ele>1596</ele>
        <time>2012-12-09T10:57:18Z</time>
      </trkpt>
      <trkpt lat="45.63982" lon="6.04845">
        <ele>1593</ele>
        <time>2012-12-09T10:57:20Z</time>
      </trkpt>
      <trkpt lat="45.63988" lon="6.04866">
        <ele>1589</ele>
        <time>2012-12-09T10:57:22Z</time>
      </trkpt>
      <trkpt lat="45.63993" lon="6.04888">
        <ele>1585</ele>
        <time>2012-12-09T10:57:24Z</time>
      </trkpt>
      <trkpt lat="45.63998" lon="6.04912">
        <ele>1581</ele>
        <time>2012-12-09T10:57:26Z</time>
      </trkpt>
      <trkpt lat="45.64006" lon="6.04932">
        <ele>1577</ele>
        <time>2012-12-09T10:57:28Z</time>
      </trkpt>
      <trkpt lat="45.64017" lon="6.04949">
        <ele>1573</ele>
        <time>2012-12-09T10:57:30Z</time>
      </trkpt>
      <trkpt lat="45.64027" lon="6.04965">
        <ele>1569</ele>
        <time>2012-12-09T10:57:32Z</time>
      </trkpt>
      <trkpt lat="45.64028" lon="6.0498">
        <ele>1565</ele>
        <time>2012-12-09T10:57:34Z</time>
      </trkpt>
      <trkpt lat="45.6403" lon="6.04992">
        <ele>1561</ele>
        <time>2012-12-09T10:57:36Z</time>
      </trkpt>
      <trkpt lat="45.64032" lon="6.05001">
        <ele>1557</ele>
        <time>2012-12-09T10:57:38Z</time>
      </trkpt>
      <trkpt lat="45.64033" lon="6.05011">
        <ele>1553</ele>
        <time>2012-12-09T10:57:40Z</time>
      </trkpt>
      <trkpt lat="45.64034" lon="6.05017">
        <ele>1550</ele>
        <time>2012-12-09T10:57:42Z</time>
      </trkpt>
      <trkpt lat="45.64035" lon="6.05021">
        <ele>1547</ele>
        <time>2012-12-09T10:57:45Z</time>
      </trkpt>
      <trkpt lat="45.64035" lon="6.05022">
        <ele>1545</ele>
        <time>2012-12-09T10:57:47Z</time>
      </trkpt>
      <trkpt lat="45.64035" lon="6.05024">
        <ele>1541</ele>
        <time>2012-12-09T10:57:51Z</time>
      </trkpt>
      <trkpt lat="45.64035" lon="6.05025">
        <ele>1539</ele>
        <time>2012-12-09T10:57:54Z</time>
      </trkpt>
      <trkpt lat="45.64037" lon="6.05035">
        <ele>1536</ele>
        <time>2012-12-09T10:57:56Z</time>
      </trkpt>
      <trkpt lat="45.64043" lon="6.05051">
        <ele>1535</ele>
        <time>2012-12-09T10:57:58Z</time>
      </trkpt>
      <trkpt lat="45.64052" lon="6.0507">
        <ele>1533</ele>
        <time>2012-12-09T10:58:00Z</time>
      </trkpt>
      <trkpt lat="45.64065" lon="6.0508">
        <ele>1531</ele>
        <time>2012-12-09T10:58:02Z</time>
      </trkpt>
      <trkpt lat="45.64077" lon="6.05091">
        <ele>1529</ele>
        <time>2012-12-09T10:58:04Z</time>
      </trkpt>
      <trkpt lat="45.64086" lon="6.05111">
        <ele>1527</ele>
        <time>2012-12-09T10:58:06Z</time>
      </trkpt>
      <trkpt lat="45.64091" lon="6.05137">
        <ele>1523</ele>
        <time>2012-12-09T10:58:08Z</time>
      </trkpt>
      <trkpt lat="45.64095" lon="6.0517">
        <ele>1519</ele>
        <time>2012-12-09T10:58:10Z</time>
      </trkpt>
      <trkpt lat="45.64107" lon="6.05201">
        <ele>1515</ele>
        <time>2012-12-09T10:58:12Z</time>
      </trkpt>
      <trkpt lat="45.64121" lon="6.05229">
        <ele>1509</ele>
        <time>2012-12-09T10:58:14Z</time>
      </trkpt>
      <trkpt lat="45.64133" lon="6.05258">
        <ele>1504</ele>
        <time>2012-12-09T10:58:16Z</time>
      </trkpt>
      <trkpt lat="45.64145" lon="6.05285">
        <ele>1499</ele>
        <time>2012-12-09T10:58:18Z</time>
      </trkpt>
      <trkpt lat="45.64155" lon="6.05314">
        <ele>1495</ele>
        <time>2012-12-09T10:58:20Z</time>
      </trkpt>
      <trkpt lat="45.64167" lon="6.0534">
        <ele>1490</ele>
        <time>2012-12-09T10:58:22Z</time>
      </trkpt>
      <trkpt lat="45.64178" lon="6.05367">
        <ele>1486</ele>
        <time>2012-12-09T10:58:24Z</time>
      </trkpt>
      <trkpt lat="45.64186" lon="6.05396">
        <ele>1481</ele>
        <time>2012-12-09T10:58:26Z</time>
      </trkpt>
      <trkpt lat="45.64191" lon="6.05426">
        <ele>1477</ele>
        <time>2012-12-09T10:58:28Z</time>
      </trkpt>
      <trkpt lat="45.64196" lon="6.05452">
        <ele>1473</ele>
        <time>2012-12-09T10:58:30Z</time>
      </trkpt>
      <trkpt lat="45.64201" lon="6.05473">
        <ele>1469</ele>
        <time>2012-12-09T10:58:32Z</time>
      </trkpt>
      <trkpt lat="45.64206" lon="6.0549">
        <ele>1465</ele>
        <time>2012-12-09T10:58:34Z</time>
      </trkpt>
      <trkpt lat="45.64211" lon="6.055">
        <ele>1463</ele>
        <time>2012-12-09T10:58:36Z</time>
      </trkpt>
      <trkpt lat="45.64213" lon="6.05501">
        <ele>1458</ele>
        <time>2012-12-09T10:58:41Z</time>
      </trkpt>
      <trkpt lat="45.64221" lon="6.05493">
        <ele>1457</ele>
        <time>2012-12-09T10:58:44Z</time>
      </trkpt>
      <trkpt lat="45.64229" lon="6.05487">
        <ele>1456</ele>
        <time>2012-12-09T10:58:46Z</time>
      </trkpt>
      <trkpt lat="45.64241" lon="6.05481">
        <ele>1455</ele>
        <time>2012-12-09T10:58:48Z</time>
      </trkpt>
      <trkpt lat="45.64258" lon="6.05484">
        <ele>1453</ele>
        <time>2012-12-09T10:58:50Z</time>
      </trkpt>
      <trkpt lat="45.64273" lon="6.05497">
        <ele>1451</ele>
        <time>2012-12-09T10:58:52Z</time>
      </trkpt>
      <trkpt lat="45.64284" lon="6.05515">
        <ele>1449</ele>
        <time>2012-12-09T10:58:54Z</time>
      </trkpt>
      <trkpt lat="45.6429" lon="6.05535">
        <ele>1447</ele>
        <time>2012-12-09T10:58:56Z</time>
      </trkpt>
      <trkpt lat="45.6429" lon="6.05553">
        <ele>1445</ele>
        <time>2012-12-09T10:58:58Z</time>
      </trkpt>
      <trkpt lat="45.64286" lon="6.05569">
        <ele>1443</ele>
        <time>2012-12-09T10:59:00Z</time>
      </trkpt>
      <trkpt lat="45.64285" lon="6.05584">
        <ele>1441</ele>
        <time>2012-12-09T10:59:02Z</time>
      </trkpt>
      <trkpt lat="45.64286" lon="6.05595">
        <ele>1439</ele>
        <time>2012-12-09T10:59:04Z</time>
      </trkpt>
      <trkpt lat="45.64288" lon="6.05602">
        <ele>1437</ele>
        <time>2012-12-09T10:59:06Z</time>
      </trkpt>
      <trkpt lat="45.6429" lon="6.05606">
        <ele>1437</ele>
        <time>2012-12-09T10:59:08Z</time>
      </trkpt>
      <trkpt lat="45.64292" lon="6.05608">
        <ele>1437</ele>
        <time>2012-12-09T10:59:10Z</time>
      </trkpt>
      <trkpt lat="45.64293" lon="6.0561">
        <ele>1437</ele>
        <time>2012-12-09T10:59:12Z</time>
      </trkpt>
      <trkpt lat="45.64294" lon="6.05613">
        <ele>1437</ele>
        <time>2012-12-09T10:59:14Z</time>
      </trkpt>
      <trkpt lat="45.64294" lon="6.05616">
        <ele>1437</ele>
        <time>2012-12-09T10:59:16Z</time>
      </trkpt>
      <trkpt lat="45.64295" lon="6.05619">
        <ele>1437</ele>
        <time>2012-12-09T10:59:18Z</time>
      </trkpt>
      <trkpt lat="45.64296" lon="6.05622">
        <ele>1437</ele>
        <time>2012-12-09T10:59:20Z</time>
      </trkpt>
      <trkpt lat="45.64298" lon="6.05627">
        <ele>1437</ele>
        <time>2012-12-09T10:59:22Z</time>
      </trkpt>
      <trkpt lat="45.64301" lon="6.05631">
        <ele>1437</ele>
        <time>2012-12-09T10:59:24Z</time>
      </trkpt>
      <trkpt lat="45.64303" lon="6.05636">
        <ele>1437</ele>
        <time>2012-12-09T10:59:26Z</time>
      </trkpt>
      <trkpt lat="45.64306" lon="6.05641">
        <ele>1437</ele>
        <time>2012-12-09T10:59:28Z</time>
      </trkpt>
      <trkpt lat="45.64308" lon="6.05645">
        <ele>1437</ele>
        <time>2012-12-09T10:59:30Z</time>
      </trkpt>
      <trkpt lat="45.64311" lon="6.05648">
        <ele>1437</ele>
        <time>2012-12-09T10:59:32Z</time>
      </trkpt>
      <trkpt lat="45.64316" lon="6.05651">
        <ele>1437</ele>
        <time>2012-12-09T10:59:34Z</time>
      </trkpt>
      <trkpt lat="45.64322" lon="6.05655">
        <ele>1436</ele>
        <time>2012-12-09T10:59:36Z</time>
      </trkpt>
      <trkpt lat="45.64327" lon="6.05658">
        <ele>1436</ele>
        <time>2012-12-09T10:59:38Z</time>
      </trkpt>
      <trkpt lat="45.64332" lon="6.0566">
        <ele>1436</ele>
        <time>2012-12-09T10:59:40Z</time>
      </trkpt>
      <trkpt lat="45.64335" lon="6.05662">
        <ele>1435</ele>
        <time>2012-12-09T10:59:42Z</time>
      </trkpt>
      <trkpt lat="45.64337" lon="6.05664">
        <ele>1435</ele>
        <time>2012-12-09T10:59:44Z</time>
      </trkpt>
      <trkpt lat="45.6434" lon="6.05664">
        <ele>1435</ele>
        <time>2012-12-09T10:59:47Z</time>
      </trkpt>
      <trkpt lat="45.64341" lon="6.05665">
        <ele>1435</ele>
        <time>2012-12-09T10:59:49Z</time>
      </trkpt>
      <trkpt lat="45.64343" lon="6.05666">
        <ele>1435</ele>
        <time>2012-12-09T10:59:51Z</time>
      </trkpt>
      <trkpt lat="45.64345" lon="6.05667">
        <ele>1435</ele>
        <time>2012-12-09T10:59:53Z</time>
      </trkpt>
      <trkpt lat="45.64348" lon="6.0567">
        <ele>1435</ele>
        <time>2012-12-09T10:59:55Z</time>
      </trkpt>
      <trkpt lat="45.64352" lon="6.05671">
        <ele>1435</ele>
        <time>2012-12-09T10:59:57Z</time>
      </trkpt>
      <trkpt lat="45.64355" lon="6.05672">
        <ele>1435</ele>
        <time>2012-12-09T10:59:59Z</time>
      </trkpt>
      <trkpt lat="45.64359" lon="6.05673">
        <ele>1435</ele>
        <time>2012-12-09T11:00:01Z</time>
      </trkpt>
      <trkpt lat="45.64363" lon="6.05674">
        <ele>1434</ele>
        <time>2012-12-09T11:00:03Z</time>
      </trkpt>
      <trkpt lat="45.64367" lon="6.05675">
        <ele>1433</ele>
        <time>2012-12-09T11:00:05Z</time>
      </trkpt>
      <trkpt lat="45.64371" lon="6.05677">
        <ele>1433</ele>
        <time>2012-12-09T11:00:07Z</time>
      </trkpt>
      <trkpt lat="45.64375" lon="6.05679">
        <ele>1432</ele>
        <time>2012-12-09T11:00:09Z</time>
      </trkpt>
      <trkpt lat="45.64378" lon="6.05679">
        <ele>1432</ele>
        <time>2012-12-09T11:00:11Z</time>
      </trkpt>
      <trkpt lat="45.64381" lon="6.05679">
        <ele>1432</ele>
        <time>2012-12-09T11:00:13Z</time>
      </trkpt>
      <trkpt lat="45.64383" lon="6.0568">
        <ele>1432</ele>
        <time>2012-12-09T11:00:15Z</time>
      </trkpt>
      <trkpt lat="45.64386" lon="6.05682">
        <ele>1432</ele>
        <time>2012-12-09T11:00:18Z</time>
      </trkpt>
      <trkpt lat="45.64387" lon="6.05683">
        <ele>1432</ele>
        <time>2012-12-09T11:00:20Z</time>
      </trkpt>
      <trkpt lat="45.64389" lon="6.05684">
        <ele>1432</ele>
        <time>2012-12-09T11:00:22Z</time>
      </trkpt>
      <trkpt lat="45.6439" lon="6.05684">
        <ele>1432</ele>
        <time>2012-12-09T11:00:24Z</time>
      </trkpt>
      <trkpt lat="45.64391" lon="6.05686">
        <ele>1432</ele>
        <time>2012-12-09T11:00:26Z</time>
      </trkpt>
      <trkpt lat="45.64392" lon="6.05687">
        <ele>1432</ele>
        <time>2012-12-09T11:00:29Z</time>
      </trkpt>
      <trkpt lat="45.64393" lon="6.05687">
        <ele>1432</ele>
        <time>2012-12-09T11:00:31Z</time>
      </trkpt>
      <trkpt lat="45.64395" lon="6.05687">
        <ele>1432</ele>
        <time>2012-12-09T11:00:33Z</time>
      </trkpt>
      <trkpt lat="45.64397" lon="6.05688">
        <ele>1432</ele>
        <time>2012-12-09T11:00:35Z</time>
      </trkpt>
      <trkpt lat="45.64397" lon="6.05691">
        <ele>1432</ele>
        <time>2012-12-09T11:00:37Z</time>
      </trkpt>
      <trkpt lat="45.64399" lon="6.05693">
        <ele>1432</ele>
        <time>2012-12-09T11:00:39Z</time>
      </trkpt>
      <trkpt lat="45.64401" lon="6.05697">
        <ele>1432</ele>
        <time>2012-12-09T11:00:41Z</time>
      </trkpt>
      <trkpt lat="45.64405" lon="6.05701">
        <ele>1432</ele>
        <time>2012-12-09T11:00:43Z</time>
      </trkpt>
      <trkpt lat="45.64408" lon="6.05707">
        <ele>1432</ele>
        <time>2012-12-09T11:00:45Z</time>
      </trkpt>
      <trkpt lat="45.64413" lon="6.05713">
        <ele>1432</ele>
        <time>2012-12-09T11:00:47Z</time>
      </trkpt>
      <trkpt lat="45.6442" lon="6.05721">
        <ele>1432</ele>
        <time>2012-12-09T11:00:49Z</time>
      </trkpt>
      <trkpt lat="45.64428" lon="6.05728">
        <ele>1432</ele>
        <time>2012-12-09T11:00:51Z</time>
      </trkpt>
      <trkpt lat="45.64436" lon="6.05738">
        <ele>1432</ele>
        <time>2012-12-09T11:00:53Z</time>
      </trkpt>
      <trkpt lat="45.64442" lon="6.05747">
        <ele>1431</ele>
        <time>2012-12-09T11:00:55Z</time>
      </trkpt>
      <trkpt lat="45.64448" lon="6.05756">
        <ele>1430</ele>
        <time>2012-12-09T11:00:57Z</time>
      </trkpt>
      <trkpt lat="45.64453" lon="6.05764">
        <ele>1430</ele>
        <time>2012-12-09T11:00:59Z</time>
      </trkpt>
      <trkpt lat="45.64457" lon="6.05774">
        <ele>1429</ele>
        <time>2012-12-09T11:01:01Z</time>
      </trkpt>
      <trkpt lat="45.64462" lon="6.05785">
        <ele>1428</ele>
        <time>2012-12-09T11:01:03Z</time>
      </trkpt>
      <trkpt lat="45.64466" lon="6.05796">
        <ele>1428</ele>
        <time>2012-12-09T11:01:05Z</time>
      </trkpt>
      <trkpt lat="45.64471" lon="6.05806">
        <ele>1427</ele>
        <time>2012-12-09T11:01:07Z</time>
      </trkpt>
      <trkpt lat="45.64476" lon="6.05816">
        <ele>1427</ele>
        <time>2012-12-09T11:01:09Z</time>
      </trkpt>
      <trkpt lat="45.6448" lon="6.05825">
        <ele>1426</ele>
        <time>2012-12-09T11:01:11Z</time>
      </trkpt>
      <trkpt lat="45.64484" lon="6.05833">
        <ele>1426</ele>
        <time>2012-12-09T11:01:13Z</time>
      </trkpt>
      <trkpt lat="45.64487" lon="6.0584">
        <ele>1425</ele>
        <time>2012-12-09T11:01:15Z</time>
      </trkpt>
      <trkpt lat="45.64491" lon="6.05846">
        <ele>1424</ele>
        <time>2012-12-09T11:01:17Z</time>
      </trkpt>
      <trkpt lat="45.64493" lon="6.05851">
        <ele>1424</ele>
        <time>2012-12-09T11:01:19Z</time>
      </trkpt>
      <trkpt lat="45.64495" lon="6.05858">
        <ele>1423</ele>
        <time>2012-12-09T11:01:21Z</time>
      </trkpt>
      <trkpt lat="45.64497" lon="6.05865">
        <ele>1422</ele>
        <time>2012-12-09T11:01:23Z</time>
      </trkpt>
      <trkpt lat="45.64498" lon="6.05873">
        <ele>1422</ele>
        <time>2012-12-09T11:01:25Z</time>
      </trkpt>
      <trkpt lat="45.64497" lon="6.05881">
        <ele>1421</ele>
        <time>2012-12-09T11:01:27Z</time>
      </trkpt>
      <trkpt lat="45.64494" lon="6.05889">
        <ele>1420</ele>
        <time>2012-12-09T11:01:29Z</time>
      </trkpt>
      <trkpt lat="45.64484" lon="6.05902">
        <ele>1419</ele>
        <time>2012-12-09T11:01:31Z</time>
      </trkpt>
      <trkpt lat="45.64472" lon="6.05916">
        <ele>1418</ele>
        <time>2012-12-09T11:01:33Z</time>
      </trkpt>
      <trkpt lat="45.64461" lon="6.0593">
        <ele>1417</ele>
        <time>2012-12-09T11:01:35Z</time>
      </trkpt>
      <trkpt lat="45.64448" lon="6.05942">
        <ele>1415</ele>
        <time>2012-12-09T11:01:37Z</time>
      </trkpt>
      <trkpt lat="45.64437" lon="6.05962">
        <ele>1413</ele>
        <time>2012-12-09T11:01:39Z</time>
      </trkpt>
      <trkpt lat="45.64425" lon="6.05985">
        <ele>1411</ele>
        <time>2012-12-09T11:01:41Z</time>
      </trkpt>
      <trkpt lat="45.64404" lon="6.06006">
        <ele>1408</ele>
        <time>2012-12-09T11:01:43Z</time>
      </trkpt>
      <trkpt lat="45.64385" lon="6.06024">
        <ele>1405</ele>
        <time>2012-12-09T11:01:45Z</time>
      </trkpt>
      <trkpt lat="45.64368" lon="6.06038">
        <ele>1403</ele>
        <time>2012-12-09T11:01:47Z</time>
      </trkpt>
      <trkpt lat="45.64353" lon="6.0605">
        <ele>1401</ele>
        <time>2012-12-09T11:01:49Z</time>
      </trkpt>
      <trkpt lat="45.64341" lon="6.0606">
        <ele>1399</ele>
        <time>2012-12-09T11:01:51Z</time>
      </trkpt>
      <trkpt lat="45.64332" lon="6.06067">
        <ele>1397</ele>
        <time>2012-12-09T11:01:53Z</time>
      </trkpt>
      <trkpt lat="45.64325" lon="6.06073">
        <ele>1396</ele>
        <time>2012-12-09T11:01:55Z</time>
      </trkpt>
      <trkpt lat="45.6432" lon="6.06077">
        <ele>1396</ele>
        <time>2012-12-09T11:01:57Z</time>
      </trkpt>
      <trkpt lat="45.64317" lon="6.06079">
        <ele>1396</ele>
        <time>2012-12-09T11:01:59Z</time>
      </trkpt>
      <trkpt lat="45.64307" lon="6.06085">
        <ele>1392</ele>
        <time>2012-12-09T11:02:10Z</time>
      </trkpt>
      <trkpt lat="45.64307" lon="6.06087">
        <ele>1392</ele>
        <time>2012-12-09T11:02:12Z</time>
      </trkpt>
      <trkpt lat="45.64305" lon="6.06089">
        <ele>1392</ele>
        <time>2012-12-09T11:02:14Z</time>
      </trkpt>
      <trkpt lat="45.64304" lon="6.06091">
        <ele>1392</ele>
        <time>2012-12-09T11:02:16Z</time>
      </trkpt>
      <trkpt lat="45.64302" lon="6.06092">
        <ele>1392</ele>
        <time>2012-12-09T11:02:18Z</time>
      </trkpt>
      <trkpt lat="45.643" lon="6.06094">
        <ele>1392</ele>
        <time>2012-12-09T11:02:20Z</time>
      </trkpt>
      <trkpt lat="45.64298" lon="6.06097">
        <ele>1392</ele>
        <time>2012-12-09T11:02:23Z</time>
      </trkpt>
      <trkpt lat="45.64296" lon="6.06098">
        <ele>1392</ele>
        <time>2012-12-09T11:02:25Z</time>
      </trkpt>
      <trkpt lat="45.64295" lon="6.06099">
        <ele>1392</ele>
        <time>2012-12-09T11:02:27Z</time>
      </trkpt>
      <trkpt lat="45.64294" lon="6.06098">
        <ele>1392</ele>
        <time>2012-12-09T11:02:30Z</time>
      </trkpt>
      <trkpt lat="45.64286" lon="6.06105">
        <ele>1392</ele>
        <time>2012-12-09T11:02:32Z</time>
      </trkpt>
      <trkpt lat="45.64285" lon="6.06107">
        <ele>1392</ele>
        <time>2012-12-09T11:02:34Z</time>
      </trkpt>
      <trkpt lat="45.64283" lon="6.06108">
        <ele>1392</ele>
        <time>2012-12-09T11:02:36Z</time>
      </trkpt>
      <trkpt lat="45.64284" lon="6.06107">
        <ele>1392</ele>
        <time>2012-12-09T11:02:40Z</time>
      </trkpt>
    </trkseg>
  </trk>
</gpx>